<?xml version="1.0" encoding="UTF-8" standalone="no" ?>
<gpx xmlns="http://www.topografix.com/GPX/1/1" xmlns:xsi="http://www.w3.org/2001/XMLSchema-instance" xsi:schemaLocation="http://www.topografix.com/GPX/1/1 http://www.topografix.com/GPX/1/1/gpx.xsd" version="1.1" creator="VisuGPX - https://www.visugpx.com">
  <metadata>
    <name>Pèlerinage en Dordogne J3</name>
    <desc><![CDATA[Jusqu'à Marmande]]></desc>
  </metadata>
  <trk>
    <name><![CDATA[Sur les routes de la Dordogne PART 3]]></name>
    <trkseg>
      <trkpt lat="44.85736" lon="0.48273">
        <ele>54.4</ele>
        <time>2015-10-05T06:31:49Z</time>
      </trkpt>
      <trkpt lat="44.85747" lon="0.48279">
        <ele>54.6</ele>
        <time>2015-10-05T06:32:37Z</time>
      </trkpt>
      <trkpt lat="44.85752" lon="0.48278">
        <ele>54.8</ele>
        <time>2015-10-05T06:32:39Z</time>
      </trkpt>
      <trkpt lat="44.85778" lon="0.4827">
        <ele>54.6</ele>
        <time>2015-10-05T06:32:47Z</time>
      </trkpt>
      <trkpt lat="44.85783" lon="0.48265">
        <ele>54.6</ele>
        <time>2015-10-05T06:32:49Z</time>
      </trkpt>
      <trkpt lat="44.85785" lon="0.48257">
        <ele>54.6</ele>
        <time>2015-10-05T06:32:51Z</time>
      </trkpt>
      <trkpt lat="44.85783" lon="0.4824">
        <ele>54.6</ele>
        <time>2015-10-05T06:32:55Z</time>
      </trkpt>
      <trkpt lat="44.85783" lon="0.48236">
        <ele>54.6</ele>
        <time>2015-10-05T06:32:56Z</time>
      </trkpt>
      <trkpt lat="44.85781" lon="0.48207">
        <ele>54.8</ele>
        <time>2015-10-05T06:33:03Z</time>
      </trkpt>
      <trkpt lat="44.8578" lon="0.48192">
        <ele>55</ele>
        <time>2015-10-05T06:33:08Z</time>
      </trkpt>
      <trkpt lat="44.85776" lon="0.48172">
        <ele>55</ele>
        <time>2015-10-05T06:33:14Z</time>
      </trkpt>
      <trkpt lat="44.85772" lon="0.48143">
        <ele>54.8</ele>
        <time>2015-10-05T06:33:21Z</time>
      </trkpt>
      <trkpt lat="44.85767" lon="0.48107">
        <ele>54.4</ele>
        <time>2015-10-05T06:33:29Z</time>
      </trkpt>
      <trkpt lat="44.8576" lon="0.48088">
        <ele>54</ele>
        <time>2015-10-05T06:33:34Z</time>
      </trkpt>
      <trkpt lat="44.85758" lon="0.48088">
        <ele>54</ele>
        <time>2015-10-05T06:33:35Z</time>
      </trkpt>
      <trkpt lat="44.85749" lon="0.48095">
        <ele>53.8</ele>
        <time>2015-10-05T06:33:39Z</time>
      </trkpt>
      <trkpt lat="44.85747" lon="0.48097">
        <ele>54</ele>
        <time>2015-10-05T06:33:40Z</time>
      </trkpt>
      <trkpt lat="44.85738" lon="0.48116">
        <ele>54.6</ele>
        <time>2015-10-05T06:33:46Z</time>
      </trkpt>
      <trkpt lat="44.85723" lon="0.48145">
        <ele>54.6</ele>
        <time>2015-10-05T06:33:54Z</time>
      </trkpt>
      <trkpt lat="44.8571" lon="0.48166">
        <ele>54.8</ele>
        <time>2015-10-05T06:33:59Z</time>
      </trkpt>
      <trkpt lat="44.85703" lon="0.48174">
        <ele>54.8</ele>
        <time>2015-10-05T06:34:01Z</time>
      </trkpt>
      <trkpt lat="44.85674" lon="0.48201">
        <ele>55</ele>
        <time>2015-10-05T06:34:08Z</time>
      </trkpt>
      <trkpt lat="44.85636" lon="0.48227">
        <ele>55</ele>
        <time>2015-10-05T06:34:16Z</time>
      </trkpt>
      <trkpt lat="44.85607" lon="0.48253">
        <ele>54.8</ele>
        <time>2015-10-05T06:34:23Z</time>
      </trkpt>
      <trkpt lat="44.85584" lon="0.48271">
        <ele>54.6</ele>
        <time>2015-10-05T06:34:29Z</time>
      </trkpt>
      <trkpt lat="44.85581" lon="0.48271">
        <ele>54.4</ele>
        <time>2015-10-05T06:34:30Z</time>
      </trkpt>
      <trkpt lat="44.85576" lon="0.48266">
        <ele>54.6</ele>
        <time>2015-10-05T06:34:32Z</time>
      </trkpt>
      <trkpt lat="44.85559" lon="0.4826">
        <ele>54.4</ele>
        <time>2015-10-05T06:34:36Z</time>
      </trkpt>
      <trkpt lat="44.85555" lon="0.48258">
        <ele>54.4</ele>
        <time>2015-10-05T06:34:37Z</time>
      </trkpt>
      <trkpt lat="44.85531" lon="0.48252">
        <ele>54.6</ele>
        <time>2015-10-05T06:34:42Z</time>
      </trkpt>
      <trkpt lat="44.85526" lon="0.48253">
        <ele>54.6</ele>
        <time>2015-10-05T06:34:43Z</time>
      </trkpt>
      <trkpt lat="44.85517" lon="0.48253">
        <ele>54.8</ele>
        <time>2015-10-05T06:34:45Z</time>
      </trkpt>
      <trkpt lat="44.85513" lon="0.48252">
        <ele>54.8</ele>
        <time>2015-10-05T06:34:46Z</time>
      </trkpt>
      <trkpt lat="44.85509" lon="0.48251">
        <ele>54.8</ele>
        <time>2015-10-05T06:34:47Z</time>
      </trkpt>
      <trkpt lat="44.85496" lon="0.48247">
        <ele>54.6</ele>
        <time>2015-10-05T06:34:50Z</time>
      </trkpt>
      <trkpt lat="44.85491" lon="0.48246">
        <ele>54.6</ele>
        <time>2015-10-05T06:34:51Z</time>
      </trkpt>
      <trkpt lat="44.85487" lon="0.48245">
        <ele>54.6</ele>
        <time>2015-10-05T06:34:52Z</time>
      </trkpt>
      <trkpt lat="44.85466" lon="0.48242">
        <ele>54.4</ele>
        <time>2015-10-05T06:34:57Z</time>
      </trkpt>
      <trkpt lat="44.85441" lon="0.48238">
        <ele>54.4</ele>
        <time>2015-10-05T06:35:03Z</time>
      </trkpt>
      <trkpt lat="44.85403" lon="0.48233">
        <ele>54.4</ele>
        <time>2015-10-05T06:35:12Z</time>
      </trkpt>
      <trkpt lat="44.85376" lon="0.48238">
        <ele>54.4</ele>
        <time>2015-10-05T06:35:19Z</time>
      </trkpt>
      <trkpt lat="44.85372" lon="0.48252">
        <ele>54.8</ele>
        <time>2015-10-05T06:35:22Z</time>
      </trkpt>
      <trkpt lat="44.85367" lon="0.48286">
        <ele>55.2</ele>
        <time>2015-10-05T06:35:29Z</time>
      </trkpt>
      <trkpt lat="44.85367" lon="0.48295">
        <ele>55.6</ele>
        <time>2015-10-05T06:35:31Z</time>
      </trkpt>
      <trkpt lat="44.85362" lon="0.48311">
        <ele>56.2</ele>
        <time>2015-10-05T06:35:35Z</time>
      </trkpt>
      <trkpt lat="44.85357" lon="0.48316">
        <ele>56.2</ele>
        <time>2015-10-05T06:35:38Z</time>
      </trkpt>
      <trkpt lat="44.85355" lon="0.48315">
        <ele>56.2</ele>
        <time>2015-10-05T06:35:39Z</time>
      </trkpt>
      <trkpt lat="44.85343" lon="0.48313">
        <ele>56.2</ele>
        <time>2015-10-05T06:35:43Z</time>
      </trkpt>
      <trkpt lat="44.85334" lon="0.48324">
        <ele>56.2</ele>
        <time>2015-10-05T06:35:47Z</time>
      </trkpt>
      <trkpt lat="44.8533" lon="0.48337">
        <ele>56.4</ele>
        <time>2015-10-05T06:35:50Z</time>
      </trkpt>
      <trkpt lat="44.85328" lon="0.48351">
        <ele>56.4</ele>
        <time>2015-10-05T06:35:53Z</time>
      </trkpt>
      <trkpt lat="44.8532" lon="0.4839">
        <ele>56.2</ele>
        <time>2015-10-05T06:36:01Z</time>
      </trkpt>
      <trkpt lat="44.85312" lon="0.48439">
        <ele>55.6</ele>
        <time>2015-10-05T06:36:11Z</time>
      </trkpt>
      <trkpt lat="44.85307" lon="0.48489">
        <ele>55.6</ele>
        <time>2015-10-05T06:36:20Z</time>
      </trkpt>
      <trkpt lat="44.85305" lon="0.48495">
        <ele>56</ele>
        <time>2015-10-05T06:36:24Z</time>
      </trkpt>
      <trkpt lat="44.85306" lon="0.48492">
        <ele>56.6</ele>
        <time>2015-10-05T06:36:31Z</time>
      </trkpt>
      <trkpt lat="44.85301" lon="0.48486">
        <ele>57.2</ele>
        <time>2015-10-05T06:36:36Z</time>
      </trkpt>
      <trkpt lat="44.85295" lon="0.48483">
        <ele>57.2</ele>
        <time>2015-10-05T06:36:38Z</time>
      </trkpt>
      <trkpt lat="44.85288" lon="0.4848">
        <ele>57</ele>
        <time>2015-10-05T06:36:41Z</time>
      </trkpt>
      <trkpt lat="44.85274" lon="0.48474">
        <ele>57</ele>
        <time>2015-10-05T06:36:46Z</time>
      </trkpt>
      <trkpt lat="44.85249" lon="0.48464">
        <ele>56.8</ele>
        <time>2015-10-05T06:36:53Z</time>
      </trkpt>
      <trkpt lat="44.85237" lon="0.48453">
        <ele>56.6</ele>
        <time>2015-10-05T06:36:58Z</time>
      </trkpt>
      <trkpt lat="44.85226" lon="0.48448">
        <ele>56.6</ele>
        <time>2015-10-05T06:37:03Z</time>
      </trkpt>
      <trkpt lat="44.85224" lon="0.48449">
        <ele>56.6</ele>
        <time>2015-10-05T06:37:04Z</time>
      </trkpt>
      <trkpt lat="44.85215" lon="0.4845">
        <ele>56.6</ele>
        <time>2015-10-05T06:37:09Z</time>
      </trkpt>
      <trkpt lat="44.852" lon="0.48449">
        <ele>56.2</ele>
        <time>2015-10-05T06:37:16Z</time>
      </trkpt>
      <trkpt lat="44.85177" lon="0.48452">
        <ele>55.4</ele>
        <time>2015-10-05T06:37:25Z</time>
      </trkpt>
      <trkpt lat="44.85175" lon="0.48452">
        <ele>55.4</ele>
        <time>2015-10-05T06:37:26Z</time>
      </trkpt>
      <trkpt lat="44.85171" lon="0.48453">
        <ele>55</ele>
        <time>2015-10-05T06:37:29Z</time>
      </trkpt>
      <trkpt lat="44.85165" lon="0.48455">
        <ele>54.6</ele>
        <time>2015-10-05T06:37:32Z</time>
      </trkpt>
      <trkpt lat="44.85163" lon="0.48456">
        <ele>54.4</ele>
        <time>2015-10-05T06:37:33Z</time>
      </trkpt>
      <trkpt lat="44.85161" lon="0.48456">
        <ele>54.4</ele>
        <time>2015-10-05T06:37:34Z</time>
      </trkpt>
      <trkpt lat="44.85158" lon="0.48458">
        <ele>54.2</ele>
        <time>2015-10-05T06:37:36Z</time>
      </trkpt>
      <trkpt lat="44.85156" lon="0.48459">
        <ele>54.2</ele>
        <time>2015-10-05T06:37:37Z</time>
      </trkpt>
      <trkpt lat="44.85154" lon="0.48463">
        <ele>54</ele>
        <time>2015-10-05T06:37:40Z</time>
      </trkpt>
      <trkpt lat="44.85152" lon="0.48468">
        <ele>53.8</ele>
        <time>2015-10-05T06:37:42Z</time>
      </trkpt>
      <trkpt lat="44.85153" lon="0.48474">
        <ele>53.8</ele>
        <time>2015-10-05T06:37:45Z</time>
      </trkpt>
      <trkpt lat="44.85153" lon="0.4848">
        <ele>53.8</ele>
        <time>2015-10-05T06:37:47Z</time>
      </trkpt>
      <trkpt lat="44.85153" lon="0.48482">
        <ele>53.6</ele>
        <time>2015-10-05T06:37:48Z</time>
      </trkpt>
      <trkpt lat="44.85155" lon="0.48494">
        <ele>53.4</ele>
        <time>2015-10-05T06:37:53Z</time>
      </trkpt>
      <trkpt lat="44.85155" lon="0.48495">
        <ele>53.4</ele>
        <time>2015-10-05T06:37:54Z</time>
      </trkpt>
      <trkpt lat="44.85154" lon="0.485">
        <ele>53.2</ele>
        <time>2015-10-05T06:37:59Z</time>
      </trkpt>
      <trkpt lat="44.85152" lon="0.485">
        <ele>53.2</ele>
        <time>2015-10-05T06:38:05Z</time>
      </trkpt>
      <trkpt lat="44.85151" lon="0.48498">
        <ele>53.2</ele>
        <time>2015-10-05T06:38:12Z</time>
      </trkpt>
      <trkpt lat="44.85149" lon="0.48493">
        <ele>53.2</ele>
        <time>2015-10-05T06:38:14Z</time>
      </trkpt>
      <trkpt lat="44.85148" lon="0.48477">
        <ele>53.6</ele>
        <time>2015-10-05T06:38:19Z</time>
      </trkpt>
      <trkpt lat="44.85146" lon="0.48464">
        <ele>54.2</ele>
        <time>2015-10-05T06:38:24Z</time>
      </trkpt>
      <trkpt lat="44.85146" lon="0.48462">
        <ele>54.2</ele>
        <time>2015-10-05T06:38:25Z</time>
      </trkpt>
      <trkpt lat="44.85147" lon="0.48458">
        <ele>53.8</ele>
        <time>2015-10-05T06:38:30Z</time>
      </trkpt>
      <trkpt lat="44.85148" lon="0.48452">
        <ele>54</ele>
        <time>2015-10-05T06:38:36Z</time>
      </trkpt>
      <trkpt lat="44.85147" lon="0.48431">
        <ele>53</ele>
        <time>2015-10-05T06:38:44Z</time>
      </trkpt>
      <trkpt lat="44.85146" lon="0.48421">
        <ele>51.8</ele>
        <time>2015-10-05T06:38:47Z</time>
      </trkpt>
      <trkpt lat="44.85145" lon="0.48413">
        <ele>51.6</ele>
        <time>2015-10-05T06:38:50Z</time>
      </trkpt>
      <trkpt lat="44.85148" lon="0.48402">
        <ele>50.8</ele>
        <time>2015-10-05T06:38:55Z</time>
      </trkpt>
      <trkpt lat="44.85149" lon="0.48398">
        <ele>50.4</ele>
        <time>2015-10-05T06:38:57Z</time>
      </trkpt>
      <trkpt lat="44.85151" lon="0.48392">
        <ele>50.6</ele>
        <time>2015-10-05T06:39:03Z</time>
      </trkpt>
      <trkpt lat="44.85146" lon="0.48387">
        <ele>50.2</ele>
        <time>2015-10-05T06:39:06Z</time>
      </trkpt>
      <trkpt lat="44.85138" lon="0.48386">
        <ele>49.6</ele>
        <time>2015-10-05T06:39:09Z</time>
      </trkpt>
      <trkpt lat="44.8513" lon="0.48386">
        <ele>48.8</ele>
        <time>2015-10-05T06:39:12Z</time>
      </trkpt>
      <trkpt lat="44.85121" lon="0.48384">
        <ele>48.2</ele>
        <time>2015-10-05T06:39:15Z</time>
      </trkpt>
      <trkpt lat="44.85095" lon="0.48379">
        <ele>47</ele>
        <time>2015-10-05T06:39:23Z</time>
      </trkpt>
      <trkpt lat="44.85071" lon="0.48378">
        <ele>47</ele>
        <time>2015-10-05T06:39:32Z</time>
      </trkpt>
      <trkpt lat="44.85065" lon="0.48377">
        <ele>47</ele>
        <time>2015-10-05T06:39:37Z</time>
      </trkpt>
      <trkpt lat="44.85063" lon="0.48376">
        <ele>47</ele>
        <time>2015-10-05T06:39:42Z</time>
      </trkpt>
      <trkpt lat="44.85056" lon="0.48372">
        <ele>47.2</ele>
        <time>2015-10-05T06:39:52Z</time>
      </trkpt>
      <trkpt lat="44.85055" lon="0.48367">
        <ele>47</ele>
        <time>2015-10-05T06:39:54Z</time>
      </trkpt>
      <trkpt lat="44.8505" lon="0.48341">
        <ele>46.8</ele>
        <time>2015-10-05T06:40:01Z</time>
      </trkpt>
      <trkpt lat="44.85053" lon="0.48331">
        <ele>46.6</ele>
        <time>2015-10-05T06:40:06Z</time>
      </trkpt>
      <trkpt lat="44.85043" lon="0.48326">
        <ele>47.2</ele>
        <time>2015-10-05T06:40:12Z</time>
      </trkpt>
      <trkpt lat="44.85036" lon="0.48325">
        <ele>47.6</ele>
        <time>2015-10-05T06:40:20Z</time>
      </trkpt>
      <trkpt lat="44.85035" lon="0.48318">
        <ele>47.6</ele>
        <time>2015-10-05T06:40:26Z</time>
      </trkpt>
      <trkpt lat="44.85038" lon="0.4832">
        <ele>47.6</ele>
        <time>2015-10-05T06:40:28Z</time>
      </trkpt>
      <trkpt lat="44.85039" lon="0.48322">
        <ele>47.6</ele>
        <time>2015-10-05T06:40:29Z</time>
      </trkpt>
      <trkpt lat="44.85036" lon="0.48323">
        <ele>47.6</ele>
        <time>2015-10-05T06:40:32Z</time>
      </trkpt>
      <trkpt lat="44.85035" lon="0.48322">
        <ele>47.6</ele>
        <time>2015-10-05T06:40:33Z</time>
      </trkpt>
      <trkpt lat="44.85036" lon="0.4832">
        <ele>47.8</ele>
        <time>2015-10-05T06:40:36Z</time>
      </trkpt>
      <trkpt lat="44.85043" lon="0.48325">
        <ele>47.8</ele>
        <time>2015-10-05T06:40:40Z</time>
      </trkpt>
      <trkpt lat="44.85048" lon="0.48326">
        <ele>47.6</ele>
        <time>2015-10-05T06:40:43Z</time>
      </trkpt>
      <trkpt lat="44.85053" lon="0.48326">
        <ele>47.4</ele>
        <time>2015-10-05T06:40:45Z</time>
      </trkpt>
      <trkpt lat="44.85062" lon="0.48329">
        <ele>47</ele>
        <time>2015-10-05T06:40:49Z</time>
      </trkpt>
      <trkpt lat="44.85065" lon="0.48328">
        <ele>46.8</ele>
        <time>2015-10-05T06:40:51Z</time>
      </trkpt>
      <trkpt lat="44.85069" lon="0.48327">
        <ele>46.8</ele>
        <time>2015-10-05T06:40:53Z</time>
      </trkpt>
      <trkpt lat="44.85077" lon="0.48326">
        <ele>47.2</ele>
        <time>2015-10-05T06:40:56Z</time>
      </trkpt>
      <trkpt lat="44.85091" lon="0.48326">
        <ele>47.4</ele>
        <time>2015-10-05T06:41:02Z</time>
      </trkpt>
      <trkpt lat="44.85097" lon="0.48324">
        <ele>47.2</ele>
        <time>2015-10-05T06:41:09Z</time>
      </trkpt>
      <trkpt lat="44.85101" lon="0.48324">
        <ele>47.4</ele>
        <time>2015-10-05T06:41:15Z</time>
      </trkpt>
      <trkpt lat="44.85103" lon="0.48325">
        <ele>47.4</ele>
        <time>2015-10-05T06:41:21Z</time>
      </trkpt>
      <trkpt lat="44.85107" lon="0.48326">
        <ele>47.8</ele>
        <time>2015-10-05T06:41:23Z</time>
      </trkpt>
      <trkpt lat="44.8511" lon="0.48327">
        <ele>47.8</ele>
        <time>2015-10-05T06:41:24Z</time>
      </trkpt>
      <trkpt lat="44.85116" lon="0.4833">
        <ele>48.2</ele>
        <time>2015-10-05T06:41:27Z</time>
      </trkpt>
      <trkpt lat="44.85119" lon="0.4833">
        <ele>48.6</ele>
        <time>2015-10-05T06:41:29Z</time>
      </trkpt>
      <trkpt lat="44.85123" lon="0.48335">
        <ele>49.4</ele>
        <time>2015-10-05T06:41:33Z</time>
      </trkpt>
      <trkpt lat="44.85124" lon="0.48336">
        <ele>49.6</ele>
        <time>2015-10-05T06:41:34Z</time>
      </trkpt>
      <trkpt lat="44.85127" lon="0.48337">
        <ele>50.6</ele>
        <time>2015-10-05T06:41:37Z</time>
      </trkpt>
      <trkpt lat="44.8513" lon="0.48336">
        <ele>50.6</ele>
        <time>2015-10-05T06:41:39Z</time>
      </trkpt>
      <trkpt lat="44.85133" lon="0.48329">
        <ele>51</ele>
        <time>2015-10-05T06:41:42Z</time>
      </trkpt>
      <trkpt lat="44.85137" lon="0.48322">
        <ele>51.6</ele>
        <time>2015-10-05T06:41:46Z</time>
      </trkpt>
      <trkpt lat="44.85144" lon="0.48315">
        <ele>52.8</ele>
        <time>2015-10-05T06:41:52Z</time>
      </trkpt>
      <trkpt lat="44.85153" lon="0.48308">
        <ele>53.6</ele>
        <time>2015-10-05T06:41:59Z</time>
      </trkpt>
      <trkpt lat="44.85153" lon="0.48306">
        <ele>53.8</ele>
        <time>2015-10-05T06:42:00Z</time>
      </trkpt>
      <trkpt lat="44.85152" lon="0.48303">
        <ele>53.8</ele>
        <time>2015-10-05T06:42:04Z</time>
      </trkpt>
      <trkpt lat="44.85151" lon="0.48304">
        <ele>53.6</ele>
        <time>2015-10-05T06:42:05Z</time>
      </trkpt>
      <trkpt lat="44.85149" lon="0.48312">
        <ele>53</ele>
        <time>2015-10-05T06:42:08Z</time>
      </trkpt>
      <trkpt lat="44.85148" lon="0.48314">
        <ele>53</ele>
        <time>2015-10-05T06:42:10Z</time>
      </trkpt>
      <trkpt lat="44.85147" lon="0.48317">
        <ele>52.8</ele>
        <time>2015-10-05T06:42:13Z</time>
      </trkpt>
      <trkpt lat="44.85144" lon="0.4832">
        <ele>51.8</ele>
        <time>2015-10-05T06:42:18Z</time>
      </trkpt>
      <trkpt lat="44.85142" lon="0.48324">
        <ele>51.4</ele>
        <time>2015-10-05T06:42:26Z</time>
      </trkpt>
      <trkpt lat="44.85142" lon="0.48324">
        <ele>51.6</ele>
        <time>2015-10-05T06:42:27Z</time>
      </trkpt>
      <trkpt lat="44.85138" lon="0.48336">
        <ele>51.2</ele>
        <time>2015-10-05T06:42:35Z</time>
      </trkpt>
      <trkpt lat="44.85138" lon="0.48338">
        <ele>51</ele>
        <time>2015-10-05T06:42:36Z</time>
      </trkpt>
      <trkpt lat="44.85134" lon="0.48353">
        <ele>50.6</ele>
        <time>2015-10-05T06:42:40Z</time>
      </trkpt>
      <trkpt lat="44.85134" lon="0.48357">
        <ele>50.4</ele>
        <time>2015-10-05T06:42:41Z</time>
      </trkpt>
      <trkpt lat="44.85131" lon="0.48372">
        <ele>50</ele>
        <time>2015-10-05T06:42:46Z</time>
      </trkpt>
      <trkpt lat="44.85128" lon="0.48378">
        <ele>49.4</ele>
        <time>2015-10-05T06:42:49Z</time>
      </trkpt>
      <trkpt lat="44.85125" lon="0.48381">
        <ele>49</ele>
        <time>2015-10-05T06:42:52Z</time>
      </trkpt>
      <trkpt lat="44.85124" lon="0.48381">
        <ele>49</ele>
        <time>2015-10-05T06:42:53Z</time>
      </trkpt>
      <trkpt lat="44.85114" lon="0.48379">
        <ele>48.4</ele>
        <time>2015-10-05T06:42:57Z</time>
      </trkpt>
      <trkpt lat="44.85105" lon="0.48377">
        <ele>48.4</ele>
        <time>2015-10-05T06:43:00Z</time>
      </trkpt>
      <trkpt lat="44.85092" lon="0.48377">
        <ele>48.2</ele>
        <time>2015-10-05T06:43:04Z</time>
      </trkpt>
      <trkpt lat="44.85079" lon="0.48377">
        <ele>47.8</ele>
        <time>2015-10-05T06:43:10Z</time>
      </trkpt>
      <trkpt lat="44.85076" lon="0.48379">
        <ele>47.8</ele>
        <time>2015-10-05T06:43:18Z</time>
      </trkpt>
      <trkpt lat="44.85074" lon="0.48378">
        <ele>47.8</ele>
        <time>2015-10-05T06:43:21Z</time>
      </trkpt>
      <trkpt lat="44.85072" lon="0.48373">
        <ele>47.8</ele>
        <time>2015-10-05T06:43:23Z</time>
      </trkpt>
      <trkpt lat="44.85068" lon="0.4835">
        <ele>47.6</ele>
        <time>2015-10-05T06:43:29Z</time>
      </trkpt>
      <trkpt lat="44.85067" lon="0.48341">
        <ele>47.2</ele>
        <time>2015-10-05T06:43:31Z</time>
      </trkpt>
      <trkpt lat="44.85068" lon="0.48334">
        <ele>47</ele>
        <time>2015-10-05T06:43:34Z</time>
      </trkpt>
      <trkpt lat="44.85069" lon="0.48332">
        <ele>47</ele>
        <time>2015-10-05T06:43:35Z</time>
      </trkpt>
      <trkpt lat="44.85072" lon="0.48321">
        <ele>46.6</ele>
        <time>2015-10-05T06:43:38Z</time>
      </trkpt>
      <trkpt lat="44.85074" lon="0.48317">
        <ele>46.6</ele>
        <time>2015-10-05T06:43:39Z</time>
      </trkpt>
      <trkpt lat="44.85079" lon="0.48304">
        <ele>46.2</ele>
        <time>2015-10-05T06:43:42Z</time>
      </trkpt>
      <trkpt lat="44.85086" lon="0.48292">
        <ele>45.6</ele>
        <time>2015-10-05T06:43:45Z</time>
      </trkpt>
      <trkpt lat="44.85093" lon="0.48264">
        <ele>45</ele>
        <time>2015-10-05T06:43:50Z</time>
      </trkpt>
      <trkpt lat="44.85096" lon="0.48239">
        <ele>44.4</ele>
        <time>2015-10-05T06:43:55Z</time>
      </trkpt>
      <trkpt lat="44.85095" lon="0.48222">
        <ele>44</ele>
        <time>2015-10-05T06:43:59Z</time>
      </trkpt>
      <trkpt lat="44.85093" lon="0.48219">
        <ele>43.8</ele>
        <time>2015-10-05T06:44:00Z</time>
      </trkpt>
      <trkpt lat="44.85076" lon="0.482">
        <ele>43.6</ele>
        <time>2015-10-05T06:44:06Z</time>
      </trkpt>
      <trkpt lat="44.8506" lon="0.4819">
        <ele>43</ele>
        <time>2015-10-05T06:44:12Z</time>
      </trkpt>
      <trkpt lat="44.85056" lon="0.48187">
        <ele>43</ele>
        <time>2015-10-05T06:44:14Z</time>
      </trkpt>
      <trkpt lat="44.85054" lon="0.48187">
        <ele>43</ele>
        <time>2015-10-05T06:44:15Z</time>
      </trkpt>
      <trkpt lat="44.85053" lon="0.48188">
        <ele>43</ele>
        <time>2015-10-05T06:44:18Z</time>
      </trkpt>
      <trkpt lat="44.85051" lon="0.48188">
        <ele>42.8</ele>
        <time>2015-10-05T06:44:26Z</time>
      </trkpt>
      <trkpt lat="44.85043" lon="0.48189">
        <ele>43</ele>
        <time>2015-10-05T06:44:39Z</time>
      </trkpt>
      <trkpt lat="44.85035" lon="0.48203">
        <ele>43</ele>
        <time>2015-10-05T06:44:42Z</time>
      </trkpt>
      <trkpt lat="44.8501" lon="0.48242">
        <ele>42.6</ele>
        <time>2015-10-05T06:44:50Z</time>
      </trkpt>
      <trkpt lat="44.84986" lon="0.48277">
        <ele>43.2</ele>
        <time>2015-10-05T06:44:58Z</time>
      </trkpt>
      <trkpt lat="44.84977" lon="0.48285">
        <ele>43</ele>
        <time>2015-10-05T06:45:01Z</time>
      </trkpt>
      <trkpt lat="44.84968" lon="0.48285">
        <ele>42.6</ele>
        <time>2015-10-05T06:45:03Z</time>
      </trkpt>
      <trkpt lat="44.84953" lon="0.48276">
        <ele>42.4</ele>
        <time>2015-10-05T06:45:06Z</time>
      </trkpt>
      <trkpt lat="44.84938" lon="0.48281">
        <ele>42.6</ele>
        <time>2015-10-05T06:45:09Z</time>
      </trkpt>
      <trkpt lat="44.84923" lon="0.48305">
        <ele>42.8</ele>
        <time>2015-10-05T06:45:13Z</time>
      </trkpt>
      <trkpt lat="44.84913" lon="0.48323">
        <ele>44.4</ele>
        <time>2015-10-05T06:45:16Z</time>
      </trkpt>
      <trkpt lat="44.84905" lon="0.48337">
        <ele>45.4</ele>
        <time>2015-10-05T06:45:19Z</time>
      </trkpt>
      <trkpt lat="44.84896" lon="0.48353">
        <ele>46.6</ele>
        <time>2015-10-05T06:45:23Z</time>
      </trkpt>
      <trkpt lat="44.84891" lon="0.4836">
        <ele>47.4</ele>
        <time>2015-10-05T06:45:25Z</time>
      </trkpt>
      <trkpt lat="44.84885" lon="0.4837">
        <ele>48</ele>
        <time>2015-10-05T06:45:28Z</time>
      </trkpt>
      <trkpt lat="44.84876" lon="0.48388">
        <ele>49.2</ele>
        <time>2015-10-05T06:45:33Z</time>
      </trkpt>
      <trkpt lat="44.84868" lon="0.48402">
        <ele>50.4</ele>
        <time>2015-10-05T06:45:38Z</time>
      </trkpt>
      <trkpt lat="44.84865" lon="0.48401">
        <ele>50.6</ele>
        <time>2015-10-05T06:45:39Z</time>
      </trkpt>
      <trkpt lat="44.84859" lon="0.48395">
        <ele>51</ele>
        <time>2015-10-05T06:45:42Z</time>
      </trkpt>
      <trkpt lat="44.8485" lon="0.48384">
        <ele>51.2</ele>
        <time>2015-10-05T06:45:45Z</time>
      </trkpt>
      <trkpt lat="44.84844" lon="0.48377">
        <ele>51.4</ele>
        <time>2015-10-05T06:45:47Z</time>
      </trkpt>
      <trkpt lat="44.84817" lon="0.48343">
        <ele>52</ele>
        <time>2015-10-05T06:45:56Z</time>
      </trkpt>
      <trkpt lat="44.84795" lon="0.48319">
        <ele>52.4</ele>
        <time>2015-10-05T06:46:03Z</time>
      </trkpt>
      <trkpt lat="44.84789" lon="0.4831">
        <ele>52</ele>
        <time>2015-10-05T06:46:05Z</time>
      </trkpt>
      <trkpt lat="44.8477" lon="0.48288">
        <ele>51.4</ele>
        <time>2015-10-05T06:46:10Z</time>
      </trkpt>
      <trkpt lat="44.84755" lon="0.4827">
        <ele>51.2</ele>
        <time>2015-10-05T06:46:14Z</time>
      </trkpt>
      <trkpt lat="44.84721" lon="0.48228">
        <ele>50.6</ele>
        <time>2015-10-05T06:46:23Z</time>
      </trkpt>
      <trkpt lat="44.84708" lon="0.48213">
        <ele>51</ele>
        <time>2015-10-05T06:46:28Z</time>
      </trkpt>
      <trkpt lat="44.84708" lon="0.48199">
        <ele>51.2</ele>
        <time>2015-10-05T06:46:32Z</time>
      </trkpt>
      <trkpt lat="44.84704" lon="0.48192">
        <ele>51</ele>
        <time>2015-10-05T06:46:34Z</time>
      </trkpt>
      <trkpt lat="44.84701" lon="0.48191">
        <ele>51</ele>
        <time>2015-10-05T06:46:35Z</time>
      </trkpt>
      <trkpt lat="44.84691" lon="0.48191">
        <ele>51</ele>
        <time>2015-10-05T06:46:38Z</time>
      </trkpt>
      <trkpt lat="44.84688" lon="0.4819">
        <ele>51.2</ele>
        <time>2015-10-05T06:46:39Z</time>
      </trkpt>
      <trkpt lat="44.84678" lon="0.48176">
        <ele>51.2</ele>
        <time>2015-10-05T06:46:43Z</time>
      </trkpt>
      <trkpt lat="44.84662" lon="0.48156">
        <ele>51</ele>
        <time>2015-10-05T06:46:49Z</time>
      </trkpt>
      <trkpt lat="44.84641" lon="0.4815">
        <ele>50.6</ele>
        <time>2015-10-05T06:46:54Z</time>
      </trkpt>
      <trkpt lat="44.84631" lon="0.48147">
        <ele>50.4</ele>
        <time>2015-10-05T06:46:56Z</time>
      </trkpt>
      <trkpt lat="44.84611" lon="0.48141">
        <ele>50.2</ele>
        <time>2015-10-05T06:47:00Z</time>
      </trkpt>
      <trkpt lat="44.84592" lon="0.48134">
        <ele>49.8</ele>
        <time>2015-10-05T06:47:04Z</time>
      </trkpt>
      <trkpt lat="44.84578" lon="0.48129">
        <ele>50</ele>
        <time>2015-10-05T06:47:07Z</time>
      </trkpt>
      <trkpt lat="44.84559" lon="0.48124">
        <ele>49.2</ele>
        <time>2015-10-05T06:47:11Z</time>
      </trkpt>
      <trkpt lat="44.84531" lon="0.48115">
        <ele>48.6</ele>
        <time>2015-10-05T06:47:17Z</time>
      </trkpt>
      <trkpt lat="44.84506" lon="0.48105">
        <ele>48.2</ele>
        <time>2015-10-05T06:47:23Z</time>
      </trkpt>
      <trkpt lat="44.84501" lon="0.48094">
        <ele>48.6</ele>
        <time>2015-10-05T06:47:27Z</time>
      </trkpt>
      <trkpt lat="44.84494" lon="0.48088">
        <ele>48.6</ele>
        <time>2015-10-05T06:47:30Z</time>
      </trkpt>
      <trkpt lat="44.8449" lon="0.48089">
        <ele>48.6</ele>
        <time>2015-10-05T06:47:31Z</time>
      </trkpt>
      <trkpt lat="44.84472" lon="0.48092">
        <ele>48.8</ele>
        <time>2015-10-05T06:47:36Z</time>
      </trkpt>
      <trkpt lat="44.84464" lon="0.4809">
        <ele>48.8</ele>
        <time>2015-10-05T06:47:38Z</time>
      </trkpt>
      <trkpt lat="44.8445" lon="0.48087">
        <ele>48.8</ele>
        <time>2015-10-05T06:47:41Z</time>
      </trkpt>
      <trkpt lat="44.84415" lon="0.48078">
        <ele>49.2</ele>
        <time>2015-10-05T06:47:49Z</time>
      </trkpt>
      <trkpt lat="44.84377" lon="0.4807">
        <ele>49.4</ele>
        <time>2015-10-05T06:47:57Z</time>
      </trkpt>
      <trkpt lat="44.84338" lon="0.48062">
        <ele>49.6</ele>
        <time>2015-10-05T06:48:05Z</time>
      </trkpt>
      <trkpt lat="44.84299" lon="0.48054">
        <ele>49.8</ele>
        <time>2015-10-05T06:48:13Z</time>
      </trkpt>
      <trkpt lat="44.84295" lon="0.48054">
        <ele>49.8</ele>
        <time>2015-10-05T06:48:14Z</time>
      </trkpt>
      <trkpt lat="44.84264" lon="0.48048">
        <ele>50</ele>
        <time>2015-10-05T06:48:21Z</time>
      </trkpt>
      <trkpt lat="44.84225" lon="0.4804">
        <ele>50.2</ele>
        <time>2015-10-05T06:48:30Z</time>
      </trkpt>
      <trkpt lat="44.84203" lon="0.48036">
        <ele>50.8</ele>
        <time>2015-10-05T06:48:35Z</time>
      </trkpt>
      <trkpt lat="44.8419" lon="0.48034">
        <ele>49.6</ele>
        <time>2015-10-05T06:48:38Z</time>
      </trkpt>
      <trkpt lat="44.84182" lon="0.48032">
        <ele>48.8</ele>
        <time>2015-10-05T06:48:40Z</time>
      </trkpt>
      <trkpt lat="44.84165" lon="0.48028">
        <ele>50.6</ele>
        <time>2015-10-05T06:48:44Z</time>
      </trkpt>
      <trkpt lat="44.84153" lon="0.48026">
        <ele>47.6</ele>
        <time>2015-10-05T06:48:47Z</time>
      </trkpt>
      <trkpt lat="44.84149" lon="0.48025">
        <ele>49</ele>
        <time>2015-10-05T06:48:48Z</time>
      </trkpt>
      <trkpt lat="44.84145" lon="0.48024">
        <ele>49.2</ele>
        <time>2015-10-05T06:48:49Z</time>
      </trkpt>
      <trkpt lat="44.84141" lon="0.48024">
        <ele>52.6</ele>
        <time>2015-10-05T06:48:50Z</time>
      </trkpt>
      <trkpt lat="44.84128" lon="0.48022">
        <ele>50.8</ele>
        <time>2015-10-05T06:48:53Z</time>
      </trkpt>
      <trkpt lat="44.84124" lon="0.48021">
        <ele>49.4</ele>
        <time>2015-10-05T06:48:54Z</time>
      </trkpt>
      <trkpt lat="44.8412" lon="0.4802">
        <ele>50.4</ele>
        <time>2015-10-05T06:48:55Z</time>
      </trkpt>
      <trkpt lat="44.84107" lon="0.48017">
        <ele>50.6</ele>
        <time>2015-10-05T06:48:58Z</time>
      </trkpt>
      <trkpt lat="44.84071" lon="0.4801">
        <ele>50.8</ele>
        <time>2015-10-05T06:49:05Z</time>
      </trkpt>
      <trkpt lat="44.84033" lon="0.48002">
        <ele>51</ele>
        <time>2015-10-05T06:49:13Z</time>
      </trkpt>
      <trkpt lat="44.84023" lon="0.48">
        <ele>51.6</ele>
        <time>2015-10-05T06:49:15Z</time>
      </trkpt>
      <trkpt lat="44.83993" lon="0.47994">
        <ele>51</ele>
        <time>2015-10-05T06:49:21Z</time>
      </trkpt>
      <trkpt lat="44.83955" lon="0.47987">
        <ele>51.4</ele>
        <time>2015-10-05T06:49:29Z</time>
      </trkpt>
      <trkpt lat="44.83914" lon="0.4798">
        <ele>51.4</ele>
        <time>2015-10-05T06:49:38Z</time>
      </trkpt>
      <trkpt lat="44.83883" lon="0.47974">
        <ele>51.8</ele>
        <time>2015-10-05T06:49:45Z</time>
      </trkpt>
      <trkpt lat="44.83878" lon="0.47974">
        <ele>51.8</ele>
        <time>2015-10-05T06:49:46Z</time>
      </trkpt>
      <trkpt lat="44.83831" lon="0.47965">
        <ele>51.8</ele>
        <time>2015-10-05T06:49:56Z</time>
      </trkpt>
      <trkpt lat="44.83787" lon="0.47956">
        <ele>52.2</ele>
        <time>2015-10-05T06:50:05Z</time>
      </trkpt>
      <trkpt lat="44.83745" lon="0.47947">
        <ele>52</ele>
        <time>2015-10-05T06:50:14Z</time>
      </trkpt>
      <trkpt lat="44.83702" lon="0.47939">
        <ele>52</ele>
        <time>2015-10-05T06:50:23Z</time>
      </trkpt>
      <trkpt lat="44.83688" lon="0.47936">
        <ele>51.8</ele>
        <time>2015-10-05T06:50:26Z</time>
      </trkpt>
      <trkpt lat="44.83674" lon="0.47933">
        <ele>52.4</ele>
        <time>2015-10-05T06:50:29Z</time>
      </trkpt>
      <trkpt lat="44.8364" lon="0.47927">
        <ele>52.2</ele>
        <time>2015-10-05T06:50:36Z</time>
      </trkpt>
      <trkpt lat="44.83607" lon="0.4792">
        <ele>51.8</ele>
        <time>2015-10-05T06:50:43Z</time>
      </trkpt>
      <trkpt lat="44.8357" lon="0.47913">
        <ele>51.6</ele>
        <time>2015-10-05T06:50:51Z</time>
      </trkpt>
      <trkpt lat="44.83562" lon="0.47911">
        <ele>51.6</ele>
        <time>2015-10-05T06:50:53Z</time>
      </trkpt>
      <trkpt lat="44.83525" lon="0.47904">
        <ele>52</ele>
        <time>2015-10-05T06:51:01Z</time>
      </trkpt>
      <trkpt lat="44.83487" lon="0.47897">
        <ele>52.8</ele>
        <time>2015-10-05T06:51:09Z</time>
      </trkpt>
      <trkpt lat="44.83482" lon="0.47897">
        <ele>51.4</ele>
        <time>2015-10-05T06:51:10Z</time>
      </trkpt>
      <trkpt lat="44.83469" lon="0.47894">
        <ele>52.4</ele>
        <time>2015-10-05T06:51:13Z</time>
      </trkpt>
      <trkpt lat="44.8346" lon="0.47889">
        <ele>52</ele>
        <time>2015-10-05T06:51:16Z</time>
      </trkpt>
      <trkpt lat="44.83455" lon="0.47877">
        <ele>52</ele>
        <time>2015-10-05T06:51:19Z</time>
      </trkpt>
      <trkpt lat="44.83451" lon="0.47878">
        <ele>52</ele>
        <time>2015-10-05T06:51:22Z</time>
      </trkpt>
      <trkpt lat="44.8346" lon="0.47895">
        <ele>51.8</ele>
        <time>2015-10-05T06:55:11Z</time>
      </trkpt>
      <trkpt lat="44.83461" lon="0.47896">
        <ele>51.8</ele>
        <time>2015-10-05T06:55:12Z</time>
      </trkpt>
      <trkpt lat="44.83475" lon="0.47899">
        <ele>50.4</ele>
        <time>2015-10-05T06:55:15Z</time>
      </trkpt>
      <trkpt lat="44.83479" lon="0.479">
        <ele>51.4</ele>
        <time>2015-10-05T06:55:16Z</time>
      </trkpt>
      <trkpt lat="44.83505" lon="0.47906">
        <ele>52</ele>
        <time>2015-10-05T06:55:22Z</time>
      </trkpt>
      <trkpt lat="44.83513" lon="0.47908">
        <ele>51.6</ele>
        <time>2015-10-05T06:55:24Z</time>
      </trkpt>
      <trkpt lat="44.83547" lon="0.47919">
        <ele>51.8</ele>
        <time>2015-10-05T06:55:32Z</time>
      </trkpt>
      <trkpt lat="44.8355" lon="0.47924">
        <ele>51.6</ele>
        <time>2015-10-05T06:55:33Z</time>
      </trkpt>
      <trkpt lat="44.83552" lon="0.47937">
        <ele>51.6</ele>
        <time>2015-10-05T06:55:35Z</time>
      </trkpt>
      <trkpt lat="44.83556" lon="0.47989">
        <ele>51.4</ele>
        <time>2015-10-05T06:55:43Z</time>
      </trkpt>
      <trkpt lat="44.83559" lon="0.48045">
        <ele>51.4</ele>
        <time>2015-10-05T06:55:52Z</time>
      </trkpt>
      <trkpt lat="44.83564" lon="0.48104">
        <ele>51.4</ele>
        <time>2015-10-05T06:56:01Z</time>
      </trkpt>
      <trkpt lat="44.83568" lon="0.48174">
        <ele>51.6</ele>
        <time>2015-10-05T06:56:11Z</time>
      </trkpt>
      <trkpt lat="44.83566" lon="0.48245">
        <ele>51.2</ele>
        <time>2015-10-05T06:56:21Z</time>
      </trkpt>
      <trkpt lat="44.83563" lon="0.48304">
        <ele>51.6</ele>
        <time>2015-10-05T06:56:30Z</time>
      </trkpt>
      <trkpt lat="44.83559" lon="0.48363">
        <ele>51.4</ele>
        <time>2015-10-05T06:56:40Z</time>
      </trkpt>
      <trkpt lat="44.83556" lon="0.48408">
        <ele>51.8</ele>
        <time>2015-10-05T06:56:49Z</time>
      </trkpt>
      <trkpt lat="44.83554" lon="0.48425">
        <ele>51.6</ele>
        <time>2015-10-05T06:56:52Z</time>
      </trkpt>
      <trkpt lat="44.83552" lon="0.48449">
        <ele>51.8</ele>
        <time>2015-10-05T06:56:56Z</time>
      </trkpt>
      <trkpt lat="44.83548" lon="0.48503">
        <ele>51.8</ele>
        <time>2015-10-05T06:57:05Z</time>
      </trkpt>
      <trkpt lat="44.83544" lon="0.48561">
        <ele>53.2</ele>
        <time>2015-10-05T06:57:15Z</time>
      </trkpt>
      <trkpt lat="44.83543" lon="0.4858">
        <ele>52.2</ele>
        <time>2015-10-05T06:57:19Z</time>
      </trkpt>
      <trkpt lat="44.83541" lon="0.486">
        <ele>52</ele>
        <time>2015-10-05T06:57:22Z</time>
      </trkpt>
      <trkpt lat="44.83539" lon="0.48652">
        <ele>51.8</ele>
        <time>2015-10-05T06:57:31Z</time>
      </trkpt>
      <trkpt lat="44.83533" lon="0.48673">
        <ele>52.2</ele>
        <time>2015-10-05T06:57:37Z</time>
      </trkpt>
      <trkpt lat="44.83528" lon="0.48675">
        <ele>52</ele>
        <time>2015-10-05T06:57:39Z</time>
      </trkpt>
      <trkpt lat="44.83522" lon="0.48674">
        <ele>52.4</ele>
        <time>2015-10-05T06:57:41Z</time>
      </trkpt>
      <trkpt lat="44.83516" lon="0.48674">
        <ele>52.4</ele>
        <time>2015-10-05T06:57:43Z</time>
      </trkpt>
      <trkpt lat="44.83503" lon="0.48674">
        <ele>52</ele>
        <time>2015-10-05T06:57:47Z</time>
      </trkpt>
      <trkpt lat="44.83491" lon="0.48673">
        <ele>52</ele>
        <time>2015-10-05T06:57:53Z</time>
      </trkpt>
      <trkpt lat="44.8348" lon="0.48673">
        <ele>52</ele>
        <time>2015-10-05T06:58:01Z</time>
      </trkpt>
      <trkpt lat="44.83469" lon="0.48675">
        <ele>52.6</ele>
        <time>2015-10-05T06:58:33Z</time>
      </trkpt>
      <trkpt lat="44.83467" lon="0.48675">
        <ele>52.6</ele>
        <time>2015-10-05T06:58:34Z</time>
      </trkpt>
      <trkpt lat="44.83444" lon="0.48675">
        <ele>52.4</ele>
        <time>2015-10-05T06:58:39Z</time>
      </trkpt>
      <trkpt lat="44.83438" lon="0.48675">
        <ele>52.4</ele>
        <time>2015-10-05T06:58:40Z</time>
      </trkpt>
      <trkpt lat="44.83401" lon="0.48675">
        <ele>53.2</ele>
        <time>2015-10-05T06:58:47Z</time>
      </trkpt>
      <trkpt lat="44.83395" lon="0.48676">
        <ele>53.2</ele>
        <time>2015-10-05T06:58:48Z</time>
      </trkpt>
      <trkpt lat="44.83362" lon="0.48676">
        <ele>54</ele>
        <time>2015-10-05T06:58:54Z</time>
      </trkpt>
      <trkpt lat="44.83357" lon="0.48675">
        <ele>53.6</ele>
        <time>2015-10-05T06:58:55Z</time>
      </trkpt>
      <trkpt lat="44.83346" lon="0.48676">
        <ele>53.6</ele>
        <time>2015-10-05T06:58:57Z</time>
      </trkpt>
      <trkpt lat="44.83329" lon="0.48676">
        <ele>54</ele>
        <time>2015-10-05T06:59:00Z</time>
      </trkpt>
      <trkpt lat="44.83312" lon="0.48677">
        <ele>54.2</ele>
        <time>2015-10-05T06:59:03Z</time>
      </trkpt>
      <trkpt lat="44.83276" lon="0.48677">
        <ele>53.8</ele>
        <time>2015-10-05T06:59:10Z</time>
      </trkpt>
      <trkpt lat="44.83243" lon="0.48679">
        <ele>54</ele>
        <time>2015-10-05T06:59:17Z</time>
      </trkpt>
      <trkpt lat="44.8321" lon="0.48681">
        <ele>54.8</ele>
        <time>2015-10-05T06:59:24Z</time>
      </trkpt>
      <trkpt lat="44.83166" lon="0.48684">
        <ele>54.4</ele>
        <time>2015-10-05T06:59:33Z</time>
      </trkpt>
      <trkpt lat="44.83131" lon="0.48686">
        <ele>54.6</ele>
        <time>2015-10-05T06:59:40Z</time>
      </trkpt>
      <trkpt lat="44.83079" lon="0.4869">
        <ele>55</ele>
        <time>2015-10-05T06:59:51Z</time>
      </trkpt>
      <trkpt lat="44.83054" lon="0.48692">
        <ele>55.4</ele>
        <time>2015-10-05T06:59:56Z</time>
      </trkpt>
      <trkpt lat="44.83036" lon="0.48693">
        <ele>55.6</ele>
        <time>2015-10-05T07:00:00Z</time>
      </trkpt>
      <trkpt lat="44.82996" lon="0.48695">
        <ele>55.8</ele>
        <time>2015-10-05T07:00:09Z</time>
      </trkpt>
      <trkpt lat="44.82983" lon="0.48696">
        <ele>56.6</ele>
        <time>2015-10-05T07:00:12Z</time>
      </trkpt>
      <trkpt lat="44.82962" lon="0.48698">
        <ele>57.2</ele>
        <time>2015-10-05T07:00:17Z</time>
      </trkpt>
      <trkpt lat="44.82949" lon="0.487">
        <ele>57.6</ele>
        <time>2015-10-05T07:00:20Z</time>
      </trkpt>
      <trkpt lat="44.82933" lon="0.48703">
        <ele>57.8</ele>
        <time>2015-10-05T07:00:24Z</time>
      </trkpt>
      <trkpt lat="44.82915" lon="0.48708">
        <ele>58.6</ele>
        <time>2015-10-05T07:00:29Z</time>
      </trkpt>
      <trkpt lat="44.82908" lon="0.48711">
        <ele>58.8</ele>
        <time>2015-10-05T07:00:31Z</time>
      </trkpt>
      <trkpt lat="44.82893" lon="0.4872">
        <ele>59.8</ele>
        <time>2015-10-05T07:00:36Z</time>
      </trkpt>
      <trkpt lat="44.8289" lon="0.48722">
        <ele>59.8</ele>
        <time>2015-10-05T07:00:37Z</time>
      </trkpt>
      <trkpt lat="44.8287" lon="0.48733">
        <ele>60.6</ele>
        <time>2015-10-05T07:00:44Z</time>
      </trkpt>
      <trkpt lat="44.82866" lon="0.48735">
        <ele>60.8</ele>
        <time>2015-10-05T07:00:45Z</time>
      </trkpt>
      <trkpt lat="44.82846" lon="0.48742">
        <ele>61.8</ele>
        <time>2015-10-05T07:00:51Z</time>
      </trkpt>
      <trkpt lat="44.82838" lon="0.48744">
        <ele>62.4</ele>
        <time>2015-10-05T07:00:53Z</time>
      </trkpt>
      <trkpt lat="44.82826" lon="0.48744">
        <ele>63</ele>
        <time>2015-10-05T07:00:56Z</time>
      </trkpt>
      <trkpt lat="44.82807" lon="0.48743">
        <ele>63.6</ele>
        <time>2015-10-05T07:01:01Z</time>
      </trkpt>
      <trkpt lat="44.828" lon="0.48743">
        <ele>64</ele>
        <time>2015-10-05T07:01:03Z</time>
      </trkpt>
      <trkpt lat="44.82782" lon="0.48739">
        <ele>64.8</ele>
        <time>2015-10-05T07:01:08Z</time>
      </trkpt>
      <trkpt lat="44.82778" lon="0.48739">
        <ele>65.2</ele>
        <time>2015-10-05T07:01:09Z</time>
      </trkpt>
      <trkpt lat="44.82761" lon="0.48736">
        <ele>65.8</ele>
        <time>2015-10-05T07:01:14Z</time>
      </trkpt>
      <trkpt lat="44.82753" lon="0.48735">
        <ele>66.4</ele>
        <time>2015-10-05T07:01:16Z</time>
      </trkpt>
      <trkpt lat="44.82735" lon="0.48734">
        <ele>67</ele>
        <time>2015-10-05T07:01:21Z</time>
      </trkpt>
      <trkpt lat="44.82731" lon="0.48735">
        <ele>67.4</ele>
        <time>2015-10-05T07:01:22Z</time>
      </trkpt>
      <trkpt lat="44.8272" lon="0.48737">
        <ele>67.6</ele>
        <time>2015-10-05T07:01:25Z</time>
      </trkpt>
      <trkpt lat="44.82713" lon="0.48739">
        <ele>67.8</ele>
        <time>2015-10-05T07:01:27Z</time>
      </trkpt>
      <trkpt lat="44.82689" lon="0.48747">
        <ele>67.6</ele>
        <time>2015-10-05T07:01:34Z</time>
      </trkpt>
      <trkpt lat="44.82658" lon="0.48748">
        <ele>68</ele>
        <time>2015-10-05T07:01:43Z</time>
      </trkpt>
      <trkpt lat="44.82648" lon="0.48743">
        <ele>68.4</ele>
        <time>2015-10-05T07:01:46Z</time>
      </trkpt>
      <trkpt lat="44.82642" lon="0.48736">
        <ele>68.2</ele>
        <time>2015-10-05T07:01:48Z</time>
      </trkpt>
      <trkpt lat="44.82632" lon="0.48727">
        <ele>68.8</ele>
        <time>2015-10-05T07:01:51Z</time>
      </trkpt>
      <trkpt lat="44.82624" lon="0.48725">
        <ele>68.6</ele>
        <time>2015-10-05T07:01:53Z</time>
      </trkpt>
      <trkpt lat="44.82607" lon="0.48735">
        <ele>68.2</ele>
        <time>2015-10-05T07:01:57Z</time>
      </trkpt>
      <trkpt lat="44.82596" lon="0.4876">
        <ele>68.8</ele>
        <time>2015-10-05T07:02:01Z</time>
      </trkpt>
      <trkpt lat="44.82583" lon="0.48773">
        <ele>67.8</ele>
        <time>2015-10-05T07:02:04Z</time>
      </trkpt>
      <trkpt lat="44.82578" lon="0.48777">
        <ele>68</ele>
        <time>2015-10-05T07:02:05Z</time>
      </trkpt>
      <trkpt lat="44.82565" lon="0.48785">
        <ele>68.6</ele>
        <time>2015-10-05T07:02:08Z</time>
      </trkpt>
      <trkpt lat="44.82557" lon="0.48788">
        <ele>68.6</ele>
        <time>2015-10-05T07:02:10Z</time>
      </trkpt>
      <trkpt lat="44.82523" lon="0.48797">
        <ele>68.2</ele>
        <time>2015-10-05T07:02:17Z</time>
      </trkpt>
      <trkpt lat="44.82484" lon="0.48808">
        <ele>68.2</ele>
        <time>2015-10-05T07:02:25Z</time>
      </trkpt>
      <trkpt lat="44.82441" lon="0.48821">
        <ele>68</ele>
        <time>2015-10-05T07:02:34Z</time>
      </trkpt>
      <trkpt lat="44.82396" lon="0.48835">
        <ele>67.8</ele>
        <time>2015-10-05T07:02:43Z</time>
      </trkpt>
      <trkpt lat="44.82391" lon="0.48837">
        <ele>68</ele>
        <time>2015-10-05T07:02:44Z</time>
      </trkpt>
      <trkpt lat="44.82366" lon="0.48845">
        <ele>67.6</ele>
        <time>2015-10-05T07:02:49Z</time>
      </trkpt>
      <trkpt lat="44.82338" lon="0.48856">
        <ele>67.4</ele>
        <time>2015-10-05T07:02:55Z</time>
      </trkpt>
      <trkpt lat="44.82324" lon="0.48862">
        <ele>67.8</ele>
        <time>2015-10-05T07:02:58Z</time>
      </trkpt>
      <trkpt lat="44.82319" lon="0.48864">
        <ele>67.8</ele>
        <time>2015-10-05T07:02:59Z</time>
      </trkpt>
      <trkpt lat="44.82303" lon="0.48872">
        <ele>67.6</ele>
        <time>2015-10-05T07:03:03Z</time>
      </trkpt>
      <trkpt lat="44.82299" lon="0.48874">
        <ele>68</ele>
        <time>2015-10-05T07:03:04Z</time>
      </trkpt>
      <trkpt lat="44.82283" lon="0.48883">
        <ele>68</ele>
        <time>2015-10-05T07:03:08Z</time>
      </trkpt>
      <trkpt lat="44.82261" lon="0.48902">
        <ele>68.4</ele>
        <time>2015-10-05T07:03:14Z</time>
      </trkpt>
      <trkpt lat="44.82258" lon="0.48906">
        <ele>68.4</ele>
        <time>2015-10-05T07:03:15Z</time>
      </trkpt>
      <trkpt lat="44.82241" lon="0.48932">
        <ele>68.6</ele>
        <time>2015-10-05T07:03:21Z</time>
      </trkpt>
      <trkpt lat="44.82237" lon="0.48941">
        <ele>68.8</ele>
        <time>2015-10-05T07:03:23Z</time>
      </trkpt>
      <trkpt lat="44.82218" lon="0.48984">
        <ele>67.8</ele>
        <time>2015-10-05T07:03:32Z</time>
      </trkpt>
      <trkpt lat="44.82201" lon="0.49014">
        <ele>67.8</ele>
        <time>2015-10-05T07:03:39Z</time>
      </trkpt>
      <trkpt lat="44.82181" lon="0.4903">
        <ele>67.6</ele>
        <time>2015-10-05T07:03:45Z</time>
      </trkpt>
      <trkpt lat="44.82178" lon="0.49032">
        <ele>67.8</ele>
        <time>2015-10-05T07:03:46Z</time>
      </trkpt>
      <trkpt lat="44.82149" lon="0.49045">
        <ele>67.8</ele>
        <time>2015-10-05T07:03:54Z</time>
      </trkpt>
      <trkpt lat="44.82117" lon="0.49057">
        <ele>68.4</ele>
        <time>2015-10-05T07:04:02Z</time>
      </trkpt>
      <trkpt lat="44.82087" lon="0.4907">
        <ele>68.2</ele>
        <time>2015-10-05T07:04:09Z</time>
      </trkpt>
      <trkpt lat="44.82066" lon="0.49079">
        <ele>68.6</ele>
        <time>2015-10-05T07:04:14Z</time>
      </trkpt>
      <trkpt lat="44.82045" lon="0.49088">
        <ele>68.4</ele>
        <time>2015-10-05T07:04:19Z</time>
      </trkpt>
      <trkpt lat="44.82015" lon="0.491">
        <ele>68.4</ele>
        <time>2015-10-05T07:04:26Z</time>
      </trkpt>
      <trkpt lat="44.81985" lon="0.49114">
        <ele>69.2</ele>
        <time>2015-10-05T07:04:34Z</time>
      </trkpt>
      <trkpt lat="44.81965" lon="0.49122">
        <ele>68.8</ele>
        <time>2015-10-05T07:04:41Z</time>
      </trkpt>
      <trkpt lat="44.81951" lon="0.49127">
        <ele>68.8</ele>
        <time>2015-10-05T07:04:46Z</time>
      </trkpt>
      <trkpt lat="44.81928" lon="0.49137">
        <ele>68.6</ele>
        <time>2015-10-05T07:04:53Z</time>
      </trkpt>
      <trkpt lat="44.81899" lon="0.49156">
        <ele>69</ele>
        <time>2015-10-05T07:05:01Z</time>
      </trkpt>
      <trkpt lat="44.81861" lon="0.49183">
        <ele>68.4</ele>
        <time>2015-10-05T07:05:11Z</time>
      </trkpt>
      <trkpt lat="44.81822" lon="0.49201">
        <ele>69.2</ele>
        <time>2015-10-05T07:05:21Z</time>
      </trkpt>
      <trkpt lat="44.81811" lon="0.49203">
        <ele>69.6</ele>
        <time>2015-10-05T07:05:24Z</time>
      </trkpt>
      <trkpt lat="44.81791" lon="0.49205">
        <ele>69</ele>
        <time>2015-10-05T07:05:29Z</time>
      </trkpt>
      <trkpt lat="44.81758" lon="0.49206">
        <ele>69.4</ele>
        <time>2015-10-05T07:05:38Z</time>
      </trkpt>
      <trkpt lat="44.81726" lon="0.49203">
        <ele>69.2</ele>
        <time>2015-10-05T07:05:46Z</time>
      </trkpt>
      <trkpt lat="44.81689" lon="0.492">
        <ele>68.8</ele>
        <time>2015-10-05T07:05:55Z</time>
      </trkpt>
      <trkpt lat="44.81656" lon="0.49197">
        <ele>69.6</ele>
        <time>2015-10-05T07:06:03Z</time>
      </trkpt>
      <trkpt lat="44.81623" lon="0.49194">
        <ele>69.8</ele>
        <time>2015-10-05T07:06:11Z</time>
      </trkpt>
      <trkpt lat="44.81595" lon="0.49192">
        <ele>69.2</ele>
        <time>2015-10-05T07:06:18Z</time>
      </trkpt>
      <trkpt lat="44.81565" lon="0.49193">
        <ele>69.6</ele>
        <time>2015-10-05T07:06:25Z</time>
      </trkpt>
      <trkpt lat="44.81561" lon="0.49194">
        <ele>69.6</ele>
        <time>2015-10-05T07:06:26Z</time>
      </trkpt>
      <trkpt lat="44.81542" lon="0.49197">
        <ele>69.8</ele>
        <time>2015-10-05T07:06:31Z</time>
      </trkpt>
      <trkpt lat="44.81501" lon="0.49203">
        <ele>69.8</ele>
        <time>2015-10-05T07:06:42Z</time>
      </trkpt>
      <trkpt lat="44.81458" lon="0.49209">
        <ele>70</ele>
        <time>2015-10-05T07:06:53Z</time>
      </trkpt>
      <trkpt lat="44.81427" lon="0.49213">
        <ele>70.4</ele>
        <time>2015-10-05T07:07:01Z</time>
      </trkpt>
      <trkpt lat="44.81392" lon="0.49215">
        <ele>70.4</ele>
        <time>2015-10-05T07:07:10Z</time>
      </trkpt>
      <trkpt lat="44.81368" lon="0.49216">
        <ele>70.4</ele>
        <time>2015-10-05T07:07:17Z</time>
      </trkpt>
      <trkpt lat="44.8134" lon="0.49217">
        <ele>70.6</ele>
        <time>2015-10-05T07:07:25Z</time>
      </trkpt>
      <trkpt lat="44.81327" lon="0.49218">
        <ele>70.8</ele>
        <time>2015-10-05T07:07:29Z</time>
      </trkpt>
      <trkpt lat="44.81314" lon="0.49219">
        <ele>70.8</ele>
        <time>2015-10-05T07:07:33Z</time>
      </trkpt>
      <trkpt lat="44.81287" lon="0.49224">
        <ele>71</ele>
        <time>2015-10-05T07:07:41Z</time>
      </trkpt>
      <trkpt lat="44.81262" lon="0.49231">
        <ele>71.4</ele>
        <time>2015-10-05T07:07:49Z</time>
      </trkpt>
      <trkpt lat="44.8124" lon="0.49237">
        <ele>71.8</ele>
        <time>2015-10-05T07:07:55Z</time>
      </trkpt>
      <trkpt lat="44.81233" lon="0.49239">
        <ele>71.8</ele>
        <time>2015-10-05T07:07:57Z</time>
      </trkpt>
      <trkpt lat="44.8121" lon="0.49245">
        <ele>72.2</ele>
        <time>2015-10-05T07:08:04Z</time>
      </trkpt>
      <trkpt lat="44.81169" lon="0.49257">
        <ele>72</ele>
        <time>2015-10-05T07:08:15Z</time>
      </trkpt>
      <trkpt lat="44.81128" lon="0.49266">
        <ele>72.4</ele>
        <time>2015-10-05T07:08:26Z</time>
      </trkpt>
      <trkpt lat="44.81104" lon="0.49271">
        <ele>72.8</ele>
        <time>2015-10-05T07:08:32Z</time>
      </trkpt>
      <trkpt lat="44.81092" lon="0.49273">
        <ele>72.6</ele>
        <time>2015-10-05T07:08:35Z</time>
      </trkpt>
      <trkpt lat="44.81042" lon="0.49271">
        <ele>73.4</ele>
        <time>2015-10-05T07:08:48Z</time>
      </trkpt>
      <trkpt lat="44.81008" lon="0.49269">
        <ele>73.8</ele>
        <time>2015-10-05T07:08:57Z</time>
      </trkpt>
      <trkpt lat="44.81004" lon="0.49269">
        <ele>74</ele>
        <time>2015-10-05T07:08:58Z</time>
      </trkpt>
      <trkpt lat="44.80997" lon="0.49268">
        <ele>74.4</ele>
        <time>2015-10-05T07:09:00Z</time>
      </trkpt>
      <trkpt lat="44.80972" lon="0.49266">
        <ele>74.4</ele>
        <time>2015-10-05T07:09:07Z</time>
      </trkpt>
      <trkpt lat="44.80962" lon="0.49266">
        <ele>75</ele>
        <time>2015-10-05T07:09:10Z</time>
      </trkpt>
      <trkpt lat="44.80945" lon="0.49263">
        <ele>75.6</ele>
        <time>2015-10-05T07:09:15Z</time>
      </trkpt>
      <trkpt lat="44.80917" lon="0.49255">
        <ele>75.6</ele>
        <time>2015-10-05T07:09:23Z</time>
      </trkpt>
      <trkpt lat="44.80884" lon="0.49242">
        <ele>76</ele>
        <time>2015-10-05T07:09:32Z</time>
      </trkpt>
      <trkpt lat="44.80855" lon="0.4923">
        <ele>77.2</ele>
        <time>2015-10-05T07:09:40Z</time>
      </trkpt>
      <trkpt lat="44.80851" lon="0.49228">
        <ele>77.2</ele>
        <time>2015-10-05T07:09:41Z</time>
      </trkpt>
      <trkpt lat="44.80813" lon="0.49215">
        <ele>77.8</ele>
        <time>2015-10-05T07:09:51Z</time>
      </trkpt>
      <trkpt lat="44.8079" lon="0.49209">
        <ele>78.2</ele>
        <time>2015-10-05T07:09:57Z</time>
      </trkpt>
      <trkpt lat="44.80775" lon="0.49205">
        <ele>78.6</ele>
        <time>2015-10-05T07:10:01Z</time>
      </trkpt>
      <trkpt lat="44.80749" lon="0.49201">
        <ele>79.4</ele>
        <time>2015-10-05T07:10:08Z</time>
      </trkpt>
      <trkpt lat="44.80735" lon="0.49198">
        <ele>79.8</ele>
        <time>2015-10-05T07:10:12Z</time>
      </trkpt>
      <trkpt lat="44.80714" lon="0.49196">
        <ele>80.4</ele>
        <time>2015-10-05T07:10:18Z</time>
      </trkpt>
      <trkpt lat="44.80701" lon="0.49194">
        <ele>81.2</ele>
        <time>2015-10-05T07:10:22Z</time>
      </trkpt>
      <trkpt lat="44.80695" lon="0.49194">
        <ele>81.4</ele>
        <time>2015-10-05T07:10:24Z</time>
      </trkpt>
      <trkpt lat="44.80682" lon="0.49194">
        <ele>81.6</ele>
        <time>2015-10-05T07:10:28Z</time>
      </trkpt>
      <trkpt lat="44.8066" lon="0.49198">
        <ele>82.2</ele>
        <time>2015-10-05T07:10:35Z</time>
      </trkpt>
      <trkpt lat="44.80655" lon="0.49199">
        <ele>82.6</ele>
        <time>2015-10-05T07:10:37Z</time>
      </trkpt>
      <trkpt lat="44.80641" lon="0.49204">
        <ele>83</ele>
        <time>2015-10-05T07:10:42Z</time>
      </trkpt>
      <trkpt lat="44.80617" lon="0.49212">
        <ele>83.8</ele>
        <time>2015-10-05T07:10:51Z</time>
      </trkpt>
      <trkpt lat="44.80593" lon="0.49218">
        <ele>84.8</ele>
        <time>2015-10-05T07:10:59Z</time>
      </trkpt>
      <trkpt lat="44.80585" lon="0.49219">
        <ele>85.2</ele>
        <time>2015-10-05T07:11:02Z</time>
      </trkpt>
      <trkpt lat="44.80577" lon="0.4922">
        <ele>85.8</ele>
        <time>2015-10-05T07:11:05Z</time>
      </trkpt>
      <trkpt lat="44.80562" lon="0.4922">
        <ele>86.6</ele>
        <time>2015-10-05T07:11:11Z</time>
      </trkpt>
      <trkpt lat="44.8055" lon="0.49219">
        <ele>87</ele>
        <time>2015-10-05T07:11:16Z</time>
      </trkpt>
      <trkpt lat="44.80539" lon="0.49218">
        <ele>87.8</ele>
        <time>2015-10-05T07:11:21Z</time>
      </trkpt>
      <trkpt lat="44.80536" lon="0.49218">
        <ele>88</ele>
        <time>2015-10-05T07:11:22Z</time>
      </trkpt>
      <trkpt lat="44.80524" lon="0.49217">
        <ele>89</ele>
        <time>2015-10-05T07:11:27Z</time>
      </trkpt>
      <trkpt lat="44.80522" lon="0.49216">
        <ele>89.2</ele>
        <time>2015-10-05T07:11:28Z</time>
      </trkpt>
      <trkpt lat="44.80507" lon="0.49213">
        <ele>90.2</ele>
        <time>2015-10-05T07:11:34Z</time>
      </trkpt>
      <trkpt lat="44.80502" lon="0.49212">
        <ele>90.4</ele>
        <time>2015-10-05T07:11:36Z</time>
      </trkpt>
      <trkpt lat="44.80489" lon="0.49207">
        <ele>91.4</ele>
        <time>2015-10-05T07:11:42Z</time>
      </trkpt>
      <trkpt lat="44.80486" lon="0.49206">
        <ele>91.4</ele>
        <time>2015-10-05T07:11:43Z</time>
      </trkpt>
      <trkpt lat="44.80483" lon="0.49205">
        <ele>91.6</ele>
        <time>2015-10-05T07:11:45Z</time>
      </trkpt>
      <trkpt lat="44.80481" lon="0.49205">
        <ele>92</ele>
        <time>2015-10-05T07:11:47Z</time>
      </trkpt>
      <trkpt lat="44.8048" lon="0.49205">
        <ele>92</ele>
        <time>2015-10-05T07:11:48Z</time>
      </trkpt>
      <trkpt lat="44.80479" lon="0.49205">
        <ele>92.4</ele>
        <time>2015-10-05T07:11:53Z</time>
      </trkpt>
      <trkpt lat="44.80477" lon="0.49204">
        <ele>92.4</ele>
        <time>2015-10-05T07:12:45Z</time>
      </trkpt>
      <trkpt lat="44.80476" lon="0.49199">
        <ele>93.2</ele>
        <time>2015-10-05T07:12:49Z</time>
      </trkpt>
      <trkpt lat="44.80472" lon="0.49197">
        <ele>93.6</ele>
        <time>2015-10-05T07:13:05Z</time>
      </trkpt>
      <trkpt lat="44.80471" lon="0.49197">
        <ele>93.6</ele>
        <time>2015-10-05T07:13:06Z</time>
      </trkpt>
      <trkpt lat="44.8047" lon="0.49197">
        <ele>93.8</ele>
        <time>2015-10-05T07:13:07Z</time>
      </trkpt>
      <trkpt lat="44.80463" lon="0.49197">
        <ele>94.2</ele>
        <time>2015-10-05T07:13:13Z</time>
      </trkpt>
      <trkpt lat="44.80461" lon="0.49196">
        <ele>94.8</ele>
        <time>2015-10-05T07:13:16Z</time>
      </trkpt>
      <trkpt lat="44.80461" lon="0.49196">
        <ele>95</ele>
        <time>2015-10-05T07:13:19Z</time>
      </trkpt>
      <trkpt lat="44.80463" lon="0.49195">
        <ele>94.4</ele>
        <time>2015-10-05T07:14:09Z</time>
      </trkpt>
      <trkpt lat="44.80463" lon="0.49196">
        <ele>94.8</ele>
        <time>2015-10-05T07:14:11Z</time>
      </trkpt>
      <trkpt lat="44.80462" lon="0.49189">
        <ele>94.6</ele>
        <time>2015-10-05T07:16:10Z</time>
      </trkpt>
      <trkpt lat="44.80462" lon="0.49189">
        <ele>94.8</ele>
        <time>2015-10-05T07:16:13Z</time>
      </trkpt>
      <trkpt lat="44.80468" lon="0.49201">
        <ele>95.2</ele>
        <time>2015-10-05T07:21:44Z</time>
      </trkpt>
      <trkpt lat="44.80468" lon="0.49205">
        <ele>95</ele>
        <time>2015-10-05T07:21:47Z</time>
      </trkpt>
      <trkpt lat="44.80467" lon="0.4921">
        <ele>94.2</ele>
        <time>2015-10-05T07:21:51Z</time>
      </trkpt>
      <trkpt lat="44.80467" lon="0.49211">
        <ele>94.4</ele>
        <time>2015-10-05T07:21:52Z</time>
      </trkpt>
      <trkpt lat="44.80465" lon="0.49211">
        <ele>94.2</ele>
        <time>2015-10-05T07:22:00Z</time>
      </trkpt>
      <trkpt lat="44.80461" lon="0.4921">
        <ele>94.6</ele>
        <time>2015-10-05T07:22:02Z</time>
      </trkpt>
      <trkpt lat="44.80449" lon="0.49208">
        <ele>95.8</ele>
        <time>2015-10-05T07:22:06Z</time>
      </trkpt>
      <trkpt lat="44.80444" lon="0.49208">
        <ele>96.6</ele>
        <time>2015-10-05T07:22:08Z</time>
      </trkpt>
      <trkpt lat="44.80441" lon="0.49208">
        <ele>96.8</ele>
        <time>2015-10-05T07:22:09Z</time>
      </trkpt>
      <trkpt lat="44.80422" lon="0.49203">
        <ele>98.2</ele>
        <time>2015-10-05T07:22:15Z</time>
      </trkpt>
      <trkpt lat="44.80413" lon="0.49202">
        <ele>99.4</ele>
        <time>2015-10-05T07:22:18Z</time>
      </trkpt>
      <trkpt lat="44.80404" lon="0.49201">
        <ele>100.4</ele>
        <time>2015-10-05T07:22:21Z</time>
      </trkpt>
      <trkpt lat="44.80401" lon="0.492">
        <ele>100.6</ele>
        <time>2015-10-05T07:22:22Z</time>
      </trkpt>
      <trkpt lat="44.80387" lon="0.492">
        <ele>101.6</ele>
        <time>2015-10-05T07:22:28Z</time>
      </trkpt>
      <trkpt lat="44.80371" lon="0.49198">
        <ele>103</ele>
        <time>2015-10-05T07:22:35Z</time>
      </trkpt>
      <trkpt lat="44.8036" lon="0.49198">
        <ele>104.2</ele>
        <time>2015-10-05T07:22:40Z</time>
      </trkpt>
      <trkpt lat="44.80355" lon="0.49197">
        <ele>104.4</ele>
        <time>2015-10-05T07:22:42Z</time>
      </trkpt>
      <trkpt lat="44.80348" lon="0.49196">
        <ele>105.2</ele>
        <time>2015-10-05T07:22:46Z</time>
      </trkpt>
      <trkpt lat="44.80344" lon="0.49195">
        <ele>105.6</ele>
        <time>2015-10-05T07:22:48Z</time>
      </trkpt>
      <trkpt lat="44.80331" lon="0.49193">
        <ele>106.4</ele>
        <time>2015-10-05T07:22:54Z</time>
      </trkpt>
      <trkpt lat="44.80325" lon="0.49192">
        <ele>107</ele>
        <time>2015-10-05T07:22:57Z</time>
      </trkpt>
      <trkpt lat="44.80319" lon="0.49192">
        <ele>107.4</ele>
        <time>2015-10-05T07:23:00Z</time>
      </trkpt>
      <trkpt lat="44.80309" lon="0.49191">
        <ele>108.2</ele>
        <time>2015-10-05T07:23:05Z</time>
      </trkpt>
      <trkpt lat="44.80304" lon="0.49191">
        <ele>108.6</ele>
        <time>2015-10-05T07:23:07Z</time>
      </trkpt>
      <trkpt lat="44.803" lon="0.4919">
        <ele>109.6</ele>
        <time>2015-10-05T07:23:09Z</time>
      </trkpt>
      <trkpt lat="44.80296" lon="0.4919">
        <ele>109.8</ele>
        <time>2015-10-05T07:23:11Z</time>
      </trkpt>
      <trkpt lat="44.80284" lon="0.49189">
        <ele>110.6</ele>
        <time>2015-10-05T07:23:16Z</time>
      </trkpt>
      <trkpt lat="44.80278" lon="0.49188">
        <ele>111.2</ele>
        <time>2015-10-05T07:23:19Z</time>
      </trkpt>
      <trkpt lat="44.8027" lon="0.49188">
        <ele>111.8</ele>
        <time>2015-10-05T07:23:22Z</time>
      </trkpt>
      <trkpt lat="44.8026" lon="0.49189">
        <ele>112.6</ele>
        <time>2015-10-05T07:23:26Z</time>
      </trkpt>
      <trkpt lat="44.80257" lon="0.49189">
        <ele>113</ele>
        <time>2015-10-05T07:23:27Z</time>
      </trkpt>
      <trkpt lat="44.80245" lon="0.49189">
        <ele>114</ele>
        <time>2015-10-05T07:23:32Z</time>
      </trkpt>
      <trkpt lat="44.80234" lon="0.49191">
        <ele>115</ele>
        <time>2015-10-05T07:23:37Z</time>
      </trkpt>
      <trkpt lat="44.80229" lon="0.49192">
        <ele>115</ele>
        <time>2015-10-05T07:23:39Z</time>
      </trkpt>
      <trkpt lat="44.80219" lon="0.49193">
        <ele>116.2</ele>
        <time>2015-10-05T07:23:43Z</time>
      </trkpt>
      <trkpt lat="44.80209" lon="0.49194">
        <ele>117.4</ele>
        <time>2015-10-05T07:23:47Z</time>
      </trkpt>
      <trkpt lat="44.80197" lon="0.49193">
        <ele>118.4</ele>
        <time>2015-10-05T07:23:52Z</time>
      </trkpt>
      <trkpt lat="44.80188" lon="0.49194">
        <ele>119.2</ele>
        <time>2015-10-05T07:23:56Z</time>
      </trkpt>
      <trkpt lat="44.80186" lon="0.49195">
        <ele>119.6</ele>
        <time>2015-10-05T07:23:57Z</time>
      </trkpt>
      <trkpt lat="44.80172" lon="0.49197">
        <ele>120.8</ele>
        <time>2015-10-05T07:24:02Z</time>
      </trkpt>
      <trkpt lat="44.80158" lon="0.49198">
        <ele>121.8</ele>
        <time>2015-10-05T07:24:08Z</time>
      </trkpt>
      <trkpt lat="44.80145" lon="0.49199">
        <ele>123</ele>
        <time>2015-10-05T07:24:14Z</time>
      </trkpt>
      <trkpt lat="44.80139" lon="0.492">
        <ele>123.8</ele>
        <time>2015-10-05T07:24:17Z</time>
      </trkpt>
      <trkpt lat="44.80133" lon="0.49201">
        <ele>124.4</ele>
        <time>2015-10-05T07:24:19Z</time>
      </trkpt>
      <trkpt lat="44.80121" lon="0.49203">
        <ele>125.2</ele>
        <time>2015-10-05T07:24:23Z</time>
      </trkpt>
      <trkpt lat="44.80118" lon="0.49204">
        <ele>125.4</ele>
        <time>2015-10-05T07:24:24Z</time>
      </trkpt>
      <trkpt lat="44.80107" lon="0.49209">
        <ele>126.4</ele>
        <time>2015-10-05T07:24:28Z</time>
      </trkpt>
      <trkpt lat="44.80105" lon="0.49211">
        <ele>126.6</ele>
        <time>2015-10-05T07:24:29Z</time>
      </trkpt>
      <trkpt lat="44.80093" lon="0.49216">
        <ele>127.6</ele>
        <time>2015-10-05T07:24:34Z</time>
      </trkpt>
      <trkpt lat="44.80086" lon="0.4922">
        <ele>128.2</ele>
        <time>2015-10-05T07:24:37Z</time>
      </trkpt>
      <trkpt lat="44.8008" lon="0.49223">
        <ele>128.8</ele>
        <time>2015-10-05T07:24:40Z</time>
      </trkpt>
      <trkpt lat="44.80076" lon="0.49226">
        <ele>129.2</ele>
        <time>2015-10-05T07:24:43Z</time>
      </trkpt>
      <trkpt lat="44.80065" lon="0.4923">
        <ele>129.8</ele>
        <time>2015-10-05T07:24:47Z</time>
      </trkpt>
      <trkpt lat="44.80055" lon="0.49235">
        <ele>130</ele>
        <time>2015-10-05T07:24:50Z</time>
      </trkpt>
      <trkpt lat="44.8005" lon="0.49238">
        <ele>131.2</ele>
        <time>2015-10-05T07:24:52Z</time>
      </trkpt>
      <trkpt lat="44.80034" lon="0.49246">
        <ele>131.8</ele>
        <time>2015-10-05T07:24:58Z</time>
      </trkpt>
      <trkpt lat="44.80027" lon="0.49249">
        <ele>132.6</ele>
        <time>2015-10-05T07:25:00Z</time>
      </trkpt>
      <trkpt lat="44.80013" lon="0.49256">
        <ele>133.4</ele>
        <time>2015-10-05T07:25:05Z</time>
      </trkpt>
      <trkpt lat="44.8001" lon="0.49257">
        <ele>133.6</ele>
        <time>2015-10-05T07:25:06Z</time>
      </trkpt>
      <trkpt lat="44.80002" lon="0.49261">
        <ele>134.8</ele>
        <time>2015-10-05T07:25:09Z</time>
      </trkpt>
      <trkpt lat="44.79994" lon="0.49266">
        <ele>135.2</ele>
        <time>2015-10-05T07:25:12Z</time>
      </trkpt>
      <trkpt lat="44.79989" lon="0.49268">
        <ele>136.2</ele>
        <time>2015-10-05T07:25:14Z</time>
      </trkpt>
      <trkpt lat="44.79985" lon="0.49267">
        <ele>136</ele>
        <time>2015-10-05T07:25:17Z</time>
      </trkpt>
      <trkpt lat="44.79978" lon="0.4927">
        <ele>137.4</ele>
        <time>2015-10-05T07:27:42Z</time>
      </trkpt>
      <trkpt lat="44.79977" lon="0.49273">
        <ele>138</ele>
        <time>2015-10-05T07:27:44Z</time>
      </trkpt>
      <trkpt lat="44.79967" lon="0.49277">
        <ele>138.4</ele>
        <time>2015-10-05T07:27:48Z</time>
      </trkpt>
      <trkpt lat="44.79962" lon="0.4928">
        <ele>138.6</ele>
        <time>2015-10-05T07:27:50Z</time>
      </trkpt>
      <trkpt lat="44.79948" lon="0.49286">
        <ele>139.4</ele>
        <time>2015-10-05T07:27:55Z</time>
      </trkpt>
      <trkpt lat="44.79946" lon="0.49288">
        <ele>139.8</ele>
        <time>2015-10-05T07:27:56Z</time>
      </trkpt>
      <trkpt lat="44.79934" lon="0.49295">
        <ele>141</ele>
        <time>2015-10-05T07:28:01Z</time>
      </trkpt>
      <trkpt lat="44.79927" lon="0.49298">
        <ele>141.4</ele>
        <time>2015-10-05T07:28:04Z</time>
      </trkpt>
      <trkpt lat="44.7992" lon="0.49302">
        <ele>142.2</ele>
        <time>2015-10-05T07:28:07Z</time>
      </trkpt>
      <trkpt lat="44.79912" lon="0.49302">
        <ele>143</ele>
        <time>2015-10-05T07:28:10Z</time>
      </trkpt>
      <trkpt lat="44.79907" lon="0.49302">
        <ele>143.4</ele>
        <time>2015-10-05T07:28:12Z</time>
      </trkpt>
      <trkpt lat="44.799" lon="0.49302">
        <ele>144.4</ele>
        <time>2015-10-05T07:28:16Z</time>
      </trkpt>
      <trkpt lat="44.79891" lon="0.493">
        <ele>145.4</ele>
        <time>2015-10-05T07:28:22Z</time>
      </trkpt>
      <trkpt lat="44.7989" lon="0.49299">
        <ele>145.4</ele>
        <time>2015-10-05T07:28:23Z</time>
      </trkpt>
      <trkpt lat="44.79882" lon="0.49292">
        <ele>146.6</ele>
        <time>2015-10-05T07:28:28Z</time>
      </trkpt>
      <trkpt lat="44.7988" lon="0.49291">
        <ele>146.6</ele>
        <time>2015-10-05T07:28:29Z</time>
      </trkpt>
      <trkpt lat="44.79874" lon="0.49283">
        <ele>147.6</ele>
        <time>2015-10-05T07:28:33Z</time>
      </trkpt>
      <trkpt lat="44.79871" lon="0.49279">
        <ele>148</ele>
        <time>2015-10-05T07:28:35Z</time>
      </trkpt>
      <trkpt lat="44.79866" lon="0.4927">
        <ele>148.8</ele>
        <time>2015-10-05T07:28:39Z</time>
      </trkpt>
      <trkpt lat="44.79862" lon="0.49264">
        <ele>149.4</ele>
        <time>2015-10-05T07:28:42Z</time>
      </trkpt>
      <trkpt lat="44.79858" lon="0.49257">
        <ele>150</ele>
        <time>2015-10-05T07:28:45Z</time>
      </trkpt>
      <trkpt lat="44.79849" lon="0.49243">
        <ele>151</ele>
        <time>2015-10-05T07:28:51Z</time>
      </trkpt>
      <trkpt lat="44.79847" lon="0.49241">
        <ele>151.2</ele>
        <time>2015-10-05T07:28:52Z</time>
      </trkpt>
      <trkpt lat="44.79843" lon="0.49234">
        <ele>152.2</ele>
        <time>2015-10-05T07:28:56Z</time>
      </trkpt>
      <trkpt lat="44.7984" lon="0.4923">
        <ele>152.4</ele>
        <time>2015-10-05T07:28:58Z</time>
      </trkpt>
      <trkpt lat="44.79832" lon="0.49218">
        <ele>153.4</ele>
        <time>2015-10-05T07:29:04Z</time>
      </trkpt>
      <trkpt lat="44.79828" lon="0.49215">
        <ele>153.6</ele>
        <time>2015-10-05T07:29:06Z</time>
      </trkpt>
      <trkpt lat="44.79823" lon="0.4921">
        <ele>154.6</ele>
        <time>2015-10-05T07:29:09Z</time>
      </trkpt>
      <trkpt lat="44.79816" lon="0.49205">
        <ele>155.4</ele>
        <time>2015-10-05T07:29:13Z</time>
      </trkpt>
      <trkpt lat="44.79814" lon="0.49204">
        <ele>155.8</ele>
        <time>2015-10-05T07:29:14Z</time>
      </trkpt>
      <trkpt lat="44.79804" lon="0.49196">
        <ele>155.4</ele>
        <time>2015-10-05T07:29:19Z</time>
      </trkpt>
      <trkpt lat="44.79789" lon="0.49191">
        <ele>157.2</ele>
        <time>2015-10-05T07:29:26Z</time>
      </trkpt>
      <trkpt lat="44.79787" lon="0.49191">
        <ele>157.2</ele>
        <time>2015-10-05T07:29:27Z</time>
      </trkpt>
      <trkpt lat="44.79775" lon="0.49192">
        <ele>158.4</ele>
        <time>2015-10-05T07:29:33Z</time>
      </trkpt>
      <trkpt lat="44.79771" lon="0.49193">
        <ele>158.8</ele>
        <time>2015-10-05T07:29:35Z</time>
      </trkpt>
      <trkpt lat="44.79766" lon="0.49194">
        <ele>159.6</ele>
        <time>2015-10-05T07:29:38Z</time>
      </trkpt>
      <trkpt lat="44.79758" lon="0.49198">
        <ele>160</ele>
        <time>2015-10-05T07:29:42Z</time>
      </trkpt>
      <trkpt lat="44.79757" lon="0.49198">
        <ele>160.8</ele>
        <time>2015-10-05T07:29:43Z</time>
      </trkpt>
      <trkpt lat="44.79747" lon="0.49203">
        <ele>162</ele>
        <time>2015-10-05T07:29:48Z</time>
      </trkpt>
      <trkpt lat="44.79746" lon="0.49204">
        <ele>162</ele>
        <time>2015-10-05T07:29:49Z</time>
      </trkpt>
      <trkpt lat="44.79732" lon="0.49213">
        <ele>162.4</ele>
        <time>2015-10-05T07:29:57Z</time>
      </trkpt>
      <trkpt lat="44.7972" lon="0.49218">
        <ele>163.4</ele>
        <time>2015-10-05T07:30:02Z</time>
      </trkpt>
      <trkpt lat="44.79712" lon="0.49223">
        <ele>163.6</ele>
        <time>2015-10-05T07:30:06Z</time>
      </trkpt>
      <trkpt lat="44.797" lon="0.49228">
        <ele>164.4</ele>
        <time>2015-10-05T07:30:10Z</time>
      </trkpt>
      <trkpt lat="44.79694" lon="0.4923">
        <ele>165.2</ele>
        <time>2015-10-05T07:30:12Z</time>
      </trkpt>
      <trkpt lat="44.79689" lon="0.4923">
        <ele>165.6</ele>
        <time>2015-10-05T07:30:14Z</time>
      </trkpt>
      <trkpt lat="44.79676" lon="0.49231">
        <ele>166.6</ele>
        <time>2015-10-05T07:30:19Z</time>
      </trkpt>
      <trkpt lat="44.79665" lon="0.49228">
        <ele>168</ele>
        <time>2015-10-05T07:30:23Z</time>
      </trkpt>
      <trkpt lat="44.79658" lon="0.49225">
        <ele>168.6</ele>
        <time>2015-10-05T07:30:26Z</time>
      </trkpt>
      <trkpt lat="44.79648" lon="0.49222">
        <ele>169.4</ele>
        <time>2015-10-05T07:30:30Z</time>
      </trkpt>
      <trkpt lat="44.79641" lon="0.49218">
        <ele>169.8</ele>
        <time>2015-10-05T07:30:33Z</time>
      </trkpt>
      <trkpt lat="44.79628" lon="0.49213">
        <ele>170.4</ele>
        <time>2015-10-05T07:30:38Z</time>
      </trkpt>
      <trkpt lat="44.7962" lon="0.49211">
        <ele>171.4</ele>
        <time>2015-10-05T07:30:41Z</time>
      </trkpt>
      <trkpt lat="44.79618" lon="0.4921">
        <ele>171.6</ele>
        <time>2015-10-05T07:30:42Z</time>
      </trkpt>
      <trkpt lat="44.796" lon="0.49207">
        <ele>172.6</ele>
        <time>2015-10-05T07:30:49Z</time>
      </trkpt>
      <trkpt lat="44.79597" lon="0.49208">
        <ele>173</ele>
        <time>2015-10-05T07:30:50Z</time>
      </trkpt>
      <trkpt lat="44.79582" lon="0.49211">
        <ele>173.6</ele>
        <time>2015-10-05T07:30:55Z</time>
      </trkpt>
      <trkpt lat="44.79572" lon="0.49214">
        <ele>174.2</ele>
        <time>2015-10-05T07:30:58Z</time>
      </trkpt>
      <trkpt lat="44.79562" lon="0.49219">
        <ele>174.6</ele>
        <time>2015-10-05T07:31:01Z</time>
      </trkpt>
      <trkpt lat="44.7954" lon="0.49228">
        <ele>175.2</ele>
        <time>2015-10-05T07:31:07Z</time>
      </trkpt>
      <trkpt lat="44.79538" lon="0.49231">
        <ele>175.2</ele>
        <time>2015-10-05T07:31:08Z</time>
      </trkpt>
      <trkpt lat="44.79533" lon="0.49243">
        <ele>175.8</ele>
        <time>2015-10-05T07:31:12Z</time>
      </trkpt>
      <trkpt lat="44.79533" lon="0.49245">
        <ele>176.4</ele>
        <time>2015-10-05T07:31:13Z</time>
      </trkpt>
      <trkpt lat="44.79533" lon="0.49251">
        <ele>176</ele>
        <time>2015-10-05T07:31:17Z</time>
      </trkpt>
      <trkpt lat="44.79533" lon="0.49252">
        <ele>176</ele>
        <time>2015-10-05T07:31:18Z</time>
      </trkpt>
      <trkpt lat="44.79528" lon="0.49252">
        <ele>175.8</ele>
        <time>2015-10-05T07:32:16Z</time>
      </trkpt>
      <trkpt lat="44.79521" lon="0.49251">
        <ele>175.8</ele>
        <time>2015-10-05T07:32:22Z</time>
      </trkpt>
      <trkpt lat="44.79521" lon="0.49251">
        <ele>175.6</ele>
        <time>2015-10-05T07:32:23Z</time>
      </trkpt>
      <trkpt lat="44.79525" lon="0.49247">
        <ele>175.4</ele>
        <time>2015-10-05T07:33:22Z</time>
      </trkpt>
      <trkpt lat="44.79529" lon="0.49248">
        <ele>175.2</ele>
        <time>2015-10-05T07:33:24Z</time>
      </trkpt>
      <trkpt lat="44.79533" lon="0.49254">
        <ele>175</ele>
        <time>2015-10-05T07:33:29Z</time>
      </trkpt>
      <trkpt lat="44.79533" lon="0.49258">
        <ele>175.2</ele>
        <time>2015-10-05T07:33:31Z</time>
      </trkpt>
      <trkpt lat="44.79535" lon="0.49263">
        <ele>175.6</ele>
        <time>2015-10-05T07:33:35Z</time>
      </trkpt>
      <trkpt lat="44.79537" lon="0.49263">
        <ele>175.8</ele>
        <time>2015-10-05T07:33:36Z</time>
      </trkpt>
      <trkpt lat="44.79537" lon="0.49256">
        <ele>175.8</ele>
        <time>2015-10-05T07:33:39Z</time>
      </trkpt>
      <trkpt lat="44.79527" lon="0.49244">
        <ele>175.8</ele>
        <time>2015-10-05T07:33:44Z</time>
      </trkpt>
      <trkpt lat="44.79513" lon="0.49238">
        <ele>175.8</ele>
        <time>2015-10-05T07:33:49Z</time>
      </trkpt>
      <trkpt lat="44.79495" lon="0.49235">
        <ele>176.2</ele>
        <time>2015-10-05T07:33:55Z</time>
      </trkpt>
      <trkpt lat="44.79493" lon="0.49234">
        <ele>176.4</ele>
        <time>2015-10-05T07:33:56Z</time>
      </trkpt>
      <trkpt lat="44.79485" lon="0.49231">
        <ele>176.4</ele>
        <time>2015-10-05T07:34:01Z</time>
      </trkpt>
      <trkpt lat="44.79476" lon="0.49229">
        <ele>177</ele>
        <time>2015-10-05T07:34:07Z</time>
      </trkpt>
      <trkpt lat="44.79471" lon="0.49228">
        <ele>177.6</ele>
        <time>2015-10-05T07:34:11Z</time>
      </trkpt>
      <trkpt lat="44.7947" lon="0.49227">
        <ele>177.6</ele>
        <time>2015-10-05T07:34:12Z</time>
      </trkpt>
      <trkpt lat="44.79456" lon="0.49222">
        <ele>178.6</ele>
        <time>2015-10-05T07:34:18Z</time>
      </trkpt>
      <trkpt lat="44.79445" lon="0.49216">
        <ele>179.6</ele>
        <time>2015-10-05T07:34:22Z</time>
      </trkpt>
      <trkpt lat="44.79441" lon="0.49212">
        <ele>179.8</ele>
        <time>2015-10-05T07:34:24Z</time>
      </trkpt>
      <trkpt lat="44.7943" lon="0.49204">
        <ele>180.8</ele>
        <time>2015-10-05T07:34:29Z</time>
      </trkpt>
      <trkpt lat="44.79427" lon="0.49199">
        <ele>181.2</ele>
        <time>2015-10-05T07:34:31Z</time>
      </trkpt>
      <trkpt lat="44.79425" lon="0.49196">
        <ele>181.8</ele>
        <time>2015-10-05T07:34:32Z</time>
      </trkpt>
      <trkpt lat="44.79417" lon="0.49186">
        <ele>182.8</ele>
        <time>2015-10-05T07:34:36Z</time>
      </trkpt>
      <trkpt lat="44.79409" lon="0.49177">
        <ele>183.4</ele>
        <time>2015-10-05T07:34:40Z</time>
      </trkpt>
      <trkpt lat="44.79403" lon="0.4917">
        <ele>183.8</ele>
        <time>2015-10-05T07:34:43Z</time>
      </trkpt>
      <trkpt lat="44.79397" lon="0.49161">
        <ele>185</ele>
        <time>2015-10-05T07:34:46Z</time>
      </trkpt>
      <trkpt lat="44.79389" lon="0.4915">
        <ele>185</ele>
        <time>2015-10-05T07:34:52Z</time>
      </trkpt>
      <trkpt lat="44.79384" lon="0.49142">
        <ele>185</ele>
        <time>2015-10-05T07:35:01Z</time>
      </trkpt>
      <trkpt lat="44.79378" lon="0.49141">
        <ele>185</ele>
        <time>2015-10-05T07:35:41Z</time>
      </trkpt>
      <trkpt lat="44.79374" lon="0.49143">
        <ele>185.4</ele>
        <time>2015-10-05T07:35:43Z</time>
      </trkpt>
      <trkpt lat="44.79369" lon="0.49146">
        <ele>186</ele>
        <time>2015-10-05T07:35:45Z</time>
      </trkpt>
      <trkpt lat="44.79367" lon="0.49147">
        <ele>185.8</ele>
        <time>2015-10-05T07:35:46Z</time>
      </trkpt>
      <trkpt lat="44.79358" lon="0.49152">
        <ele>185.8</ele>
        <time>2015-10-05T07:35:50Z</time>
      </trkpt>
      <trkpt lat="44.79351" lon="0.49158">
        <ele>186.8</ele>
        <time>2015-10-05T07:35:56Z</time>
      </trkpt>
      <trkpt lat="44.79349" lon="0.4916">
        <ele>186.6</ele>
        <time>2015-10-05T07:36:00Z</time>
      </trkpt>
      <trkpt lat="44.7935" lon="0.49161">
        <ele>186.6</ele>
        <time>2015-10-05T07:36:01Z</time>
      </trkpt>
      <trkpt lat="44.79353" lon="0.49172">
        <ele>186.6</ele>
        <time>2015-10-05T07:36:05Z</time>
      </trkpt>
      <trkpt lat="44.79353" lon="0.49185">
        <ele>187</ele>
        <time>2015-10-05T07:36:08Z</time>
      </trkpt>
      <trkpt lat="44.79355" lon="0.49197">
        <ele>187.8</ele>
        <time>2015-10-05T07:36:11Z</time>
      </trkpt>
      <trkpt lat="44.79355" lon="0.49201">
        <ele>188.2</ele>
        <time>2015-10-05T07:36:12Z</time>
      </trkpt>
      <trkpt lat="44.79356" lon="0.49226">
        <ele>189.2</ele>
        <time>2015-10-05T07:36:18Z</time>
      </trkpt>
      <trkpt lat="44.79356" lon="0.49229">
        <ele>189.4</ele>
        <time>2015-10-05T07:36:19Z</time>
      </trkpt>
      <trkpt lat="44.79352" lon="0.49234">
        <ele>189.2</ele>
        <time>2015-10-05T07:36:22Z</time>
      </trkpt>
      <trkpt lat="44.79352" lon="0.49236">
        <ele>189.2</ele>
        <time>2015-10-05T07:36:23Z</time>
      </trkpt>
      <trkpt lat="44.79356" lon="0.49235">
        <ele>189.8</ele>
        <time>2015-10-05T07:36:26Z</time>
      </trkpt>
      <trkpt lat="44.79361" lon="0.49223">
        <ele>188.6</ele>
        <time>2015-10-05T07:36:32Z</time>
      </trkpt>
      <trkpt lat="44.79361" lon="0.49222">
        <ele>188.4</ele>
        <time>2015-10-05T07:36:33Z</time>
      </trkpt>
      <trkpt lat="44.7936" lon="0.4922">
        <ele>188.4</ele>
        <time>2015-10-05T07:36:35Z</time>
      </trkpt>
      <trkpt lat="44.7936" lon="0.49214">
        <ele>188.4</ele>
        <time>2015-10-05T07:36:38Z</time>
      </trkpt>
      <trkpt lat="44.7936" lon="0.49207">
        <ele>188.4</ele>
        <time>2015-10-05T07:36:40Z</time>
      </trkpt>
      <trkpt lat="44.79362" lon="0.49201">
        <ele>188</ele>
        <time>2015-10-05T07:36:43Z</time>
      </trkpt>
      <trkpt lat="44.79359" lon="0.49193">
        <ele>187.8</ele>
        <time>2015-10-05T07:36:59Z</time>
      </trkpt>
      <trkpt lat="44.79358" lon="0.49186">
        <ele>187.4</ele>
        <time>2015-10-05T07:37:01Z</time>
      </trkpt>
      <trkpt lat="44.79359" lon="0.49163">
        <ele>186.8</ele>
        <time>2015-10-05T07:37:06Z</time>
      </trkpt>
      <trkpt lat="44.79365" lon="0.49153">
        <ele>186</ele>
        <time>2015-10-05T07:37:09Z</time>
      </trkpt>
      <trkpt lat="44.79368" lon="0.49152">
        <ele>186</ele>
        <time>2015-10-05T07:37:10Z</time>
      </trkpt>
      <trkpt lat="44.79376" lon="0.4915">
        <ele>185.4</ele>
        <time>2015-10-05T07:37:13Z</time>
      </trkpt>
      <trkpt lat="44.79386" lon="0.49141">
        <ele>185</ele>
        <time>2015-10-05T07:37:18Z</time>
      </trkpt>
      <trkpt lat="44.79385" lon="0.49136">
        <ele>185</ele>
        <time>2015-10-05T07:37:19Z</time>
      </trkpt>
      <trkpt lat="44.79378" lon="0.49108">
        <ele>184.2</ele>
        <time>2015-10-05T07:37:24Z</time>
      </trkpt>
      <trkpt lat="44.7938" lon="0.49103">
        <ele>184</ele>
        <time>2015-10-05T07:37:25Z</time>
      </trkpt>
      <trkpt lat="44.79384" lon="0.49098">
        <ele>183.8</ele>
        <time>2015-10-05T07:37:27Z</time>
      </trkpt>
      <trkpt lat="44.79384" lon="0.4909">
        <ele>184.2</ele>
        <time>2015-10-05T07:37:29Z</time>
      </trkpt>
      <trkpt lat="44.79381" lon="0.49082">
        <ele>183.6</ele>
        <time>2015-10-05T07:37:31Z</time>
      </trkpt>
      <trkpt lat="44.79378" lon="0.49074">
        <ele>183.2</ele>
        <time>2015-10-05T07:37:33Z</time>
      </trkpt>
      <trkpt lat="44.79377" lon="0.49071">
        <ele>182.8</ele>
        <time>2015-10-05T07:37:34Z</time>
      </trkpt>
      <trkpt lat="44.79371" lon="0.49059">
        <ele>182.2</ele>
        <time>2015-10-05T07:37:37Z</time>
      </trkpt>
      <trkpt lat="44.79362" lon="0.4903">
        <ele>182.6</ele>
        <time>2015-10-05T07:37:43Z</time>
      </trkpt>
      <trkpt lat="44.79356" lon="0.49013">
        <ele>181.6</ele>
        <time>2015-10-05T07:37:46Z</time>
      </trkpt>
      <trkpt lat="44.79348" lon="0.49002">
        <ele>181</ele>
        <time>2015-10-05T07:37:48Z</time>
      </trkpt>
      <trkpt lat="44.79338" lon="0.48992">
        <ele>180.6</ele>
        <time>2015-10-05T07:37:50Z</time>
      </trkpt>
      <trkpt lat="44.7933" lon="0.48981">
        <ele>181</ele>
        <time>2015-10-05T07:37:52Z</time>
      </trkpt>
      <trkpt lat="44.79325" lon="0.48968">
        <ele>181</ele>
        <time>2015-10-05T07:37:54Z</time>
      </trkpt>
      <trkpt lat="44.79319" lon="0.48951">
        <ele>180.4</ele>
        <time>2015-10-05T07:37:57Z</time>
      </trkpt>
      <trkpt lat="44.79305" lon="0.48913">
        <ele>180.6</ele>
        <time>2015-10-05T07:38:03Z</time>
      </trkpt>
      <trkpt lat="44.79288" lon="0.48864">
        <ele>180.6</ele>
        <time>2015-10-05T07:38:10Z</time>
      </trkpt>
      <trkpt lat="44.79269" lon="0.48824">
        <ele>180.8</ele>
        <time>2015-10-05T07:38:16Z</time>
      </trkpt>
      <trkpt lat="44.79256" lon="0.48811">
        <ele>181.8</ele>
        <time>2015-10-05T07:38:19Z</time>
      </trkpt>
      <trkpt lat="44.79252" lon="0.48808">
        <ele>181.8</ele>
        <time>2015-10-05T07:38:20Z</time>
      </trkpt>
      <trkpt lat="44.79248" lon="0.48805">
        <ele>181.4</ele>
        <time>2015-10-05T07:38:21Z</time>
      </trkpt>
      <trkpt lat="44.7923" lon="0.48793">
        <ele>180.6</ele>
        <time>2015-10-05T07:38:25Z</time>
      </trkpt>
      <trkpt lat="44.79221" lon="0.48785">
        <ele>180.6</ele>
        <time>2015-10-05T07:38:27Z</time>
      </trkpt>
      <trkpt lat="44.7921" lon="0.48764">
        <ele>180.6</ele>
        <time>2015-10-05T07:38:30Z</time>
      </trkpt>
      <trkpt lat="44.79207" lon="0.48746">
        <ele>179.4</ele>
        <time>2015-10-05T07:38:32Z</time>
      </trkpt>
      <trkpt lat="44.79206" lon="0.48726">
        <ele>178.4</ele>
        <time>2015-10-05T07:38:34Z</time>
      </trkpt>
      <trkpt lat="44.79207" lon="0.48715">
        <ele>178</ele>
        <time>2015-10-05T07:38:35Z</time>
      </trkpt>
      <trkpt lat="44.79216" lon="0.48685">
        <ele>177</ele>
        <time>2015-10-05T07:38:38Z</time>
      </trkpt>
      <trkpt lat="44.79238" lon="0.48651">
        <ele>176</ele>
        <time>2015-10-05T07:38:42Z</time>
      </trkpt>
      <trkpt lat="44.79243" lon="0.48643">
        <ele>175.8</ele>
        <time>2015-10-05T07:38:43Z</time>
      </trkpt>
      <trkpt lat="44.79261" lon="0.48604">
        <ele>175</ele>
        <time>2015-10-05T07:38:47Z</time>
      </trkpt>
      <trkpt lat="44.79271" lon="0.48574">
        <ele>174.6</ele>
        <time>2015-10-05T07:38:50Z</time>
      </trkpt>
      <trkpt lat="44.79289" lon="0.48523">
        <ele>174</ele>
        <time>2015-10-05T07:38:55Z</time>
      </trkpt>
      <trkpt lat="44.79292" lon="0.48512">
        <ele>173.6</ele>
        <time>2015-10-05T07:38:56Z</time>
      </trkpt>
      <trkpt lat="44.79311" lon="0.48457">
        <ele>172.6</ele>
        <time>2015-10-05T07:39:01Z</time>
      </trkpt>
      <trkpt lat="44.79321" lon="0.48425">
        <ele>172</ele>
        <time>2015-10-05T07:39:04Z</time>
      </trkpt>
      <trkpt lat="44.79325" lon="0.48414">
        <ele>171.6</ele>
        <time>2015-10-05T07:39:05Z</time>
      </trkpt>
      <trkpt lat="44.79339" lon="0.48358">
        <ele>171</ele>
        <time>2015-10-05T07:39:10Z</time>
      </trkpt>
      <trkpt lat="44.7934" lon="0.48347">
        <ele>171</ele>
        <time>2015-10-05T07:39:11Z</time>
      </trkpt>
      <trkpt lat="44.79343" lon="0.48282">
        <ele>171.4</ele>
        <time>2015-10-05T07:39:17Z</time>
      </trkpt>
      <trkpt lat="44.79348" lon="0.48213">
        <ele>170.6</ele>
        <time>2015-10-05T07:39:24Z</time>
      </trkpt>
      <trkpt lat="44.7936" lon="0.48158">
        <ele>171</ele>
        <time>2015-10-05T07:39:30Z</time>
      </trkpt>
      <trkpt lat="44.79367" lon="0.48106">
        <ele>171.4</ele>
        <time>2015-10-05T07:39:36Z</time>
      </trkpt>
      <trkpt lat="44.7937" lon="0.48029">
        <ele>171.2</ele>
        <time>2015-10-05T07:39:45Z</time>
      </trkpt>
      <trkpt lat="44.79376" lon="0.47959">
        <ele>171.8</ele>
        <time>2015-10-05T07:39:53Z</time>
      </trkpt>
      <trkpt lat="44.79381" lon="0.47913">
        <ele>172.6</ele>
        <time>2015-10-05T07:39:58Z</time>
      </trkpt>
      <trkpt lat="44.79381" lon="0.47904">
        <ele>172.8</ele>
        <time>2015-10-05T07:39:59Z</time>
      </trkpt>
      <trkpt lat="44.79386" lon="0.47848">
        <ele>173.2</ele>
        <time>2015-10-05T07:40:06Z</time>
      </trkpt>
      <trkpt lat="44.79388" lon="0.47833">
        <ele>173.6</ele>
        <time>2015-10-05T07:40:08Z</time>
      </trkpt>
      <trkpt lat="44.7939" lon="0.47795">
        <ele>174.4</ele>
        <time>2015-10-05T07:40:13Z</time>
      </trkpt>
      <trkpt lat="44.79391" lon="0.47782">
        <ele>175.2</ele>
        <time>2015-10-05T07:40:15Z</time>
      </trkpt>
      <trkpt lat="44.79395" lon="0.4774">
        <ele>175.8</ele>
        <time>2015-10-05T07:40:21Z</time>
      </trkpt>
      <trkpt lat="44.79396" lon="0.47712">
        <ele>176.6</ele>
        <time>2015-10-05T07:40:25Z</time>
      </trkpt>
      <trkpt lat="44.79398" lon="0.47684">
        <ele>177.2</ele>
        <time>2015-10-05T07:40:29Z</time>
      </trkpt>
      <trkpt lat="44.79398" lon="0.47678">
        <ele>177.6</ele>
        <time>2015-10-05T07:40:30Z</time>
      </trkpt>
      <trkpt lat="44.794" lon="0.47635">
        <ele>179</ele>
        <time>2015-10-05T07:40:36Z</time>
      </trkpt>
      <trkpt lat="44.79401" lon="0.4762">
        <ele>179.2</ele>
        <time>2015-10-05T07:40:38Z</time>
      </trkpt>
      <trkpt lat="44.79404" lon="0.47595">
        <ele>180</ele>
        <time>2015-10-05T07:40:42Z</time>
      </trkpt>
      <trkpt lat="44.79405" lon="0.4758">
        <ele>180.8</ele>
        <time>2015-10-05T07:40:45Z</time>
      </trkpt>
      <trkpt lat="44.79406" lon="0.47575">
        <ele>181.2</ele>
        <time>2015-10-05T07:40:46Z</time>
      </trkpt>
      <trkpt lat="44.79407" lon="0.47561">
        <ele>181.8</ele>
        <time>2015-10-05T07:40:50Z</time>
      </trkpt>
      <trkpt lat="44.79408" lon="0.47554">
        <ele>182.2</ele>
        <time>2015-10-05T07:40:54Z</time>
      </trkpt>
      <trkpt lat="44.79408" lon="0.47552">
        <ele>182.2</ele>
        <time>2015-10-05T07:40:55Z</time>
      </trkpt>
      <trkpt lat="44.79408" lon="0.47552">
        <ele>182.4</ele>
        <time>2015-10-05T07:40:59Z</time>
      </trkpt>
      <trkpt lat="44.79411" lon="0.47553">
        <ele>182.4</ele>
        <time>2015-10-05T07:43:06Z</time>
      </trkpt>
      <trkpt lat="44.79415" lon="0.4755">
        <ele>182.6</ele>
        <time>2015-10-05T07:43:09Z</time>
      </trkpt>
      <trkpt lat="44.7942" lon="0.47539">
        <ele>182</ele>
        <time>2015-10-05T07:43:13Z</time>
      </trkpt>
      <trkpt lat="44.79422" lon="0.47531">
        <ele>182.2</ele>
        <time>2015-10-05T07:43:15Z</time>
      </trkpt>
      <trkpt lat="44.79427" lon="0.47516">
        <ele>181.2</ele>
        <time>2015-10-05T07:43:18Z</time>
      </trkpt>
      <trkpt lat="44.79432" lon="0.47503">
        <ele>181</ele>
        <time>2015-10-05T07:43:20Z</time>
      </trkpt>
      <trkpt lat="44.79451" lon="0.47446">
        <ele>180.2</ele>
        <time>2015-10-05T07:43:28Z</time>
      </trkpt>
      <trkpt lat="44.79454" lon="0.47439">
        <ele>180</ele>
        <time>2015-10-05T07:43:29Z</time>
      </trkpt>
      <trkpt lat="44.79473" lon="0.47383">
        <ele>179.8</ele>
        <time>2015-10-05T07:43:36Z</time>
      </trkpt>
      <trkpt lat="44.79493" lon="0.47326">
        <ele>178.8</ele>
        <time>2015-10-05T07:43:43Z</time>
      </trkpt>
      <trkpt lat="44.79501" lon="0.47301">
        <ele>178.2</ele>
        <time>2015-10-05T07:43:46Z</time>
      </trkpt>
      <trkpt lat="44.79525" lon="0.47227">
        <ele>178.2</ele>
        <time>2015-10-05T07:43:55Z</time>
      </trkpt>
      <trkpt lat="44.79547" lon="0.47157">
        <ele>178.2</ele>
        <time>2015-10-05T07:44:04Z</time>
      </trkpt>
      <trkpt lat="44.79566" lon="0.4711">
        <ele>178.4</ele>
        <time>2015-10-05T07:44:11Z</time>
      </trkpt>
      <trkpt lat="44.79593" lon="0.47073">
        <ele>178.6</ele>
        <time>2015-10-05T07:44:18Z</time>
      </trkpt>
      <trkpt lat="44.79627" lon="0.47045">
        <ele>178</ele>
        <time>2015-10-05T07:44:25Z</time>
      </trkpt>
      <trkpt lat="44.79642" lon="0.47033">
        <ele>177.6</ele>
        <time>2015-10-05T07:44:28Z</time>
      </trkpt>
      <trkpt lat="44.79671" lon="0.47004">
        <ele>176.8</ele>
        <time>2015-10-05T07:44:34Z</time>
      </trkpt>
      <trkpt lat="44.79675" lon="0.46998">
        <ele>176.6</ele>
        <time>2015-10-05T07:44:35Z</time>
      </trkpt>
      <trkpt lat="44.79687" lon="0.46965">
        <ele>175.6</ele>
        <time>2015-10-05T07:44:39Z</time>
      </trkpt>
      <trkpt lat="44.79689" lon="0.46954">
        <ele>174.8</ele>
        <time>2015-10-05T07:44:40Z</time>
      </trkpt>
      <trkpt lat="44.79691" lon="0.46943">
        <ele>174.4</ele>
        <time>2015-10-05T07:44:41Z</time>
      </trkpt>
      <trkpt lat="44.79696" lon="0.46909">
        <ele>173.4</ele>
        <time>2015-10-05T07:44:44Z</time>
      </trkpt>
      <trkpt lat="44.79697" lon="0.46897">
        <ele>172.6</ele>
        <time>2015-10-05T07:44:45Z</time>
      </trkpt>
      <trkpt lat="44.79703" lon="0.46858">
        <ele>171.4</ele>
        <time>2015-10-05T07:44:48Z</time>
      </trkpt>
      <trkpt lat="44.79706" lon="0.46845">
        <ele>171</ele>
        <time>2015-10-05T07:44:49Z</time>
      </trkpt>
      <trkpt lat="44.79718" lon="0.46823">
        <ele>170</ele>
        <time>2015-10-05T07:44:51Z</time>
      </trkpt>
      <trkpt lat="44.79726" lon="0.46814">
        <ele>169.4</ele>
        <time>2015-10-05T07:44:52Z</time>
      </trkpt>
      <trkpt lat="44.79734" lon="0.46805">
        <ele>168.6</ele>
        <time>2015-10-05T07:44:53Z</time>
      </trkpt>
      <trkpt lat="44.79757" lon="0.46776">
        <ele>167</ele>
        <time>2015-10-05T07:44:56Z</time>
      </trkpt>
      <trkpt lat="44.79765" lon="0.46766">
        <ele>165.8</ele>
        <time>2015-10-05T07:44:57Z</time>
      </trkpt>
      <trkpt lat="44.79773" lon="0.46756">
        <ele>164.2</ele>
        <time>2015-10-05T07:44:58Z</time>
      </trkpt>
      <trkpt lat="44.79789" lon="0.46734">
        <ele>163.2</ele>
        <time>2015-10-05T07:45:00Z</time>
      </trkpt>
      <trkpt lat="44.79806" lon="0.46714">
        <ele>162</ele>
        <time>2015-10-05T07:45:02Z</time>
      </trkpt>
      <trkpt lat="44.79823" lon="0.46692">
        <ele>160.6</ele>
        <time>2015-10-05T07:45:04Z</time>
      </trkpt>
      <trkpt lat="44.79833" lon="0.46681">
        <ele>159.6</ele>
        <time>2015-10-05T07:45:05Z</time>
      </trkpt>
      <trkpt lat="44.79843" lon="0.46669">
        <ele>158.4</ele>
        <time>2015-10-05T07:45:06Z</time>
      </trkpt>
      <trkpt lat="44.79864" lon="0.46645">
        <ele>156.8</ele>
        <time>2015-10-05T07:45:08Z</time>
      </trkpt>
      <trkpt lat="44.79885" lon="0.46626">
        <ele>155.8</ele>
        <time>2015-10-05T07:45:10Z</time>
      </trkpt>
      <trkpt lat="44.79895" lon="0.46617">
        <ele>155.2</ele>
        <time>2015-10-05T07:45:11Z</time>
      </trkpt>
      <trkpt lat="44.79902" lon="0.46606">
        <ele>154.8</ele>
        <time>2015-10-05T07:45:12Z</time>
      </trkpt>
      <trkpt lat="44.79909" lon="0.46594">
        <ele>154.2</ele>
        <time>2015-10-05T07:45:13Z</time>
      </trkpt>
      <trkpt lat="44.79921" lon="0.46548">
        <ele>153</ele>
        <time>2015-10-05T07:45:16Z</time>
      </trkpt>
      <trkpt lat="44.79924" lon="0.46532">
        <ele>152.4</ele>
        <time>2015-10-05T07:45:17Z</time>
      </trkpt>
      <trkpt lat="44.79933" lon="0.46488">
        <ele>151.8</ele>
        <time>2015-10-05T07:45:20Z</time>
      </trkpt>
      <trkpt lat="44.79937" lon="0.46461">
        <ele>151.6</ele>
        <time>2015-10-05T07:45:22Z</time>
      </trkpt>
      <trkpt lat="44.79945" lon="0.46421">
        <ele>150.6</ele>
        <time>2015-10-05T07:45:25Z</time>
      </trkpt>
      <trkpt lat="44.79952" lon="0.46382">
        <ele>149.4</ele>
        <time>2015-10-05T07:45:28Z</time>
      </trkpt>
      <trkpt lat="44.79955" lon="0.46369">
        <ele>149.2</ele>
        <time>2015-10-05T07:45:29Z</time>
      </trkpt>
      <trkpt lat="44.7996" lon="0.46343">
        <ele>148.4</ele>
        <time>2015-10-05T07:45:31Z</time>
      </trkpt>
      <trkpt lat="44.79965" lon="0.46317">
        <ele>147.2</ele>
        <time>2015-10-05T07:45:33Z</time>
      </trkpt>
      <trkpt lat="44.79972" lon="0.46283">
        <ele>145.8</ele>
        <time>2015-10-05T07:45:36Z</time>
      </trkpt>
      <trkpt lat="44.79978" lon="0.46269">
        <ele>145.2</ele>
        <time>2015-10-05T07:45:38Z</time>
      </trkpt>
      <trkpt lat="44.79982" lon="0.46264">
        <ele>144.8</ele>
        <time>2015-10-05T07:45:39Z</time>
      </trkpt>
      <trkpt lat="44.79985" lon="0.4626">
        <ele>144.4</ele>
        <time>2015-10-05T07:45:40Z</time>
      </trkpt>
      <trkpt lat="44.7999" lon="0.46258">
        <ele>143.8</ele>
        <time>2015-10-05T07:45:43Z</time>
      </trkpt>
      <trkpt lat="44.79993" lon="0.46259">
        <ele>143.4</ele>
        <time>2015-10-05T07:45:46Z</time>
      </trkpt>
      <trkpt lat="44.79993" lon="0.46258">
        <ele>143.4</ele>
        <time>2015-10-05T07:45:47Z</time>
      </trkpt>
      <trkpt lat="44.79997" lon="0.46259">
        <ele>143.2</ele>
        <time>2015-10-05T07:46:17Z</time>
      </trkpt>
      <trkpt lat="44.80001" lon="0.46255">
        <ele>143</ele>
        <time>2015-10-05T07:46:20Z</time>
      </trkpt>
      <trkpt lat="44.80009" lon="0.4624">
        <ele>143.6</ele>
        <time>2015-10-05T07:46:25Z</time>
      </trkpt>
      <trkpt lat="44.80014" lon="0.46229">
        <ele>144</ele>
        <time>2015-10-05T07:46:28Z</time>
      </trkpt>
      <trkpt lat="44.80018" lon="0.46225">
        <ele>144.4</ele>
        <time>2015-10-05T07:46:30Z</time>
      </trkpt>
      <trkpt lat="44.80031" lon="0.46213">
        <ele>145.6</ele>
        <time>2015-10-05T07:46:36Z</time>
      </trkpt>
      <trkpt lat="44.80046" lon="0.46208">
        <ele>147</ele>
        <time>2015-10-05T07:46:42Z</time>
      </trkpt>
      <trkpt lat="44.8006" lon="0.46205">
        <ele>148</ele>
        <time>2015-10-05T07:46:47Z</time>
      </trkpt>
      <trkpt lat="44.80065" lon="0.46204">
        <ele>148.4</ele>
        <time>2015-10-05T07:46:49Z</time>
      </trkpt>
      <trkpt lat="44.80075" lon="0.46202">
        <ele>149</ele>
        <time>2015-10-05T07:46:52Z</time>
      </trkpt>
      <trkpt lat="44.80086" lon="0.46196">
        <ele>149.8</ele>
        <time>2015-10-05T07:46:56Z</time>
      </trkpt>
      <trkpt lat="44.80089" lon="0.46194">
        <ele>150.2</ele>
        <time>2015-10-05T07:46:57Z</time>
      </trkpt>
      <trkpt lat="44.80104" lon="0.46176">
        <ele>151.4</ele>
        <time>2015-10-05T07:47:03Z</time>
      </trkpt>
      <trkpt lat="44.80114" lon="0.46148">
        <ele>152.4</ele>
        <time>2015-10-05T07:47:10Z</time>
      </trkpt>
      <trkpt lat="44.80115" lon="0.46143">
        <ele>152.4</ele>
        <time>2015-10-05T07:47:11Z</time>
      </trkpt>
      <trkpt lat="44.80121" lon="0.46121">
        <ele>153.6</ele>
        <time>2015-10-05T07:47:16Z</time>
      </trkpt>
      <trkpt lat="44.80126" lon="0.46101">
        <ele>154.4</ele>
        <time>2015-10-05T07:47:21Z</time>
      </trkpt>
      <trkpt lat="44.80127" lon="0.46098">
        <ele>154.8</ele>
        <time>2015-10-05T07:47:22Z</time>
      </trkpt>
      <trkpt lat="44.80134" lon="0.4607">
        <ele>155.8</ele>
        <time>2015-10-05T07:47:29Z</time>
      </trkpt>
      <trkpt lat="44.80135" lon="0.46066">
        <ele>156</ele>
        <time>2015-10-05T07:47:30Z</time>
      </trkpt>
      <trkpt lat="44.80136" lon="0.46049">
        <ele>156.8</ele>
        <time>2015-10-05T07:47:34Z</time>
      </trkpt>
      <trkpt lat="44.80138" lon="0.46033">
        <ele>157.6</ele>
        <time>2015-10-05T07:47:38Z</time>
      </trkpt>
      <trkpt lat="44.80137" lon="0.46025">
        <ele>158</ele>
        <time>2015-10-05T07:47:40Z</time>
      </trkpt>
      <trkpt lat="44.80135" lon="0.46005">
        <ele>158.8</ele>
        <time>2015-10-05T07:47:45Z</time>
      </trkpt>
      <trkpt lat="44.80134" lon="0.46001">
        <ele>159</ele>
        <time>2015-10-05T07:47:46Z</time>
      </trkpt>
      <trkpt lat="44.8013" lon="0.45973">
        <ele>160.2</ele>
        <time>2015-10-05T07:47:53Z</time>
      </trkpt>
      <trkpt lat="44.80128" lon="0.45965">
        <ele>160.2</ele>
        <time>2015-10-05T07:47:55Z</time>
      </trkpt>
      <trkpt lat="44.80125" lon="0.4594">
        <ele>161.2</ele>
        <time>2015-10-05T07:48:01Z</time>
      </trkpt>
      <trkpt lat="44.80124" lon="0.45927">
        <ele>162</ele>
        <time>2015-10-05T07:48:04Z</time>
      </trkpt>
      <trkpt lat="44.80123" lon="0.45915">
        <ele>162.2</ele>
        <time>2015-10-05T07:48:07Z</time>
      </trkpt>
      <trkpt lat="44.80122" lon="0.45887">
        <ele>163.4</ele>
        <time>2015-10-05T07:48:14Z</time>
      </trkpt>
      <trkpt lat="44.80122" lon="0.45882">
        <ele>163.6</ele>
        <time>2015-10-05T07:48:15Z</time>
      </trkpt>
      <trkpt lat="44.80122" lon="0.45863">
        <ele>164.4</ele>
        <time>2015-10-05T07:48:20Z</time>
      </trkpt>
      <trkpt lat="44.8012" lon="0.45846">
        <ele>165.2</ele>
        <time>2015-10-05T07:48:24Z</time>
      </trkpt>
      <trkpt lat="44.8012" lon="0.45842">
        <ele>165.6</ele>
        <time>2015-10-05T07:48:25Z</time>
      </trkpt>
      <trkpt lat="44.80115" lon="0.4582">
        <ele>166.8</ele>
        <time>2015-10-05T07:48:31Z</time>
      </trkpt>
      <trkpt lat="44.80105" lon="0.45795">
        <ele>168</ele>
        <time>2015-10-05T07:48:38Z</time>
      </trkpt>
      <trkpt lat="44.80095" lon="0.45775">
        <ele>169</ele>
        <time>2015-10-05T07:48:45Z</time>
      </trkpt>
      <trkpt lat="44.80094" lon="0.45771">
        <ele>169.6</ele>
        <time>2015-10-05T07:48:46Z</time>
      </trkpt>
      <trkpt lat="44.80085" lon="0.45754">
        <ele>170.8</ele>
        <time>2015-10-05T07:48:51Z</time>
      </trkpt>
      <trkpt lat="44.80079" lon="0.45742">
        <ele>171.2</ele>
        <time>2015-10-05T07:48:55Z</time>
      </trkpt>
      <trkpt lat="44.80065" lon="0.45719">
        <ele>172</ele>
        <time>2015-10-05T07:49:03Z</time>
      </trkpt>
      <trkpt lat="44.80064" lon="0.45716">
        <ele>171.8</ele>
        <time>2015-10-05T07:49:04Z</time>
      </trkpt>
      <trkpt lat="44.80059" lon="0.45706">
        <ele>172</ele>
        <time>2015-10-05T07:49:09Z</time>
      </trkpt>
      <trkpt lat="44.80057" lon="0.45706">
        <ele>173.2</ele>
        <time>2015-10-05T07:49:13Z</time>
      </trkpt>
      <trkpt lat="44.80058" lon="0.45705">
        <ele>173.2</ele>
        <time>2015-10-05T07:49:14Z</time>
      </trkpt>
      <trkpt lat="44.80053" lon="0.45698">
        <ele>172.6</ele>
        <time>2015-10-05T07:50:23Z</time>
      </trkpt>
      <trkpt lat="44.80051" lon="0.45696">
        <ele>172.6</ele>
        <time>2015-10-05T07:50:24Z</time>
      </trkpt>
      <trkpt lat="44.80047" lon="0.4568">
        <ele>172.8</ele>
        <time>2015-10-05T07:50:30Z</time>
      </trkpt>
      <trkpt lat="44.80051" lon="0.45661">
        <ele>172.4</ele>
        <time>2015-10-05T07:50:36Z</time>
      </trkpt>
      <trkpt lat="44.80058" lon="0.45639">
        <ele>172.6</ele>
        <time>2015-10-05T07:50:42Z</time>
      </trkpt>
      <trkpt lat="44.80069" lon="0.45612">
        <ele>172</ele>
        <time>2015-10-05T07:50:49Z</time>
      </trkpt>
      <trkpt lat="44.80074" lon="0.456">
        <ele>171.8</ele>
        <time>2015-10-05T07:50:52Z</time>
      </trkpt>
      <trkpt lat="44.80086" lon="0.45567">
        <ele>172.4</ele>
        <time>2015-10-05T07:51:00Z</time>
      </trkpt>
      <trkpt lat="44.80105" lon="0.45515">
        <ele>172.8</ele>
        <time>2015-10-05T07:51:11Z</time>
      </trkpt>
      <trkpt lat="44.80123" lon="0.45467">
        <ele>172.6</ele>
        <time>2015-10-05T07:51:21Z</time>
      </trkpt>
      <trkpt lat="44.80134" lon="0.45436">
        <ele>172.8</ele>
        <time>2015-10-05T07:51:28Z</time>
      </trkpt>
      <trkpt lat="44.80142" lon="0.45407">
        <ele>172.8</ele>
        <time>2015-10-05T07:51:35Z</time>
      </trkpt>
      <trkpt lat="44.80147" lon="0.45388">
        <ele>173.2</ele>
        <time>2015-10-05T07:51:39Z</time>
      </trkpt>
      <trkpt lat="44.80153" lon="0.45369">
        <ele>173.4</ele>
        <time>2015-10-05T07:51:43Z</time>
      </trkpt>
      <trkpt lat="44.8016" lon="0.45341">
        <ele>172.2</ele>
        <time>2015-10-05T07:51:48Z</time>
      </trkpt>
      <trkpt lat="44.80167" lon="0.45318">
        <ele>171.6</ele>
        <time>2015-10-05T07:51:52Z</time>
      </trkpt>
      <trkpt lat="44.80172" lon="0.453">
        <ele>171</ele>
        <time>2015-10-05T07:51:55Z</time>
      </trkpt>
      <trkpt lat="44.80183" lon="0.45268">
        <ele>170.4</ele>
        <time>2015-10-05T07:52:00Z</time>
      </trkpt>
      <trkpt lat="44.80195" lon="0.45244">
        <ele>170</ele>
        <time>2015-10-05T07:52:04Z</time>
      </trkpt>
      <trkpt lat="44.80202" lon="0.45233">
        <ele>170</ele>
        <time>2015-10-05T07:52:06Z</time>
      </trkpt>
      <trkpt lat="44.80235" lon="0.45194">
        <ele>170.4</ele>
        <time>2015-10-05T07:52:14Z</time>
      </trkpt>
      <trkpt lat="44.80268" lon="0.45153">
        <ele>169.8</ele>
        <time>2015-10-05T07:52:22Z</time>
      </trkpt>
      <trkpt lat="44.80297" lon="0.45103">
        <ele>169.2</ele>
        <time>2015-10-05T07:52:30Z</time>
      </trkpt>
      <trkpt lat="44.80316" lon="0.4505">
        <ele>169.2</ele>
        <time>2015-10-05T07:52:37Z</time>
      </trkpt>
      <trkpt lat="44.80319" lon="0.45042">
        <ele>168.6</ele>
        <time>2015-10-05T07:52:38Z</time>
      </trkpt>
      <trkpt lat="44.80329" lon="0.45">
        <ele>168.4</ele>
        <time>2015-10-05T07:52:43Z</time>
      </trkpt>
      <trkpt lat="44.80344" lon="0.44939">
        <ele>169</ele>
        <time>2015-10-05T07:52:51Z</time>
      </trkpt>
      <trkpt lat="44.8036" lon="0.44872">
        <ele>169</ele>
        <time>2015-10-05T07:53:00Z</time>
      </trkpt>
      <trkpt lat="44.80368" lon="0.44837">
        <ele>169.6</ele>
        <time>2015-10-05T07:53:05Z</time>
      </trkpt>
      <trkpt lat="44.8037" lon="0.44831">
        <ele>169.8</ele>
        <time>2015-10-05T07:53:06Z</time>
      </trkpt>
      <trkpt lat="44.80373" lon="0.44817">
        <ele>169.6</ele>
        <time>2015-10-05T07:53:08Z</time>
      </trkpt>
      <trkpt lat="44.8039" lon="0.44746">
        <ele>169.6</ele>
        <time>2015-10-05T07:53:18Z</time>
      </trkpt>
      <trkpt lat="44.80403" lon="0.44695">
        <ele>169.8</ele>
        <time>2015-10-05T07:53:25Z</time>
      </trkpt>
      <trkpt lat="44.80421" lon="0.44618">
        <ele>169.4</ele>
        <time>2015-10-05T07:53:35Z</time>
      </trkpt>
      <trkpt lat="44.80422" lon="0.4461">
        <ele>169.2</ele>
        <time>2015-10-05T07:53:36Z</time>
      </trkpt>
      <trkpt lat="44.80432" lon="0.44544">
        <ele>169.4</ele>
        <time>2015-10-05T07:53:44Z</time>
      </trkpt>
      <trkpt lat="44.80434" lon="0.44479">
        <ele>169.2</ele>
        <time>2015-10-05T07:53:52Z</time>
      </trkpt>
      <trkpt lat="44.80433" lon="0.44413">
        <ele>169.2</ele>
        <time>2015-10-05T07:54:01Z</time>
      </trkpt>
      <trkpt lat="44.80428" lon="0.44367">
        <ele>170.6</ele>
        <time>2015-10-05T07:54:09Z</time>
      </trkpt>
      <trkpt lat="44.80426" lon="0.44362">
        <ele>171</ele>
        <time>2015-10-05T07:54:10Z</time>
      </trkpt>
      <trkpt lat="44.80423" lon="0.44347">
        <ele>172.8</ele>
        <time>2015-10-05T07:54:13Z</time>
      </trkpt>
      <trkpt lat="44.8042" lon="0.44337">
        <ele>172.8</ele>
        <time>2015-10-05T07:54:15Z</time>
      </trkpt>
      <trkpt lat="44.8041" lon="0.44312">
        <ele>172.6</ele>
        <time>2015-10-05T07:54:21Z</time>
      </trkpt>
      <trkpt lat="44.80404" lon="0.44298">
        <ele>174.4</ele>
        <time>2015-10-05T07:54:24Z</time>
      </trkpt>
      <trkpt lat="44.80392" lon="0.44276">
        <ele>174</ele>
        <time>2015-10-05T07:54:29Z</time>
      </trkpt>
      <trkpt lat="44.80376" lon="0.44246">
        <ele>174.8</ele>
        <time>2015-10-05T07:54:36Z</time>
      </trkpt>
      <trkpt lat="44.80365" lon="0.44226">
        <ele>175.4</ele>
        <time>2015-10-05T07:54:41Z</time>
      </trkpt>
      <trkpt lat="44.8036" lon="0.44219">
        <ele>175.8</ele>
        <time>2015-10-05T07:54:43Z</time>
      </trkpt>
      <trkpt lat="44.80351" lon="0.44203">
        <ele>176.6</ele>
        <time>2015-10-05T07:54:47Z</time>
      </trkpt>
      <trkpt lat="44.80342" lon="0.44186">
        <ele>176.6</ele>
        <time>2015-10-05T07:54:52Z</time>
      </trkpt>
      <trkpt lat="44.80329" lon="0.44163">
        <ele>177.6</ele>
        <time>2015-10-05T07:54:59Z</time>
      </trkpt>
      <trkpt lat="44.80322" lon="0.44152">
        <ele>177.8</ele>
        <time>2015-10-05T07:55:05Z</time>
      </trkpt>
      <trkpt lat="44.80321" lon="0.44151">
        <ele>177.8</ele>
        <time>2015-10-05T07:55:06Z</time>
      </trkpt>
      <trkpt lat="44.80321" lon="0.4415">
        <ele>177.6</ele>
        <time>2015-10-05T07:55:10Z</time>
      </trkpt>
      <trkpt lat="44.80316" lon="0.44143">
        <ele>178</ele>
        <time>2015-10-05T07:55:31Z</time>
      </trkpt>
      <trkpt lat="44.80314" lon="0.44139">
        <ele>178</ele>
        <time>2015-10-05T07:55:32Z</time>
      </trkpt>
      <trkpt lat="44.80301" lon="0.44124">
        <ele>177.4</ele>
        <time>2015-10-05T07:55:37Z</time>
      </trkpt>
      <trkpt lat="44.80282" lon="0.44107">
        <ele>177</ele>
        <time>2015-10-05T07:55:42Z</time>
      </trkpt>
      <trkpt lat="44.80278" lon="0.44104">
        <ele>176.8</ele>
        <time>2015-10-05T07:55:43Z</time>
      </trkpt>
      <trkpt lat="44.8025" lon="0.44085">
        <ele>176.6</ele>
        <time>2015-10-05T07:55:49Z</time>
      </trkpt>
      <trkpt lat="44.80231" lon="0.44072">
        <ele>175.6</ele>
        <time>2015-10-05T07:55:53Z</time>
      </trkpt>
      <trkpt lat="44.80211" lon="0.44057">
        <ele>175.2</ele>
        <time>2015-10-05T07:55:57Z</time>
      </trkpt>
      <trkpt lat="44.8019" lon="0.44042">
        <ele>174.4</ele>
        <time>2015-10-05T07:56:01Z</time>
      </trkpt>
      <trkpt lat="44.80162" lon="0.44023">
        <ele>173.4</ele>
        <time>2015-10-05T07:56:06Z</time>
      </trkpt>
      <trkpt lat="44.80123" lon="0.43995">
        <ele>172.8</ele>
        <time>2015-10-05T07:56:13Z</time>
      </trkpt>
      <trkpt lat="44.80112" lon="0.43987">
        <ele>172.4</ele>
        <time>2015-10-05T07:56:15Z</time>
      </trkpt>
      <trkpt lat="44.80079" lon="0.43962">
        <ele>172.2</ele>
        <time>2015-10-05T07:56:21Z</time>
      </trkpt>
      <trkpt lat="44.80052" lon="0.43931">
        <ele>172.4</ele>
        <time>2015-10-05T07:56:27Z</time>
      </trkpt>
      <trkpt lat="44.80032" lon="0.43901">
        <ele>171</ele>
        <time>2015-10-05T07:56:32Z</time>
      </trkpt>
      <trkpt lat="44.80013" lon="0.43873">
        <ele>171.6</ele>
        <time>2015-10-05T07:56:37Z</time>
      </trkpt>
      <trkpt lat="44.79982" lon="0.43829">
        <ele>171.2</ele>
        <time>2015-10-05T07:56:45Z</time>
      </trkpt>
      <trkpt lat="44.79956" lon="0.43793">
        <ele>171.2</ele>
        <time>2015-10-05T07:56:51Z</time>
      </trkpt>
      <trkpt lat="44.79932" lon="0.43759">
        <ele>172.4</ele>
        <time>2015-10-05T07:56:57Z</time>
      </trkpt>
      <trkpt lat="44.79924" lon="0.43748">
        <ele>171.8</ele>
        <time>2015-10-05T07:56:59Z</time>
      </trkpt>
      <trkpt lat="44.79905" lon="0.43721">
        <ele>171</ele>
        <time>2015-10-05T07:57:04Z</time>
      </trkpt>
      <trkpt lat="44.79887" lon="0.43696">
        <ele>170.6</ele>
        <time>2015-10-05T07:57:09Z</time>
      </trkpt>
      <trkpt lat="44.79867" lon="0.43669">
        <ele>170.8</ele>
        <time>2015-10-05T07:57:14Z</time>
      </trkpt>
      <trkpt lat="44.79844" lon="0.43637">
        <ele>170.4</ele>
        <time>2015-10-05T07:57:20Z</time>
      </trkpt>
      <trkpt lat="44.79808" lon="0.43587">
        <ele>170.4</ele>
        <time>2015-10-05T07:57:30Z</time>
      </trkpt>
      <trkpt lat="44.79801" lon="0.43577">
        <ele>169.8</ele>
        <time>2015-10-05T07:57:32Z</time>
      </trkpt>
      <trkpt lat="44.79777" lon="0.43543">
        <ele>170</ele>
        <time>2015-10-05T07:57:39Z</time>
      </trkpt>
      <trkpt lat="44.79749" lon="0.43502">
        <ele>169.4</ele>
        <time>2015-10-05T07:57:47Z</time>
      </trkpt>
      <trkpt lat="44.79726" lon="0.4347">
        <ele>170</ele>
        <time>2015-10-05T07:57:54Z</time>
      </trkpt>
      <trkpt lat="44.79701" lon="0.43434">
        <ele>170.4</ele>
        <time>2015-10-05T07:58:02Z</time>
      </trkpt>
      <trkpt lat="44.79686" lon="0.43413">
        <ele>170.8</ele>
        <time>2015-10-05T07:58:07Z</time>
      </trkpt>
      <trkpt lat="44.79673" lon="0.43393">
        <ele>171.2</ele>
        <time>2015-10-05T07:58:12Z</time>
      </trkpt>
      <trkpt lat="44.7967" lon="0.43388">
        <ele>171.2</ele>
        <time>2015-10-05T07:58:13Z</time>
      </trkpt>
      <trkpt lat="44.79661" lon="0.43373">
        <ele>171.4</ele>
        <time>2015-10-05T07:58:16Z</time>
      </trkpt>
      <trkpt lat="44.79646" lon="0.43352">
        <ele>171.4</ele>
        <time>2015-10-05T07:58:22Z</time>
      </trkpt>
      <trkpt lat="44.79639" lon="0.43342">
        <ele>172</ele>
        <time>2015-10-05T07:58:25Z</time>
      </trkpt>
      <trkpt lat="44.79627" lon="0.43324">
        <ele>172</ele>
        <time>2015-10-05T07:58:30Z</time>
      </trkpt>
      <trkpt lat="44.79605" lon="0.43293">
        <ele>172.4</ele>
        <time>2015-10-05T07:58:39Z</time>
      </trkpt>
      <trkpt lat="44.79581" lon="0.43259">
        <ele>173.2</ele>
        <time>2015-10-05T07:58:48Z</time>
      </trkpt>
      <trkpt lat="44.79559" lon="0.43228">
        <ele>174.4</ele>
        <time>2015-10-05T07:58:56Z</time>
      </trkpt>
      <trkpt lat="44.79544" lon="0.43206">
        <ele>175.2</ele>
        <time>2015-10-05T07:59:02Z</time>
      </trkpt>
      <trkpt lat="44.79536" lon="0.43195">
        <ele>175.4</ele>
        <time>2015-10-05T07:59:05Z</time>
      </trkpt>
      <trkpt lat="44.79517" lon="0.43169">
        <ele>175.6</ele>
        <time>2015-10-05T07:59:12Z</time>
      </trkpt>
      <trkpt lat="44.79494" lon="0.43136">
        <ele>176.4</ele>
        <time>2015-10-05T07:59:21Z</time>
      </trkpt>
      <trkpt lat="44.79471" lon="0.43101">
        <ele>176.6</ele>
        <time>2015-10-05T07:59:30Z</time>
      </trkpt>
      <trkpt lat="44.79461" lon="0.43081">
        <ele>176.8</ele>
        <time>2015-10-05T07:59:36Z</time>
      </trkpt>
      <trkpt lat="44.79452" lon="0.43059">
        <ele>177.4</ele>
        <time>2015-10-05T07:59:42Z</time>
      </trkpt>
      <trkpt lat="44.79449" lon="0.43051">
        <ele>177.6</ele>
        <time>2015-10-05T07:59:44Z</time>
      </trkpt>
      <trkpt lat="44.79437" lon="0.43016">
        <ele>178.6</ele>
        <time>2015-10-05T07:59:53Z</time>
      </trkpt>
      <trkpt lat="44.79435" lon="0.43012">
        <ele>178.6</ele>
        <time>2015-10-05T07:59:54Z</time>
      </trkpt>
      <trkpt lat="44.79427" lon="0.42983">
        <ele>179</ele>
        <time>2015-10-05T08:00:01Z</time>
      </trkpt>
      <trkpt lat="44.79423" lon="0.42964">
        <ele>179.6</ele>
        <time>2015-10-05T08:00:07Z</time>
      </trkpt>
      <trkpt lat="44.79422" lon="0.42958">
        <ele>179.8</ele>
        <time>2015-10-05T08:00:09Z</time>
      </trkpt>
      <trkpt lat="44.79418" lon="0.42939">
        <ele>180</ele>
        <time>2015-10-05T08:00:15Z</time>
      </trkpt>
      <trkpt lat="44.79419" lon="0.42935">
        <ele>180.2</ele>
        <time>2015-10-05T08:00:19Z</time>
      </trkpt>
      <trkpt lat="44.79416" lon="0.42926">
        <ele>180.8</ele>
        <time>2015-10-05T08:02:15Z</time>
      </trkpt>
      <trkpt lat="44.79416" lon="0.42923">
        <ele>180.8</ele>
        <time>2015-10-05T08:02:16Z</time>
      </trkpt>
      <trkpt lat="44.79415" lon="0.42912">
        <ele>180.2</ele>
        <time>2015-10-05T08:02:22Z</time>
      </trkpt>
      <trkpt lat="44.79412" lon="0.42904">
        <ele>181.6</ele>
        <time>2015-10-05T08:02:38Z</time>
      </trkpt>
      <trkpt lat="44.79411" lon="0.42899">
        <ele>181.4</ele>
        <time>2015-10-05T08:02:39Z</time>
      </trkpt>
      <trkpt lat="44.79407" lon="0.42884">
        <ele>182</ele>
        <time>2015-10-05T08:02:42Z</time>
      </trkpt>
      <trkpt lat="44.79402" lon="0.42863">
        <ele>182</ele>
        <time>2015-10-05T08:02:46Z</time>
      </trkpt>
      <trkpt lat="44.79388" lon="0.42825">
        <ele>182.4</ele>
        <time>2015-10-05T08:02:54Z</time>
      </trkpt>
      <trkpt lat="44.79368" lon="0.42784">
        <ele>182.6</ele>
        <time>2015-10-05T08:03:03Z</time>
      </trkpt>
      <trkpt lat="44.79353" lon="0.42755">
        <ele>183</ele>
        <time>2015-10-05T08:03:09Z</time>
      </trkpt>
      <trkpt lat="44.79347" lon="0.42745">
        <ele>182.8</ele>
        <time>2015-10-05T08:03:11Z</time>
      </trkpt>
      <trkpt lat="44.79321" lon="0.42702">
        <ele>183</ele>
        <time>2015-10-05T08:03:20Z</time>
      </trkpt>
      <trkpt lat="44.79292" lon="0.4266">
        <ele>183.6</ele>
        <time>2015-10-05T08:03:29Z</time>
      </trkpt>
      <trkpt lat="44.79279" lon="0.42643">
        <ele>184</ele>
        <time>2015-10-05T08:03:33Z</time>
      </trkpt>
      <trkpt lat="44.79267" lon="0.42626">
        <ele>184.6</ele>
        <time>2015-10-05T08:03:37Z</time>
      </trkpt>
      <trkpt lat="44.79261" lon="0.42617">
        <ele>185.2</ele>
        <time>2015-10-05T08:03:39Z</time>
      </trkpt>
      <trkpt lat="44.79242" lon="0.42592">
        <ele>186</ele>
        <time>2015-10-05T08:03:45Z</time>
      </trkpt>
      <trkpt lat="44.79235" lon="0.42583">
        <ele>186.4</ele>
        <time>2015-10-05T08:03:47Z</time>
      </trkpt>
      <trkpt lat="44.79211" lon="0.42551">
        <ele>187.6</ele>
        <time>2015-10-05T08:03:54Z</time>
      </trkpt>
      <trkpt lat="44.79208" lon="0.42547">
        <ele>187.6</ele>
        <time>2015-10-05T08:03:55Z</time>
      </trkpt>
      <trkpt lat="44.79193" lon="0.42528">
        <ele>188.8</ele>
        <time>2015-10-05T08:04:00Z</time>
      </trkpt>
      <trkpt lat="44.79187" lon="0.42519">
        <ele>188.4</ele>
        <time>2015-10-05T08:04:02Z</time>
      </trkpt>
      <trkpt lat="44.79161" lon="0.42486">
        <ele>187.8</ele>
        <time>2015-10-05T08:04:08Z</time>
      </trkpt>
      <trkpt lat="44.79141" lon="0.42459">
        <ele>186.6</ele>
        <time>2015-10-05T08:04:12Z</time>
      </trkpt>
      <trkpt lat="44.79125" lon="0.42438">
        <ele>185.6</ele>
        <time>2015-10-05T08:04:15Z</time>
      </trkpt>
      <trkpt lat="44.7912" lon="0.42431">
        <ele>185.4</ele>
        <time>2015-10-05T08:04:16Z</time>
      </trkpt>
      <trkpt lat="44.79104" lon="0.42409">
        <ele>184.2</ele>
        <time>2015-10-05T08:04:19Z</time>
      </trkpt>
      <trkpt lat="44.79086" lon="0.42386">
        <ele>183.6</ele>
        <time>2015-10-05T08:04:22Z</time>
      </trkpt>
      <trkpt lat="44.7908" lon="0.42378">
        <ele>183.2</ele>
        <time>2015-10-05T08:04:23Z</time>
      </trkpt>
      <trkpt lat="44.79069" lon="0.42362">
        <ele>181.8</ele>
        <time>2015-10-05T08:04:25Z</time>
      </trkpt>
      <trkpt lat="44.79043" lon="0.42327">
        <ele>180.6</ele>
        <time>2015-10-05T08:04:29Z</time>
      </trkpt>
      <trkpt lat="44.79031" lon="0.42311">
        <ele>179.4</ele>
        <time>2015-10-05T08:04:31Z</time>
      </trkpt>
      <trkpt lat="44.79012" lon="0.4229">
        <ele>178.2</ele>
        <time>2015-10-05T08:04:34Z</time>
      </trkpt>
      <trkpt lat="44.78989" lon="0.42268">
        <ele>177.2</ele>
        <time>2015-10-05T08:04:38Z</time>
      </trkpt>
      <trkpt lat="44.78983" lon="0.42264">
        <ele>177</ele>
        <time>2015-10-05T08:04:39Z</time>
      </trkpt>
      <trkpt lat="44.78964" lon="0.42249">
        <ele>175.8</ele>
        <time>2015-10-05T08:04:42Z</time>
      </trkpt>
      <trkpt lat="44.78938" lon="0.42227">
        <ele>174.6</ele>
        <time>2015-10-05T08:04:46Z</time>
      </trkpt>
      <trkpt lat="44.7891" lon="0.42204">
        <ele>173.2</ele>
        <time>2015-10-05T08:04:50Z</time>
      </trkpt>
      <trkpt lat="44.7888" lon="0.42179">
        <ele>172</ele>
        <time>2015-10-05T08:04:54Z</time>
      </trkpt>
      <trkpt lat="44.78858" lon="0.42158">
        <ele>170.2</ele>
        <time>2015-10-05T08:04:57Z</time>
      </trkpt>
      <trkpt lat="44.78829" lon="0.42131">
        <ele>169.2</ele>
        <time>2015-10-05T08:05:01Z</time>
      </trkpt>
      <trkpt lat="44.78815" lon="0.42119">
        <ele>168.2</ele>
        <time>2015-10-05T08:05:03Z</time>
      </trkpt>
      <trkpt lat="44.78808" lon="0.42112">
        <ele>167.6</ele>
        <time>2015-10-05T08:05:04Z</time>
      </trkpt>
      <trkpt lat="44.7878" lon="0.42088">
        <ele>166.4</ele>
        <time>2015-10-05T08:05:08Z</time>
      </trkpt>
      <trkpt lat="44.78753" lon="0.42065">
        <ele>165.6</ele>
        <time>2015-10-05T08:05:12Z</time>
      </trkpt>
      <trkpt lat="44.78746" lon="0.42059">
        <ele>165.4</ele>
        <time>2015-10-05T08:05:13Z</time>
      </trkpt>
      <trkpt lat="44.78705" lon="0.42034">
        <ele>164.6</ele>
        <time>2015-10-05T08:05:19Z</time>
      </trkpt>
      <trkpt lat="44.78698" lon="0.4203">
        <ele>164.2</ele>
        <time>2015-10-05T08:05:20Z</time>
      </trkpt>
      <trkpt lat="44.78645" lon="0.42002">
        <ele>163.4</ele>
        <time>2015-10-05T08:05:28Z</time>
      </trkpt>
      <trkpt lat="44.78639" lon="0.41999">
        <ele>163</ele>
        <time>2015-10-05T08:05:29Z</time>
      </trkpt>
      <trkpt lat="44.786" lon="0.41978">
        <ele>162.4</ele>
        <time>2015-10-05T08:05:36Z</time>
      </trkpt>
      <trkpt lat="44.78583" lon="0.41969">
        <ele>162</ele>
        <time>2015-10-05T08:05:39Z</time>
      </trkpt>
      <trkpt lat="44.78552" lon="0.41952">
        <ele>160.8</ele>
        <time>2015-10-05T08:05:45Z</time>
      </trkpt>
      <trkpt lat="44.78547" lon="0.41949">
        <ele>161</ele>
        <time>2015-10-05T08:05:46Z</time>
      </trkpt>
      <trkpt lat="44.78508" lon="0.41927">
        <ele>159.8</ele>
        <time>2015-10-05T08:05:53Z</time>
      </trkpt>
      <trkpt lat="44.78503" lon="0.41924">
        <ele>159.8</ele>
        <time>2015-10-05T08:05:54Z</time>
      </trkpt>
      <trkpt lat="44.78467" lon="0.41906">
        <ele>159</ele>
        <time>2015-10-05T08:06:01Z</time>
      </trkpt>
      <trkpt lat="44.78458" lon="0.41902">
        <ele>158.6</ele>
        <time>2015-10-05T08:06:03Z</time>
      </trkpt>
      <trkpt lat="44.78433" lon="0.4189">
        <ele>157.8</ele>
        <time>2015-10-05T08:06:08Z</time>
      </trkpt>
      <trkpt lat="44.78424" lon="0.41887">
        <ele>157.4</ele>
        <time>2015-10-05T08:06:10Z</time>
      </trkpt>
      <trkpt lat="44.78409" lon="0.41883">
        <ele>156.4</ele>
        <time>2015-10-05T08:06:13Z</time>
      </trkpt>
      <trkpt lat="44.78404" lon="0.41883">
        <ele>155.8</ele>
        <time>2015-10-05T08:06:14Z</time>
      </trkpt>
      <trkpt lat="44.78371" lon="0.41888">
        <ele>155</ele>
        <time>2015-10-05T08:06:21Z</time>
      </trkpt>
      <trkpt lat="44.78367" lon="0.41889">
        <ele>154.8</ele>
        <time>2015-10-05T08:06:22Z</time>
      </trkpt>
      <trkpt lat="44.78335" lon="0.41897">
        <ele>154</ele>
        <time>2015-10-05T08:06:29Z</time>
      </trkpt>
      <trkpt lat="44.78318" lon="0.41903">
        <ele>153.2</ele>
        <time>2015-10-05T08:06:33Z</time>
      </trkpt>
      <trkpt lat="44.78309" lon="0.41907">
        <ele>153.2</ele>
        <time>2015-10-05T08:06:35Z</time>
      </trkpt>
      <trkpt lat="44.78286" lon="0.41919">
        <ele>152.2</ele>
        <time>2015-10-05T08:06:40Z</time>
      </trkpt>
      <trkpt lat="44.78281" lon="0.41921">
        <ele>152.2</ele>
        <time>2015-10-05T08:06:41Z</time>
      </trkpt>
      <trkpt lat="44.78255" lon="0.41935">
        <ele>151.2</ele>
        <time>2015-10-05T08:06:46Z</time>
      </trkpt>
      <trkpt lat="44.7824" lon="0.41945">
        <ele>150.6</ele>
        <time>2015-10-05T08:06:49Z</time>
      </trkpt>
      <trkpt lat="44.7822" lon="0.41953">
        <ele>150.6</ele>
        <time>2015-10-05T08:06:53Z</time>
      </trkpt>
      <trkpt lat="44.78215" lon="0.41954">
        <ele>150.4</ele>
        <time>2015-10-05T08:06:54Z</time>
      </trkpt>
      <trkpt lat="44.78206" lon="0.41955">
        <ele>150.6</ele>
        <time>2015-10-05T08:06:56Z</time>
      </trkpt>
      <trkpt lat="44.78192" lon="0.41954">
        <ele>150</ele>
        <time>2015-10-05T08:06:59Z</time>
      </trkpt>
      <trkpt lat="44.78187" lon="0.41952">
        <ele>150</ele>
        <time>2015-10-05T08:07:00Z</time>
      </trkpt>
      <trkpt lat="44.78178" lon="0.41949">
        <ele>150</ele>
        <time>2015-10-05T08:07:02Z</time>
      </trkpt>
      <trkpt lat="44.78159" lon="0.41936">
        <ele>149.6</ele>
        <time>2015-10-05T08:07:06Z</time>
      </trkpt>
      <trkpt lat="44.78129" lon="0.41913">
        <ele>149.2</ele>
        <time>2015-10-05T08:07:13Z</time>
      </trkpt>
      <trkpt lat="44.78115" lon="0.41903">
        <ele>149</ele>
        <time>2015-10-05T08:07:16Z</time>
      </trkpt>
      <trkpt lat="44.78094" lon="0.41892">
        <ele>149.2</ele>
        <time>2015-10-05T08:07:21Z</time>
      </trkpt>
      <trkpt lat="44.78069" lon="0.41876">
        <ele>148</ele>
        <time>2015-10-05T08:07:27Z</time>
      </trkpt>
      <trkpt lat="44.78035" lon="0.41857">
        <ele>147.2</ele>
        <time>2015-10-05T08:07:34Z</time>
      </trkpt>
      <trkpt lat="44.78" lon="0.41839">
        <ele>147.4</ele>
        <time>2015-10-05T08:07:41Z</time>
      </trkpt>
      <trkpt lat="44.77965" lon="0.41817">
        <ele>147.8</ele>
        <time>2015-10-05T08:07:49Z</time>
      </trkpt>
      <trkpt lat="44.77961" lon="0.41816">
        <ele>148</ele>
        <time>2015-10-05T08:07:50Z</time>
      </trkpt>
      <trkpt lat="44.77941" lon="0.4181">
        <ele>148.4</ele>
        <time>2015-10-05T08:07:55Z</time>
      </trkpt>
      <trkpt lat="44.77924" lon="0.41806">
        <ele>148.6</ele>
        <time>2015-10-05T08:07:59Z</time>
      </trkpt>
      <trkpt lat="44.77916" lon="0.41803">
        <ele>149</ele>
        <time>2015-10-05T08:08:01Z</time>
      </trkpt>
      <trkpt lat="44.77909" lon="0.41798">
        <ele>149</ele>
        <time>2015-10-05T08:08:03Z</time>
      </trkpt>
      <trkpt lat="44.77906" lon="0.41795">
        <ele>149</ele>
        <time>2015-10-05T08:08:04Z</time>
      </trkpt>
      <trkpt lat="44.779" lon="0.41786">
        <ele>149.4</ele>
        <time>2015-10-05T08:08:06Z</time>
      </trkpt>
      <trkpt lat="44.77893" lon="0.41757">
        <ele>149.6</ele>
        <time>2015-10-05T08:08:11Z</time>
      </trkpt>
      <trkpt lat="44.7788" lon="0.41741">
        <ele>149.2</ele>
        <time>2015-10-05T08:08:15Z</time>
      </trkpt>
      <trkpt lat="44.77853" lon="0.41722">
        <ele>148.2</ele>
        <time>2015-10-05T08:08:21Z</time>
      </trkpt>
      <trkpt lat="44.77849" lon="0.41719">
        <ele>147.8</ele>
        <time>2015-10-05T08:08:22Z</time>
      </trkpt>
      <trkpt lat="44.77815" lon="0.41695">
        <ele>146.4</ele>
        <time>2015-10-05T08:08:29Z</time>
      </trkpt>
      <trkpt lat="44.77811" lon="0.41692">
        <ele>146.6</ele>
        <time>2015-10-05T08:08:30Z</time>
      </trkpt>
      <trkpt lat="44.77777" lon="0.41669">
        <ele>145.4</ele>
        <time>2015-10-05T08:08:37Z</time>
      </trkpt>
      <trkpt lat="44.77772" lon="0.41665">
        <ele>145.2</ele>
        <time>2015-10-05T08:08:38Z</time>
      </trkpt>
      <trkpt lat="44.77742" lon="0.41644">
        <ele>144</ele>
        <time>2015-10-05T08:08:44Z</time>
      </trkpt>
      <trkpt lat="44.77732" lon="0.41636">
        <ele>143.6</ele>
        <time>2015-10-05T08:08:46Z</time>
      </trkpt>
      <trkpt lat="44.77707" lon="0.41619">
        <ele>143</ele>
        <time>2015-10-05T08:08:51Z</time>
      </trkpt>
      <trkpt lat="44.77695" lon="0.4161">
        <ele>142.2</ele>
        <time>2015-10-05T08:08:54Z</time>
      </trkpt>
      <trkpt lat="44.7769" lon="0.41607">
        <ele>142</ele>
        <time>2015-10-05T08:08:55Z</time>
      </trkpt>
      <trkpt lat="44.77655" lon="0.41582">
        <ele>141.8</ele>
        <time>2015-10-05T08:09:03Z</time>
      </trkpt>
      <trkpt lat="44.7763" lon="0.41564">
        <ele>140.8</ele>
        <time>2015-10-05T08:09:09Z</time>
      </trkpt>
      <trkpt lat="44.77625" lon="0.41562">
        <ele>140.6</ele>
        <time>2015-10-05T08:09:10Z</time>
      </trkpt>
      <trkpt lat="44.77617" lon="0.41556">
        <ele>140.6</ele>
        <time>2015-10-05T08:09:12Z</time>
      </trkpt>
      <trkpt lat="44.77603" lon="0.41548">
        <ele>139.6</ele>
        <time>2015-10-05T08:09:15Z</time>
      </trkpt>
      <trkpt lat="44.77586" lon="0.41536">
        <ele>139.6</ele>
        <time>2015-10-05T08:09:19Z</time>
      </trkpt>
      <trkpt lat="44.77568" lon="0.41524">
        <ele>138.8</ele>
        <time>2015-10-05T08:09:23Z</time>
      </trkpt>
      <trkpt lat="44.77563" lon="0.4152">
        <ele>138.6</ele>
        <time>2015-10-05T08:09:24Z</time>
      </trkpt>
      <trkpt lat="44.77559" lon="0.41517">
        <ele>138.6</ele>
        <time>2015-10-05T08:09:25Z</time>
      </trkpt>
      <trkpt lat="44.77554" lon="0.41515">
        <ele>138.4</ele>
        <time>2015-10-05T08:09:26Z</time>
      </trkpt>
      <trkpt lat="44.77546" lon="0.41509">
        <ele>138.2</ele>
        <time>2015-10-05T08:09:28Z</time>
      </trkpt>
      <trkpt lat="44.77542" lon="0.41506">
        <ele>138</ele>
        <time>2015-10-05T08:09:29Z</time>
      </trkpt>
      <trkpt lat="44.7752" lon="0.41489">
        <ele>137.8</ele>
        <time>2015-10-05T08:09:34Z</time>
      </trkpt>
      <trkpt lat="44.77506" lon="0.41479">
        <ele>137.2</ele>
        <time>2015-10-05T08:09:37Z</time>
      </trkpt>
      <trkpt lat="44.77496" lon="0.4147">
        <ele>136.6</ele>
        <time>2015-10-05T08:09:39Z</time>
      </trkpt>
      <trkpt lat="44.77491" lon="0.41466">
        <ele>136.2</ele>
        <time>2015-10-05T08:09:40Z</time>
      </trkpt>
      <trkpt lat="44.77469" lon="0.41448">
        <ele>135</ele>
        <time>2015-10-05T08:09:44Z</time>
      </trkpt>
      <trkpt lat="44.77458" lon="0.41438">
        <ele>134</ele>
        <time>2015-10-05T08:09:46Z</time>
      </trkpt>
      <trkpt lat="44.77453" lon="0.41433">
        <ele>133.8</ele>
        <time>2015-10-05T08:09:47Z</time>
      </trkpt>
      <trkpt lat="44.77443" lon="0.41419">
        <ele>132.8</ele>
        <time>2015-10-05T08:09:49Z</time>
      </trkpt>
      <trkpt lat="44.77439" lon="0.41411">
        <ele>132.6</ele>
        <time>2015-10-05T08:09:50Z</time>
      </trkpt>
      <trkpt lat="44.77436" lon="0.41401">
        <ele>132.2</ele>
        <time>2015-10-05T08:09:51Z</time>
      </trkpt>
      <trkpt lat="44.77435" lon="0.4138">
        <ele>131.2</ele>
        <time>2015-10-05T08:09:53Z</time>
      </trkpt>
      <trkpt lat="44.77435" lon="0.41369">
        <ele>131.2</ele>
        <time>2015-10-05T08:09:54Z</time>
      </trkpt>
      <trkpt lat="44.77437" lon="0.41336">
        <ele>129.8</ele>
        <time>2015-10-05T08:09:57Z</time>
      </trkpt>
      <trkpt lat="44.77439" lon="0.41301">
        <ele>128.8</ele>
        <time>2015-10-05T08:10:00Z</time>
      </trkpt>
      <trkpt lat="44.7744" lon="0.41263">
        <ele>127.8</ele>
        <time>2015-10-05T08:10:03Z</time>
      </trkpt>
      <trkpt lat="44.77444" lon="0.41225">
        <ele>126.4</ele>
        <time>2015-10-05T08:10:06Z</time>
      </trkpt>
      <trkpt lat="44.77446" lon="0.41212">
        <ele>126.2</ele>
        <time>2015-10-05T08:10:07Z</time>
      </trkpt>
      <trkpt lat="44.77448" lon="0.41199">
        <ele>125.4</ele>
        <time>2015-10-05T08:10:08Z</time>
      </trkpt>
      <trkpt lat="44.77461" lon="0.41148">
        <ele>124</ele>
        <time>2015-10-05T08:10:12Z</time>
      </trkpt>
      <trkpt lat="44.77464" lon="0.41135">
        <ele>123.6</ele>
        <time>2015-10-05T08:10:13Z</time>
      </trkpt>
      <trkpt lat="44.77473" lon="0.41108">
        <ele>122.6</ele>
        <time>2015-10-05T08:10:15Z</time>
      </trkpt>
      <trkpt lat="44.77483" lon="0.41082">
        <ele>121.6</ele>
        <time>2015-10-05T08:10:17Z</time>
      </trkpt>
      <trkpt lat="44.77493" lon="0.41056">
        <ele>121</ele>
        <time>2015-10-05T08:10:19Z</time>
      </trkpt>
      <trkpt lat="44.77504" lon="0.41031">
        <ele>120.2</ele>
        <time>2015-10-05T08:10:21Z</time>
      </trkpt>
      <trkpt lat="44.77515" lon="0.41006">
        <ele>119</ele>
        <time>2015-10-05T08:10:23Z</time>
      </trkpt>
      <trkpt lat="44.77534" lon="0.40956">
        <ele>118</ele>
        <time>2015-10-05T08:10:27Z</time>
      </trkpt>
      <trkpt lat="44.7754" lon="0.40931">
        <ele>116</ele>
        <time>2015-10-05T08:10:29Z</time>
      </trkpt>
      <trkpt lat="44.77543" lon="0.40907">
        <ele>114.6</ele>
        <time>2015-10-05T08:10:31Z</time>
      </trkpt>
      <trkpt lat="44.77543" lon="0.40895">
        <ele>114.4</ele>
        <time>2015-10-05T08:10:32Z</time>
      </trkpt>
      <trkpt lat="44.7754" lon="0.40875">
        <ele>114.2</ele>
        <time>2015-10-05T08:10:34Z</time>
      </trkpt>
      <trkpt lat="44.77536" lon="0.40867">
        <ele>113.4</ele>
        <time>2015-10-05T08:10:35Z</time>
      </trkpt>
      <trkpt lat="44.77526" lon="0.40856">
        <ele>112.8</ele>
        <time>2015-10-05T08:10:37Z</time>
      </trkpt>
      <trkpt lat="44.7752" lon="0.40853">
        <ele>112.4</ele>
        <time>2015-10-05T08:10:38Z</time>
      </trkpt>
      <trkpt lat="44.77506" lon="0.40855">
        <ele>111.4</ele>
        <time>2015-10-05T08:10:40Z</time>
      </trkpt>
      <trkpt lat="44.77499" lon="0.40858">
        <ele>111</ele>
        <time>2015-10-05T08:10:41Z</time>
      </trkpt>
      <trkpt lat="44.77486" lon="0.4087">
        <ele>109.6</ele>
        <time>2015-10-05T08:10:43Z</time>
      </trkpt>
      <trkpt lat="44.77474" lon="0.40887">
        <ele>108.2</ele>
        <time>2015-10-05T08:10:45Z</time>
      </trkpt>
      <trkpt lat="44.77468" lon="0.40896">
        <ele>107.8</ele>
        <time>2015-10-05T08:10:46Z</time>
      </trkpt>
      <trkpt lat="44.77463" lon="0.40905">
        <ele>106.8</ele>
        <time>2015-10-05T08:10:47Z</time>
      </trkpt>
      <trkpt lat="44.77458" lon="0.40916">
        <ele>106.6</ele>
        <time>2015-10-05T08:10:48Z</time>
      </trkpt>
      <trkpt lat="44.77448" lon="0.40938">
        <ele>105.4</ele>
        <time>2015-10-05T08:10:50Z</time>
      </trkpt>
      <trkpt lat="44.77442" lon="0.40949">
        <ele>104.4</ele>
        <time>2015-10-05T08:10:51Z</time>
      </trkpt>
      <trkpt lat="44.77428" lon="0.4097">
        <ele>103.2</ele>
        <time>2015-10-05T08:10:53Z</time>
      </trkpt>
      <trkpt lat="44.77413" lon="0.40989">
        <ele>101.8</ele>
        <time>2015-10-05T08:10:55Z</time>
      </trkpt>
      <trkpt lat="44.77398" lon="0.41008">
        <ele>100.8</ele>
        <time>2015-10-05T08:10:57Z</time>
      </trkpt>
      <trkpt lat="44.7739" lon="0.41018">
        <ele>99.6</ele>
        <time>2015-10-05T08:10:58Z</time>
      </trkpt>
      <trkpt lat="44.77376" lon="0.41038">
        <ele>98.4</ele>
        <time>2015-10-05T08:11:00Z</time>
      </trkpt>
      <trkpt lat="44.7736" lon="0.41057">
        <ele>97</ele>
        <time>2015-10-05T08:11:02Z</time>
      </trkpt>
      <trkpt lat="44.77345" lon="0.41075">
        <ele>95.8</ele>
        <time>2015-10-05T08:11:04Z</time>
      </trkpt>
      <trkpt lat="44.77329" lon="0.41092">
        <ele>94.6</ele>
        <time>2015-10-05T08:11:06Z</time>
      </trkpt>
      <trkpt lat="44.77312" lon="0.41109">
        <ele>93</ele>
        <time>2015-10-05T08:11:08Z</time>
      </trkpt>
      <trkpt lat="44.77303" lon="0.41117">
        <ele>92.4</ele>
        <time>2015-10-05T08:11:09Z</time>
      </trkpt>
      <trkpt lat="44.77294" lon="0.41124">
        <ele>91.8</ele>
        <time>2015-10-05T08:11:10Z</time>
      </trkpt>
      <trkpt lat="44.77276" lon="0.41139">
        <ele>90.2</ele>
        <time>2015-10-05T08:11:12Z</time>
      </trkpt>
      <trkpt lat="44.77259" lon="0.41156">
        <ele>88.8</ele>
        <time>2015-10-05T08:11:14Z</time>
      </trkpt>
      <trkpt lat="44.77244" lon="0.41175">
        <ele>87.6</ele>
        <time>2015-10-05T08:11:16Z</time>
      </trkpt>
      <trkpt lat="44.77236" lon="0.41185">
        <ele>86.6</ele>
        <time>2015-10-05T08:11:17Z</time>
      </trkpt>
      <trkpt lat="44.77229" lon="0.41195">
        <ele>85.4</ele>
        <time>2015-10-05T08:11:18Z</time>
      </trkpt>
      <trkpt lat="44.77221" lon="0.41204">
        <ele>85</ele>
        <time>2015-10-05T08:11:19Z</time>
      </trkpt>
      <trkpt lat="44.77202" lon="0.41217">
        <ele>83.8</ele>
        <time>2015-10-05T08:11:21Z</time>
      </trkpt>
      <trkpt lat="44.77192" lon="0.41219">
        <ele>82.6</ele>
        <time>2015-10-05T08:11:22Z</time>
      </trkpt>
      <trkpt lat="44.77172" lon="0.41216">
        <ele>82.4</ele>
        <time>2015-10-05T08:11:24Z</time>
      </trkpt>
      <trkpt lat="44.77153" lon="0.41207">
        <ele>82</ele>
        <time>2015-10-05T08:11:26Z</time>
      </trkpt>
      <trkpt lat="44.7714" lon="0.412">
        <ele>81.6</ele>
        <time>2015-10-05T08:11:28Z</time>
      </trkpt>
      <trkpt lat="44.77136" lon="0.41198">
        <ele>81.4</ele>
        <time>2015-10-05T08:11:29Z</time>
      </trkpt>
      <trkpt lat="44.77125" lon="0.41192">
        <ele>81</ele>
        <time>2015-10-05T08:11:32Z</time>
      </trkpt>
      <trkpt lat="44.77121" lon="0.4119">
        <ele>80.6</ele>
        <time>2015-10-05T08:11:37Z</time>
      </trkpt>
      <trkpt lat="44.77116" lon="0.41186">
        <ele>80.8</ele>
        <time>2015-10-05T08:11:55Z</time>
      </trkpt>
      <trkpt lat="44.77112" lon="0.41183">
        <ele>80.8</ele>
        <time>2015-10-05T08:11:57Z</time>
      </trkpt>
      <trkpt lat="44.77096" lon="0.41176">
        <ele>80.6</ele>
        <time>2015-10-05T08:12:02Z</time>
      </trkpt>
      <trkpt lat="44.77064" lon="0.4116">
        <ele>80.6</ele>
        <time>2015-10-05T08:12:09Z</time>
      </trkpt>
      <trkpt lat="44.77041" lon="0.4115">
        <ele>81.2</ele>
        <time>2015-10-05T08:12:13Z</time>
      </trkpt>
      <trkpt lat="44.77034" lon="0.41148">
        <ele>81.4</ele>
        <time>2015-10-05T08:12:14Z</time>
      </trkpt>
      <trkpt lat="44.77003" lon="0.41149">
        <ele>81.8</ele>
        <time>2015-10-05T08:12:19Z</time>
      </trkpt>
      <trkpt lat="44.76983" lon="0.41152">
        <ele>82</ele>
        <time>2015-10-05T08:12:24Z</time>
      </trkpt>
      <trkpt lat="44.76975" lon="0.41153">
        <ele>82.4</ele>
        <time>2015-10-05T08:12:29Z</time>
      </trkpt>
      <trkpt lat="44.76973" lon="0.41153">
        <ele>82.4</ele>
        <time>2015-10-05T08:12:31Z</time>
      </trkpt>
      <trkpt lat="44.76972" lon="0.41154">
        <ele>82.4</ele>
        <time>2015-10-05T08:12:32Z</time>
      </trkpt>
      <trkpt lat="44.7697" lon="0.41158">
        <ele>82.6</ele>
        <time>2015-10-05T08:12:35Z</time>
      </trkpt>
      <trkpt lat="44.76969" lon="0.41159">
        <ele>82.4</ele>
        <time>2015-10-05T08:12:37Z</time>
      </trkpt>
      <trkpt lat="44.76969" lon="0.4116">
        <ele>82.4</ele>
        <time>2015-10-05T08:12:39Z</time>
      </trkpt>
      <trkpt lat="44.76963" lon="0.41156">
        <ele>82.4</ele>
        <time>2015-10-05T08:13:29Z</time>
      </trkpt>
      <trkpt lat="44.76959" lon="0.41157">
        <ele>82.4</ele>
        <time>2015-10-05T08:13:31Z</time>
      </trkpt>
      <trkpt lat="44.76951" lon="0.41157">
        <ele>82.4</ele>
        <time>2015-10-05T08:13:34Z</time>
      </trkpt>
      <trkpt lat="44.76943" lon="0.41158">
        <ele>82.6</ele>
        <time>2015-10-05T08:13:37Z</time>
      </trkpt>
      <trkpt lat="44.76918" lon="0.41161">
        <ele>82.6</ele>
        <time>2015-10-05T08:13:46Z</time>
      </trkpt>
      <trkpt lat="44.76897" lon="0.41162">
        <ele>82.8</ele>
        <time>2015-10-05T08:13:54Z</time>
      </trkpt>
      <trkpt lat="44.76869" lon="0.41164">
        <ele>82.6</ele>
        <time>2015-10-05T08:14:02Z</time>
      </trkpt>
      <trkpt lat="44.76833" lon="0.41165">
        <ele>82.8</ele>
        <time>2015-10-05T08:14:11Z</time>
      </trkpt>
      <trkpt lat="44.76804" lon="0.41162">
        <ele>83.6</ele>
        <time>2015-10-05T08:14:19Z</time>
      </trkpt>
      <trkpt lat="44.76773" lon="0.41153">
        <ele>84.4</ele>
        <time>2015-10-05T08:14:27Z</time>
      </trkpt>
      <trkpt lat="44.76766" lon="0.41152">
        <ele>84.6</ele>
        <time>2015-10-05T08:14:29Z</time>
      </trkpt>
      <trkpt lat="44.76749" lon="0.41151">
        <ele>84.8</ele>
        <time>2015-10-05T08:14:34Z</time>
      </trkpt>
      <trkpt lat="44.76722" lon="0.41148">
        <ele>85.6</ele>
        <time>2015-10-05T08:14:42Z</time>
      </trkpt>
      <trkpt lat="44.76719" lon="0.41147">
        <ele>85.8</ele>
        <time>2015-10-05T08:14:43Z</time>
      </trkpt>
      <trkpt lat="44.76693" lon="0.41146">
        <ele>86.2</ele>
        <time>2015-10-05T08:14:50Z</time>
      </trkpt>
      <trkpt lat="44.76665" lon="0.41141">
        <ele>87.6</ele>
        <time>2015-10-05T08:14:58Z</time>
      </trkpt>
      <trkpt lat="44.76661" lon="0.4114">
        <ele>86.8</ele>
        <time>2015-10-05T08:14:59Z</time>
      </trkpt>
      <trkpt lat="44.76637" lon="0.41137">
        <ele>87.2</ele>
        <time>2015-10-05T08:15:06Z</time>
      </trkpt>
      <trkpt lat="44.76613" lon="0.41134">
        <ele>87.8</ele>
        <time>2015-10-05T08:15:13Z</time>
      </trkpt>
      <trkpt lat="44.76585" lon="0.41134">
        <ele>88.2</ele>
        <time>2015-10-05T08:15:21Z</time>
      </trkpt>
      <trkpt lat="44.76555" lon="0.41136">
        <ele>88.4</ele>
        <time>2015-10-05T08:15:29Z</time>
      </trkpt>
      <trkpt lat="44.76551" lon="0.41137">
        <ele>88.6</ele>
        <time>2015-10-05T08:15:30Z</time>
      </trkpt>
      <trkpt lat="44.76523" lon="0.41145">
        <ele>89</ele>
        <time>2015-10-05T08:15:37Z</time>
      </trkpt>
      <trkpt lat="44.76496" lon="0.41148">
        <ele>89.6</ele>
        <time>2015-10-05T08:15:45Z</time>
      </trkpt>
      <trkpt lat="44.76463" lon="0.41141">
        <ele>90.2</ele>
        <time>2015-10-05T08:15:55Z</time>
      </trkpt>
      <trkpt lat="44.76427" lon="0.4113">
        <ele>90.4</ele>
        <time>2015-10-05T08:16:05Z</time>
      </trkpt>
      <trkpt lat="44.76419" lon="0.41129">
        <ele>90.6</ele>
        <time>2015-10-05T08:16:07Z</time>
      </trkpt>
      <trkpt lat="44.76395" lon="0.41122">
        <ele>91</ele>
        <time>2015-10-05T08:16:13Z</time>
      </trkpt>
      <trkpt lat="44.76355" lon="0.41109">
        <ele>90.6</ele>
        <time>2015-10-05T08:16:23Z</time>
      </trkpt>
      <trkpt lat="44.76322" lon="0.41101">
        <ele>90.6</ele>
        <time>2015-10-05T08:16:31Z</time>
      </trkpt>
      <trkpt lat="44.76318" lon="0.411">
        <ele>90.8</ele>
        <time>2015-10-05T08:16:32Z</time>
      </trkpt>
      <trkpt lat="44.76299" lon="0.41095">
        <ele>91.2</ele>
        <time>2015-10-05T08:16:37Z</time>
      </trkpt>
      <trkpt lat="44.76283" lon="0.41091">
        <ele>91.4</ele>
        <time>2015-10-05T08:16:41Z</time>
      </trkpt>
      <trkpt lat="44.76274" lon="0.41088">
        <ele>91.6</ele>
        <time>2015-10-05T08:16:43Z</time>
      </trkpt>
      <trkpt lat="44.7627" lon="0.41087">
        <ele>91.8</ele>
        <time>2015-10-05T08:16:44Z</time>
      </trkpt>
      <trkpt lat="44.76253" lon="0.41081">
        <ele>92</ele>
        <time>2015-10-05T08:16:50Z</time>
      </trkpt>
      <trkpt lat="44.76236" lon="0.41074">
        <ele>92.4</ele>
        <time>2015-10-05T08:16:59Z</time>
      </trkpt>
      <trkpt lat="44.76228" lon="0.41071">
        <ele>92.8</ele>
        <time>2015-10-05T08:17:02Z</time>
      </trkpt>
      <trkpt lat="44.76214" lon="0.41064">
        <ele>93.2</ele>
        <time>2015-10-05T08:17:08Z</time>
      </trkpt>
      <trkpt lat="44.76201" lon="0.41057">
        <ele>94</ele>
        <time>2015-10-05T08:17:13Z</time>
      </trkpt>
      <trkpt lat="44.76193" lon="0.41053">
        <ele>94.2</ele>
        <time>2015-10-05T08:17:16Z</time>
      </trkpt>
      <trkpt lat="44.76173" lon="0.41047">
        <ele>95</ele>
        <time>2015-10-05T08:17:23Z</time>
      </trkpt>
      <trkpt lat="44.7617" lon="0.41046">
        <ele>95.4</ele>
        <time>2015-10-05T08:17:24Z</time>
      </trkpt>
      <trkpt lat="44.76154" lon="0.41044">
        <ele>96.2</ele>
        <time>2015-10-05T08:17:30Z</time>
      </trkpt>
      <trkpt lat="44.76148" lon="0.41044">
        <ele>96.6</ele>
        <time>2015-10-05T08:17:32Z</time>
      </trkpt>
      <trkpt lat="44.76139" lon="0.41044">
        <ele>97.4</ele>
        <time>2015-10-05T08:17:35Z</time>
      </trkpt>
      <trkpt lat="44.76129" lon="0.41045">
        <ele>98</ele>
        <time>2015-10-05T08:17:39Z</time>
      </trkpt>
      <trkpt lat="44.76121" lon="0.41044">
        <ele>98.8</ele>
        <time>2015-10-05T08:17:42Z</time>
      </trkpt>
      <trkpt lat="44.76115" lon="0.41041">
        <ele>99.2</ele>
        <time>2015-10-05T08:17:45Z</time>
      </trkpt>
      <trkpt lat="44.76109" lon="0.41032">
        <ele>99.8</ele>
        <time>2015-10-05T08:17:49Z</time>
      </trkpt>
      <trkpt lat="44.76107" lon="0.41029">
        <ele>100</ele>
        <time>2015-10-05T08:17:50Z</time>
      </trkpt>
      <trkpt lat="44.76095" lon="0.41019">
        <ele>101</ele>
        <time>2015-10-05T08:17:53Z</time>
      </trkpt>
      <trkpt lat="44.76092" lon="0.41014">
        <ele>101.6</ele>
        <time>2015-10-05T08:17:54Z</time>
      </trkpt>
      <trkpt lat="44.76088" lon="0.41009">
        <ele>102.2</ele>
        <time>2015-10-05T08:17:55Z</time>
      </trkpt>
      <trkpt lat="44.76081" lon="0.40998">
        <ele>103.2</ele>
        <time>2015-10-05T08:17:58Z</time>
      </trkpt>
      <trkpt lat="44.76079" lon="0.40995">
        <ele>103.2</ele>
        <time>2015-10-05T08:17:59Z</time>
      </trkpt>
      <trkpt lat="44.76065" lon="0.40977">
        <ele>104</ele>
        <time>2015-10-05T08:18:06Z</time>
      </trkpt>
      <trkpt lat="44.76063" lon="0.40975">
        <ele>104.4</ele>
        <time>2015-10-05T08:18:07Z</time>
      </trkpt>
      <trkpt lat="44.76049" lon="0.40961">
        <ele>105.4</ele>
        <time>2015-10-05T08:18:14Z</time>
      </trkpt>
      <trkpt lat="44.76047" lon="0.4096">
        <ele>105.6</ele>
        <time>2015-10-05T08:18:15Z</time>
      </trkpt>
      <trkpt lat="44.76035" lon="0.4095">
        <ele>106.8</ele>
        <time>2015-10-05T08:18:21Z</time>
      </trkpt>
      <trkpt lat="44.76016" lon="0.4094">
        <ele>107.8</ele>
        <time>2015-10-05T08:18:29Z</time>
      </trkpt>
      <trkpt lat="44.76003" lon="0.40935">
        <ele>109</ele>
        <time>2015-10-05T08:18:35Z</time>
      </trkpt>
      <trkpt lat="44.76001" lon="0.40933">
        <ele>109.2</ele>
        <time>2015-10-05T08:18:36Z</time>
      </trkpt>
      <trkpt lat="44.75982" lon="0.40924">
        <ele>110.2</ele>
        <time>2015-10-05T08:18:44Z</time>
      </trkpt>
      <trkpt lat="44.75969" lon="0.40919">
        <ele>111.4</ele>
        <time>2015-10-05T08:18:49Z</time>
      </trkpt>
      <trkpt lat="44.75962" lon="0.40916">
        <ele>112</ele>
        <time>2015-10-05T08:18:52Z</time>
      </trkpt>
      <trkpt lat="44.75953" lon="0.40912">
        <ele>112.4</ele>
        <time>2015-10-05T08:18:56Z</time>
      </trkpt>
      <trkpt lat="44.75944" lon="0.40909">
        <ele>113</ele>
        <time>2015-10-05T08:19:00Z</time>
      </trkpt>
      <trkpt lat="44.7594" lon="0.40907">
        <ele>113.6</ele>
        <time>2015-10-05T08:19:02Z</time>
      </trkpt>
      <trkpt lat="44.75931" lon="0.40903">
        <ele>114.4</ele>
        <time>2015-10-05T08:19:07Z</time>
      </trkpt>
      <trkpt lat="44.75929" lon="0.40902">
        <ele>114.6</ele>
        <time>2015-10-05T08:19:08Z</time>
      </trkpt>
      <trkpt lat="44.75921" lon="0.40896">
        <ele>115.2</ele>
        <time>2015-10-05T08:19:14Z</time>
      </trkpt>
      <trkpt lat="44.7592" lon="0.40896">
        <ele>115.2</ele>
        <time>2015-10-05T08:19:19Z</time>
      </trkpt>
      <trkpt lat="44.75913" lon="0.40893">
        <ele>114.8</ele>
        <time>2015-10-05T08:20:30Z</time>
      </trkpt>
      <trkpt lat="44.75909" lon="0.40893">
        <ele>114.8</ele>
        <time>2015-10-05T08:20:32Z</time>
      </trkpt>
      <trkpt lat="44.75897" lon="0.409">
        <ele>115.8</ele>
        <time>2015-10-05T08:20:36Z</time>
      </trkpt>
      <trkpt lat="44.75889" lon="0.40908">
        <ele>117.2</ele>
        <time>2015-10-05T08:20:39Z</time>
      </trkpt>
      <trkpt lat="44.75879" lon="0.40913">
        <ele>117.8</ele>
        <time>2015-10-05T08:20:42Z</time>
      </trkpt>
      <trkpt lat="44.75873" lon="0.40916">
        <ele>118.2</ele>
        <time>2015-10-05T08:20:44Z</time>
      </trkpt>
      <trkpt lat="44.75854" lon="0.40924">
        <ele>119.6</ele>
        <time>2015-10-05T08:20:50Z</time>
      </trkpt>
      <trkpt lat="44.75843" lon="0.4093">
        <ele>121</ele>
        <time>2015-10-05T08:20:54Z</time>
      </trkpt>
      <trkpt lat="44.75839" lon="0.40931">
        <ele>121.4</ele>
        <time>2015-10-05T08:20:56Z</time>
      </trkpt>
      <trkpt lat="44.75822" lon="0.40933">
        <ele>122</ele>
        <time>2015-10-05T08:21:02Z</time>
      </trkpt>
      <trkpt lat="44.75818" lon="0.40935">
        <ele>122.2</ele>
        <time>2015-10-05T08:21:04Z</time>
      </trkpt>
      <trkpt lat="44.75813" lon="0.40943">
        <ele>122.2</ele>
        <time>2015-10-05T08:21:07Z</time>
      </trkpt>
      <trkpt lat="44.75814" lon="0.40953">
        <ele>122.4</ele>
        <time>2015-10-05T08:21:10Z</time>
      </trkpt>
      <trkpt lat="44.75815" lon="0.40955">
        <ele>122.4</ele>
        <time>2015-10-05T08:21:11Z</time>
      </trkpt>
      <trkpt lat="44.75826" lon="0.40965">
        <ele>122.4</ele>
        <time>2015-10-05T08:21:17Z</time>
      </trkpt>
      <trkpt lat="44.7583" lon="0.40967">
        <ele>122</ele>
        <time>2015-10-05T08:21:23Z</time>
      </trkpt>
      <trkpt lat="44.75826" lon="0.40962">
        <ele>122.8</ele>
        <time>2015-10-05T08:46:49Z</time>
      </trkpt>
      <trkpt lat="44.75828" lon="0.40957">
        <ele>122.8</ele>
        <time>2015-10-05T08:46:51Z</time>
      </trkpt>
      <trkpt lat="44.75828" lon="0.40936">
        <ele>122.6</ele>
        <time>2015-10-05T08:46:56Z</time>
      </trkpt>
      <trkpt lat="44.75825" lon="0.40935">
        <ele>122.4</ele>
        <time>2015-10-05T08:46:57Z</time>
      </trkpt>
      <trkpt lat="44.75819" lon="0.40937">
        <ele>122.6</ele>
        <time>2015-10-05T08:46:59Z</time>
      </trkpt>
      <trkpt lat="44.75815" lon="0.40952">
        <ele>122.8</ele>
        <time>2015-10-05T08:47:03Z</time>
      </trkpt>
      <trkpt lat="44.75826" lon="0.40953">
        <ele>122.6</ele>
        <time>2015-10-05T08:47:06Z</time>
      </trkpt>
      <trkpt lat="44.75829" lon="0.40938">
        <ele>122.6</ele>
        <time>2015-10-05T08:47:09Z</time>
      </trkpt>
      <trkpt lat="44.75821" lon="0.40928">
        <ele>122.8</ele>
        <time>2015-10-05T08:47:12Z</time>
      </trkpt>
      <trkpt lat="44.75812" lon="0.40918">
        <ele>122.6</ele>
        <time>2015-10-05T08:47:17Z</time>
      </trkpt>
      <trkpt lat="44.75808" lon="0.40911">
        <ele>122.8</ele>
        <time>2015-10-05T08:47:22Z</time>
      </trkpt>
      <trkpt lat="44.75808" lon="0.4091">
        <ele>122.8</ele>
        <time>2015-10-05T08:47:23Z</time>
      </trkpt>
      <trkpt lat="44.75807" lon="0.40915">
        <ele>122.8</ele>
        <time>2015-10-05T08:47:43Z</time>
      </trkpt>
      <trkpt lat="44.75809" lon="0.4092">
        <ele>122.6</ele>
        <time>2015-10-05T08:47:45Z</time>
      </trkpt>
      <trkpt lat="44.75811" lon="0.40939">
        <ele>122.2</ele>
        <time>2015-10-05T08:47:50Z</time>
      </trkpt>
      <trkpt lat="44.75801" lon="0.40946">
        <ele>122.8</ele>
        <time>2015-10-05T08:47:54Z</time>
      </trkpt>
      <trkpt lat="44.75796" lon="0.40944">
        <ele>122.6</ele>
        <time>2015-10-05T08:47:57Z</time>
      </trkpt>
      <trkpt lat="44.75792" lon="0.40943">
        <ele>122.6</ele>
        <time>2015-10-05T08:47:59Z</time>
      </trkpt>
      <trkpt lat="44.75791" lon="0.40942">
        <ele>122.6</ele>
        <time>2015-10-05T08:48:04Z</time>
      </trkpt>
      <trkpt lat="44.75782" lon="0.4094">
        <ele>122.8</ele>
        <time>2015-10-05T08:48:33Z</time>
      </trkpt>
      <trkpt lat="44.75776" lon="0.40939">
        <ele>123</ele>
        <time>2015-10-05T08:48:35Z</time>
      </trkpt>
      <trkpt lat="44.75773" lon="0.40938">
        <ele>123.2</ele>
        <time>2015-10-05T08:48:36Z</time>
      </trkpt>
      <trkpt lat="44.75755" lon="0.40934">
        <ele>123.8</ele>
        <time>2015-10-05T08:48:42Z</time>
      </trkpt>
      <trkpt lat="44.75749" lon="0.40932">
        <ele>124.4</ele>
        <time>2015-10-05T08:48:44Z</time>
      </trkpt>
      <trkpt lat="44.75729" lon="0.40926">
        <ele>125.2</ele>
        <time>2015-10-05T08:48:50Z</time>
      </trkpt>
      <trkpt lat="44.75717" lon="0.4092">
        <ele>125.6</ele>
        <time>2015-10-05T08:48:54Z</time>
      </trkpt>
      <trkpt lat="44.75708" lon="0.40916">
        <ele>126.4</ele>
        <time>2015-10-05T08:48:57Z</time>
      </trkpt>
      <trkpt lat="44.75702" lon="0.40914">
        <ele>126.6</ele>
        <time>2015-10-05T08:48:59Z</time>
      </trkpt>
      <trkpt lat="44.7569" lon="0.40909">
        <ele>127.6</ele>
        <time>2015-10-05T08:49:03Z</time>
      </trkpt>
      <trkpt lat="44.75684" lon="0.40907">
        <ele>127.8</ele>
        <time>2015-10-05T08:49:05Z</time>
      </trkpt>
      <trkpt lat="44.75667" lon="0.40904">
        <ele>128.6</ele>
        <time>2015-10-05T08:49:10Z</time>
      </trkpt>
      <trkpt lat="44.75657" lon="0.40901">
        <ele>129</ele>
        <time>2015-10-05T08:49:13Z</time>
      </trkpt>
      <trkpt lat="44.7564" lon="0.40895">
        <ele>129.8</ele>
        <time>2015-10-05T08:49:18Z</time>
      </trkpt>
      <trkpt lat="44.75629" lon="0.40893">
        <ele>130.2</ele>
        <time>2015-10-05T08:49:21Z</time>
      </trkpt>
      <trkpt lat="44.75613" lon="0.40888">
        <ele>130.8</ele>
        <time>2015-10-05T08:49:26Z</time>
      </trkpt>
      <trkpt lat="44.75597" lon="0.40883">
        <ele>131.2</ele>
        <time>2015-10-05T08:49:31Z</time>
      </trkpt>
      <trkpt lat="44.75591" lon="0.40881">
        <ele>131.4</ele>
        <time>2015-10-05T08:49:33Z</time>
      </trkpt>
      <trkpt lat="44.75566" lon="0.40873">
        <ele>132.4</ele>
        <time>2015-10-05T08:49:41Z</time>
      </trkpt>
      <trkpt lat="44.75561" lon="0.40872">
        <ele>132.4</ele>
        <time>2015-10-05T08:49:43Z</time>
      </trkpt>
      <trkpt lat="44.75535" lon="0.40864">
        <ele>133.2</ele>
        <time>2015-10-05T08:49:52Z</time>
      </trkpt>
      <trkpt lat="44.75512" lon="0.40859">
        <ele>133.2</ele>
        <time>2015-10-05T08:50:00Z</time>
      </trkpt>
      <trkpt lat="44.75492" lon="0.40854">
        <ele>133.2</ele>
        <time>2015-10-05T08:50:08Z</time>
      </trkpt>
      <trkpt lat="44.75481" lon="0.40852">
        <ele>133.4</ele>
        <time>2015-10-05T08:50:12Z</time>
      </trkpt>
      <trkpt lat="44.75469" lon="0.4085">
        <ele>133.2</ele>
        <time>2015-10-05T08:50:16Z</time>
      </trkpt>
      <trkpt lat="44.75438" lon="0.40844">
        <ele>133.2</ele>
        <time>2015-10-05T08:50:26Z</time>
      </trkpt>
      <trkpt lat="44.75421" lon="0.4084">
        <ele>133.6</ele>
        <time>2015-10-05T08:50:32Z</time>
      </trkpt>
      <trkpt lat="44.75395" lon="0.40834">
        <ele>133.8</ele>
        <time>2015-10-05T08:50:39Z</time>
      </trkpt>
      <trkpt lat="44.75359" lon="0.40827">
        <ele>134</ele>
        <time>2015-10-05T08:50:48Z</time>
      </trkpt>
      <trkpt lat="44.7532" lon="0.40819">
        <ele>134.2</ele>
        <time>2015-10-05T08:50:57Z</time>
      </trkpt>
      <trkpt lat="44.75316" lon="0.40819">
        <ele>134.4</ele>
        <time>2015-10-05T08:50:58Z</time>
      </trkpt>
      <trkpt lat="44.75287" lon="0.40816">
        <ele>134.6</ele>
        <time>2015-10-05T08:51:05Z</time>
      </trkpt>
      <trkpt lat="44.7527" lon="0.40817">
        <ele>134.8</ele>
        <time>2015-10-05T08:51:10Z</time>
      </trkpt>
      <trkpt lat="44.75267" lon="0.40816">
        <ele>134.8</ele>
        <time>2015-10-05T08:51:13Z</time>
      </trkpt>
      <trkpt lat="44.75266" lon="0.40812">
        <ele>134.6</ele>
        <time>2015-10-05T08:51:15Z</time>
      </trkpt>
      <trkpt lat="44.75258" lon="0.40799">
        <ele>134.6</ele>
        <time>2015-10-05T08:51:19Z</time>
      </trkpt>
      <trkpt lat="44.75237" lon="0.40785">
        <ele>135.2</ele>
        <time>2015-10-05T08:51:24Z</time>
      </trkpt>
      <trkpt lat="44.75203" lon="0.40761">
        <ele>135.2</ele>
        <time>2015-10-05T08:51:32Z</time>
      </trkpt>
      <trkpt lat="44.75173" lon="0.40742">
        <ele>135.6</ele>
        <time>2015-10-05T08:51:39Z</time>
      </trkpt>
      <trkpt lat="44.7516" lon="0.40734">
        <ele>135.8</ele>
        <time>2015-10-05T08:51:42Z</time>
      </trkpt>
      <trkpt lat="44.75124" lon="0.40718">
        <ele>135.8</ele>
        <time>2015-10-05T08:51:50Z</time>
      </trkpt>
      <trkpt lat="44.75086" lon="0.407">
        <ele>135.6</ele>
        <time>2015-10-05T08:51:59Z</time>
      </trkpt>
      <trkpt lat="44.75044" lon="0.4068">
        <ele>135.8</ele>
        <time>2015-10-05T08:52:09Z</time>
      </trkpt>
      <trkpt lat="44.75003" lon="0.40661">
        <ele>136</ele>
        <time>2015-10-05T08:52:19Z</time>
      </trkpt>
      <trkpt lat="44.74977" lon="0.4065">
        <ele>136.4</ele>
        <time>2015-10-05T08:52:26Z</time>
      </trkpt>
      <trkpt lat="44.74967" lon="0.40644">
        <ele>136.6</ele>
        <time>2015-10-05T08:52:29Z</time>
      </trkpt>
      <trkpt lat="44.74957" lon="0.40639">
        <ele>136.6</ele>
        <time>2015-10-05T08:52:32Z</time>
      </trkpt>
      <trkpt lat="44.74933" lon="0.40623">
        <ele>137</ele>
        <time>2015-10-05T08:52:40Z</time>
      </trkpt>
      <trkpt lat="44.74908" lon="0.40607">
        <ele>137.8</ele>
        <time>2015-10-05T08:52:48Z</time>
      </trkpt>
      <trkpt lat="44.74905" lon="0.40605">
        <ele>138</ele>
        <time>2015-10-05T08:52:49Z</time>
      </trkpt>
      <trkpt lat="44.74887" lon="0.40593">
        <ele>139</ele>
        <time>2015-10-05T08:52:55Z</time>
      </trkpt>
      <trkpt lat="44.74876" lon="0.40586">
        <ele>139.6</ele>
        <time>2015-10-05T08:52:59Z</time>
      </trkpt>
      <trkpt lat="44.74871" lon="0.40582">
        <ele>140.2</ele>
        <time>2015-10-05T08:53:01Z</time>
      </trkpt>
      <trkpt lat="44.74858" lon="0.40574">
        <ele>141.2</ele>
        <time>2015-10-05T08:53:06Z</time>
      </trkpt>
      <trkpt lat="44.74852" lon="0.40571">
        <ele>141.8</ele>
        <time>2015-10-05T08:53:08Z</time>
      </trkpt>
      <trkpt lat="44.74842" lon="0.40566">
        <ele>142.4</ele>
        <time>2015-10-05T08:53:12Z</time>
      </trkpt>
      <trkpt lat="44.74836" lon="0.40562">
        <ele>143</ele>
        <time>2015-10-05T08:53:15Z</time>
      </trkpt>
      <trkpt lat="44.74826" lon="0.40561">
        <ele>145</ele>
        <time>2015-10-05T08:53:19Z</time>
      </trkpt>
      <trkpt lat="44.74824" lon="0.40561">
        <ele>143.8</ele>
        <time>2015-10-05T08:53:20Z</time>
      </trkpt>
      <trkpt lat="44.74821" lon="0.40561">
        <ele>144</ele>
        <time>2015-10-05T08:53:21Z</time>
      </trkpt>
      <trkpt lat="44.74804" lon="0.40557">
        <ele>145</ele>
        <time>2015-10-05T08:53:27Z</time>
      </trkpt>
      <trkpt lat="44.74798" lon="0.40556">
        <ele>145.6</ele>
        <time>2015-10-05T08:53:29Z</time>
      </trkpt>
      <trkpt lat="44.7478" lon="0.40545">
        <ele>145.8</ele>
        <time>2015-10-05T08:53:35Z</time>
      </trkpt>
      <trkpt lat="44.74778" lon="0.40542">
        <ele>146</ele>
        <time>2015-10-05T08:53:36Z</time>
      </trkpt>
      <trkpt lat="44.7477" lon="0.40525">
        <ele>147</ele>
        <time>2015-10-05T08:53:41Z</time>
      </trkpt>
      <trkpt lat="44.74768" lon="0.40521">
        <ele>147.8</ele>
        <time>2015-10-05T08:53:42Z</time>
      </trkpt>
      <trkpt lat="44.74762" lon="0.40497">
        <ele>148.8</ele>
        <time>2015-10-05T08:53:48Z</time>
      </trkpt>
      <trkpt lat="44.74758" lon="0.40478">
        <ele>150</ele>
        <time>2015-10-05T08:53:53Z</time>
      </trkpt>
      <trkpt lat="44.74754" lon="0.40471">
        <ele>150.6</ele>
        <time>2015-10-05T08:53:55Z</time>
      </trkpt>
      <trkpt lat="44.7475" lon="0.40465">
        <ele>151.2</ele>
        <time>2015-10-05T08:53:57Z</time>
      </trkpt>
      <trkpt lat="44.7474" lon="0.40453">
        <ele>152</ele>
        <time>2015-10-05T08:54:02Z</time>
      </trkpt>
      <trkpt lat="44.74737" lon="0.4045">
        <ele>152.4</ele>
        <time>2015-10-05T08:54:03Z</time>
      </trkpt>
      <trkpt lat="44.74727" lon="0.40441">
        <ele>153.4</ele>
        <time>2015-10-05T08:54:07Z</time>
      </trkpt>
      <trkpt lat="44.74722" lon="0.40437">
        <ele>153.8</ele>
        <time>2015-10-05T08:54:09Z</time>
      </trkpt>
      <trkpt lat="44.74714" lon="0.4043">
        <ele>154.4</ele>
        <time>2015-10-05T08:54:12Z</time>
      </trkpt>
      <trkpt lat="44.74707" lon="0.40422">
        <ele>155.6</ele>
        <time>2015-10-05T08:54:15Z</time>
      </trkpt>
      <trkpt lat="44.74704" lon="0.40419">
        <ele>155.8</ele>
        <time>2015-10-05T08:54:16Z</time>
      </trkpt>
      <trkpt lat="44.74701" lon="0.40417">
        <ele>155.8</ele>
        <time>2015-10-05T08:54:17Z</time>
      </trkpt>
      <trkpt lat="44.7469" lon="0.40405">
        <ele>156.4</ele>
        <time>2015-10-05T08:54:23Z</time>
      </trkpt>
      <trkpt lat="44.74686" lon="0.404">
        <ele>156.6</ele>
        <time>2015-10-05T08:54:25Z</time>
      </trkpt>
      <trkpt lat="44.74675" lon="0.40391">
        <ele>157.8</ele>
        <time>2015-10-05T08:54:30Z</time>
      </trkpt>
      <trkpt lat="44.74665" lon="0.40383">
        <ele>158.8</ele>
        <time>2015-10-05T08:54:35Z</time>
      </trkpt>
      <trkpt lat="44.74658" lon="0.40378">
        <ele>158.6</ele>
        <time>2015-10-05T08:54:38Z</time>
      </trkpt>
      <trkpt lat="44.74649" lon="0.40373">
        <ele>159.2</ele>
        <time>2015-10-05T08:54:44Z</time>
      </trkpt>
      <trkpt lat="44.74646" lon="0.40372">
        <ele>159.6</ele>
        <time>2015-10-05T08:54:50Z</time>
      </trkpt>
      <trkpt lat="44.74639" lon="0.40367">
        <ele>160.2</ele>
        <time>2015-10-05T08:56:01Z</time>
      </trkpt>
      <trkpt lat="44.74635" lon="0.40366">
        <ele>160.2</ele>
        <time>2015-10-05T08:56:03Z</time>
      </trkpt>
      <trkpt lat="44.7462" lon="0.40365">
        <ele>160</ele>
        <time>2015-10-05T08:56:10Z</time>
      </trkpt>
      <trkpt lat="44.74601" lon="0.40359">
        <ele>159.4</ele>
        <time>2015-10-05T08:56:16Z</time>
      </trkpt>
      <trkpt lat="44.74597" lon="0.40359">
        <ele>159.2</ele>
        <time>2015-10-05T08:56:17Z</time>
      </trkpt>
      <trkpt lat="44.74567" lon="0.40351">
        <ele>158.6</ele>
        <time>2015-10-05T08:56:23Z</time>
      </trkpt>
      <trkpt lat="44.74556" lon="0.40349">
        <ele>158</ele>
        <time>2015-10-05T08:56:25Z</time>
      </trkpt>
      <trkpt lat="44.74536" lon="0.40347">
        <ele>157</ele>
        <time>2015-10-05T08:56:28Z</time>
      </trkpt>
      <trkpt lat="44.74529" lon="0.40348">
        <ele>156.8</ele>
        <time>2015-10-05T08:56:29Z</time>
      </trkpt>
      <trkpt lat="44.74512" lon="0.40353">
        <ele>156</ele>
        <time>2015-10-05T08:56:31Z</time>
      </trkpt>
      <trkpt lat="44.74494" lon="0.40359">
        <ele>155.2</ele>
        <time>2015-10-05T08:56:33Z</time>
      </trkpt>
      <trkpt lat="44.74485" lon="0.40363">
        <ele>154.8</ele>
        <time>2015-10-05T08:56:34Z</time>
      </trkpt>
      <trkpt lat="44.74466" lon="0.4037">
        <ele>153.4</ele>
        <time>2015-10-05T08:56:36Z</time>
      </trkpt>
      <trkpt lat="44.74446" lon="0.40375">
        <ele>152</ele>
        <time>2015-10-05T08:56:38Z</time>
      </trkpt>
      <trkpt lat="44.74436" lon="0.40377">
        <ele>151.4</ele>
        <time>2015-10-05T08:56:39Z</time>
      </trkpt>
      <trkpt lat="44.74417" lon="0.40381">
        <ele>150.8</ele>
        <time>2015-10-05T08:56:41Z</time>
      </trkpt>
      <trkpt lat="44.74391" lon="0.40382">
        <ele>151.8</ele>
        <time>2015-10-05T08:56:44Z</time>
      </trkpt>
      <trkpt lat="44.74383" lon="0.40381">
        <ele>151.8</ele>
        <time>2015-10-05T08:56:45Z</time>
      </trkpt>
      <trkpt lat="44.74355" lon="0.40377">
        <ele>152.2</ele>
        <time>2015-10-05T08:56:49Z</time>
      </trkpt>
      <trkpt lat="44.74333" lon="0.40376">
        <ele>153</ele>
        <time>2015-10-05T08:56:53Z</time>
      </trkpt>
      <trkpt lat="44.74314" lon="0.40376">
        <ele>154</ele>
        <time>2015-10-05T08:56:57Z</time>
      </trkpt>
      <trkpt lat="44.74305" lon="0.40375">
        <ele>154.8</ele>
        <time>2015-10-05T08:56:59Z</time>
      </trkpt>
      <trkpt lat="44.743" lon="0.40375">
        <ele>155.2</ele>
        <time>2015-10-05T08:57:00Z</time>
      </trkpt>
      <trkpt lat="44.74272" lon="0.40374">
        <ele>156.4</ele>
        <time>2015-10-05T08:57:06Z</time>
      </trkpt>
      <trkpt lat="44.74267" lon="0.40374">
        <ele>156.6</ele>
        <time>2015-10-05T08:57:07Z</time>
      </trkpt>
      <trkpt lat="44.74256" lon="0.40376">
        <ele>157.4</ele>
        <time>2015-10-05T08:57:10Z</time>
      </trkpt>
      <trkpt lat="44.7425" lon="0.40377">
        <ele>157.6</ele>
        <time>2015-10-05T08:57:12Z</time>
      </trkpt>
      <trkpt lat="44.74238" lon="0.40383">
        <ele>158.6</ele>
        <time>2015-10-05T08:57:16Z</time>
      </trkpt>
      <trkpt lat="44.7423" lon="0.40391">
        <ele>159.2</ele>
        <time>2015-10-05T08:57:19Z</time>
      </trkpt>
      <trkpt lat="44.74218" lon="0.40404">
        <ele>159.8</ele>
        <time>2015-10-05T08:57:23Z</time>
      </trkpt>
      <trkpt lat="44.74203" lon="0.40421">
        <ele>161</ele>
        <time>2015-10-05T08:57:28Z</time>
      </trkpt>
      <trkpt lat="44.74187" lon="0.40439">
        <ele>162.2</ele>
        <time>2015-10-05T08:57:34Z</time>
      </trkpt>
      <trkpt lat="44.74182" lon="0.40444">
        <ele>162.6</ele>
        <time>2015-10-05T08:57:36Z</time>
      </trkpt>
      <trkpt lat="44.74177" lon="0.4045">
        <ele>163.2</ele>
        <time>2015-10-05T08:57:39Z</time>
      </trkpt>
      <trkpt lat="44.74174" lon="0.40453">
        <ele>163.4</ele>
        <time>2015-10-05T08:57:41Z</time>
      </trkpt>
      <trkpt lat="44.74167" lon="0.40461">
        <ele>164.4</ele>
        <time>2015-10-05T08:57:46Z</time>
      </trkpt>
      <trkpt lat="44.74163" lon="0.40465">
        <ele>164.8</ele>
        <time>2015-10-05T08:57:48Z</time>
      </trkpt>
      <trkpt lat="44.74148" lon="0.40477">
        <ele>165.4</ele>
        <time>2015-10-05T08:57:56Z</time>
      </trkpt>
      <trkpt lat="44.74129" lon="0.40487">
        <ele>165.6</ele>
        <time>2015-10-05T08:58:03Z</time>
      </trkpt>
      <trkpt lat="44.74117" lon="0.40497">
        <ele>165.6</ele>
        <time>2015-10-05T08:58:33Z</time>
      </trkpt>
      <trkpt lat="44.74115" lon="0.40498">
        <ele>165.6</ele>
        <time>2015-10-05T08:58:34Z</time>
      </trkpt>
      <trkpt lat="44.74104" lon="0.40505">
        <ele>166</ele>
        <time>2015-10-05T08:58:40Z</time>
      </trkpt>
      <trkpt lat="44.74079" lon="0.40513">
        <ele>166.2</ele>
        <time>2015-10-05T08:58:48Z</time>
      </trkpt>
      <trkpt lat="44.74052" lon="0.40521">
        <ele>166.4</ele>
        <time>2015-10-05T08:58:56Z</time>
      </trkpt>
      <trkpt lat="44.74039" lon="0.40524">
        <ele>166.6</ele>
        <time>2015-10-05T08:59:00Z</time>
      </trkpt>
      <trkpt lat="44.74028" lon="0.40525">
        <ele>166.6</ele>
        <time>2015-10-05T08:59:04Z</time>
      </trkpt>
      <trkpt lat="44.74009" lon="0.40529">
        <ele>167.4</ele>
        <time>2015-10-05T08:59:12Z</time>
      </trkpt>
      <trkpt lat="44.74006" lon="0.4053">
        <ele>167.6</ele>
        <time>2015-10-05T08:59:13Z</time>
      </trkpt>
      <trkpt lat="44.73983" lon="0.40537">
        <ele>168.4</ele>
        <time>2015-10-05T08:59:20Z</time>
      </trkpt>
      <trkpt lat="44.73955" lon="0.40546">
        <ele>168.8</ele>
        <time>2015-10-05T08:59:27Z</time>
      </trkpt>
      <trkpt lat="44.73947" lon="0.40549">
        <ele>169</ele>
        <time>2015-10-05T08:59:29Z</time>
      </trkpt>
      <trkpt lat="44.73919" lon="0.4056">
        <ele>169.6</ele>
        <time>2015-10-05T08:59:37Z</time>
      </trkpt>
      <trkpt lat="44.73916" lon="0.40561">
        <ele>169.8</ele>
        <time>2015-10-05T08:59:38Z</time>
      </trkpt>
      <trkpt lat="44.73895" lon="0.40572">
        <ele>170.6</ele>
        <time>2015-10-05T08:59:45Z</time>
      </trkpt>
      <trkpt lat="44.73887" lon="0.40578">
        <ele>170.8</ele>
        <time>2015-10-05T08:59:48Z</time>
      </trkpt>
      <trkpt lat="44.73876" lon="0.40583">
        <ele>171.4</ele>
        <time>2015-10-05T08:59:52Z</time>
      </trkpt>
      <trkpt lat="44.7386" lon="0.40593">
        <ele>172</ele>
        <time>2015-10-05T08:59:58Z</time>
      </trkpt>
      <trkpt lat="44.73836" lon="0.4061">
        <ele>172.8</ele>
        <time>2015-10-05T09:00:06Z</time>
      </trkpt>
      <trkpt lat="44.73826" lon="0.40618">
        <ele>173</ele>
        <time>2015-10-05T09:00:10Z</time>
      </trkpt>
      <trkpt lat="44.73811" lon="0.40627">
        <ele>173.8</ele>
        <time>2015-10-05T09:00:15Z</time>
      </trkpt>
      <trkpt lat="44.73785" lon="0.40645">
        <ele>173.2</ele>
        <time>2015-10-05T09:00:23Z</time>
      </trkpt>
      <trkpt lat="44.73768" lon="0.40657">
        <ele>173.2</ele>
        <time>2015-10-05T09:00:29Z</time>
      </trkpt>
      <trkpt lat="44.73751" lon="0.40671">
        <ele>173.2</ele>
        <time>2015-10-05T09:00:37Z</time>
      </trkpt>
      <trkpt lat="44.73736" lon="0.4068">
        <ele>173</ele>
        <time>2015-10-05T09:00:42Z</time>
      </trkpt>
      <trkpt lat="44.73714" lon="0.40697">
        <ele>172.4</ele>
        <time>2015-10-05T09:00:49Z</time>
      </trkpt>
      <trkpt lat="44.73698" lon="0.40709">
        <ele>172</ele>
        <time>2015-10-05T09:00:54Z</time>
      </trkpt>
      <trkpt lat="44.73684" lon="0.40718">
        <ele>171.2</ele>
        <time>2015-10-05T09:00:57Z</time>
      </trkpt>
      <trkpt lat="44.7368" lon="0.40721">
        <ele>170.8</ele>
        <time>2015-10-05T09:00:58Z</time>
      </trkpt>
      <trkpt lat="44.7366" lon="0.40731">
        <ele>170</ele>
        <time>2015-10-05T09:01:01Z</time>
      </trkpt>
      <trkpt lat="44.73652" lon="0.40734">
        <ele>169.2</ele>
        <time>2015-10-05T09:01:02Z</time>
      </trkpt>
      <trkpt lat="44.73619" lon="0.40742">
        <ele>168</ele>
        <time>2015-10-05T09:01:06Z</time>
      </trkpt>
      <trkpt lat="44.73603" lon="0.40745">
        <ele>166.8</ele>
        <time>2015-10-05T09:01:08Z</time>
      </trkpt>
      <trkpt lat="44.73595" lon="0.40747">
        <ele>166.2</ele>
        <time>2015-10-05T09:01:09Z</time>
      </trkpt>
      <trkpt lat="44.73587" lon="0.40748">
        <ele>165.8</ele>
        <time>2015-10-05T09:01:10Z</time>
      </trkpt>
      <trkpt lat="44.73564" lon="0.40753">
        <ele>164.4</ele>
        <time>2015-10-05T09:01:13Z</time>
      </trkpt>
      <trkpt lat="44.73533" lon="0.40758">
        <ele>163</ele>
        <time>2015-10-05T09:01:17Z</time>
      </trkpt>
      <trkpt lat="44.73503" lon="0.40762">
        <ele>161.6</ele>
        <time>2015-10-05T09:01:21Z</time>
      </trkpt>
      <trkpt lat="44.73476" lon="0.40766">
        <ele>162.4</ele>
        <time>2015-10-05T09:01:25Z</time>
      </trkpt>
      <trkpt lat="44.73436" lon="0.40772">
        <ele>160.4</ele>
        <time>2015-10-05T09:01:32Z</time>
      </trkpt>
      <trkpt lat="44.73398" lon="0.40778">
        <ele>159.8</ele>
        <time>2015-10-05T09:01:39Z</time>
      </trkpt>
      <trkpt lat="44.73382" lon="0.40782">
        <ele>159.6</ele>
        <time>2015-10-05T09:01:42Z</time>
      </trkpt>
      <trkpt lat="44.73371" lon="0.40785">
        <ele>159.2</ele>
        <time>2015-10-05T09:01:44Z</time>
      </trkpt>
      <trkpt lat="44.73359" lon="0.40787">
        <ele>158.8</ele>
        <time>2015-10-05T09:01:46Z</time>
      </trkpt>
      <trkpt lat="44.73328" lon="0.40789">
        <ele>158.2</ele>
        <time>2015-10-05T09:01:51Z</time>
      </trkpt>
      <trkpt lat="44.73309" lon="0.40789">
        <ele>157.2</ele>
        <time>2015-10-05T09:01:54Z</time>
      </trkpt>
      <trkpt lat="44.73278" lon="0.40789">
        <ele>156.2</ele>
        <time>2015-10-05T09:01:59Z</time>
      </trkpt>
      <trkpt lat="44.73257" lon="0.4079">
        <ele>154.8</ele>
        <time>2015-10-05T09:02:02Z</time>
      </trkpt>
      <trkpt lat="44.73234" lon="0.40789">
        <ele>153.4</ele>
        <time>2015-10-05T09:02:05Z</time>
      </trkpt>
      <trkpt lat="44.73217" lon="0.40789">
        <ele>152.2</ele>
        <time>2015-10-05T09:02:07Z</time>
      </trkpt>
      <trkpt lat="44.73209" lon="0.40789">
        <ele>151.6</ele>
        <time>2015-10-05T09:02:08Z</time>
      </trkpt>
      <trkpt lat="44.732" lon="0.4079">
        <ele>151</ele>
        <time>2015-10-05T09:02:09Z</time>
      </trkpt>
      <trkpt lat="44.73183" lon="0.4079">
        <ele>149.4</ele>
        <time>2015-10-05T09:02:11Z</time>
      </trkpt>
      <trkpt lat="44.73155" lon="0.4079">
        <ele>147.8</ele>
        <time>2015-10-05T09:02:14Z</time>
      </trkpt>
      <trkpt lat="44.73137" lon="0.40791">
        <ele>146.6</ele>
        <time>2015-10-05T09:02:17Z</time>
      </trkpt>
      <trkpt lat="44.73117" lon="0.40791">
        <ele>145.4</ele>
        <time>2015-10-05T09:02:19Z</time>
      </trkpt>
      <trkpt lat="44.73108" lon="0.40791">
        <ele>144.4</ele>
        <time>2015-10-05T09:02:20Z</time>
      </trkpt>
      <trkpt lat="44.73078" lon="0.40791">
        <ele>142.8</ele>
        <time>2015-10-05T09:02:23Z</time>
      </trkpt>
      <trkpt lat="44.73058" lon="0.40792">
        <ele>141.2</ele>
        <time>2015-10-05T09:02:25Z</time>
      </trkpt>
      <trkpt lat="44.73048" lon="0.40792">
        <ele>140.4</ele>
        <time>2015-10-05T09:02:26Z</time>
      </trkpt>
      <trkpt lat="44.73038" lon="0.40792">
        <ele>139.4</ele>
        <time>2015-10-05T09:02:27Z</time>
      </trkpt>
      <trkpt lat="44.73018" lon="0.40793">
        <ele>137.8</ele>
        <time>2015-10-05T09:02:29Z</time>
      </trkpt>
      <trkpt lat="44.72979" lon="0.40793">
        <ele>136.6</ele>
        <time>2015-10-05T09:02:33Z</time>
      </trkpt>
      <trkpt lat="44.72969" lon="0.40792">
        <ele>136.2</ele>
        <time>2015-10-05T09:02:34Z</time>
      </trkpt>
      <trkpt lat="44.7296" lon="0.40792">
        <ele>135.6</ele>
        <time>2015-10-05T09:02:35Z</time>
      </trkpt>
      <trkpt lat="44.72925" lon="0.4079">
        <ele>134.8</ele>
        <time>2015-10-05T09:02:39Z</time>
      </trkpt>
      <trkpt lat="44.72909" lon="0.4079">
        <ele>133.8</ele>
        <time>2015-10-05T09:02:41Z</time>
      </trkpt>
      <trkpt lat="44.72871" lon="0.4079">
        <ele>133</ele>
        <time>2015-10-05T09:02:46Z</time>
      </trkpt>
      <trkpt lat="44.72849" lon="0.4079">
        <ele>132.8</ele>
        <time>2015-10-05T09:02:49Z</time>
      </trkpt>
      <trkpt lat="44.72815" lon="0.40791">
        <ele>133</ele>
        <time>2015-10-05T09:02:54Z</time>
      </trkpt>
      <trkpt lat="44.7278" lon="0.40793">
        <ele>133.2</ele>
        <time>2015-10-05T09:03:00Z</time>
      </trkpt>
      <trkpt lat="44.72738" lon="0.40793">
        <ele>132.8</ele>
        <time>2015-10-05T09:03:08Z</time>
      </trkpt>
      <trkpt lat="44.72693" lon="0.40793">
        <ele>134</ele>
        <time>2015-10-05T09:03:17Z</time>
      </trkpt>
      <trkpt lat="44.72648" lon="0.40794">
        <ele>134.8</ele>
        <time>2015-10-05T09:03:26Z</time>
      </trkpt>
      <trkpt lat="44.72643" lon="0.40794">
        <ele>135.4</ele>
        <time>2015-10-05T09:03:27Z</time>
      </trkpt>
      <trkpt lat="44.72638" lon="0.40794">
        <ele>135.6</ele>
        <time>2015-10-05T09:03:28Z</time>
      </trkpt>
      <trkpt lat="44.7263" lon="0.40794">
        <ele>136.4</ele>
        <time>2015-10-05T09:03:30Z</time>
      </trkpt>
      <trkpt lat="44.72627" lon="0.40794">
        <ele>136.6</ele>
        <time>2015-10-05T09:03:31Z</time>
      </trkpt>
      <trkpt lat="44.72613" lon="0.40795">
        <ele>137.4</ele>
        <time>2015-10-05T09:03:35Z</time>
      </trkpt>
      <trkpt lat="44.726" lon="0.40796">
        <ele>137.8</ele>
        <time>2015-10-05T09:03:39Z</time>
      </trkpt>
      <trkpt lat="44.72576" lon="0.40805">
        <ele>138.2</ele>
        <time>2015-10-05T09:03:47Z</time>
      </trkpt>
      <trkpt lat="44.7256" lon="0.40816">
        <ele>137.8</ele>
        <time>2015-10-05T09:03:54Z</time>
      </trkpt>
      <trkpt lat="44.72543" lon="0.40821">
        <ele>137.2</ele>
        <time>2015-10-05T09:04:00Z</time>
      </trkpt>
      <trkpt lat="44.72538" lon="0.40812">
        <ele>136.6</ele>
        <time>2015-10-05T09:04:03Z</time>
      </trkpt>
      <trkpt lat="44.72538" lon="0.40813">
        <ele>136.4</ele>
        <time>2015-10-05T09:04:04Z</time>
      </trkpt>
      <trkpt lat="44.72539" lon="0.40813">
        <ele>136.4</ele>
        <time>2015-10-05T09:04:05Z</time>
      </trkpt>
      <trkpt lat="44.72538" lon="0.40812">
        <ele>136.4</ele>
        <time>2015-10-05T09:04:07Z</time>
      </trkpt>
      <trkpt lat="44.72537" lon="0.40803">
        <ele>136.8</ele>
        <time>2015-10-05T09:05:18Z</time>
      </trkpt>
      <trkpt lat="44.72537" lon="0.40798">
        <ele>136.6</ele>
        <time>2015-10-05T09:05:19Z</time>
      </trkpt>
      <trkpt lat="44.72538" lon="0.40775">
        <ele>135.6</ele>
        <time>2015-10-05T09:05:23Z</time>
      </trkpt>
      <trkpt lat="44.7254" lon="0.40768">
        <ele>135.6</ele>
        <time>2015-10-05T09:05:24Z</time>
      </trkpt>
      <trkpt lat="44.72544" lon="0.40755">
        <ele>135.2</ele>
        <time>2015-10-05T09:05:26Z</time>
      </trkpt>
      <trkpt lat="44.72551" lon="0.40726">
        <ele>135.2</ele>
        <time>2015-10-05T09:05:30Z</time>
      </trkpt>
      <trkpt lat="44.72558" lon="0.40667">
        <ele>134.8</ele>
        <time>2015-10-05T09:05:37Z</time>
      </trkpt>
      <trkpt lat="44.72561" lon="0.4061">
        <ele>134.8</ele>
        <time>2015-10-05T09:05:44Z</time>
      </trkpt>
      <trkpt lat="44.72561" lon="0.40588">
        <ele>135.2</ele>
        <time>2015-10-05T09:05:47Z</time>
      </trkpt>
      <trkpt lat="44.72562" lon="0.40565">
        <ele>135.4</ele>
        <time>2015-10-05T09:05:50Z</time>
      </trkpt>
      <trkpt lat="44.7256" lon="0.40516">
        <ele>133.8</ele>
        <time>2015-10-05T09:05:55Z</time>
      </trkpt>
      <trkpt lat="44.72561" lon="0.40504">
        <ele>133.4</ele>
        <time>2015-10-05T09:05:56Z</time>
      </trkpt>
      <trkpt lat="44.72561" lon="0.40481">
        <ele>132.4</ele>
        <time>2015-10-05T09:05:58Z</time>
      </trkpt>
      <trkpt lat="44.72562" lon="0.40457">
        <ele>132</ele>
        <time>2015-10-05T09:06:00Z</time>
      </trkpt>
      <trkpt lat="44.72565" lon="0.4038">
        <ele>132</ele>
        <time>2015-10-05T09:06:07Z</time>
      </trkpt>
      <trkpt lat="44.72565" lon="0.4037">
        <ele>131.6</ele>
        <time>2015-10-05T09:06:08Z</time>
      </trkpt>
      <trkpt lat="44.72565" lon="0.4036">
        <ele>131.4</ele>
        <time>2015-10-05T09:06:09Z</time>
      </trkpt>
      <trkpt lat="44.72567" lon="0.40297">
        <ele>131.6</ele>
        <time>2015-10-05T09:06:15Z</time>
      </trkpt>
      <trkpt lat="44.72567" lon="0.40222">
        <ele>130.8</ele>
        <time>2015-10-05T09:06:22Z</time>
      </trkpt>
      <trkpt lat="44.72564" lon="0.4019">
        <ele>130.2</ele>
        <time>2015-10-05T09:06:25Z</time>
      </trkpt>
      <trkpt lat="44.72561" lon="0.40169">
        <ele>130</ele>
        <time>2015-10-05T09:06:27Z</time>
      </trkpt>
      <trkpt lat="44.72559" lon="0.40117">
        <ele>130.4</ele>
        <time>2015-10-05T09:06:32Z</time>
      </trkpt>
      <trkpt lat="44.72553" lon="0.40063">
        <ele>129.8</ele>
        <time>2015-10-05T09:06:38Z</time>
      </trkpt>
      <trkpt lat="44.7255" lon="0.40054">
        <ele>129.6</ele>
        <time>2015-10-05T09:06:39Z</time>
      </trkpt>
      <trkpt lat="44.72548" lon="0.40044">
        <ele>128.6</ele>
        <time>2015-10-05T09:06:40Z</time>
      </trkpt>
      <trkpt lat="44.72543" lon="0.40034">
        <ele>128.2</ele>
        <time>2015-10-05T09:06:41Z</time>
      </trkpt>
      <trkpt lat="44.72538" lon="0.40023">
        <ele>127.4</ele>
        <time>2015-10-05T09:06:42Z</time>
      </trkpt>
      <trkpt lat="44.72511" lon="0.39967">
        <ele>127</ele>
        <time>2015-10-05T09:06:47Z</time>
      </trkpt>
      <trkpt lat="44.72496" lon="0.39919">
        <ele>127.4</ele>
        <time>2015-10-05T09:06:51Z</time>
      </trkpt>
      <trkpt lat="44.72493" lon="0.39907">
        <ele>127.6</ele>
        <time>2015-10-05T09:06:52Z</time>
      </trkpt>
      <trkpt lat="44.7248" lon="0.39854">
        <ele>127.4</ele>
        <time>2015-10-05T09:06:57Z</time>
      </trkpt>
      <trkpt lat="44.72467" lon="0.398">
        <ele>127.4</ele>
        <time>2015-10-05T09:07:03Z</time>
      </trkpt>
      <trkpt lat="44.72451" lon="0.39746">
        <ele>126.4</ele>
        <time>2015-10-05T09:07:10Z</time>
      </trkpt>
      <trkpt lat="44.72435" lon="0.39681">
        <ele>126.4</ele>
        <time>2015-10-05T09:07:19Z</time>
      </trkpt>
      <trkpt lat="44.72425" lon="0.3963">
        <ele>126.6</ele>
        <time>2015-10-05T09:07:27Z</time>
      </trkpt>
      <trkpt lat="44.72408" lon="0.39581">
        <ele>126</ele>
        <time>2015-10-05T09:07:34Z</time>
      </trkpt>
      <trkpt lat="44.72383" lon="0.39521">
        <ele>125.6</ele>
        <time>2015-10-05T09:07:43Z</time>
      </trkpt>
      <trkpt lat="44.72355" lon="0.39471">
        <ele>126</ele>
        <time>2015-10-05T09:07:52Z</time>
      </trkpt>
      <trkpt lat="44.72329" lon="0.39434">
        <ele>125.8</ele>
        <time>2015-10-05T09:08:00Z</time>
      </trkpt>
      <trkpt lat="44.72302" lon="0.39399">
        <ele>125.6</ele>
        <time>2015-10-05T09:08:08Z</time>
      </trkpt>
      <trkpt lat="44.72272" lon="0.39368">
        <ele>125</ele>
        <time>2015-10-05T09:08:15Z</time>
      </trkpt>
      <trkpt lat="44.7223" lon="0.39332">
        <ele>124.2</ele>
        <time>2015-10-05T09:08:24Z</time>
      </trkpt>
      <trkpt lat="44.72213" lon="0.39319">
        <ele>124</ele>
        <time>2015-10-05T09:08:28Z</time>
      </trkpt>
      <trkpt lat="44.72201" lon="0.3931">
        <ele>124</ele>
        <time>2015-10-05T09:08:31Z</time>
      </trkpt>
      <trkpt lat="44.72161" lon="0.3928">
        <ele>123.8</ele>
        <time>2015-10-05T09:08:40Z</time>
      </trkpt>
      <trkpt lat="44.72129" lon="0.39244">
        <ele>123.6</ele>
        <time>2015-10-05T09:08:48Z</time>
      </trkpt>
      <trkpt lat="44.72108" lon="0.39208">
        <ele>123.8</ele>
        <time>2015-10-05T09:08:55Z</time>
      </trkpt>
      <trkpt lat="44.72091" lon="0.39176">
        <ele>125</ele>
        <time>2015-10-05T09:09:01Z</time>
      </trkpt>
      <trkpt lat="44.72088" lon="0.39171">
        <ele>125.4</ele>
        <time>2015-10-05T09:09:02Z</time>
      </trkpt>
      <trkpt lat="44.72064" lon="0.3914">
        <ele>125.2</ele>
        <time>2015-10-05T09:09:09Z</time>
      </trkpt>
      <trkpt lat="44.72034" lon="0.39106">
        <ele>125.4</ele>
        <time>2015-10-05T09:09:17Z</time>
      </trkpt>
      <trkpt lat="44.72021" lon="0.39089">
        <ele>126</ele>
        <time>2015-10-05T09:09:21Z</time>
      </trkpt>
      <trkpt lat="44.72011" lon="0.39077">
        <ele>126</ele>
        <time>2015-10-05T09:09:24Z</time>
      </trkpt>
      <trkpt lat="44.71989" lon="0.39053">
        <ele>126.2</ele>
        <time>2015-10-05T09:09:30Z</time>
      </trkpt>
      <trkpt lat="44.71978" lon="0.39041">
        <ele>126.4</ele>
        <time>2015-10-05T09:09:33Z</time>
      </trkpt>
      <trkpt lat="44.71941" lon="0.39014">
        <ele>125</ele>
        <time>2015-10-05T09:09:41Z</time>
      </trkpt>
      <trkpt lat="44.71905" lon="0.38984">
        <ele>123.8</ele>
        <time>2015-10-05T09:09:49Z</time>
      </trkpt>
      <trkpt lat="44.71901" lon="0.3898">
        <ele>123.8</ele>
        <time>2015-10-05T09:09:50Z</time>
      </trkpt>
      <trkpt lat="44.71895" lon="0.38971">
        <ele>124</ele>
        <time>2015-10-05T09:09:52Z</time>
      </trkpt>
      <trkpt lat="44.71887" lon="0.38954">
        <ele>123.4</ele>
        <time>2015-10-05T09:09:55Z</time>
      </trkpt>
      <trkpt lat="44.71884" lon="0.38947">
        <ele>123.2</ele>
        <time>2015-10-05T09:09:56Z</time>
      </trkpt>
      <trkpt lat="44.7188" lon="0.38928">
        <ele>123</ele>
        <time>2015-10-05T09:09:59Z</time>
      </trkpt>
      <trkpt lat="44.71878" lon="0.38914">
        <ele>122.8</ele>
        <time>2015-10-05T09:10:01Z</time>
      </trkpt>
      <trkpt lat="44.71879" lon="0.38907">
        <ele>122.8</ele>
        <time>2015-10-05T09:10:02Z</time>
      </trkpt>
      <trkpt lat="44.71879" lon="0.389">
        <ele>122.8</ele>
        <time>2015-10-05T09:10:03Z</time>
      </trkpt>
      <trkpt lat="44.71881" lon="0.38879">
        <ele>122.8</ele>
        <time>2015-10-05T09:10:06Z</time>
      </trkpt>
      <trkpt lat="44.71891" lon="0.38827">
        <ele>122.2</ele>
        <time>2015-10-05T09:10:13Z</time>
      </trkpt>
      <trkpt lat="44.71897" lon="0.38803">
        <ele>121.6</ele>
        <time>2015-10-05T09:10:16Z</time>
      </trkpt>
      <trkpt lat="44.71909" lon="0.38753">
        <ele>120.2</ele>
        <time>2015-10-05T09:10:22Z</time>
      </trkpt>
      <trkpt lat="44.71911" lon="0.38715">
        <ele>119.8</ele>
        <time>2015-10-05T09:10:26Z</time>
      </trkpt>
      <trkpt lat="44.71909" lon="0.38705">
        <ele>120</ele>
        <time>2015-10-05T09:10:27Z</time>
      </trkpt>
      <trkpt lat="44.71901" lon="0.38677">
        <ele>119</ele>
        <time>2015-10-05T09:10:30Z</time>
      </trkpt>
      <trkpt lat="44.71897" lon="0.38669">
        <ele>118.6</ele>
        <time>2015-10-05T09:10:31Z</time>
      </trkpt>
      <trkpt lat="44.71889" lon="0.38653">
        <ele>118.6</ele>
        <time>2015-10-05T09:10:33Z</time>
      </trkpt>
      <trkpt lat="44.71872" lon="0.38624">
        <ele>118.6</ele>
        <time>2015-10-05T09:10:37Z</time>
      </trkpt>
      <trkpt lat="44.71846" lon="0.38577">
        <ele>118</ele>
        <time>2015-10-05T09:10:44Z</time>
      </trkpt>
      <trkpt lat="44.71819" lon="0.3853">
        <ele>118</ele>
        <time>2015-10-05T09:10:51Z</time>
      </trkpt>
      <trkpt lat="44.71796" lon="0.38487">
        <ele>117.6</ele>
        <time>2015-10-05T09:10:58Z</time>
      </trkpt>
      <trkpt lat="44.71774" lon="0.38449">
        <ele>117.4</ele>
        <time>2015-10-05T09:11:05Z</time>
      </trkpt>
      <trkpt lat="44.71744" lon="0.38395">
        <ele>117.6</ele>
        <time>2015-10-05T09:11:15Z</time>
      </trkpt>
      <trkpt lat="44.71733" lon="0.38373">
        <ele>117</ele>
        <time>2015-10-05T09:11:19Z</time>
      </trkpt>
      <trkpt lat="44.71721" lon="0.38353">
        <ele>117.4</ele>
        <time>2015-10-05T09:11:23Z</time>
      </trkpt>
      <trkpt lat="44.71714" lon="0.38344">
        <ele>117.4</ele>
        <time>2015-10-05T09:11:25Z</time>
      </trkpt>
      <trkpt lat="44.71697" lon="0.38327">
        <ele>117</ele>
        <time>2015-10-05T09:11:29Z</time>
      </trkpt>
      <trkpt lat="44.71667" lon="0.383">
        <ele>116.6</ele>
        <time>2015-10-05T09:11:36Z</time>
      </trkpt>
      <trkpt lat="44.71654" lon="0.38279">
        <ele>116.4</ele>
        <time>2015-10-05T09:11:40Z</time>
      </trkpt>
      <trkpt lat="44.7164" lon="0.38259">
        <ele>116.8</ele>
        <time>2015-10-05T09:11:44Z</time>
      </trkpt>
      <trkpt lat="44.71607" lon="0.38218">
        <ele>116.6</ele>
        <time>2015-10-05T09:11:53Z</time>
      </trkpt>
      <trkpt lat="44.71567" lon="0.38173">
        <ele>116.2</ele>
        <time>2015-10-05T09:12:03Z</time>
      </trkpt>
      <trkpt lat="44.71537" lon="0.38138">
        <ele>116</ele>
        <time>2015-10-05T09:12:11Z</time>
      </trkpt>
      <trkpt lat="44.71533" lon="0.38133">
        <ele>115.8</ele>
        <time>2015-10-05T09:12:12Z</time>
      </trkpt>
      <trkpt lat="44.71511" lon="0.38097">
        <ele>115.6</ele>
        <time>2015-10-05T09:12:19Z</time>
      </trkpt>
      <trkpt lat="44.71492" lon="0.38064">
        <ele>115.8</ele>
        <time>2015-10-05T09:12:25Z</time>
      </trkpt>
      <trkpt lat="44.71489" lon="0.38058">
        <ele>115.6</ele>
        <time>2015-10-05T09:12:26Z</time>
      </trkpt>
      <trkpt lat="44.71471" lon="0.38026">
        <ele>114.6</ele>
        <time>2015-10-05T09:12:31Z</time>
      </trkpt>
      <trkpt lat="44.71463" lon="0.38011">
        <ele>114.2</ele>
        <time>2015-10-05T09:12:33Z</time>
      </trkpt>
      <trkpt lat="44.71455" lon="0.37996">
        <ele>113</ele>
        <time>2015-10-05T09:12:35Z</time>
      </trkpt>
      <trkpt lat="44.71437" lon="0.37964">
        <ele>112.2</ele>
        <time>2015-10-05T09:12:39Z</time>
      </trkpt>
      <trkpt lat="44.71433" lon="0.37957">
        <ele>111.8</ele>
        <time>2015-10-05T09:12:40Z</time>
      </trkpt>
      <trkpt lat="44.71425" lon="0.37944">
        <ele>112.4</ele>
        <time>2015-10-05T09:12:42Z</time>
      </trkpt>
      <trkpt lat="44.71415" lon="0.37924">
        <ele>113</ele>
        <time>2015-10-05T09:12:45Z</time>
      </trkpt>
      <trkpt lat="44.71408" lon="0.37911">
        <ele>111.6</ele>
        <time>2015-10-05T09:12:47Z</time>
      </trkpt>
      <trkpt lat="44.71398" lon="0.37893">
        <ele>113.8</ele>
        <time>2015-10-05T09:12:50Z</time>
      </trkpt>
      <trkpt lat="44.71389" lon="0.37875">
        <ele>112.2</ele>
        <time>2015-10-05T09:12:53Z</time>
      </trkpt>
      <trkpt lat="44.7138" lon="0.3786">
        <ele>113.4</ele>
        <time>2015-10-05T09:12:56Z</time>
      </trkpt>
      <trkpt lat="44.71367" lon="0.37839">
        <ele>113.2</ele>
        <time>2015-10-05T09:13:00Z</time>
      </trkpt>
      <trkpt lat="44.71342" lon="0.37817">
        <ele>114</ele>
        <time>2015-10-05T09:13:06Z</time>
      </trkpt>
      <trkpt lat="44.71338" lon="0.37815">
        <ele>114.2</ele>
        <time>2015-10-05T09:13:07Z</time>
      </trkpt>
      <trkpt lat="44.7132" lon="0.37813">
        <ele>114.4</ele>
        <time>2015-10-05T09:13:11Z</time>
      </trkpt>
      <trkpt lat="44.71315" lon="0.37814">
        <ele>114.6</ele>
        <time>2015-10-05T09:13:12Z</time>
      </trkpt>
      <trkpt lat="44.71287" lon="0.37823">
        <ele>114.8</ele>
        <time>2015-10-05T09:13:18Z</time>
      </trkpt>
      <trkpt lat="44.71244" lon="0.37839">
        <ele>114.8</ele>
        <time>2015-10-05T09:13:28Z</time>
      </trkpt>
      <trkpt lat="44.71204" lon="0.37849">
        <ele>115</ele>
        <time>2015-10-05T09:13:37Z</time>
      </trkpt>
      <trkpt lat="44.71177" lon="0.37844">
        <ele>114.8</ele>
        <time>2015-10-05T09:13:43Z</time>
      </trkpt>
      <trkpt lat="44.71143" lon="0.37827">
        <ele>115.2</ele>
        <time>2015-10-05T09:13:51Z</time>
      </trkpt>
      <trkpt lat="44.71098" lon="0.37803">
        <ele>115.2</ele>
        <time>2015-10-05T09:14:02Z</time>
      </trkpt>
      <trkpt lat="44.71091" lon="0.37799">
        <ele>115.4</ele>
        <time>2015-10-05T09:14:04Z</time>
      </trkpt>
      <trkpt lat="44.71066" lon="0.37779">
        <ele>115.6</ele>
        <time>2015-10-05T09:14:11Z</time>
      </trkpt>
      <trkpt lat="44.71055" lon="0.37768">
        <ele>115.2</ele>
        <time>2015-10-05T09:14:14Z</time>
      </trkpt>
      <trkpt lat="44.71037" lon="0.37745">
        <ele>114.8</ele>
        <time>2015-10-05T09:14:19Z</time>
      </trkpt>
      <trkpt lat="44.71026" lon="0.37729">
        <ele>114.4</ele>
        <time>2015-10-05T09:14:22Z</time>
      </trkpt>
      <trkpt lat="44.71004" lon="0.37706">
        <ele>113.6</ele>
        <time>2015-10-05T09:14:27Z</time>
      </trkpt>
      <trkpt lat="44.70994" lon="0.37698">
        <ele>113</ele>
        <time>2015-10-05T09:14:29Z</time>
      </trkpt>
      <trkpt lat="44.7097" lon="0.37683">
        <ele>113.6</ele>
        <time>2015-10-05T09:14:34Z</time>
      </trkpt>
      <trkpt lat="44.70936" lon="0.37672">
        <ele>113.4</ele>
        <time>2015-10-05T09:14:41Z</time>
      </trkpt>
      <trkpt lat="44.70902" lon="0.37673">
        <ele>113.4</ele>
        <time>2015-10-05T09:14:48Z</time>
      </trkpt>
      <trkpt lat="44.70861" lon="0.3767">
        <ele>113</ele>
        <time>2015-10-05T09:14:57Z</time>
      </trkpt>
      <trkpt lat="44.70833" lon="0.37653">
        <ele>112.8</ele>
        <time>2015-10-05T09:15:04Z</time>
      </trkpt>
      <trkpt lat="44.70812" lon="0.37623">
        <ele>112.2</ele>
        <time>2015-10-05T09:15:10Z</time>
      </trkpt>
      <trkpt lat="44.70805" lon="0.37603">
        <ele>111.8</ele>
        <time>2015-10-05T09:15:13Z</time>
      </trkpt>
      <trkpt lat="44.708" lon="0.37583">
        <ele>112</ele>
        <time>2015-10-05T09:15:16Z</time>
      </trkpt>
      <trkpt lat="44.70791" lon="0.37528">
        <ele>112.6</ele>
        <time>2015-10-05T09:15:25Z</time>
      </trkpt>
      <trkpt lat="44.70786" lon="0.37499">
        <ele>112.8</ele>
        <time>2015-10-05T09:15:30Z</time>
      </trkpt>
      <trkpt lat="44.70784" lon="0.37488">
        <ele>112.8</ele>
        <time>2015-10-05T09:15:32Z</time>
      </trkpt>
      <trkpt lat="44.70778" lon="0.37472">
        <ele>112.8</ele>
        <time>2015-10-05T09:15:35Z</time>
      </trkpt>
      <trkpt lat="44.70771" lon="0.37456">
        <ele>112.8</ele>
        <time>2015-10-05T09:15:38Z</time>
      </trkpt>
      <trkpt lat="44.70759" lon="0.37435">
        <ele>112.4</ele>
        <time>2015-10-05T09:15:42Z</time>
      </trkpt>
      <trkpt lat="44.70748" lon="0.3742">
        <ele>112.4</ele>
        <time>2015-10-05T09:15:45Z</time>
      </trkpt>
      <trkpt lat="44.70717" lon="0.3738">
        <ele>113.4</ele>
        <time>2015-10-05T09:15:54Z</time>
      </trkpt>
      <trkpt lat="44.70695" lon="0.37358">
        <ele>114</ele>
        <time>2015-10-05T09:16:00Z</time>
      </trkpt>
      <trkpt lat="44.70684" lon="0.37347">
        <ele>114</ele>
        <time>2015-10-05T09:16:03Z</time>
      </trkpt>
      <trkpt lat="44.70655" lon="0.37321">
        <ele>113.4</ele>
        <time>2015-10-05T09:16:11Z</time>
      </trkpt>
      <trkpt lat="44.70641" lon="0.37306">
        <ele>112.8</ele>
        <time>2015-10-05T09:16:15Z</time>
      </trkpt>
      <trkpt lat="44.70625" lon="0.37288">
        <ele>112.2</ele>
        <time>2015-10-05T09:16:19Z</time>
      </trkpt>
      <trkpt lat="44.70596" lon="0.37254">
        <ele>111.6</ele>
        <time>2015-10-05T09:16:26Z</time>
      </trkpt>
      <trkpt lat="44.70591" lon="0.37249">
        <ele>111.4</ele>
        <time>2015-10-05T09:16:27Z</time>
      </trkpt>
      <trkpt lat="44.70572" lon="0.37225">
        <ele>110.4</ele>
        <time>2015-10-05T09:16:31Z</time>
      </trkpt>
      <trkpt lat="44.70552" lon="0.37202">
        <ele>110.2</ele>
        <time>2015-10-05T09:16:35Z</time>
      </trkpt>
      <trkpt lat="44.70529" lon="0.37175">
        <ele>111</ele>
        <time>2015-10-05T09:16:41Z</time>
      </trkpt>
      <trkpt lat="44.70522" lon="0.37168">
        <ele>111.8</ele>
        <time>2015-10-05T09:16:43Z</time>
      </trkpt>
      <trkpt lat="44.70506" lon="0.37149">
        <ele>112.6</ele>
        <time>2015-10-05T09:16:48Z</time>
      </trkpt>
      <trkpt lat="44.70495" lon="0.37137">
        <ele>113</ele>
        <time>2015-10-05T09:16:51Z</time>
      </trkpt>
      <trkpt lat="44.70488" lon="0.3713">
        <ele>113.6</ele>
        <time>2015-10-05T09:16:53Z</time>
      </trkpt>
      <trkpt lat="44.70477" lon="0.37117">
        <ele>113</ele>
        <time>2015-10-05T09:16:56Z</time>
      </trkpt>
      <trkpt lat="44.70443" lon="0.37077">
        <ele>112.2</ele>
        <time>2015-10-05T09:17:04Z</time>
      </trkpt>
      <trkpt lat="44.70435" lon="0.37067">
        <ele>112</ele>
        <time>2015-10-05T09:17:06Z</time>
      </trkpt>
      <trkpt lat="44.70417" lon="0.37043">
        <ele>111.8</ele>
        <time>2015-10-05T09:17:11Z</time>
      </trkpt>
      <trkpt lat="44.70387" lon="0.37003">
        <ele>111.4</ele>
        <time>2015-10-05T09:17:19Z</time>
      </trkpt>
      <trkpt lat="44.70355" lon="0.36959">
        <ele>111.2</ele>
        <time>2015-10-05T09:17:29Z</time>
      </trkpt>
      <trkpt lat="44.70342" lon="0.36941">
        <ele>111.2</ele>
        <time>2015-10-05T09:17:33Z</time>
      </trkpt>
      <trkpt lat="44.70336" lon="0.36932">
        <ele>111</ele>
        <time>2015-10-05T09:17:35Z</time>
      </trkpt>
      <trkpt lat="44.70329" lon="0.36922">
        <ele>110.8</ele>
        <time>2015-10-05T09:17:37Z</time>
      </trkpt>
      <trkpt lat="44.703" lon="0.36884">
        <ele>111.2</ele>
        <time>2015-10-05T09:17:46Z</time>
      </trkpt>
      <trkpt lat="44.70292" lon="0.36874">
        <ele>112</ele>
        <time>2015-10-05T09:17:49Z</time>
      </trkpt>
      <trkpt lat="44.70284" lon="0.36864">
        <ele>111.4</ele>
        <time>2015-10-05T09:17:52Z</time>
      </trkpt>
      <trkpt lat="44.70258" lon="0.36827">
        <ele>112</ele>
        <time>2015-10-05T09:18:01Z</time>
      </trkpt>
      <trkpt lat="44.7024" lon="0.36798">
        <ele>111.6</ele>
        <time>2015-10-05T09:18:08Z</time>
      </trkpt>
      <trkpt lat="44.70225" lon="0.36774">
        <ele>110.8</ele>
        <time>2015-10-05T09:18:13Z</time>
      </trkpt>
      <trkpt lat="44.70222" lon="0.36768">
        <ele>110.4</ele>
        <time>2015-10-05T09:18:14Z</time>
      </trkpt>
      <trkpt lat="44.70209" lon="0.36747">
        <ele>109.8</ele>
        <time>2015-10-05T09:18:18Z</time>
      </trkpt>
      <trkpt lat="44.70199" lon="0.36731">
        <ele>109.2</ele>
        <time>2015-10-05T09:18:21Z</time>
      </trkpt>
      <trkpt lat="44.70196" lon="0.36726">
        <ele>109</ele>
        <time>2015-10-05T09:18:22Z</time>
      </trkpt>
      <trkpt lat="44.70191" lon="0.36719">
        <ele>108.6</ele>
        <time>2015-10-05T09:18:24Z</time>
      </trkpt>
      <trkpt lat="44.70187" lon="0.36711">
        <ele>108.6</ele>
        <time>2015-10-05T09:18:26Z</time>
      </trkpt>
      <trkpt lat="44.70184" lon="0.36703">
        <ele>107.8</ele>
        <time>2015-10-05T09:18:30Z</time>
      </trkpt>
      <trkpt lat="44.70183" lon="0.36702">
        <ele>107.6</ele>
        <time>2015-10-05T09:18:33Z</time>
      </trkpt>
      <trkpt lat="44.70179" lon="0.36698">
        <ele>108</ele>
        <time>2015-10-05T09:19:28Z</time>
      </trkpt>
      <trkpt lat="44.70169" lon="0.36694">
        <ele>107.2</ele>
        <time>2015-10-05T09:19:32Z</time>
      </trkpt>
      <trkpt lat="44.70165" lon="0.36694">
        <ele>107</ele>
        <time>2015-10-05T09:19:33Z</time>
      </trkpt>
      <trkpt lat="44.70162" lon="0.36693">
        <ele>106.6</ele>
        <time>2015-10-05T09:19:34Z</time>
      </trkpt>
      <trkpt lat="44.70143" lon="0.36686">
        <ele>105.8</ele>
        <time>2015-10-05T09:19:39Z</time>
      </trkpt>
      <trkpt lat="44.70139" lon="0.36683">
        <ele>105.6</ele>
        <time>2015-10-05T09:19:40Z</time>
      </trkpt>
      <trkpt lat="44.70116" lon="0.36668">
        <ele>104.4</ele>
        <time>2015-10-05T09:19:45Z</time>
      </trkpt>
      <trkpt lat="44.70111" lon="0.36664">
        <ele>104.2</ele>
        <time>2015-10-05T09:19:46Z</time>
      </trkpt>
      <trkpt lat="44.701" lon="0.36656">
        <ele>103.4</ele>
        <time>2015-10-05T09:19:48Z</time>
      </trkpt>
      <trkpt lat="44.70084" lon="0.36645">
        <ele>102.4</ele>
        <time>2015-10-05T09:19:52Z</time>
      </trkpt>
      <trkpt lat="44.70083" lon="0.36644">
        <ele>102</ele>
        <time>2015-10-05T09:19:53Z</time>
      </trkpt>
      <trkpt lat="44.70073" lon="0.36639">
        <ele>101</ele>
        <time>2015-10-05T09:19:57Z</time>
      </trkpt>
      <trkpt lat="44.70056" lon="0.36639">
        <ele>100</ele>
        <time>2015-10-05T09:20:02Z</time>
      </trkpt>
      <trkpt lat="44.70039" lon="0.36637">
        <ele>98.8</ele>
        <time>2015-10-05T09:20:06Z</time>
      </trkpt>
      <trkpt lat="44.70028" lon="0.36637">
        <ele>98.2</ele>
        <time>2015-10-05T09:20:08Z</time>
      </trkpt>
      <trkpt lat="44.70024" lon="0.36639">
        <ele>98.2</ele>
        <time>2015-10-05T09:20:09Z</time>
      </trkpt>
      <trkpt lat="44.70019" lon="0.36644">
        <ele>97.8</ele>
        <time>2015-10-05T09:20:10Z</time>
      </trkpt>
      <trkpt lat="44.70015" lon="0.36652">
        <ele>97.6</ele>
        <time>2015-10-05T09:20:11Z</time>
      </trkpt>
      <trkpt lat="44.70011" lon="0.36659">
        <ele>96.8</ele>
        <time>2015-10-05T09:20:12Z</time>
      </trkpt>
      <trkpt lat="44.70006" lon="0.36666">
        <ele>96.4</ele>
        <time>2015-10-05T09:20:13Z</time>
      </trkpt>
      <trkpt lat="44.69994" lon="0.3668">
        <ele>95.6</ele>
        <time>2015-10-05T09:20:15Z</time>
      </trkpt>
      <trkpt lat="44.69989" lon="0.36687">
        <ele>95</ele>
        <time>2015-10-05T09:20:16Z</time>
      </trkpt>
      <trkpt lat="44.69977" lon="0.36703">
        <ele>94.4</ele>
        <time>2015-10-05T09:20:18Z</time>
      </trkpt>
      <trkpt lat="44.69947" lon="0.3674">
        <ele>93.4</ele>
        <time>2015-10-05T09:20:23Z</time>
      </trkpt>
      <trkpt lat="44.69936" lon="0.36755">
        <ele>93.2</ele>
        <time>2015-10-05T09:20:25Z</time>
      </trkpt>
      <trkpt lat="44.69901" lon="0.36803">
        <ele>93</ele>
        <time>2015-10-05T09:20:32Z</time>
      </trkpt>
      <trkpt lat="44.69891" lon="0.36824">
        <ele>94.4</ele>
        <time>2015-10-05T09:20:36Z</time>
      </trkpt>
      <trkpt lat="44.69889" lon="0.36829">
        <ele>94.6</ele>
        <time>2015-10-05T09:20:37Z</time>
      </trkpt>
      <trkpt lat="44.69887" lon="0.36834">
        <ele>94.8</ele>
        <time>2015-10-05T09:20:38Z</time>
      </trkpt>
      <trkpt lat="44.69883" lon="0.36844">
        <ele>95.2</ele>
        <time>2015-10-05T09:20:40Z</time>
      </trkpt>
      <trkpt lat="44.69881" lon="0.36849">
        <ele>95.6</ele>
        <time>2015-10-05T09:20:41Z</time>
      </trkpt>
      <trkpt lat="44.69879" lon="0.36854">
        <ele>96</ele>
        <time>2015-10-05T09:20:42Z</time>
      </trkpt>
      <trkpt lat="44.69877" lon="0.36858">
        <ele>96</ele>
        <time>2015-10-05T09:20:43Z</time>
      </trkpt>
      <trkpt lat="44.69871" lon="0.36871">
        <ele>96.6</ele>
        <time>2015-10-05T09:20:46Z</time>
      </trkpt>
      <trkpt lat="44.69862" lon="0.36886">
        <ele>97.6</ele>
        <time>2015-10-05T09:20:50Z</time>
      </trkpt>
      <trkpt lat="44.69859" lon="0.36888">
        <ele>97.8</ele>
        <time>2015-10-05T09:20:51Z</time>
      </trkpt>
      <trkpt lat="44.69856" lon="0.36888">
        <ele>98.2</ele>
        <time>2015-10-05T09:20:52Z</time>
      </trkpt>
      <trkpt lat="44.69854" lon="0.36887">
        <ele>98.4</ele>
        <time>2015-10-05T09:20:53Z</time>
      </trkpt>
      <trkpt lat="44.69852" lon="0.36884">
        <ele>98.8</ele>
        <time>2015-10-05T09:20:55Z</time>
      </trkpt>
      <trkpt lat="44.69849" lon="0.3688">
        <ele>99.4</ele>
        <time>2015-10-05T09:20:57Z</time>
      </trkpt>
      <trkpt lat="44.69847" lon="0.36878">
        <ele>99.6</ele>
        <time>2015-10-05T09:20:58Z</time>
      </trkpt>
      <trkpt lat="44.69843" lon="0.36876">
        <ele>100</ele>
        <time>2015-10-05T09:21:00Z</time>
      </trkpt>
      <trkpt lat="44.69837" lon="0.36875">
        <ele>100.2</ele>
        <time>2015-10-05T09:21:02Z</time>
      </trkpt>
      <trkpt lat="44.69828" lon="0.36868">
        <ele>101.2</ele>
        <time>2015-10-05T09:21:06Z</time>
      </trkpt>
      <trkpt lat="44.69826" lon="0.36867">
        <ele>101.4</ele>
        <time>2015-10-05T09:21:07Z</time>
      </trkpt>
      <trkpt lat="44.69817" lon="0.36861">
        <ele>102.2</ele>
        <time>2015-10-05T09:21:11Z</time>
      </trkpt>
      <trkpt lat="44.69811" lon="0.36861">
        <ele>102.8</ele>
        <time>2015-10-05T09:21:13Z</time>
      </trkpt>
      <trkpt lat="44.69803" lon="0.36859">
        <ele>103.2</ele>
        <time>2015-10-05T09:21:16Z</time>
      </trkpt>
      <trkpt lat="44.69796" lon="0.36857">
        <ele>103.6</ele>
        <time>2015-10-05T09:21:19Z</time>
      </trkpt>
      <trkpt lat="44.69789" lon="0.36857">
        <ele>104.4</ele>
        <time>2015-10-05T09:21:22Z</time>
      </trkpt>
      <trkpt lat="44.69783" lon="0.36856">
        <ele>104.8</ele>
        <time>2015-10-05T09:21:25Z</time>
      </trkpt>
      <trkpt lat="44.6977" lon="0.36856">
        <ele>105.4</ele>
        <time>2015-10-05T09:21:31Z</time>
      </trkpt>
      <trkpt lat="44.69768" lon="0.36856">
        <ele>105.6</ele>
        <time>2015-10-05T09:21:32Z</time>
      </trkpt>
      <trkpt lat="44.6975" lon="0.36854">
        <ele>106.6</ele>
        <time>2015-10-05T09:21:39Z</time>
      </trkpt>
      <trkpt lat="44.69742" lon="0.36854">
        <ele>106.6</ele>
        <time>2015-10-05T09:21:42Z</time>
      </trkpt>
      <trkpt lat="44.6972" lon="0.36854">
        <ele>107.2</ele>
        <time>2015-10-05T09:21:50Z</time>
      </trkpt>
      <trkpt lat="44.69694" lon="0.36853">
        <ele>107.4</ele>
        <time>2015-10-05T09:21:59Z</time>
      </trkpt>
      <trkpt lat="44.69688" lon="0.36852">
        <ele>107.6</ele>
        <time>2015-10-05T09:22:01Z</time>
      </trkpt>
      <trkpt lat="44.69664" lon="0.36851">
        <ele>108</ele>
        <time>2015-10-05T09:22:09Z</time>
      </trkpt>
      <trkpt lat="44.69629" lon="0.36845">
        <ele>108.2</ele>
        <time>2015-10-05T09:22:20Z</time>
      </trkpt>
      <trkpt lat="44.69613" lon="0.36843">
        <ele>108.8</ele>
        <time>2015-10-05T09:22:25Z</time>
      </trkpt>
      <trkpt lat="44.69604" lon="0.36842">
        <ele>109</ele>
        <time>2015-10-05T09:22:28Z</time>
      </trkpt>
      <trkpt lat="44.69575" lon="0.36835">
        <ele>109.4</ele>
        <time>2015-10-05T09:22:37Z</time>
      </trkpt>
      <trkpt lat="44.69561" lon="0.36833">
        <ele>109.8</ele>
        <time>2015-10-05T09:22:41Z</time>
      </trkpt>
      <trkpt lat="44.6954" lon="0.36829">
        <ele>110</ele>
        <time>2015-10-05T09:22:47Z</time>
      </trkpt>
      <trkpt lat="44.69512" lon="0.36823">
        <ele>109.8</ele>
        <time>2015-10-05T09:22:56Z</time>
      </trkpt>
      <trkpt lat="44.69482" lon="0.36817">
        <ele>110.2</ele>
        <time>2015-10-05T09:23:05Z</time>
      </trkpt>
      <trkpt lat="44.69456" lon="0.36819">
        <ele>110.2</ele>
        <time>2015-10-05T09:23:13Z</time>
      </trkpt>
      <trkpt lat="44.69429" lon="0.36832">
        <ele>110.6</ele>
        <time>2015-10-05T09:23:21Z</time>
      </trkpt>
      <trkpt lat="44.69423" lon="0.36836">
        <ele>110.8</ele>
        <time>2015-10-05T09:23:23Z</time>
      </trkpt>
      <trkpt lat="44.694" lon="0.36854">
        <ele>110.8</ele>
        <time>2015-10-05T09:23:30Z</time>
      </trkpt>
      <trkpt lat="44.69375" lon="0.36877">
        <ele>109.8</ele>
        <time>2015-10-05T09:23:38Z</time>
      </trkpt>
      <trkpt lat="44.69352" lon="0.36895">
        <ele>109.8</ele>
        <time>2015-10-05T09:23:45Z</time>
      </trkpt>
      <trkpt lat="44.69333" lon="0.36905">
        <ele>109.4</ele>
        <time>2015-10-05T09:23:50Z</time>
      </trkpt>
      <trkpt lat="44.69324" lon="0.36906">
        <ele>109.6</ele>
        <time>2015-10-05T09:23:52Z</time>
      </trkpt>
      <trkpt lat="44.69315" lon="0.36906">
        <ele>108.8</ele>
        <time>2015-10-05T09:23:54Z</time>
      </trkpt>
      <trkpt lat="44.6931" lon="0.36905">
        <ele>108.4</ele>
        <time>2015-10-05T09:23:55Z</time>
      </trkpt>
      <trkpt lat="44.693" lon="0.36901">
        <ele>108.2</ele>
        <time>2015-10-05T09:23:57Z</time>
      </trkpt>
      <trkpt lat="44.69291" lon="0.36894">
        <ele>108</ele>
        <time>2015-10-05T09:23:59Z</time>
      </trkpt>
      <trkpt lat="44.69286" lon="0.36891">
        <ele>107.8</ele>
        <time>2015-10-05T09:24:00Z</time>
      </trkpt>
      <trkpt lat="44.69273" lon="0.36879">
        <ele>107.4</ele>
        <time>2015-10-05T09:24:03Z</time>
      </trkpt>
      <trkpt lat="44.6926" lon="0.36867">
        <ele>106.6</ele>
        <time>2015-10-05T09:24:06Z</time>
      </trkpt>
      <trkpt lat="44.69236" lon="0.36843">
        <ele>105.6</ele>
        <time>2015-10-05T09:24:11Z</time>
      </trkpt>
      <trkpt lat="44.69216" lon="0.36824">
        <ele>104.4</ele>
        <time>2015-10-05T09:24:15Z</time>
      </trkpt>
      <trkpt lat="44.6919" lon="0.36803">
        <ele>104</ele>
        <time>2015-10-05T09:24:20Z</time>
      </trkpt>
      <trkpt lat="44.69173" lon="0.36795">
        <ele>103.6</ele>
        <time>2015-10-05T09:24:23Z</time>
      </trkpt>
      <trkpt lat="44.69167" lon="0.36793">
        <ele>103.2</ele>
        <time>2015-10-05T09:24:24Z</time>
      </trkpt>
      <trkpt lat="44.69155" lon="0.36791">
        <ele>102.8</ele>
        <time>2015-10-05T09:24:26Z</time>
      </trkpt>
      <trkpt lat="44.69126" lon="0.36784">
        <ele>101.4</ele>
        <time>2015-10-05T09:24:31Z</time>
      </trkpt>
      <trkpt lat="44.69111" lon="0.36778">
        <ele>103.2</ele>
        <time>2015-10-05T09:24:34Z</time>
      </trkpt>
      <trkpt lat="44.69077" lon="0.36758">
        <ele>102.4</ele>
        <time>2015-10-05T09:24:41Z</time>
      </trkpt>
      <trkpt lat="44.6904" lon="0.36731">
        <ele>102.8</ele>
        <time>2015-10-05T09:24:50Z</time>
      </trkpt>
      <trkpt lat="44.69025" lon="0.3672">
        <ele>103</ele>
        <time>2015-10-05T09:24:54Z</time>
      </trkpt>
      <trkpt lat="44.69013" lon="0.36712">
        <ele>103.4</ele>
        <time>2015-10-05T09:24:57Z</time>
      </trkpt>
      <trkpt lat="44.68997" lon="0.36705">
        <ele>103.8</ele>
        <time>2015-10-05T09:25:01Z</time>
      </trkpt>
      <trkpt lat="44.68984" lon="0.36702">
        <ele>104</ele>
        <time>2015-10-05T09:25:04Z</time>
      </trkpt>
      <trkpt lat="44.68976" lon="0.367">
        <ele>104.4</ele>
        <time>2015-10-05T09:25:06Z</time>
      </trkpt>
      <trkpt lat="44.68953" lon="0.36695">
        <ele>105.4</ele>
        <time>2015-10-05T09:25:11Z</time>
      </trkpt>
      <trkpt lat="44.68948" lon="0.36695">
        <ele>105.8</ele>
        <time>2015-10-05T09:25:12Z</time>
      </trkpt>
      <trkpt lat="44.6894" lon="0.36693">
        <ele>106.8</ele>
        <time>2015-10-05T09:25:14Z</time>
      </trkpt>
      <trkpt lat="44.68924" lon="0.36691">
        <ele>107</ele>
        <time>2015-10-05T09:25:18Z</time>
      </trkpt>
      <trkpt lat="44.68906" lon="0.36688">
        <ele>108</ele>
        <time>2015-10-05T09:25:23Z</time>
      </trkpt>
      <trkpt lat="44.68889" lon="0.36685">
        <ele>108.6</ele>
        <time>2015-10-05T09:25:28Z</time>
      </trkpt>
      <trkpt lat="44.68881" lon="0.36684">
        <ele>109.2</ele>
        <time>2015-10-05T09:25:31Z</time>
      </trkpt>
      <trkpt lat="44.68872" lon="0.36683">
        <ele>109.4</ele>
        <time>2015-10-05T09:25:35Z</time>
      </trkpt>
      <trkpt lat="44.68865" lon="0.36682">
        <ele>109.4</ele>
        <time>2015-10-05T09:25:42Z</time>
      </trkpt>
      <trkpt lat="44.68862" lon="0.36682">
        <ele>109.8</ele>
        <time>2015-10-05T09:35:27Z</time>
      </trkpt>
      <trkpt lat="44.68833" lon="0.36678">
        <ele>109.4</ele>
        <time>2015-10-05T09:35:36Z</time>
      </trkpt>
      <trkpt lat="44.68824" lon="0.36677">
        <ele>109.2</ele>
        <time>2015-10-05T09:35:38Z</time>
      </trkpt>
      <trkpt lat="44.68819" lon="0.36677">
        <ele>108</ele>
        <time>2015-10-05T09:35:39Z</time>
      </trkpt>
      <trkpt lat="44.68787" lon="0.36669">
        <ele>107.6</ele>
        <time>2015-10-05T09:35:45Z</time>
      </trkpt>
      <trkpt lat="44.68781" lon="0.36667">
        <ele>107.2</ele>
        <time>2015-10-05T09:35:46Z</time>
      </trkpt>
      <trkpt lat="44.68775" lon="0.36665">
        <ele>106.8</ele>
        <time>2015-10-05T09:35:47Z</time>
      </trkpt>
      <trkpt lat="44.68758" lon="0.36657">
        <ele>107</ele>
        <time>2015-10-05T09:35:50Z</time>
      </trkpt>
      <trkpt lat="44.68742" lon="0.36645">
        <ele>105.8</ele>
        <time>2015-10-05T09:35:53Z</time>
      </trkpt>
      <trkpt lat="44.68722" lon="0.36625">
        <ele>105</ele>
        <time>2015-10-05T09:35:57Z</time>
      </trkpt>
      <trkpt lat="44.68718" lon="0.36619">
        <ele>104.6</ele>
        <time>2015-10-05T09:35:58Z</time>
      </trkpt>
      <trkpt lat="44.68705" lon="0.366">
        <ele>103.6</ele>
        <time>2015-10-05T09:36:01Z</time>
      </trkpt>
      <trkpt lat="44.68696" lon="0.36587">
        <ele>103.6</ele>
        <time>2015-10-05T09:36:03Z</time>
      </trkpt>
      <trkpt lat="44.6867" lon="0.36551">
        <ele>102.4</ele>
        <time>2015-10-05T09:36:09Z</time>
      </trkpt>
      <trkpt lat="44.68662" lon="0.36539">
        <ele>102.4</ele>
        <time>2015-10-05T09:36:11Z</time>
      </trkpt>
      <trkpt lat="44.6864" lon="0.36507">
        <ele>101</ele>
        <time>2015-10-05T09:36:17Z</time>
      </trkpt>
      <trkpt lat="44.6863" lon="0.36491">
        <ele>101</ele>
        <time>2015-10-05T09:36:20Z</time>
      </trkpt>
      <trkpt lat="44.68602" lon="0.36452">
        <ele>101</ele>
        <time>2015-10-05T09:36:28Z</time>
      </trkpt>
      <trkpt lat="44.68579" lon="0.36419">
        <ele>101</ele>
        <time>2015-10-05T09:36:36Z</time>
      </trkpt>
      <trkpt lat="44.68543" lon="0.36366">
        <ele>102.4</ele>
        <time>2015-10-05T09:36:50Z</time>
      </trkpt>
      <trkpt lat="44.68538" lon="0.36359">
        <ele>102.8</ele>
        <time>2015-10-05T09:36:52Z</time>
      </trkpt>
      <trkpt lat="44.68525" lon="0.36341">
        <ele>103.6</ele>
        <time>2015-10-05T09:36:57Z</time>
      </trkpt>
      <trkpt lat="44.68504" lon="0.36318">
        <ele>103.8</ele>
        <time>2015-10-05T09:37:04Z</time>
      </trkpt>
      <trkpt lat="44.68474" lon="0.36294">
        <ele>104.2</ele>
        <time>2015-10-05T09:37:13Z</time>
      </trkpt>
      <trkpt lat="44.6846" lon="0.36285">
        <ele>104.8</ele>
        <time>2015-10-05T09:37:17Z</time>
      </trkpt>
      <trkpt lat="44.68446" lon="0.36275">
        <ele>104.6</ele>
        <time>2015-10-05T09:37:21Z</time>
      </trkpt>
      <trkpt lat="44.68414" lon="0.36256">
        <ele>104.6</ele>
        <time>2015-10-05T09:37:30Z</time>
      </trkpt>
      <trkpt lat="44.68406" lon="0.36252">
        <ele>104.8</ele>
        <time>2015-10-05T09:37:32Z</time>
      </trkpt>
      <trkpt lat="44.68396" lon="0.36245">
        <ele>104.8</ele>
        <time>2015-10-05T09:37:35Z</time>
      </trkpt>
      <trkpt lat="44.68387" lon="0.36239">
        <ele>104.8</ele>
        <time>2015-10-05T09:37:38Z</time>
      </trkpt>
      <trkpt lat="44.68374" lon="0.36231">
        <ele>104.6</ele>
        <time>2015-10-05T09:37:42Z</time>
      </trkpt>
      <trkpt lat="44.68358" lon="0.36222">
        <ele>104.4</ele>
        <time>2015-10-05T09:37:47Z</time>
      </trkpt>
      <trkpt lat="44.68336" lon="0.36209">
        <ele>104.6</ele>
        <time>2015-10-05T09:37:54Z</time>
      </trkpt>
      <trkpt lat="44.68318" lon="0.36197">
        <ele>104.6</ele>
        <time>2015-10-05T09:38:00Z</time>
      </trkpt>
      <trkpt lat="44.68302" lon="0.36188">
        <ele>104.4</ele>
        <time>2015-10-05T09:38:05Z</time>
      </trkpt>
      <trkpt lat="44.68283" lon="0.36175">
        <ele>103.8</ele>
        <time>2015-10-05T09:38:11Z</time>
      </trkpt>
      <trkpt lat="44.68256" lon="0.36158">
        <ele>102.4</ele>
        <time>2015-10-05T09:38:17Z</time>
      </trkpt>
      <trkpt lat="44.68252" lon="0.36154">
        <ele>102.2</ele>
        <time>2015-10-05T09:38:18Z</time>
      </trkpt>
      <trkpt lat="44.68228" lon="0.36137">
        <ele>102.2</ele>
        <time>2015-10-05T09:38:24Z</time>
      </trkpt>
      <trkpt lat="44.68202" lon="0.36121">
        <ele>102.2</ele>
        <time>2015-10-05T09:38:31Z</time>
      </trkpt>
      <trkpt lat="44.68173" lon="0.36101">
        <ele>102.8</ele>
        <time>2015-10-05T09:38:39Z</time>
      </trkpt>
      <trkpt lat="44.6815" lon="0.36085">
        <ele>103</ele>
        <time>2015-10-05T09:38:46Z</time>
      </trkpt>
      <trkpt lat="44.68136" lon="0.36075">
        <ele>103.6</ele>
        <time>2015-10-05T09:38:51Z</time>
      </trkpt>
      <trkpt lat="44.68133" lon="0.36073">
        <ele>103.8</ele>
        <time>2015-10-05T09:38:52Z</time>
      </trkpt>
      <trkpt lat="44.68113" lon="0.3606">
        <ele>104.4</ele>
        <time>2015-10-05T09:38:58Z</time>
      </trkpt>
      <trkpt lat="44.6811" lon="0.36058">
        <ele>104.8</ele>
        <time>2015-10-05T09:38:59Z</time>
      </trkpt>
      <trkpt lat="44.68096" lon="0.36055">
        <ele>105.8</ele>
        <time>2015-10-05T09:39:03Z</time>
      </trkpt>
      <trkpt lat="44.68093" lon="0.36055">
        <ele>105.8</ele>
        <time>2015-10-05T09:39:04Z</time>
      </trkpt>
      <trkpt lat="44.68062" lon="0.36049">
        <ele>106</ele>
        <time>2015-10-05T09:39:13Z</time>
      </trkpt>
      <trkpt lat="44.68033" lon="0.36042">
        <ele>105.2</ele>
        <time>2015-10-05T09:39:20Z</time>
      </trkpt>
      <trkpt lat="44.68028" lon="0.36041">
        <ele>105.2</ele>
        <time>2015-10-05T09:39:21Z</time>
      </trkpt>
      <trkpt lat="44.68008" lon="0.36042">
        <ele>105</ele>
        <time>2015-10-05T09:39:25Z</time>
      </trkpt>
      <trkpt lat="44.67999" lon="0.36047">
        <ele>104.6</ele>
        <time>2015-10-05T09:39:27Z</time>
      </trkpt>
      <trkpt lat="44.67994" lon="0.36051">
        <ele>104.2</ele>
        <time>2015-10-05T09:39:28Z</time>
      </trkpt>
      <trkpt lat="44.67986" lon="0.36058">
        <ele>104</ele>
        <time>2015-10-05T09:39:30Z</time>
      </trkpt>
      <trkpt lat="44.67979" lon="0.36063">
        <ele>103.4</ele>
        <time>2015-10-05T09:39:32Z</time>
      </trkpt>
      <trkpt lat="44.67974" lon="0.36065">
        <ele>103.4</ele>
        <time>2015-10-05T09:39:34Z</time>
      </trkpt>
      <trkpt lat="44.67966" lon="0.36075">
        <ele>103.2</ele>
        <time>2015-10-05T09:39:39Z</time>
      </trkpt>
      <trkpt lat="44.67956" lon="0.36106">
        <ele>103.8</ele>
        <time>2015-10-05T09:39:46Z</time>
      </trkpt>
      <trkpt lat="44.67944" lon="0.36139">
        <ele>104.6</ele>
        <time>2015-10-05T09:39:53Z</time>
      </trkpt>
      <trkpt lat="44.67943" lon="0.36144">
        <ele>104.6</ele>
        <time>2015-10-05T09:39:54Z</time>
      </trkpt>
      <trkpt lat="44.67934" lon="0.36172">
        <ele>105.6</ele>
        <time>2015-10-05T09:40:00Z</time>
      </trkpt>
      <trkpt lat="44.67927" lon="0.36194">
        <ele>106</ele>
        <time>2015-10-05T09:40:05Z</time>
      </trkpt>
      <trkpt lat="44.67915" lon="0.36232">
        <ele>106.8</ele>
        <time>2015-10-05T09:40:13Z</time>
      </trkpt>
      <trkpt lat="44.67913" lon="0.36236">
        <ele>106.6</ele>
        <time>2015-10-05T09:40:14Z</time>
      </trkpt>
      <trkpt lat="44.67897" lon="0.36281">
        <ele>107</ele>
        <time>2015-10-05T09:40:24Z</time>
      </trkpt>
      <trkpt lat="44.67894" lon="0.36284">
        <ele>106.8</ele>
        <time>2015-10-05T09:40:25Z</time>
      </trkpt>
      <trkpt lat="44.67888" lon="0.36282">
        <ele>106.8</ele>
        <time>2015-10-05T09:40:27Z</time>
      </trkpt>
      <trkpt lat="44.67882" lon="0.36276">
        <ele>107</ele>
        <time>2015-10-05T09:40:29Z</time>
      </trkpt>
      <trkpt lat="44.67871" lon="0.36264">
        <ele>107.2</ele>
        <time>2015-10-05T09:40:33Z</time>
      </trkpt>
      <trkpt lat="44.67862" lon="0.36255">
        <ele>107.8</ele>
        <time>2015-10-05T09:40:36Z</time>
      </trkpt>
      <trkpt lat="44.6785" lon="0.36241">
        <ele>107.6</ele>
        <time>2015-10-05T09:40:40Z</time>
      </trkpt>
      <trkpt lat="44.67825" lon="0.36216">
        <ele>107.8</ele>
        <time>2015-10-05T09:40:48Z</time>
      </trkpt>
      <trkpt lat="44.67797" lon="0.36187">
        <ele>107.8</ele>
        <time>2015-10-05T09:40:57Z</time>
      </trkpt>
      <trkpt lat="44.67774" lon="0.36162">
        <ele>107.8</ele>
        <time>2015-10-05T09:41:05Z</time>
      </trkpt>
      <trkpt lat="44.67747" lon="0.36133">
        <ele>108.2</ele>
        <time>2015-10-05T09:41:14Z</time>
      </trkpt>
      <trkpt lat="44.67728" lon="0.36116">
        <ele>108.8</ele>
        <time>2015-10-05T09:41:20Z</time>
      </trkpt>
      <trkpt lat="44.67714" lon="0.36106">
        <ele>108.6</ele>
        <time>2015-10-05T09:41:24Z</time>
      </trkpt>
      <trkpt lat="44.67679" lon="0.36087">
        <ele>109.2</ele>
        <time>2015-10-05T09:41:34Z</time>
      </trkpt>
      <trkpt lat="44.67648" lon="0.36077">
        <ele>109.4</ele>
        <time>2015-10-05T09:41:43Z</time>
      </trkpt>
      <trkpt lat="44.67627" lon="0.36073">
        <ele>110</ele>
        <time>2015-10-05T09:41:49Z</time>
      </trkpt>
      <trkpt lat="44.6762" lon="0.36073">
        <ele>110</ele>
        <time>2015-10-05T09:41:51Z</time>
      </trkpt>
      <trkpt lat="44.6759" lon="0.36071">
        <ele>109.4</ele>
        <time>2015-10-05T09:41:59Z</time>
      </trkpt>
      <trkpt lat="44.67548" lon="0.36069">
        <ele>109.2</ele>
        <time>2015-10-05T09:42:10Z</time>
      </trkpt>
      <trkpt lat="44.67524" lon="0.36067">
        <ele>108.8</ele>
        <time>2015-10-05T09:42:16Z</time>
      </trkpt>
      <trkpt lat="44.67507" lon="0.36066">
        <ele>109</ele>
        <time>2015-10-05T09:42:20Z</time>
      </trkpt>
      <trkpt lat="44.67467" lon="0.36064">
        <ele>108.8</ele>
        <time>2015-10-05T09:42:29Z</time>
      </trkpt>
      <trkpt lat="44.67436" lon="0.36062">
        <ele>107.6</ele>
        <time>2015-10-05T09:42:35Z</time>
      </trkpt>
      <trkpt lat="44.67431" lon="0.36061">
        <ele>107.6</ele>
        <time>2015-10-05T09:42:36Z</time>
      </trkpt>
      <trkpt lat="44.67394" lon="0.36049">
        <ele>106.6</ele>
        <time>2015-10-05T09:42:43Z</time>
      </trkpt>
      <trkpt lat="44.67358" lon="0.36031">
        <ele>105.4</ele>
        <time>2015-10-05T09:42:50Z</time>
      </trkpt>
      <trkpt lat="44.67343" lon="0.36024">
        <ele>105.2</ele>
        <time>2015-10-05T09:42:53Z</time>
      </trkpt>
      <trkpt lat="44.67297" lon="0.36002">
        <ele>104.6</ele>
        <time>2015-10-05T09:43:03Z</time>
      </trkpt>
      <trkpt lat="44.67252" lon="0.35991">
        <ele>104.6</ele>
        <time>2015-10-05T09:43:13Z</time>
      </trkpt>
      <trkpt lat="44.67247" lon="0.3599">
        <ele>104.4</ele>
        <time>2015-10-05T09:43:14Z</time>
      </trkpt>
      <trkpt lat="44.67205" lon="0.35978">
        <ele>104.8</ele>
        <time>2015-10-05T09:43:24Z</time>
      </trkpt>
      <trkpt lat="44.67165" lon="0.35959">
        <ele>104.2</ele>
        <time>2015-10-05T09:43:33Z</time>
      </trkpt>
      <trkpt lat="44.67128" lon="0.35948">
        <ele>103.8</ele>
        <time>2015-10-05T09:43:41Z</time>
      </trkpt>
      <trkpt lat="44.67094" lon="0.35948">
        <ele>103.8</ele>
        <time>2015-10-05T09:43:49Z</time>
      </trkpt>
      <trkpt lat="44.67062" lon="0.3595">
        <ele>103.8</ele>
        <time>2015-10-05T09:43:57Z</time>
      </trkpt>
      <trkpt lat="44.67019" lon="0.35952">
        <ele>104.6</ele>
        <time>2015-10-05T09:44:08Z</time>
      </trkpt>
      <trkpt lat="44.66979" lon="0.35954">
        <ele>105.2</ele>
        <time>2015-10-05T09:44:18Z</time>
      </trkpt>
      <trkpt lat="44.66964" lon="0.35954">
        <ele>105.4</ele>
        <time>2015-10-05T09:44:22Z</time>
      </trkpt>
      <trkpt lat="44.66944" lon="0.35955">
        <ele>105.6</ele>
        <time>2015-10-05T09:44:27Z</time>
      </trkpt>
      <trkpt lat="44.66914" lon="0.35954">
        <ele>106.2</ele>
        <time>2015-10-05T09:44:35Z</time>
      </trkpt>
      <trkpt lat="44.66886" lon="0.35948">
        <ele>106.4</ele>
        <time>2015-10-05T09:44:42Z</time>
      </trkpt>
      <trkpt lat="44.66878" lon="0.35946">
        <ele>106.4</ele>
        <time>2015-10-05T09:44:44Z</time>
      </trkpt>
      <trkpt lat="44.66847" lon="0.3594">
        <ele>107</ele>
        <time>2015-10-05T09:44:52Z</time>
      </trkpt>
      <trkpt lat="44.66817" lon="0.35937">
        <ele>107</ele>
        <time>2015-10-05T09:45:00Z</time>
      </trkpt>
      <trkpt lat="44.66783" lon="0.35936">
        <ele>107.4</ele>
        <time>2015-10-05T09:45:09Z</time>
      </trkpt>
      <trkpt lat="44.6675" lon="0.35933">
        <ele>107.4</ele>
        <time>2015-10-05T09:45:18Z</time>
      </trkpt>
      <trkpt lat="44.66726" lon="0.3592">
        <ele>107.2</ele>
        <time>2015-10-05T09:45:25Z</time>
      </trkpt>
      <trkpt lat="44.66696" lon="0.35897">
        <ele>107.2</ele>
        <time>2015-10-05T09:45:34Z</time>
      </trkpt>
      <trkpt lat="44.66666" lon="0.35873">
        <ele>107.2</ele>
        <time>2015-10-05T09:45:43Z</time>
      </trkpt>
      <trkpt lat="44.66645" lon="0.35857">
        <ele>107.6</ele>
        <time>2015-10-05T09:45:49Z</time>
      </trkpt>
      <trkpt lat="44.66639" lon="0.35851">
        <ele>107.4</ele>
        <time>2015-10-05T09:45:51Z</time>
      </trkpt>
      <trkpt lat="44.66615" lon="0.35828">
        <ele>107.4</ele>
        <time>2015-10-05T09:45:59Z</time>
      </trkpt>
      <trkpt lat="44.66593" lon="0.35802">
        <ele>107.2</ele>
        <time>2015-10-05T09:46:07Z</time>
      </trkpt>
      <trkpt lat="44.66573" lon="0.3578">
        <ele>106.8</ele>
        <time>2015-10-05T09:46:14Z</time>
      </trkpt>
      <trkpt lat="44.66558" lon="0.35763">
        <ele>106.2</ele>
        <time>2015-10-05T09:46:19Z</time>
      </trkpt>
      <trkpt lat="44.66554" lon="0.3576">
        <ele>106.2</ele>
        <time>2015-10-05T09:46:20Z</time>
      </trkpt>
      <trkpt lat="44.66529" lon="0.35745">
        <ele>105.6</ele>
        <time>2015-10-05T09:46:26Z</time>
      </trkpt>
      <trkpt lat="44.6652" lon="0.3574">
        <ele>105.6</ele>
        <time>2015-10-05T09:46:28Z</time>
      </trkpt>
      <trkpt lat="44.66503" lon="0.35732">
        <ele>105.2</ele>
        <time>2015-10-05T09:46:32Z</time>
      </trkpt>
      <trkpt lat="44.66487" lon="0.35725">
        <ele>105.2</ele>
        <time>2015-10-05T09:46:36Z</time>
      </trkpt>
      <trkpt lat="44.66463" lon="0.35713">
        <ele>105.4</ele>
        <time>2015-10-05T09:46:43Z</time>
      </trkpt>
      <trkpt lat="44.66441" lon="0.35695">
        <ele>105.2</ele>
        <time>2015-10-05T09:46:50Z</time>
      </trkpt>
      <trkpt lat="44.66424" lon="0.35676">
        <ele>105.2</ele>
        <time>2015-10-05T09:46:56Z</time>
      </trkpt>
      <trkpt lat="44.66398" lon="0.35637">
        <ele>105.4</ele>
        <time>2015-10-05T09:47:06Z</time>
      </trkpt>
      <trkpt lat="44.66377" lon="0.35605">
        <ele>105.8</ele>
        <time>2015-10-05T09:47:14Z</time>
      </trkpt>
      <trkpt lat="44.66366" lon="0.35589">
        <ele>106.2</ele>
        <time>2015-10-05T09:47:18Z</time>
      </trkpt>
      <trkpt lat="44.66356" lon="0.35573">
        <ele>106.4</ele>
        <time>2015-10-05T09:47:22Z</time>
      </trkpt>
      <trkpt lat="44.66331" lon="0.35535">
        <ele>106.6</ele>
        <time>2015-10-05T09:47:31Z</time>
      </trkpt>
      <trkpt lat="44.66305" lon="0.35507">
        <ele>106.4</ele>
        <time>2015-10-05T09:47:39Z</time>
      </trkpt>
      <trkpt lat="44.66275" lon="0.35481">
        <ele>106</ele>
        <time>2015-10-05T09:47:47Z</time>
      </trkpt>
      <trkpt lat="44.66254" lon="0.35469">
        <ele>104.6</ele>
        <time>2015-10-05T09:47:52Z</time>
      </trkpt>
      <trkpt lat="44.66236" lon="0.35459">
        <ele>105.2</ele>
        <time>2015-10-05T09:47:56Z</time>
      </trkpt>
      <trkpt lat="44.66207" lon="0.35451">
        <ele>103</ele>
        <time>2015-10-05T09:48:02Z</time>
      </trkpt>
      <trkpt lat="44.66202" lon="0.3545">
        <ele>103.2</ele>
        <time>2015-10-05T09:48:03Z</time>
      </trkpt>
      <trkpt lat="44.66174" lon="0.35445">
        <ele>103</ele>
        <time>2015-10-05T09:48:08Z</time>
      </trkpt>
      <trkpt lat="44.66168" lon="0.35442">
        <ele>102.6</ele>
        <time>2015-10-05T09:48:09Z</time>
      </trkpt>
      <trkpt lat="44.66156" lon="0.35431">
        <ele>102</ele>
        <time>2015-10-05T09:48:11Z</time>
      </trkpt>
      <trkpt lat="44.66151" lon="0.35424">
        <ele>101.6</ele>
        <time>2015-10-05T09:48:12Z</time>
      </trkpt>
      <trkpt lat="44.66146" lon="0.35404">
        <ele>100.4</ele>
        <time>2015-10-05T09:48:14Z</time>
      </trkpt>
      <trkpt lat="44.66146" lon="0.35393">
        <ele>99.4</ele>
        <time>2015-10-05T09:48:15Z</time>
      </trkpt>
      <trkpt lat="44.66147" lon="0.3538">
        <ele>98.6</ele>
        <time>2015-10-05T09:48:16Z</time>
      </trkpt>
      <trkpt lat="44.66147" lon="0.35368">
        <ele>97.4</ele>
        <time>2015-10-05T09:48:17Z</time>
      </trkpt>
      <trkpt lat="44.66148" lon="0.35355">
        <ele>96.2</ele>
        <time>2015-10-05T09:48:18Z</time>
      </trkpt>
      <trkpt lat="44.66148" lon="0.35344">
        <ele>95.2</ele>
        <time>2015-10-05T09:48:19Z</time>
      </trkpt>
      <trkpt lat="44.66143" lon="0.35322">
        <ele>93.8</ele>
        <time>2015-10-05T09:48:21Z</time>
      </trkpt>
      <trkpt lat="44.66138" lon="0.35312">
        <ele>92.4</ele>
        <time>2015-10-05T09:48:22Z</time>
      </trkpt>
      <trkpt lat="44.66132" lon="0.35303">
        <ele>91.4</ele>
        <time>2015-10-05T09:48:23Z</time>
      </trkpt>
      <trkpt lat="44.66113" lon="0.35293">
        <ele>90.2</ele>
        <time>2015-10-05T09:48:25Z</time>
      </trkpt>
      <trkpt lat="44.66103" lon="0.3529">
        <ele>89</ele>
        <time>2015-10-05T09:48:26Z</time>
      </trkpt>
      <trkpt lat="44.66093" lon="0.35286">
        <ele>88</ele>
        <time>2015-10-05T09:48:27Z</time>
      </trkpt>
      <trkpt lat="44.66071" lon="0.3528">
        <ele>86.4</ele>
        <time>2015-10-05T09:48:29Z</time>
      </trkpt>
      <trkpt lat="44.6606" lon="0.35278">
        <ele>85.6</ele>
        <time>2015-10-05T09:48:30Z</time>
      </trkpt>
      <trkpt lat="44.66049" lon="0.35276">
        <ele>84.6</ele>
        <time>2015-10-05T09:48:31Z</time>
      </trkpt>
      <trkpt lat="44.66027" lon="0.35276">
        <ele>82.8</ele>
        <time>2015-10-05T09:48:33Z</time>
      </trkpt>
      <trkpt lat="44.66016" lon="0.35279">
        <ele>81.8</ele>
        <time>2015-10-05T09:48:34Z</time>
      </trkpt>
      <trkpt lat="44.66004" lon="0.35282">
        <ele>80.4</ele>
        <time>2015-10-05T09:48:35Z</time>
      </trkpt>
      <trkpt lat="44.65981" lon="0.3529">
        <ele>78.8</ele>
        <time>2015-10-05T09:48:37Z</time>
      </trkpt>
      <trkpt lat="44.65969" lon="0.35295">
        <ele>77.2</ele>
        <time>2015-10-05T09:48:38Z</time>
      </trkpt>
      <trkpt lat="44.65956" lon="0.35298">
        <ele>76.6</ele>
        <time>2015-10-05T09:48:39Z</time>
      </trkpt>
      <trkpt lat="44.65944" lon="0.353">
        <ele>75.4</ele>
        <time>2015-10-05T09:48:40Z</time>
      </trkpt>
      <trkpt lat="44.65917" lon="0.35301">
        <ele>73</ele>
        <time>2015-10-05T09:48:42Z</time>
      </trkpt>
      <trkpt lat="44.65904" lon="0.35298">
        <ele>72.2</ele>
        <time>2015-10-05T09:48:43Z</time>
      </trkpt>
      <trkpt lat="44.65891" lon="0.35294">
        <ele>71</ele>
        <time>2015-10-05T09:48:44Z</time>
      </trkpt>
      <trkpt lat="44.65877" lon="0.35288">
        <ele>69.6</ele>
        <time>2015-10-05T09:48:45Z</time>
      </trkpt>
      <trkpt lat="44.65852" lon="0.35274">
        <ele>68.4</ele>
        <time>2015-10-05T09:48:47Z</time>
      </trkpt>
      <trkpt lat="44.65829" lon="0.35259">
        <ele>66.6</ele>
        <time>2015-10-05T09:48:49Z</time>
      </trkpt>
      <trkpt lat="44.65817" lon="0.35252">
        <ele>66</ele>
        <time>2015-10-05T09:48:50Z</time>
      </trkpt>
      <trkpt lat="44.65796" lon="0.35243">
        <ele>65.4</ele>
        <time>2015-10-05T09:48:52Z</time>
      </trkpt>
      <trkpt lat="44.65786" lon="0.35241">
        <ele>64.6</ele>
        <time>2015-10-05T09:48:53Z</time>
      </trkpt>
      <trkpt lat="44.65775" lon="0.35242">
        <ele>64.2</ele>
        <time>2015-10-05T09:48:54Z</time>
      </trkpt>
      <trkpt lat="44.65757" lon="0.35248">
        <ele>64.2</ele>
        <time>2015-10-05T09:48:56Z</time>
      </trkpt>
      <trkpt lat="44.65736" lon="0.35268">
        <ele>63.8</ele>
        <time>2015-10-05T09:48:59Z</time>
      </trkpt>
      <trkpt lat="44.6573" lon="0.35276">
        <ele>63.8</ele>
        <time>2015-10-05T09:49:00Z</time>
      </trkpt>
      <trkpt lat="44.65717" lon="0.3529">
        <ele>63.2</ele>
        <time>2015-10-05T09:49:02Z</time>
      </trkpt>
      <trkpt lat="44.657" lon="0.35312">
        <ele>62.8</ele>
        <time>2015-10-05T09:49:05Z</time>
      </trkpt>
      <trkpt lat="44.6567" lon="0.35346">
        <ele>62.4</ele>
        <time>2015-10-05T09:49:11Z</time>
      </trkpt>
      <trkpt lat="44.65665" lon="0.35351">
        <ele>62.2</ele>
        <time>2015-10-05T09:49:12Z</time>
      </trkpt>
      <trkpt lat="44.65652" lon="0.35367">
        <ele>61.8</ele>
        <time>2015-10-05T09:49:15Z</time>
      </trkpt>
      <trkpt lat="44.65644" lon="0.35377">
        <ele>61.6</ele>
        <time>2015-10-05T09:49:17Z</time>
      </trkpt>
      <trkpt lat="44.65632" lon="0.35387">
        <ele>61.4</ele>
        <time>2015-10-05T09:49:21Z</time>
      </trkpt>
      <trkpt lat="44.65626" lon="0.35387">
        <ele>61.2</ele>
        <time>2015-10-05T09:49:23Z</time>
      </trkpt>
      <trkpt lat="44.65624" lon="0.35385">
        <ele>61.2</ele>
        <time>2015-10-05T09:49:24Z</time>
      </trkpt>
      <trkpt lat="44.65622" lon="0.35383">
        <ele>61</ele>
        <time>2015-10-05T09:49:25Z</time>
      </trkpt>
      <trkpt lat="44.65614" lon="0.35369">
        <ele>61.2</ele>
        <time>2015-10-05T09:49:30Z</time>
      </trkpt>
      <trkpt lat="44.65603" lon="0.35355">
        <ele>61.2</ele>
        <time>2015-10-05T09:49:34Z</time>
      </trkpt>
      <trkpt lat="44.656" lon="0.35351">
        <ele>61</ele>
        <time>2015-10-05T09:49:35Z</time>
      </trkpt>
      <trkpt lat="44.65576" lon="0.3532">
        <ele>60.6</ele>
        <time>2015-10-05T09:49:43Z</time>
      </trkpt>
      <trkpt lat="44.65543" lon="0.35275">
        <ele>60.4</ele>
        <time>2015-10-05T09:49:53Z</time>
      </trkpt>
      <trkpt lat="44.65516" lon="0.35238">
        <ele>62</ele>
        <time>2015-10-05T09:50:02Z</time>
      </trkpt>
      <trkpt lat="44.65493" lon="0.35208">
        <ele>62</ele>
        <time>2015-10-05T09:50:10Z</time>
      </trkpt>
      <trkpt lat="44.65472" lon="0.35179">
        <ele>61.4</ele>
        <time>2015-10-05T09:50:16Z</time>
      </trkpt>
      <trkpt lat="44.65446" lon="0.35143">
        <ele>60.6</ele>
        <time>2015-10-05T09:50:23Z</time>
      </trkpt>
      <trkpt lat="44.65414" lon="0.35099">
        <ele>61</ele>
        <time>2015-10-05T09:50:32Z</time>
      </trkpt>
      <trkpt lat="44.65383" lon="0.3506">
        <ele>61.2</ele>
        <time>2015-10-05T09:50:41Z</time>
      </trkpt>
      <trkpt lat="44.65346" lon="0.3501">
        <ele>62</ele>
        <time>2015-10-05T09:50:52Z</time>
      </trkpt>
      <trkpt lat="44.65313" lon="0.34966">
        <ele>62</ele>
        <time>2015-10-05T09:51:02Z</time>
      </trkpt>
      <trkpt lat="44.65286" lon="0.34929">
        <ele>61.8</ele>
        <time>2015-10-05T09:51:10Z</time>
      </trkpt>
      <trkpt lat="44.65243" lon="0.34871">
        <ele>61.8</ele>
        <time>2015-10-05T09:51:22Z</time>
      </trkpt>
      <trkpt lat="44.65206" lon="0.34822">
        <ele>61.6</ele>
        <time>2015-10-05T09:51:33Z</time>
      </trkpt>
      <trkpt lat="44.65166" lon="0.34769">
        <ele>61.4</ele>
        <time>2015-10-05T09:51:44Z</time>
      </trkpt>
      <trkpt lat="44.65137" lon="0.3473">
        <ele>61.4</ele>
        <time>2015-10-05T09:51:53Z</time>
      </trkpt>
      <trkpt lat="44.65113" lon="0.34697">
        <ele>61.4</ele>
        <time>2015-10-05T09:52:01Z</time>
      </trkpt>
      <trkpt lat="44.65086" lon="0.34661">
        <ele>61.4</ele>
        <time>2015-10-05T09:52:09Z</time>
      </trkpt>
      <trkpt lat="44.65056" lon="0.3462">
        <ele>61.2</ele>
        <time>2015-10-05T09:52:18Z</time>
      </trkpt>
      <trkpt lat="44.65018" lon="0.34569">
        <ele>61.2</ele>
        <time>2015-10-05T09:52:29Z</time>
      </trkpt>
      <trkpt lat="44.64986" lon="0.34527">
        <ele>61</ele>
        <time>2015-10-05T09:52:38Z</time>
      </trkpt>
      <trkpt lat="44.64958" lon="0.3448">
        <ele>61.2</ele>
        <time>2015-10-05T09:52:47Z</time>
      </trkpt>
      <trkpt lat="44.64936" lon="0.34436">
        <ele>60.8</ele>
        <time>2015-10-05T09:52:55Z</time>
      </trkpt>
      <trkpt lat="44.64912" lon="0.34383">
        <ele>61</ele>
        <time>2015-10-05T09:53:04Z</time>
      </trkpt>
      <trkpt lat="44.6489" lon="0.34335">
        <ele>60.8</ele>
        <time>2015-10-05T09:53:12Z</time>
      </trkpt>
      <trkpt lat="44.64866" lon="0.34282">
        <ele>60.6</ele>
        <time>2015-10-05T09:53:21Z</time>
      </trkpt>
      <trkpt lat="44.64844" lon="0.34235">
        <ele>60.4</ele>
        <time>2015-10-05T09:53:29Z</time>
      </trkpt>
      <trkpt lat="44.64821" lon="0.34182">
        <ele>60.6</ele>
        <time>2015-10-05T09:53:38Z</time>
      </trkpt>
      <trkpt lat="44.64803" lon="0.34142">
        <ele>60.4</ele>
        <time>2015-10-05T09:53:45Z</time>
      </trkpt>
      <trkpt lat="44.64786" lon="0.341">
        <ele>60.4</ele>
        <time>2015-10-05T09:53:53Z</time>
      </trkpt>
      <trkpt lat="44.64785" lon="0.34095">
        <ele>60.4</ele>
        <time>2015-10-05T09:53:54Z</time>
      </trkpt>
      <trkpt lat="44.64775" lon="0.34071">
        <ele>60.6</ele>
        <time>2015-10-05T09:54:00Z</time>
      </trkpt>
      <trkpt lat="44.64771" lon="0.34063">
        <ele>60.6</ele>
        <time>2015-10-05T09:54:05Z</time>
      </trkpt>
      <trkpt lat="44.64772" lon="0.34056">
        <ele>61.8</ele>
        <time>2015-10-05T09:55:19Z</time>
      </trkpt>
      <trkpt lat="44.64771" lon="0.34051">
        <ele>62</ele>
        <time>2015-10-05T09:55:21Z</time>
      </trkpt>
      <trkpt lat="44.64768" lon="0.3404">
        <ele>61.8</ele>
        <time>2015-10-05T09:55:24Z</time>
      </trkpt>
      <trkpt lat="44.64766" lon="0.34031">
        <ele>61.8</ele>
        <time>2015-10-05T09:55:26Z</time>
      </trkpt>
      <trkpt lat="44.64764" lon="0.34022">
        <ele>62.2</ele>
        <time>2015-10-05T09:55:28Z</time>
      </trkpt>
      <trkpt lat="44.64759" lon="0.33996">
        <ele>62.8</ele>
        <time>2015-10-05T09:55:34Z</time>
      </trkpt>
      <trkpt lat="44.64752" lon="0.33945">
        <ele>62.8</ele>
        <time>2015-10-05T09:55:44Z</time>
      </trkpt>
      <trkpt lat="44.64744" lon="0.33892">
        <ele>62.4</ele>
        <time>2015-10-05T09:55:53Z</time>
      </trkpt>
      <trkpt lat="44.6474" lon="0.33887">
        <ele>62.6</ele>
        <time>2015-10-05T09:55:56Z</time>
      </trkpt>
      <trkpt lat="44.64738" lon="0.33894">
        <ele>62.6</ele>
        <time>2015-10-05T09:55:59Z</time>
      </trkpt>
      <trkpt lat="44.64742" lon="0.33889">
        <ele>62.2</ele>
        <time>2015-10-05T09:56:31Z</time>
      </trkpt>
      <trkpt lat="44.64739" lon="0.33874">
        <ele>62</ele>
        <time>2015-10-05T09:56:35Z</time>
      </trkpt>
      <trkpt lat="44.64739" lon="0.3387">
        <ele>61.8</ele>
        <time>2015-10-05T09:56:36Z</time>
      </trkpt>
      <trkpt lat="44.64735" lon="0.33858">
        <ele>61.8</ele>
        <time>2015-10-05T09:56:40Z</time>
      </trkpt>
      <trkpt lat="44.64732" lon="0.33858">
        <ele>61.8</ele>
        <time>2015-10-05T09:56:41Z</time>
      </trkpt>
      <trkpt lat="44.64717" lon="0.33863">
        <ele>61.8</ele>
        <time>2015-10-05T09:56:46Z</time>
      </trkpt>
      <trkpt lat="44.64698" lon="0.33867">
        <ele>62.2</ele>
        <time>2015-10-05T09:56:53Z</time>
      </trkpt>
      <trkpt lat="44.64683" lon="0.33868">
        <ele>62</ele>
        <time>2015-10-05T09:57:01Z</time>
      </trkpt>
      <trkpt lat="44.64679" lon="0.33871">
        <ele>62</ele>
        <time>2015-10-05T09:57:05Z</time>
      </trkpt>
      <trkpt lat="44.64679" lon="0.33879">
        <ele>62</ele>
        <time>2015-10-05T09:57:08Z</time>
      </trkpt>
      <trkpt lat="44.64677" lon="0.33896">
        <ele>61.6</ele>
        <time>2015-10-05T09:57:15Z</time>
      </trkpt>
      <trkpt lat="44.64681" lon="0.33912">
        <ele>61.4</ele>
        <time>2015-10-05T09:57:21Z</time>
      </trkpt>
      <trkpt lat="44.64681" lon="0.33914">
        <ele>61.4</ele>
        <time>2015-10-05T09:57:23Z</time>
      </trkpt>
      <trkpt lat="44.64681" lon="0.33915">
        <ele>61.4</ele>
        <time>2015-10-05T09:57:25Z</time>
      </trkpt>
      <trkpt lat="44.64682" lon="0.33919">
        <ele>61.2</ele>
        <time>2015-10-05T09:57:34Z</time>
      </trkpt>
      <trkpt lat="44.64682" lon="0.33922">
        <ele>61.4</ele>
        <time>2015-10-05T09:57:35Z</time>
      </trkpt>
      <trkpt lat="44.64687" lon="0.33948">
        <ele>61.2</ele>
        <time>2015-10-05T09:57:42Z</time>
      </trkpt>
      <trkpt lat="44.64688" lon="0.33952">
        <ele>61</ele>
        <time>2015-10-05T09:57:43Z</time>
      </trkpt>
      <trkpt lat="44.64695" lon="0.33973">
        <ele>60.8</ele>
        <time>2015-10-05T09:57:49Z</time>
      </trkpt>
      <trkpt lat="44.64698" lon="0.34">
        <ele>60.4</ele>
        <time>2015-10-05T09:57:55Z</time>
      </trkpt>
      <trkpt lat="44.64697" lon="0.34007">
        <ele>60</ele>
        <time>2015-10-05T09:57:59Z</time>
      </trkpt>
      <trkpt lat="44.64695" lon="0.34016">
        <ele>60</ele>
        <time>2015-10-05T09:58:06Z</time>
      </trkpt>
      <trkpt lat="44.64694" lon="0.34018">
        <ele>59.8</ele>
        <time>2015-10-05T09:58:12Z</time>
      </trkpt>
      <trkpt lat="44.64697" lon="0.34011">
        <ele>60.2</ele>
        <time>2015-10-05T09:58:21Z</time>
      </trkpt>
      <trkpt lat="44.64701" lon="0.34012">
        <ele>60.2</ele>
        <time>2015-10-05T09:58:23Z</time>
      </trkpt>
      <trkpt lat="44.64705" lon="0.34015">
        <ele>60.6</ele>
        <time>2015-10-05T09:58:25Z</time>
      </trkpt>
      <trkpt lat="44.64713" lon="0.34016">
        <ele>60.8</ele>
        <time>2015-10-05T09:58:28Z</time>
      </trkpt>
      <trkpt lat="44.64718" lon="0.34016">
        <ele>61.2</ele>
        <time>2015-10-05T09:58:30Z</time>
      </trkpt>
      <trkpt lat="44.64734" lon="0.34017">
        <ele>61.8</ele>
        <time>2015-10-05T09:58:36Z</time>
      </trkpt>
      <trkpt lat="44.64739" lon="0.34017">
        <ele>62.2</ele>
        <time>2015-10-05T09:58:38Z</time>
      </trkpt>
      <trkpt lat="44.64744" lon="0.34016">
        <ele>62.2</ele>
        <time>2015-10-05T09:58:40Z</time>
      </trkpt>
      <trkpt lat="44.6475" lon="0.34016">
        <ele>62</ele>
        <time>2015-10-05T09:58:43Z</time>
      </trkpt>
      <trkpt lat="44.64758" lon="0.34017">
        <ele>62.2</ele>
        <time>2015-10-05T09:58:47Z</time>
      </trkpt>
      <trkpt lat="44.64759" lon="0.34019">
        <ele>62</ele>
        <time>2015-10-05T09:58:48Z</time>
      </trkpt>
      <trkpt lat="44.64762" lon="0.34035">
        <ele>61.8</ele>
        <time>2015-10-05T09:58:52Z</time>
      </trkpt>
      <trkpt lat="44.64765" lon="0.34069">
        <ele>61.4</ele>
        <time>2015-10-05T09:58:59Z</time>
      </trkpt>
      <trkpt lat="44.64763" lon="0.34073">
        <ele>61.4</ele>
        <time>2015-10-05T09:59:01Z</time>
      </trkpt>
      <trkpt lat="44.64761" lon="0.34074">
        <ele>61.4</ele>
        <time>2015-10-05T09:59:02Z</time>
      </trkpt>
      <trkpt lat="44.64752" lon="0.34075">
        <ele>61.2</ele>
        <time>2015-10-05T09:59:07Z</time>
      </trkpt>
      <trkpt lat="44.6475" lon="0.34074">
        <ele>61</ele>
        <time>2015-10-05T09:59:08Z</time>
      </trkpt>
      <trkpt lat="44.64747" lon="0.34074">
        <ele>60.8</ele>
        <time>2015-10-05T09:59:09Z</time>
      </trkpt>
      <trkpt lat="44.64744" lon="0.34075">
        <ele>60.6</ele>
        <time>2015-10-05T09:59:11Z</time>
      </trkpt>
      <trkpt lat="44.64742" lon="0.34077">
        <ele>60.6</ele>
        <time>2015-10-05T09:59:12Z</time>
      </trkpt>
      <trkpt lat="44.64743" lon="0.34085">
        <ele>60.4</ele>
        <time>2015-10-05T09:59:16Z</time>
      </trkpt>
      <trkpt lat="44.64742" lon="0.34089">
        <ele>60.4</ele>
        <time>2015-10-05T09:59:19Z</time>
      </trkpt>
      <trkpt lat="44.64743" lon="0.34087">
        <ele>60.2</ele>
        <time>2015-10-05T09:59:21Z</time>
      </trkpt>
      <trkpt lat="44.64744" lon="0.3408">
        <ele>60.4</ele>
        <time>2015-10-05T09:59:26Z</time>
      </trkpt>
      <trkpt lat="44.64743" lon="0.34078">
        <ele>60.6</ele>
        <time>2015-10-05T09:59:27Z</time>
      </trkpt>
      <trkpt lat="44.64737" lon="0.34067">
        <ele>60.4</ele>
        <time>2015-10-05T09:59:30Z</time>
      </trkpt>
      <trkpt lat="44.64731" lon="0.34063">
        <ele>60.2</ele>
        <time>2015-10-05T09:59:34Z</time>
      </trkpt>
      <trkpt lat="44.64728" lon="0.34066">
        <ele>60</ele>
        <time>2015-10-05T09:59:36Z</time>
      </trkpt>
      <trkpt lat="44.64727" lon="0.34068">
        <ele>60</ele>
        <time>2015-10-05T09:59:37Z</time>
      </trkpt>
      <trkpt lat="44.64724" lon="0.34074">
        <ele>60</ele>
        <time>2015-10-05T09:59:40Z</time>
      </trkpt>
      <trkpt lat="44.64725" lon="0.34082">
        <ele>60</ele>
        <time>2015-10-05T09:59:44Z</time>
      </trkpt>
      <trkpt lat="44.64724" lon="0.34082">
        <ele>60</ele>
        <time>2015-10-05T09:59:46Z</time>
      </trkpt>
      <trkpt lat="44.64725" lon="0.34072">
        <ele>60</ele>
        <time>2015-10-05T10:02:22Z</time>
      </trkpt>
      <trkpt lat="44.64728" lon="0.34069">
        <ele>60.2</ele>
        <time>2015-10-05T10:02:24Z</time>
      </trkpt>
      <trkpt lat="44.64734" lon="0.34066">
        <ele>60</ele>
        <time>2015-10-05T10:02:29Z</time>
      </trkpt>
      <trkpt lat="44.64735" lon="0.34067">
        <ele>60</ele>
        <time>2015-10-05T10:02:30Z</time>
      </trkpt>
      <trkpt lat="44.64746" lon="0.34078">
        <ele>60.2</ele>
        <time>2015-10-05T10:02:35Z</time>
      </trkpt>
      <trkpt lat="44.6475" lon="0.3408">
        <ele>60.4</ele>
        <time>2015-10-05T10:02:37Z</time>
      </trkpt>
      <trkpt lat="44.64756" lon="0.34086">
        <ele>60.8</ele>
        <time>2015-10-05T10:02:41Z</time>
      </trkpt>
      <trkpt lat="44.64761" lon="0.34099">
        <ele>61</ele>
        <time>2015-10-05T10:02:48Z</time>
      </trkpt>
      <trkpt lat="44.64757" lon="0.34122">
        <ele>60.6</ele>
        <time>2015-10-05T10:02:54Z</time>
      </trkpt>
      <trkpt lat="44.64754" lon="0.34156">
        <ele>60.2</ele>
        <time>2015-10-05T10:03:02Z</time>
      </trkpt>
      <trkpt lat="44.64745" lon="0.34207">
        <ele>60</ele>
        <time>2015-10-05T10:03:11Z</time>
      </trkpt>
      <trkpt lat="44.64734" lon="0.3425">
        <ele>59.4</ele>
        <time>2015-10-05T10:03:19Z</time>
      </trkpt>
      <trkpt lat="44.64725" lon="0.3427">
        <ele>59.6</ele>
        <time>2015-10-05T10:03:23Z</time>
      </trkpt>
      <trkpt lat="44.6472" lon="0.34278">
        <ele>59.8</ele>
        <time>2015-10-05T10:03:25Z</time>
      </trkpt>
      <trkpt lat="44.64699" lon="0.34294">
        <ele>60.6</ele>
        <time>2015-10-05T10:03:31Z</time>
      </trkpt>
      <trkpt lat="44.64696" lon="0.34294">
        <ele>61</ele>
        <time>2015-10-05T10:03:32Z</time>
      </trkpt>
      <trkpt lat="44.64681" lon="0.34291">
        <ele>61.2</ele>
        <time>2015-10-05T10:03:36Z</time>
      </trkpt>
      <trkpt lat="44.64651" lon="0.34277">
        <ele>62.2</ele>
        <time>2015-10-05T10:03:44Z</time>
      </trkpt>
      <trkpt lat="44.64647" lon="0.34276">
        <ele>62</ele>
        <time>2015-10-05T10:03:45Z</time>
      </trkpt>
      <trkpt lat="44.64619" lon="0.34265">
        <ele>61.4</ele>
        <time>2015-10-05T10:03:52Z</time>
      </trkpt>
      <trkpt lat="44.64609" lon="0.34264">
        <ele>61</ele>
        <time>2015-10-05T10:03:54Z</time>
      </trkpt>
      <trkpt lat="44.64591" lon="0.34268">
        <ele>60.4</ele>
        <time>2015-10-05T10:03:58Z</time>
      </trkpt>
      <trkpt lat="44.64575" lon="0.34278">
        <ele>60.2</ele>
        <time>2015-10-05T10:04:02Z</time>
      </trkpt>
      <trkpt lat="44.6457" lon="0.34282">
        <ele>59.8</ele>
        <time>2015-10-05T10:04:04Z</time>
      </trkpt>
      <trkpt lat="44.64563" lon="0.3429">
        <ele>59.4</ele>
        <time>2015-10-05T10:04:09Z</time>
      </trkpt>
      <trkpt lat="44.64562" lon="0.34291">
        <ele>59.4</ele>
        <time>2015-10-05T10:04:10Z</time>
      </trkpt>
      <trkpt lat="44.64561" lon="0.34292">
        <ele>58.8</ele>
        <time>2015-10-05T10:04:14Z</time>
      </trkpt>
      <trkpt lat="44.64551" lon="0.34291">
        <ele>59.2</ele>
        <time>2015-10-05T10:04:32Z</time>
      </trkpt>
      <trkpt lat="44.64548" lon="0.3429">
        <ele>59</ele>
        <time>2015-10-05T10:04:33Z</time>
      </trkpt>
      <trkpt lat="44.64545" lon="0.34288">
        <ele>58.6</ele>
        <time>2015-10-05T10:04:34Z</time>
      </trkpt>
      <trkpt lat="44.6454" lon="0.34284">
        <ele>57.2</ele>
        <time>2015-10-05T10:04:36Z</time>
      </trkpt>
      <trkpt lat="44.64537" lon="0.34282">
        <ele>58.2</ele>
        <time>2015-10-05T10:04:37Z</time>
      </trkpt>
      <trkpt lat="44.64532" lon="0.34276">
        <ele>59</ele>
        <time>2015-10-05T10:04:39Z</time>
      </trkpt>
      <trkpt lat="44.64525" lon="0.34269">
        <ele>57.8</ele>
        <time>2015-10-05T10:04:41Z</time>
      </trkpt>
      <trkpt lat="44.64517" lon="0.34264">
        <ele>58</ele>
        <time>2015-10-05T10:04:43Z</time>
      </trkpt>
      <trkpt lat="44.64491" lon="0.34245">
        <ele>57.4</ele>
        <time>2015-10-05T10:04:49Z</time>
      </trkpt>
      <trkpt lat="44.64469" lon="0.34229">
        <ele>57.2</ele>
        <time>2015-10-05T10:04:54Z</time>
      </trkpt>
      <trkpt lat="44.6443" lon="0.34201">
        <ele>57</ele>
        <time>2015-10-05T10:05:03Z</time>
      </trkpt>
      <trkpt lat="44.64401" lon="0.34179">
        <ele>57</ele>
        <time>2015-10-05T10:05:10Z</time>
      </trkpt>
      <trkpt lat="44.64369" lon="0.34159">
        <ele>57</ele>
        <time>2015-10-05T10:05:17Z</time>
      </trkpt>
      <trkpt lat="44.64341" lon="0.34145">
        <ele>56.6</ele>
        <time>2015-10-05T10:05:23Z</time>
      </trkpt>
      <trkpt lat="44.64326" lon="0.34137">
        <ele>57.6</ele>
        <time>2015-10-05T10:05:26Z</time>
      </trkpt>
      <trkpt lat="44.6432" lon="0.34133">
        <ele>57.4</ele>
        <time>2015-10-05T10:05:27Z</time>
      </trkpt>
      <trkpt lat="44.64315" lon="0.34129">
        <ele>57.2</ele>
        <time>2015-10-05T10:05:28Z</time>
      </trkpt>
      <trkpt lat="44.64286" lon="0.34113">
        <ele>57.2</ele>
        <time>2015-10-05T10:05:33Z</time>
      </trkpt>
      <trkpt lat="44.6428" lon="0.34111">
        <ele>57.2</ele>
        <time>2015-10-05T10:05:34Z</time>
      </trkpt>
      <trkpt lat="44.64259" lon="0.34108">
        <ele>57.2</ele>
        <time>2015-10-05T10:05:38Z</time>
      </trkpt>
      <trkpt lat="44.6423" lon="0.34113">
        <ele>56.6</ele>
        <time>2015-10-05T10:05:44Z</time>
      </trkpt>
      <trkpt lat="44.64225" lon="0.34114">
        <ele>56.6</ele>
        <time>2015-10-05T10:05:45Z</time>
      </trkpt>
      <trkpt lat="44.64207" lon="0.34116">
        <ele>57</ele>
        <time>2015-10-05T10:05:49Z</time>
      </trkpt>
      <trkpt lat="44.64193" lon="0.34113">
        <ele>56.8</ele>
        <time>2015-10-05T10:05:52Z</time>
      </trkpt>
      <trkpt lat="44.64173" lon="0.34106">
        <ele>57.4</ele>
        <time>2015-10-05T10:05:57Z</time>
      </trkpt>
      <trkpt lat="44.64165" lon="0.34101">
        <ele>57.4</ele>
        <time>2015-10-05T10:05:59Z</time>
      </trkpt>
      <trkpt lat="44.64152" lon="0.34091">
        <ele>57.6</ele>
        <time>2015-10-05T10:06:03Z</time>
      </trkpt>
      <trkpt lat="44.64146" lon="0.34086">
        <ele>55.8</ele>
        <time>2015-10-05T10:06:05Z</time>
      </trkpt>
      <trkpt lat="44.6414" lon="0.34082">
        <ele>57.8</ele>
        <time>2015-10-05T10:06:07Z</time>
      </trkpt>
      <trkpt lat="44.64137" lon="0.34079">
        <ele>59.2</ele>
        <time>2015-10-05T10:06:08Z</time>
      </trkpt>
      <trkpt lat="44.64128" lon="0.34071">
        <ele>60.2</ele>
        <time>2015-10-05T10:06:11Z</time>
      </trkpt>
      <trkpt lat="44.64119" lon="0.34064">
        <ele>58.4</ele>
        <time>2015-10-05T10:06:14Z</time>
      </trkpt>
      <trkpt lat="44.64116" lon="0.34061">
        <ele>59</ele>
        <time>2015-10-05T10:06:15Z</time>
      </trkpt>
      <trkpt lat="44.64113" lon="0.34058">
        <ele>59.4</ele>
        <time>2015-10-05T10:06:16Z</time>
      </trkpt>
      <trkpt lat="44.64107" lon="0.34052">
        <ele>56.2</ele>
        <time>2015-10-05T10:06:18Z</time>
      </trkpt>
      <trkpt lat="44.64104" lon="0.3405">
        <ele>58.8</ele>
        <time>2015-10-05T10:06:19Z</time>
      </trkpt>
      <trkpt lat="44.64102" lon="0.34047">
        <ele>56.4</ele>
        <time>2015-10-05T10:06:20Z</time>
      </trkpt>
      <trkpt lat="44.64099" lon="0.34043">
        <ele>61.2</ele>
        <time>2015-10-05T10:06:21Z</time>
      </trkpt>
      <trkpt lat="44.64096" lon="0.3404">
        <ele>58.8</ele>
        <time>2015-10-05T10:06:22Z</time>
      </trkpt>
      <trkpt lat="44.64093" lon="0.34037">
        <ele>61.4</ele>
        <time>2015-10-05T10:06:23Z</time>
      </trkpt>
      <trkpt lat="44.64079" lon="0.34018">
        <ele>62.4</ele>
        <time>2015-10-05T10:06:29Z</time>
      </trkpt>
      <trkpt lat="44.64076" lon="0.34015">
        <ele>62.6</ele>
        <time>2015-10-05T10:06:30Z</time>
      </trkpt>
      <trkpt lat="44.64067" lon="0.34004">
        <ele>63.6</ele>
        <time>2015-10-05T10:06:33Z</time>
      </trkpt>
      <trkpt lat="44.6406" lon="0.33994">
        <ele>64</ele>
        <time>2015-10-05T10:06:36Z</time>
      </trkpt>
      <trkpt lat="44.6405" lon="0.33988">
        <ele>64.8</ele>
        <time>2015-10-05T10:06:39Z</time>
      </trkpt>
      <trkpt lat="44.64043" lon="0.33985">
        <ele>65.4</ele>
        <time>2015-10-05T10:06:41Z</time>
      </trkpt>
      <trkpt lat="44.64036" lon="0.33983">
        <ele>66</ele>
        <time>2015-10-05T10:06:43Z</time>
      </trkpt>
      <trkpt lat="44.64026" lon="0.33984">
        <ele>66.4</ele>
        <time>2015-10-05T10:06:47Z</time>
      </trkpt>
      <trkpt lat="44.64021" lon="0.33986">
        <ele>66.4</ele>
        <time>2015-10-05T10:06:52Z</time>
      </trkpt>
      <trkpt lat="44.64016" lon="0.33987">
        <ele>66.2</ele>
        <time>2015-10-05T10:06:56Z</time>
      </trkpt>
      <trkpt lat="44.64012" lon="0.33989">
        <ele>66</ele>
        <time>2015-10-05T10:06:59Z</time>
      </trkpt>
      <trkpt lat="44.64001" lon="0.33991">
        <ele>65.6</ele>
        <time>2015-10-05T10:07:04Z</time>
      </trkpt>
      <trkpt lat="44.63983" lon="0.33987">
        <ele>65.6</ele>
        <time>2015-10-05T10:07:11Z</time>
      </trkpt>
      <trkpt lat="44.63964" lon="0.33981">
        <ele>66.2</ele>
        <time>2015-10-05T10:07:17Z</time>
      </trkpt>
      <trkpt lat="44.63953" lon="0.33978">
        <ele>66.8</ele>
        <time>2015-10-05T10:07:22Z</time>
      </trkpt>
      <trkpt lat="44.6395" lon="0.33976">
        <ele>67.2</ele>
        <time>2015-10-05T10:07:24Z</time>
      </trkpt>
      <trkpt lat="44.63945" lon="0.33975">
        <ele>67.2</ele>
        <time>2015-10-05T10:07:27Z</time>
      </trkpt>
      <trkpt lat="44.63937" lon="0.33973">
        <ele>67.6</ele>
        <time>2015-10-05T10:07:32Z</time>
      </trkpt>
      <trkpt lat="44.63927" lon="0.33969">
        <ele>67.6</ele>
        <time>2015-10-05T10:07:37Z</time>
      </trkpt>
      <trkpt lat="44.63915" lon="0.33964">
        <ele>68.2</ele>
        <time>2015-10-05T10:07:41Z</time>
      </trkpt>
      <trkpt lat="44.63911" lon="0.3396">
        <ele>68.2</ele>
        <time>2015-10-05T10:07:43Z</time>
      </trkpt>
      <trkpt lat="44.63906" lon="0.33956">
        <ele>68.2</ele>
        <time>2015-10-05T10:07:47Z</time>
      </trkpt>
      <trkpt lat="44.63904" lon="0.33955">
        <ele>68.4</ele>
        <time>2015-10-05T10:07:48Z</time>
      </trkpt>
      <trkpt lat="44.63903" lon="0.33953">
        <ele>68.4</ele>
        <time>2015-10-05T10:07:49Z</time>
      </trkpt>
      <trkpt lat="44.63898" lon="0.33947">
        <ele>68.2</ele>
        <time>2015-10-05T10:07:53Z</time>
      </trkpt>
      <trkpt lat="44.63894" lon="0.3394">
        <ele>69.4</ele>
        <time>2015-10-05T10:07:57Z</time>
      </trkpt>
      <trkpt lat="44.6389" lon="0.33936">
        <ele>68.8</ele>
        <time>2015-10-05T10:07:59Z</time>
      </trkpt>
      <trkpt lat="44.63878" lon="0.33921">
        <ele>69</ele>
        <time>2015-10-05T10:08:04Z</time>
      </trkpt>
      <trkpt lat="44.63868" lon="0.33898">
        <ele>69.2</ele>
        <time>2015-10-05T10:08:10Z</time>
      </trkpt>
      <trkpt lat="44.63856" lon="0.33867">
        <ele>69.6</ele>
        <time>2015-10-05T10:08:18Z</time>
      </trkpt>
      <trkpt lat="44.63845" lon="0.33837">
        <ele>67.4</ele>
        <time>2015-10-05T10:08:25Z</time>
      </trkpt>
      <trkpt lat="44.63844" lon="0.33832">
        <ele>68.6</ele>
        <time>2015-10-05T10:08:26Z</time>
      </trkpt>
      <trkpt lat="44.63842" lon="0.33828">
        <ele>70</ele>
        <time>2015-10-05T10:08:27Z</time>
      </trkpt>
      <trkpt lat="44.6384" lon="0.33824">
        <ele>71</ele>
        <time>2015-10-05T10:08:28Z</time>
      </trkpt>
      <trkpt lat="44.63839" lon="0.3382">
        <ele>70</ele>
        <time>2015-10-05T10:08:29Z</time>
      </trkpt>
      <trkpt lat="44.63837" lon="0.33812">
        <ele>70</ele>
        <time>2015-10-05T10:08:31Z</time>
      </trkpt>
      <trkpt lat="44.6383" lon="0.3379">
        <ele>69.6</ele>
        <time>2015-10-05T10:08:36Z</time>
      </trkpt>
      <trkpt lat="44.63822" lon="0.33768">
        <ele>67.8</ele>
        <time>2015-10-05T10:08:41Z</time>
      </trkpt>
      <trkpt lat="44.6382" lon="0.33763">
        <ele>69.2</ele>
        <time>2015-10-05T10:08:42Z</time>
      </trkpt>
      <trkpt lat="44.63818" lon="0.33759">
        <ele>70.2</ele>
        <time>2015-10-05T10:08:43Z</time>
      </trkpt>
      <trkpt lat="44.63817" lon="0.33755">
        <ele>73</ele>
        <time>2015-10-05T10:08:44Z</time>
      </trkpt>
      <trkpt lat="44.63813" lon="0.33747">
        <ele>69.8</ele>
        <time>2015-10-05T10:08:46Z</time>
      </trkpt>
      <trkpt lat="44.63808" lon="0.33735">
        <ele>71</ele>
        <time>2015-10-05T10:08:49Z</time>
      </trkpt>
      <trkpt lat="44.63802" lon="0.33717">
        <ele>71.6</ele>
        <time>2015-10-05T10:08:53Z</time>
      </trkpt>
      <trkpt lat="44.63787" lon="0.33673">
        <ele>71.2</ele>
        <time>2015-10-05T10:09:03Z</time>
      </trkpt>
      <trkpt lat="44.6378" lon="0.33654">
        <ele>72.4</ele>
        <time>2015-10-05T10:09:07Z</time>
      </trkpt>
      <trkpt lat="44.63774" lon="0.33636">
        <ele>72</ele>
        <time>2015-10-05T10:09:11Z</time>
      </trkpt>
      <trkpt lat="44.63758" lon="0.33599">
        <ele>72.2</ele>
        <time>2015-10-05T10:09:20Z</time>
      </trkpt>
      <trkpt lat="44.63745" lon="0.3357">
        <ele>71.4</ele>
        <time>2015-10-05T10:09:27Z</time>
      </trkpt>
      <trkpt lat="44.6374" lon="0.33561">
        <ele>71.4</ele>
        <time>2015-10-05T10:09:29Z</time>
      </trkpt>
      <trkpt lat="44.63738" lon="0.33555">
        <ele>71.2</ele>
        <time>2015-10-05T10:09:30Z</time>
      </trkpt>
      <trkpt lat="44.63729" lon="0.33541">
        <ele>70.4</ele>
        <time>2015-10-05T10:09:33Z</time>
      </trkpt>
      <trkpt lat="44.63717" lon="0.33521">
        <ele>70.2</ele>
        <time>2015-10-05T10:09:37Z</time>
      </trkpt>
      <trkpt lat="44.63708" lon="0.33503">
        <ele>69.6</ele>
        <time>2015-10-05T10:09:40Z</time>
      </trkpt>
      <trkpt lat="44.63701" lon="0.33492">
        <ele>69.6</ele>
        <time>2015-10-05T10:09:42Z</time>
      </trkpt>
      <trkpt lat="44.63686" lon="0.33467">
        <ele>69.2</ele>
        <time>2015-10-05T10:09:46Z</time>
      </trkpt>
      <trkpt lat="44.63679" lon="0.33455">
        <ele>69</ele>
        <time>2015-10-05T10:09:48Z</time>
      </trkpt>
      <trkpt lat="44.63676" lon="0.33448">
        <ele>68.8</ele>
        <time>2015-10-05T10:09:49Z</time>
      </trkpt>
      <trkpt lat="44.63668" lon="0.33436">
        <ele>68.6</ele>
        <time>2015-10-05T10:09:51Z</time>
      </trkpt>
      <trkpt lat="44.63662" lon="0.33424">
        <ele>68.2</ele>
        <time>2015-10-05T10:09:53Z</time>
      </trkpt>
      <trkpt lat="44.63659" lon="0.33417">
        <ele>68</ele>
        <time>2015-10-05T10:09:54Z</time>
      </trkpt>
      <trkpt lat="44.63648" lon="0.33399">
        <ele>68</ele>
        <time>2015-10-05T10:09:57Z</time>
      </trkpt>
      <trkpt lat="44.63636" lon="0.3338">
        <ele>66.6</ele>
        <time>2015-10-05T10:10:00Z</time>
      </trkpt>
      <trkpt lat="44.63617" lon="0.33347">
        <ele>66.4</ele>
        <time>2015-10-05T10:10:05Z</time>
      </trkpt>
      <trkpt lat="44.63594" lon="0.33309">
        <ele>66.4</ele>
        <time>2015-10-05T10:10:11Z</time>
      </trkpt>
      <trkpt lat="44.63575" lon="0.33278">
        <ele>65.4</ele>
        <time>2015-10-05T10:10:16Z</time>
      </trkpt>
      <trkpt lat="44.63568" lon="0.33266">
        <ele>65</ele>
        <time>2015-10-05T10:10:18Z</time>
      </trkpt>
      <trkpt lat="44.63537" lon="0.33211">
        <ele>64.6</ele>
        <time>2015-10-05T10:10:27Z</time>
      </trkpt>
      <trkpt lat="44.6351" lon="0.33166">
        <ele>64.8</ele>
        <time>2015-10-05T10:10:35Z</time>
      </trkpt>
      <trkpt lat="44.63485" lon="0.33122">
        <ele>64</ele>
        <time>2015-10-05T10:10:43Z</time>
      </trkpt>
      <trkpt lat="44.63482" lon="0.33116">
        <ele>64</ele>
        <time>2015-10-05T10:10:44Z</time>
      </trkpt>
      <trkpt lat="44.6346" lon="0.33079">
        <ele>64.2</ele>
        <time>2015-10-05T10:10:51Z</time>
      </trkpt>
      <trkpt lat="44.63426" lon="0.33021">
        <ele>64</ele>
        <time>2015-10-05T10:11:02Z</time>
      </trkpt>
      <trkpt lat="44.63393" lon="0.32965">
        <ele>64</ele>
        <time>2015-10-05T10:11:13Z</time>
      </trkpt>
      <trkpt lat="44.63371" lon="0.32928">
        <ele>64</ele>
        <time>2015-10-05T10:11:21Z</time>
      </trkpt>
      <trkpt lat="44.63351" lon="0.32893">
        <ele>63.8</ele>
        <time>2015-10-05T10:11:29Z</time>
      </trkpt>
      <trkpt lat="44.63328" lon="0.32852">
        <ele>63.6</ele>
        <time>2015-10-05T10:11:38Z</time>
      </trkpt>
      <trkpt lat="44.63301" lon="0.32805">
        <ele>63.6</ele>
        <time>2015-10-05T10:11:48Z</time>
      </trkpt>
      <trkpt lat="44.63274" lon="0.32755">
        <ele>63.4</ele>
        <time>2015-10-05T10:11:58Z</time>
      </trkpt>
      <trkpt lat="44.63243" lon="0.32693">
        <ele>63</ele>
        <time>2015-10-05T10:12:10Z</time>
      </trkpt>
      <trkpt lat="44.63217" lon="0.32643">
        <ele>63</ele>
        <time>2015-10-05T10:12:20Z</time>
      </trkpt>
      <trkpt lat="44.63194" lon="0.32598">
        <ele>63.2</ele>
        <time>2015-10-05T10:12:29Z</time>
      </trkpt>
      <trkpt lat="44.63167" lon="0.32549">
        <ele>62.6</ele>
        <time>2015-10-05T10:12:39Z</time>
      </trkpt>
      <trkpt lat="44.63141" lon="0.32508">
        <ele>62</ele>
        <time>2015-10-05T10:12:47Z</time>
      </trkpt>
      <trkpt lat="44.63138" lon="0.32503">
        <ele>61.8</ele>
        <time>2015-10-05T10:12:48Z</time>
      </trkpt>
      <trkpt lat="44.63114" lon="0.32469">
        <ele>60.8</ele>
        <time>2015-10-05T10:12:54Z</time>
      </trkpt>
      <trkpt lat="44.6311" lon="0.32464">
        <ele>60.8</ele>
        <time>2015-10-05T10:12:55Z</time>
      </trkpt>
      <trkpt lat="44.63086" lon="0.32428">
        <ele>59.6</ele>
        <time>2015-10-05T10:13:01Z</time>
      </trkpt>
      <trkpt lat="44.63081" lon="0.32422">
        <ele>59.6</ele>
        <time>2015-10-05T10:13:02Z</time>
      </trkpt>
      <trkpt lat="44.63064" lon="0.32397">
        <ele>58.4</ele>
        <time>2015-10-05T10:13:06Z</time>
      </trkpt>
      <trkpt lat="44.63039" lon="0.32362">
        <ele>57.2</ele>
        <time>2015-10-05T10:13:12Z</time>
      </trkpt>
      <trkpt lat="44.63035" lon="0.32355">
        <ele>57</ele>
        <time>2015-10-05T10:13:13Z</time>
      </trkpt>
      <trkpt lat="44.63015" lon="0.32323">
        <ele>56.2</ele>
        <time>2015-10-05T10:13:18Z</time>
      </trkpt>
      <trkpt lat="44.63004" lon="0.32301">
        <ele>55.4</ele>
        <time>2015-10-05T10:13:21Z</time>
      </trkpt>
      <trkpt lat="44.63" lon="0.32294">
        <ele>55.2</ele>
        <time>2015-10-05T10:13:22Z</time>
      </trkpt>
      <trkpt lat="44.62985" lon="0.32248">
        <ele>54.8</ele>
        <time>2015-10-05T10:13:28Z</time>
      </trkpt>
      <trkpt lat="44.62975" lon="0.32211">
        <ele>55.6</ele>
        <time>2015-10-05T10:13:34Z</time>
      </trkpt>
      <trkpt lat="44.62962" lon="0.3216">
        <ele>54.6</ele>
        <time>2015-10-05T10:13:41Z</time>
      </trkpt>
      <trkpt lat="44.62946" lon="0.321">
        <ele>55</ele>
        <time>2015-10-05T10:13:50Z</time>
      </trkpt>
      <trkpt lat="44.62929" lon="0.32063">
        <ele>55.4</ele>
        <time>2015-10-05T10:13:57Z</time>
      </trkpt>
      <trkpt lat="44.62907" lon="0.32035">
        <ele>56.2</ele>
        <time>2015-10-05T10:14:04Z</time>
      </trkpt>
      <trkpt lat="44.629" lon="0.3203">
        <ele>56.2</ele>
        <time>2015-10-05T10:14:06Z</time>
      </trkpt>
      <trkpt lat="44.62878" lon="0.32016">
        <ele>56.8</ele>
        <time>2015-10-05T10:14:12Z</time>
      </trkpt>
      <trkpt lat="44.62841" lon="0.31993">
        <ele>57.2</ele>
        <time>2015-10-05T10:14:22Z</time>
      </trkpt>
      <trkpt lat="44.62811" lon="0.31973">
        <ele>57.6</ele>
        <time>2015-10-05T10:14:31Z</time>
      </trkpt>
      <trkpt lat="44.6278" lon="0.31944">
        <ele>58</ele>
        <time>2015-10-05T10:14:41Z</time>
      </trkpt>
      <trkpt lat="44.62774" lon="0.31938">
        <ele>58.4</ele>
        <time>2015-10-05T10:14:43Z</time>
      </trkpt>
      <trkpt lat="44.62755" lon="0.31918">
        <ele>58.8</ele>
        <time>2015-10-05T10:14:49Z</time>
      </trkpt>
      <trkpt lat="44.62728" lon="0.31897">
        <ele>59.2</ele>
        <time>2015-10-05T10:14:58Z</time>
      </trkpt>
      <trkpt lat="44.62716" lon="0.31888">
        <ele>59.4</ele>
        <time>2015-10-05T10:15:02Z</time>
      </trkpt>
      <trkpt lat="44.62707" lon="0.31883">
        <ele>59.8</ele>
        <time>2015-10-05T10:15:05Z</time>
      </trkpt>
      <trkpt lat="44.62682" lon="0.31872">
        <ele>60.2</ele>
        <time>2015-10-05T10:15:13Z</time>
      </trkpt>
      <trkpt lat="44.62666" lon="0.31869">
        <ele>60.4</ele>
        <time>2015-10-05T10:15:19Z</time>
      </trkpt>
      <trkpt lat="44.62651" lon="0.31865">
        <ele>60.8</ele>
        <time>2015-10-05T10:15:25Z</time>
      </trkpt>
      <trkpt lat="44.62637" lon="0.31864">
        <ele>61.2</ele>
        <time>2015-10-05T10:15:31Z</time>
      </trkpt>
      <trkpt lat="44.62626" lon="0.3186">
        <ele>60.8</ele>
        <time>2015-10-05T10:15:36Z</time>
      </trkpt>
      <trkpt lat="44.62608" lon="0.31857">
        <ele>61.2</ele>
        <time>2015-10-05T10:15:43Z</time>
      </trkpt>
      <trkpt lat="44.62598" lon="0.31857">
        <ele>61.4</ele>
        <time>2015-10-05T10:15:47Z</time>
      </trkpt>
      <trkpt lat="44.62595" lon="0.31856">
        <ele>61.2</ele>
        <time>2015-10-05T10:15:48Z</time>
      </trkpt>
      <trkpt lat="44.62575" lon="0.31852">
        <ele>61.4</ele>
        <time>2015-10-05T10:15:55Z</time>
      </trkpt>
      <trkpt lat="44.62558" lon="0.3185">
        <ele>61.4</ele>
        <time>2015-10-05T10:16:01Z</time>
      </trkpt>
      <trkpt lat="44.62535" lon="0.31846">
        <ele>61.6</ele>
        <time>2015-10-05T10:16:09Z</time>
      </trkpt>
      <trkpt lat="44.62516" lon="0.31842">
        <ele>61.6</ele>
        <time>2015-10-05T10:16:17Z</time>
      </trkpt>
      <trkpt lat="44.62516" lon="0.31842">
        <ele>61.2</ele>
        <time>2015-10-05T10:16:30Z</time>
      </trkpt>
      <trkpt lat="44.62511" lon="0.31841">
        <ele>61.4</ele>
        <time>2015-10-05T10:16:32Z</time>
      </trkpt>
      <trkpt lat="44.62508" lon="0.3184">
        <ele>61.4</ele>
        <time>2015-10-05T10:16:33Z</time>
      </trkpt>
      <trkpt lat="44.6249" lon="0.31836">
        <ele>61</ele>
        <time>2015-10-05T10:16:39Z</time>
      </trkpt>
      <trkpt lat="44.62479" lon="0.31831">
        <ele>60.4</ele>
        <time>2015-10-05T10:16:43Z</time>
      </trkpt>
      <trkpt lat="44.62473" lon="0.31828">
        <ele>60.6</ele>
        <time>2015-10-05T10:16:45Z</time>
      </trkpt>
      <trkpt lat="44.62448" lon="0.31817">
        <ele>60.4</ele>
        <time>2015-10-05T10:16:52Z</time>
      </trkpt>
      <trkpt lat="44.62429" lon="0.31812">
        <ele>60.6</ele>
        <time>2015-10-05T10:16:57Z</time>
      </trkpt>
      <trkpt lat="44.62414" lon="0.31805">
        <ele>60.6</ele>
        <time>2015-10-05T10:17:01Z</time>
      </trkpt>
      <trkpt lat="44.62387" lon="0.31793">
        <ele>60.4</ele>
        <time>2015-10-05T10:17:08Z</time>
      </trkpt>
      <trkpt lat="44.62369" lon="0.3179">
        <ele>60.2</ele>
        <time>2015-10-05T10:17:13Z</time>
      </trkpt>
      <trkpt lat="44.62343" lon="0.31779">
        <ele>60.8</ele>
        <time>2015-10-05T10:17:21Z</time>
      </trkpt>
      <trkpt lat="44.62316" lon="0.3177">
        <ele>61</ele>
        <time>2015-10-05T10:17:28Z</time>
      </trkpt>
      <trkpt lat="44.62287" lon="0.31757">
        <ele>61.2</ele>
        <time>2015-10-05T10:17:36Z</time>
      </trkpt>
      <trkpt lat="44.62261" lon="0.31745">
        <ele>61</ele>
        <time>2015-10-05T10:17:43Z</time>
      </trkpt>
      <trkpt lat="44.62224" lon="0.3173">
        <ele>61.6</ele>
        <time>2015-10-05T10:17:53Z</time>
      </trkpt>
      <trkpt lat="44.62202" lon="0.31725">
        <ele>61.4</ele>
        <time>2015-10-05T10:17:59Z</time>
      </trkpt>
      <trkpt lat="44.62172" lon="0.31725">
        <ele>61.6</ele>
        <time>2015-10-05T10:18:07Z</time>
      </trkpt>
      <trkpt lat="44.62143" lon="0.31729">
        <ele>61.6</ele>
        <time>2015-10-05T10:18:15Z</time>
      </trkpt>
      <trkpt lat="44.62121" lon="0.31735">
        <ele>61.6</ele>
        <time>2015-10-05T10:18:21Z</time>
      </trkpt>
      <trkpt lat="44.62096" lon="0.3174">
        <ele>61.8</ele>
        <time>2015-10-05T10:18:28Z</time>
      </trkpt>
      <trkpt lat="44.62061" lon="0.31747">
        <ele>62</ele>
        <time>2015-10-05T10:18:37Z</time>
      </trkpt>
      <trkpt lat="44.62026" lon="0.31752">
        <ele>62.4</ele>
        <time>2015-10-05T10:18:47Z</time>
      </trkpt>
      <trkpt lat="44.6201" lon="0.31753">
        <ele>62.8</ele>
        <time>2015-10-05T10:18:52Z</time>
      </trkpt>
      <trkpt lat="44.61999" lon="0.31753">
        <ele>63.2</ele>
        <time>2015-10-05T10:18:55Z</time>
      </trkpt>
      <trkpt lat="44.61984" lon="0.3175">
        <ele>63.8</ele>
        <time>2015-10-05T10:18:59Z</time>
      </trkpt>
      <trkpt lat="44.61977" lon="0.31749">
        <ele>64</ele>
        <time>2015-10-05T10:19:01Z</time>
      </trkpt>
      <trkpt lat="44.61962" lon="0.31749">
        <ele>65</ele>
        <time>2015-10-05T10:19:06Z</time>
      </trkpt>
      <trkpt lat="44.61951" lon="0.31747">
        <ele>65.6</ele>
        <time>2015-10-05T10:19:11Z</time>
      </trkpt>
      <trkpt lat="44.61945" lon="0.31746">
        <ele>66</ele>
        <time>2015-10-05T10:19:13Z</time>
      </trkpt>
      <trkpt lat="44.61932" lon="0.31743">
        <ele>67</ele>
        <time>2015-10-05T10:19:17Z</time>
      </trkpt>
      <trkpt lat="44.61928" lon="0.31742">
        <ele>67</ele>
        <time>2015-10-05T10:19:18Z</time>
      </trkpt>
      <trkpt lat="44.61908" lon="0.31737">
        <ele>68.4</ele>
        <time>2015-10-05T10:19:24Z</time>
      </trkpt>
      <trkpt lat="44.61905" lon="0.31735">
        <ele>68.4</ele>
        <time>2015-10-05T10:19:25Z</time>
      </trkpt>
      <trkpt lat="44.61892" lon="0.3173">
        <ele>69.4</ele>
        <time>2015-10-05T10:19:29Z</time>
      </trkpt>
      <trkpt lat="44.61882" lon="0.31726">
        <ele>69.6</ele>
        <time>2015-10-05T10:19:32Z</time>
      </trkpt>
      <trkpt lat="44.61866" lon="0.3172">
        <ele>70.6</ele>
        <time>2015-10-05T10:19:37Z</time>
      </trkpt>
      <trkpt lat="44.61863" lon="0.31718">
        <ele>70.8</ele>
        <time>2015-10-05T10:19:38Z</time>
      </trkpt>
      <trkpt lat="44.61847" lon="0.31712">
        <ele>71.8</ele>
        <time>2015-10-05T10:19:43Z</time>
      </trkpt>
      <trkpt lat="44.61842" lon="0.31709">
        <ele>72</ele>
        <time>2015-10-05T10:19:45Z</time>
      </trkpt>
      <trkpt lat="44.61831" lon="0.31705">
        <ele>72.8</ele>
        <time>2015-10-05T10:19:50Z</time>
      </trkpt>
      <trkpt lat="44.61829" lon="0.31702">
        <ele>73.2</ele>
        <time>2015-10-05T10:19:54Z</time>
      </trkpt>
      <trkpt lat="44.61824" lon="0.31701">
        <ele>68.2</ele>
        <time>2015-10-05T10:27:04Z</time>
      </trkpt>
      <trkpt lat="44.6182" lon="0.31699">
        <ele>68.2</ele>
        <time>2015-10-05T10:27:06Z</time>
      </trkpt>
      <trkpt lat="44.61818" lon="0.31699">
        <ele>68.4</ele>
        <time>2015-10-05T10:27:07Z</time>
      </trkpt>
      <trkpt lat="44.61801" lon="0.31693">
        <ele>69.4</ele>
        <time>2015-10-05T10:27:13Z</time>
      </trkpt>
      <trkpt lat="44.61798" lon="0.31692">
        <ele>69.6</ele>
        <time>2015-10-05T10:27:14Z</time>
      </trkpt>
      <trkpt lat="44.61773" lon="0.3168">
        <ele>70.6</ele>
        <time>2015-10-05T10:27:22Z</time>
      </trkpt>
      <trkpt lat="44.61761" lon="0.31675">
        <ele>71.6</ele>
        <time>2015-10-05T10:27:26Z</time>
      </trkpt>
      <trkpt lat="44.61753" lon="0.31671">
        <ele>71.8</ele>
        <time>2015-10-05T10:27:29Z</time>
      </trkpt>
      <trkpt lat="44.61739" lon="0.31664">
        <ele>72.6</ele>
        <time>2015-10-05T10:27:34Z</time>
      </trkpt>
      <trkpt lat="44.61731" lon="0.3166">
        <ele>73.2</ele>
        <time>2015-10-05T10:27:37Z</time>
      </trkpt>
      <trkpt lat="44.61724" lon="0.31655">
        <ele>73.6</ele>
        <time>2015-10-05T10:27:40Z</time>
      </trkpt>
      <trkpt lat="44.61715" lon="0.31649">
        <ele>74.2</ele>
        <time>2015-10-05T10:27:44Z</time>
      </trkpt>
      <trkpt lat="44.61699" lon="0.31636">
        <ele>74.8</ele>
        <time>2015-10-05T10:27:51Z</time>
      </trkpt>
      <trkpt lat="44.61692" lon="0.3163">
        <ele>75</ele>
        <time>2015-10-05T10:27:54Z</time>
      </trkpt>
      <trkpt lat="44.61683" lon="0.31623">
        <ele>75.8</ele>
        <time>2015-10-05T10:27:58Z</time>
      </trkpt>
      <trkpt lat="44.61672" lon="0.31613">
        <ele>76.4</ele>
        <time>2015-10-05T10:28:03Z</time>
      </trkpt>
      <trkpt lat="44.61656" lon="0.31599">
        <ele>76.4</ele>
        <time>2015-10-05T10:28:10Z</time>
      </trkpt>
      <trkpt lat="44.61643" lon="0.31587">
        <ele>76.8</ele>
        <time>2015-10-05T10:28:16Z</time>
      </trkpt>
      <trkpt lat="44.61633" lon="0.31581">
        <ele>77.2</ele>
        <time>2015-10-05T10:28:20Z</time>
      </trkpt>
      <trkpt lat="44.61617" lon="0.31569">
        <ele>77.8</ele>
        <time>2015-10-05T10:28:27Z</time>
      </trkpt>
      <trkpt lat="44.61612" lon="0.31566">
        <ele>77.8</ele>
        <time>2015-10-05T10:28:29Z</time>
      </trkpt>
      <trkpt lat="44.61603" lon="0.31561">
        <ele>78.2</ele>
        <time>2015-10-05T10:28:34Z</time>
      </trkpt>
      <trkpt lat="44.61601" lon="0.3156">
        <ele>78.2</ele>
        <time>2015-10-05T10:28:39Z</time>
      </trkpt>
      <trkpt lat="44.61594" lon="0.31558">
        <ele>78</ele>
        <time>2015-10-05T10:28:59Z</time>
      </trkpt>
      <trkpt lat="44.6159" lon="0.31556">
        <ele>78.2</ele>
        <time>2015-10-05T10:29:01Z</time>
      </trkpt>
      <trkpt lat="44.61578" lon="0.31552">
        <ele>78.8</ele>
        <time>2015-10-05T10:29:06Z</time>
      </trkpt>
      <trkpt lat="44.61573" lon="0.31551">
        <ele>79</ele>
        <time>2015-10-05T10:29:08Z</time>
      </trkpt>
      <trkpt lat="44.61551" lon="0.31545">
        <ele>79.8</ele>
        <time>2015-10-05T10:29:16Z</time>
      </trkpt>
      <trkpt lat="44.61548" lon="0.31545">
        <ele>80</ele>
        <time>2015-10-05T10:29:17Z</time>
      </trkpt>
      <trkpt lat="44.61527" lon="0.31537">
        <ele>81</ele>
        <time>2015-10-05T10:29:25Z</time>
      </trkpt>
      <trkpt lat="44.61524" lon="0.31536">
        <ele>81.2</ele>
        <time>2015-10-05T10:29:26Z</time>
      </trkpt>
      <trkpt lat="44.61508" lon="0.31527">
        <ele>81.6</ele>
        <time>2015-10-05T10:29:32Z</time>
      </trkpt>
      <trkpt lat="44.61491" lon="0.31516">
        <ele>82.2</ele>
        <time>2015-10-05T10:29:38Z</time>
      </trkpt>
      <trkpt lat="44.61484" lon="0.3151">
        <ele>82.4</ele>
        <time>2015-10-05T10:29:41Z</time>
      </trkpt>
      <trkpt lat="44.61463" lon="0.31488">
        <ele>83</ele>
        <time>2015-10-05T10:29:50Z</time>
      </trkpt>
      <trkpt lat="44.61459" lon="0.31483">
        <ele>83.2</ele>
        <time>2015-10-05T10:29:52Z</time>
      </trkpt>
      <trkpt lat="44.61445" lon="0.31462">
        <ele>83.8</ele>
        <time>2015-10-05T10:29:59Z</time>
      </trkpt>
      <trkpt lat="44.61435" lon="0.31447">
        <ele>84.2</ele>
        <time>2015-10-05T10:30:04Z</time>
      </trkpt>
      <trkpt lat="44.61423" lon="0.31429">
        <ele>84.8</ele>
        <time>2015-10-05T10:30:10Z</time>
      </trkpt>
      <trkpt lat="44.61409" lon="0.31407">
        <ele>85.2</ele>
        <time>2015-10-05T10:30:17Z</time>
      </trkpt>
      <trkpt lat="44.61401" lon="0.31394">
        <ele>85.2</ele>
        <time>2015-10-05T10:30:21Z</time>
      </trkpt>
      <trkpt lat="44.61385" lon="0.3137">
        <ele>86.2</ele>
        <time>2015-10-05T10:30:29Z</time>
      </trkpt>
      <trkpt lat="44.61383" lon="0.31367">
        <ele>86.4</ele>
        <time>2015-10-05T10:30:30Z</time>
      </trkpt>
      <trkpt lat="44.61363" lon="0.31347">
        <ele>87.4</ele>
        <time>2015-10-05T10:30:38Z</time>
      </trkpt>
      <trkpt lat="44.61361" lon="0.31345">
        <ele>87.4</ele>
        <time>2015-10-05T10:30:39Z</time>
      </trkpt>
      <trkpt lat="44.61342" lon="0.31335">
        <ele>88</ele>
        <time>2015-10-05T10:30:46Z</time>
      </trkpt>
      <trkpt lat="44.61319" lon="0.31324">
        <ele>88.4</ele>
        <time>2015-10-05T10:30:54Z</time>
      </trkpt>
      <trkpt lat="44.61316" lon="0.31323">
        <ele>88.6</ele>
        <time>2015-10-05T10:30:55Z</time>
      </trkpt>
      <trkpt lat="44.61296" lon="0.31315">
        <ele>88.8</ele>
        <time>2015-10-05T10:31:02Z</time>
      </trkpt>
      <trkpt lat="44.6127" lon="0.31307">
        <ele>89.2</ele>
        <time>2015-10-05T10:31:11Z</time>
      </trkpt>
      <trkpt lat="44.6125" lon="0.31303">
        <ele>89.6</ele>
        <time>2015-10-05T10:31:18Z</time>
      </trkpt>
      <trkpt lat="44.61245" lon="0.31302">
        <ele>89.8</ele>
        <time>2015-10-05T10:31:20Z</time>
      </trkpt>
      <trkpt lat="44.61226" lon="0.31299">
        <ele>90.2</ele>
        <time>2015-10-05T10:31:26Z</time>
      </trkpt>
      <trkpt lat="44.61192" lon="0.31296">
        <ele>90.6</ele>
        <time>2015-10-05T10:31:37Z</time>
      </trkpt>
      <trkpt lat="44.61182" lon="0.31295">
        <ele>91</ele>
        <time>2015-10-05T10:31:40Z</time>
      </trkpt>
      <trkpt lat="44.61167" lon="0.31293">
        <ele>90.8</ele>
        <time>2015-10-05T10:31:45Z</time>
      </trkpt>
      <trkpt lat="44.6114" lon="0.31292">
        <ele>91</ele>
        <time>2015-10-05T10:31:53Z</time>
      </trkpt>
      <trkpt lat="44.61106" lon="0.31294">
        <ele>92</ele>
        <time>2015-10-05T10:32:03Z</time>
      </trkpt>
      <trkpt lat="44.61102" lon="0.31294">
        <ele>92</ele>
        <time>2015-10-05T10:32:04Z</time>
      </trkpt>
      <trkpt lat="44.61062" lon="0.31298">
        <ele>93</ele>
        <time>2015-10-05T10:32:16Z</time>
      </trkpt>
      <trkpt lat="44.61033" lon="0.31299">
        <ele>93.6</ele>
        <time>2015-10-05T10:32:25Z</time>
      </trkpt>
      <trkpt lat="44.61" lon="0.31295">
        <ele>94</ele>
        <time>2015-10-05T10:32:35Z</time>
      </trkpt>
      <trkpt lat="44.60972" lon="0.31285">
        <ele>94.6</ele>
        <time>2015-10-05T10:32:44Z</time>
      </trkpt>
      <trkpt lat="44.60944" lon="0.31272">
        <ele>95</ele>
        <time>2015-10-05T10:32:53Z</time>
      </trkpt>
      <trkpt lat="44.60932" lon="0.31266">
        <ele>95.2</ele>
        <time>2015-10-05T10:32:57Z</time>
      </trkpt>
      <trkpt lat="44.60918" lon="0.31259">
        <ele>95.6</ele>
        <time>2015-10-05T10:33:02Z</time>
      </trkpt>
      <trkpt lat="44.60912" lon="0.31257">
        <ele>95.8</ele>
        <time>2015-10-05T10:33:04Z</time>
      </trkpt>
      <trkpt lat="44.60899" lon="0.3125">
        <ele>96.2</ele>
        <time>2015-10-05T10:33:09Z</time>
      </trkpt>
      <trkpt lat="44.60885" lon="0.31243">
        <ele>96.8</ele>
        <time>2015-10-05T10:33:14Z</time>
      </trkpt>
      <trkpt lat="44.60871" lon="0.31237">
        <ele>97.2</ele>
        <time>2015-10-05T10:33:19Z</time>
      </trkpt>
      <trkpt lat="44.6086" lon="0.31232">
        <ele>97.6</ele>
        <time>2015-10-05T10:33:23Z</time>
      </trkpt>
      <trkpt lat="44.60846" lon="0.31225">
        <ele>98.4</ele>
        <time>2015-10-05T10:33:28Z</time>
      </trkpt>
      <trkpt lat="44.60834" lon="0.3122">
        <ele>98.8</ele>
        <time>2015-10-05T10:33:32Z</time>
      </trkpt>
      <trkpt lat="44.60824" lon="0.31214">
        <ele>99.4</ele>
        <time>2015-10-05T10:33:36Z</time>
      </trkpt>
      <trkpt lat="44.60809" lon="0.31201">
        <ele>100</ele>
        <time>2015-10-05T10:33:42Z</time>
      </trkpt>
      <trkpt lat="44.608" lon="0.3119">
        <ele>100.6</ele>
        <time>2015-10-05T10:33:46Z</time>
      </trkpt>
      <trkpt lat="44.60791" lon="0.31175">
        <ele>101.4</ele>
        <time>2015-10-05T10:33:51Z</time>
      </trkpt>
      <trkpt lat="44.60788" lon="0.31168">
        <ele>101.6</ele>
        <time>2015-10-05T10:33:53Z</time>
      </trkpt>
      <trkpt lat="44.60779" lon="0.31145">
        <ele>102.6</ele>
        <time>2015-10-05T10:34:00Z</time>
      </trkpt>
      <trkpt lat="44.60776" lon="0.31136">
        <ele>102.6</ele>
        <time>2015-10-05T10:34:03Z</time>
      </trkpt>
      <trkpt lat="44.60772" lon="0.31127">
        <ele>102.8</ele>
        <time>2015-10-05T10:34:07Z</time>
      </trkpt>
      <trkpt lat="44.60767" lon="0.31118">
        <ele>103</ele>
        <time>2015-10-05T10:34:13Z</time>
      </trkpt>
      <trkpt lat="44.60765" lon="0.3111">
        <ele>102.8</ele>
        <time>2015-10-05T10:34:20Z</time>
      </trkpt>
      <trkpt lat="44.60761" lon="0.31106">
        <ele>102.8</ele>
        <time>2015-10-05T10:34:25Z</time>
      </trkpt>
      <trkpt lat="44.60758" lon="0.31105">
        <ele>102.8</ele>
        <time>2015-10-05T10:34:29Z</time>
      </trkpt>
      <trkpt lat="44.60756" lon="0.31104">
        <ele>102.8</ele>
        <time>2015-10-05T10:34:31Z</time>
      </trkpt>
      <trkpt lat="44.60755" lon="0.31103">
        <ele>102.8</ele>
        <time>2015-10-05T10:34:32Z</time>
      </trkpt>
      <trkpt lat="44.60753" lon="0.31102">
        <ele>103</ele>
        <time>2015-10-05T10:34:35Z</time>
      </trkpt>
      <trkpt lat="44.60752" lon="0.31101">
        <ele>102.8</ele>
        <time>2015-10-05T10:34:39Z</time>
      </trkpt>
      <trkpt lat="44.60747" lon="0.31098">
        <ele>103.2</ele>
        <time>2015-10-05T10:35:03Z</time>
      </trkpt>
      <trkpt lat="44.60742" lon="0.31096">
        <ele>103.4</ele>
        <time>2015-10-05T10:35:05Z</time>
      </trkpt>
      <trkpt lat="44.60722" lon="0.31089">
        <ele>103.4</ele>
        <time>2015-10-05T10:35:12Z</time>
      </trkpt>
      <trkpt lat="44.60698" lon="0.31084">
        <ele>102.6</ele>
        <time>2015-10-05T10:35:19Z</time>
      </trkpt>
      <trkpt lat="44.60672" lon="0.31081">
        <ele>101.8</ele>
        <time>2015-10-05T10:35:25Z</time>
      </trkpt>
      <trkpt lat="44.60667" lon="0.31081">
        <ele>101.6</ele>
        <time>2015-10-05T10:35:26Z</time>
      </trkpt>
      <trkpt lat="44.60657" lon="0.31083">
        <ele>101.2</ele>
        <time>2015-10-05T10:35:28Z</time>
      </trkpt>
      <trkpt lat="44.60647" lon="0.31087">
        <ele>100.4</ele>
        <time>2015-10-05T10:35:30Z</time>
      </trkpt>
      <trkpt lat="44.60643" lon="0.31088">
        <ele>100.2</ele>
        <time>2015-10-05T10:35:31Z</time>
      </trkpt>
      <trkpt lat="44.60628" lon="0.31086">
        <ele>99.4</ele>
        <time>2015-10-05T10:35:34Z</time>
      </trkpt>
      <trkpt lat="44.60623" lon="0.31084">
        <ele>99</ele>
        <time>2015-10-05T10:35:35Z</time>
      </trkpt>
      <trkpt lat="44.60605" lon="0.31076">
        <ele>97.8</ele>
        <time>2015-10-05T10:35:38Z</time>
      </trkpt>
      <trkpt lat="44.60592" lon="0.31071">
        <ele>96.8</ele>
        <time>2015-10-05T10:35:40Z</time>
      </trkpt>
      <trkpt lat="44.60586" lon="0.31067">
        <ele>96.4</ele>
        <time>2015-10-05T10:35:41Z</time>
      </trkpt>
      <trkpt lat="44.60571" lon="0.31061">
        <ele>95.6</ele>
        <time>2015-10-05T10:35:43Z</time>
      </trkpt>
      <trkpt lat="44.60557" lon="0.31055">
        <ele>94.2</ele>
        <time>2015-10-05T10:35:45Z</time>
      </trkpt>
      <trkpt lat="44.60543" lon="0.31048">
        <ele>93.4</ele>
        <time>2015-10-05T10:35:47Z</time>
      </trkpt>
      <trkpt lat="44.60535" lon="0.31045">
        <ele>92.8</ele>
        <time>2015-10-05T10:35:48Z</time>
      </trkpt>
      <trkpt lat="44.60513" lon="0.31034">
        <ele>91.6</ele>
        <time>2015-10-05T10:35:51Z</time>
      </trkpt>
      <trkpt lat="44.60499" lon="0.31025">
        <ele>90.4</ele>
        <time>2015-10-05T10:35:53Z</time>
      </trkpt>
      <trkpt lat="44.60486" lon="0.31013">
        <ele>89.6</ele>
        <time>2015-10-05T10:35:55Z</time>
      </trkpt>
      <trkpt lat="44.60474" lon="0.30998">
        <ele>88.6</ele>
        <time>2015-10-05T10:35:57Z</time>
      </trkpt>
      <trkpt lat="44.60463" lon="0.30981">
        <ele>87.2</ele>
        <time>2015-10-05T10:35:59Z</time>
      </trkpt>
      <trkpt lat="44.60445" lon="0.30956">
        <ele>86</ele>
        <time>2015-10-05T10:36:02Z</time>
      </trkpt>
      <trkpt lat="44.60433" lon="0.30939">
        <ele>85.2</ele>
        <time>2015-10-05T10:36:04Z</time>
      </trkpt>
      <trkpt lat="44.60427" lon="0.30931">
        <ele>84.6</ele>
        <time>2015-10-05T10:36:05Z</time>
      </trkpt>
      <trkpt lat="44.60415" lon="0.30915">
        <ele>83.4</ele>
        <time>2015-10-05T10:36:07Z</time>
      </trkpt>
      <trkpt lat="44.6039" lon="0.30888">
        <ele>82.6</ele>
        <time>2015-10-05T10:36:11Z</time>
      </trkpt>
      <trkpt lat="44.60384" lon="0.30882">
        <ele>82.2</ele>
        <time>2015-10-05T10:36:12Z</time>
      </trkpt>
      <trkpt lat="44.6036" lon="0.30854">
        <ele>82.2</ele>
        <time>2015-10-05T10:36:17Z</time>
      </trkpt>
      <trkpt lat="44.60341" lon="0.30819">
        <ele>82.2</ele>
        <time>2015-10-05T10:36:23Z</time>
      </trkpt>
      <trkpt lat="44.60335" lon="0.30807">
        <ele>82</ele>
        <time>2015-10-05T10:36:25Z</time>
      </trkpt>
      <trkpt lat="44.60327" lon="0.30797">
        <ele>81.8</ele>
        <time>2015-10-05T10:36:27Z</time>
      </trkpt>
      <trkpt lat="44.60323" lon="0.30793">
        <ele>81.8</ele>
        <time>2015-10-05T10:36:28Z</time>
      </trkpt>
      <trkpt lat="44.60306" lon="0.30775">
        <ele>81.2</ele>
        <time>2015-10-05T10:36:32Z</time>
      </trkpt>
      <trkpt lat="44.60303" lon="0.30771">
        <ele>81</ele>
        <time>2015-10-05T10:36:33Z</time>
      </trkpt>
      <trkpt lat="44.60296" lon="0.3076">
        <ele>80.8</ele>
        <time>2015-10-05T10:36:35Z</time>
      </trkpt>
      <trkpt lat="44.60293" lon="0.30754">
        <ele>80.6</ele>
        <time>2015-10-05T10:36:36Z</time>
      </trkpt>
      <trkpt lat="44.60287" lon="0.30736">
        <ele>80.8</ele>
        <time>2015-10-05T10:36:39Z</time>
      </trkpt>
      <trkpt lat="44.60286" lon="0.3073">
        <ele>80.6</ele>
        <time>2015-10-05T10:36:40Z</time>
      </trkpt>
      <trkpt lat="44.60284" lon="0.30721">
        <ele>80.6</ele>
        <time>2015-10-05T10:36:43Z</time>
      </trkpt>
      <trkpt lat="44.60284" lon="0.30714">
        <ele>80.6</ele>
        <time>2015-10-05T10:38:21Z</time>
      </trkpt>
      <trkpt lat="44.60283" lon="0.307">
        <ele>80.6</ele>
        <time>2015-10-05T10:38:27Z</time>
      </trkpt>
      <trkpt lat="44.6028" lon="0.30673">
        <ele>80.8</ele>
        <time>2015-10-05T10:38:34Z</time>
      </trkpt>
      <trkpt lat="44.60272" lon="0.30644">
        <ele>81.4</ele>
        <time>2015-10-05T10:38:41Z</time>
      </trkpt>
      <trkpt lat="44.60262" lon="0.3062">
        <ele>81.4</ele>
        <time>2015-10-05T10:38:46Z</time>
      </trkpt>
      <trkpt lat="44.60248" lon="0.30589">
        <ele>81.6</ele>
        <time>2015-10-05T10:38:53Z</time>
      </trkpt>
      <trkpt lat="44.60239" lon="0.30568">
        <ele>82</ele>
        <time>2015-10-05T10:38:58Z</time>
      </trkpt>
      <trkpt lat="44.6022" lon="0.30526">
        <ele>81.4</ele>
        <time>2015-10-05T10:39:07Z</time>
      </trkpt>
      <trkpt lat="44.60205" lon="0.30493">
        <ele>80.2</ele>
        <time>2015-10-05T10:39:12Z</time>
      </trkpt>
      <trkpt lat="44.60201" lon="0.30485">
        <ele>79.8</ele>
        <time>2015-10-05T10:39:13Z</time>
      </trkpt>
      <trkpt lat="44.60193" lon="0.30468">
        <ele>78.6</ele>
        <time>2015-10-05T10:39:15Z</time>
      </trkpt>
      <trkpt lat="44.60181" lon="0.30441">
        <ele>77.6</ele>
        <time>2015-10-05T10:39:18Z</time>
      </trkpt>
      <trkpt lat="44.60176" lon="0.30432">
        <ele>77</ele>
        <time>2015-10-05T10:39:19Z</time>
      </trkpt>
      <trkpt lat="44.60168" lon="0.30413">
        <ele>76.4</ele>
        <time>2015-10-05T10:39:21Z</time>
      </trkpt>
      <trkpt lat="44.60151" lon="0.30364">
        <ele>75.2</ele>
        <time>2015-10-05T10:39:26Z</time>
      </trkpt>
      <trkpt lat="44.6014" lon="0.30317">
        <ele>75.2</ele>
        <time>2015-10-05T10:39:31Z</time>
      </trkpt>
      <trkpt lat="44.60131" lon="0.3029">
        <ele>76.6</ele>
        <time>2015-10-05T10:39:35Z</time>
      </trkpt>
      <trkpt lat="44.60129" lon="0.30284">
        <ele>77</ele>
        <time>2015-10-05T10:39:36Z</time>
      </trkpt>
      <trkpt lat="44.60126" lon="0.30279">
        <ele>77.2</ele>
        <time>2015-10-05T10:39:37Z</time>
      </trkpt>
      <trkpt lat="44.60119" lon="0.30267">
        <ele>77.8</ele>
        <time>2015-10-05T10:39:40Z</time>
      </trkpt>
      <trkpt lat="44.60117" lon="0.30262">
        <ele>78.2</ele>
        <time>2015-10-05T10:39:41Z</time>
      </trkpt>
      <trkpt lat="44.60107" lon="0.30242">
        <ele>79.4</ele>
        <time>2015-10-05T10:39:45Z</time>
      </trkpt>
      <trkpt lat="44.60101" lon="0.30227">
        <ele>80.2</ele>
        <time>2015-10-05T10:39:48Z</time>
      </trkpt>
      <trkpt lat="44.60098" lon="0.30222">
        <ele>80.4</ele>
        <time>2015-10-05T10:39:49Z</time>
      </trkpt>
      <trkpt lat="44.60092" lon="0.30209">
        <ele>81.2</ele>
        <time>2015-10-05T10:39:52Z</time>
      </trkpt>
      <trkpt lat="44.6009" lon="0.30204">
        <ele>81.4</ele>
        <time>2015-10-05T10:39:53Z</time>
      </trkpt>
      <trkpt lat="44.60088" lon="0.302">
        <ele>81.6</ele>
        <time>2015-10-05T10:39:54Z</time>
      </trkpt>
      <trkpt lat="44.60083" lon="0.30185">
        <ele>82.8</ele>
        <time>2015-10-05T10:39:57Z</time>
      </trkpt>
      <trkpt lat="44.60078" lon="0.30171">
        <ele>83.4</ele>
        <time>2015-10-05T10:40:00Z</time>
      </trkpt>
      <trkpt lat="44.60076" lon="0.30166">
        <ele>83.8</ele>
        <time>2015-10-05T10:40:01Z</time>
      </trkpt>
      <trkpt lat="44.60071" lon="0.30151">
        <ele>85</ele>
        <time>2015-10-05T10:40:04Z</time>
      </trkpt>
      <trkpt lat="44.60067" lon="0.3014">
        <ele>85.6</ele>
        <time>2015-10-05T10:40:07Z</time>
      </trkpt>
      <trkpt lat="44.60063" lon="0.30127">
        <ele>86</ele>
        <time>2015-10-05T10:40:13Z</time>
      </trkpt>
      <trkpt lat="44.60061" lon="0.30119">
        <ele>86.2</ele>
        <time>2015-10-05T10:40:19Z</time>
      </trkpt>
      <trkpt lat="44.60061" lon="0.30119">
        <ele>86.2</ele>
        <time>2015-10-05T10:40:25Z</time>
      </trkpt>
      <trkpt lat="44.60059" lon="0.30112">
        <ele>86.6</ele>
        <time>2015-10-05T10:40:28Z</time>
      </trkpt>
      <trkpt lat="44.60058" lon="0.30109">
        <ele>86.6</ele>
        <time>2015-10-05T10:40:29Z</time>
      </trkpt>
      <trkpt lat="44.60051" lon="0.30091">
        <ele>86.8</ele>
        <time>2015-10-05T10:40:35Z</time>
      </trkpt>
      <trkpt lat="44.60046" lon="0.30073">
        <ele>86.8</ele>
        <time>2015-10-05T10:40:39Z</time>
      </trkpt>
      <trkpt lat="44.60037" lon="0.30045">
        <ele>87.8</ele>
        <time>2015-10-05T10:40:45Z</time>
      </trkpt>
      <trkpt lat="44.60034" lon="0.30036">
        <ele>87.2</ele>
        <time>2015-10-05T10:40:47Z</time>
      </trkpt>
      <trkpt lat="44.60033" lon="0.30031">
        <ele>85.6</ele>
        <time>2015-10-05T10:40:48Z</time>
      </trkpt>
      <trkpt lat="44.60032" lon="0.30025">
        <ele>86.8</ele>
        <time>2015-10-05T10:40:49Z</time>
      </trkpt>
      <trkpt lat="44.60024" lon="0.29999">
        <ele>86.6</ele>
        <time>2015-10-05T10:40:54Z</time>
      </trkpt>
      <trkpt lat="44.60006" lon="0.2994">
        <ele>86.2</ele>
        <time>2015-10-05T10:41:05Z</time>
      </trkpt>
      <trkpt lat="44.59995" lon="0.29903">
        <ele>85.8</ele>
        <time>2015-10-05T10:41:12Z</time>
      </trkpt>
      <trkpt lat="44.59992" lon="0.29891">
        <ele>85.8</ele>
        <time>2015-10-05T10:41:14Z</time>
      </trkpt>
      <trkpt lat="44.59991" lon="0.29885">
        <ele>85.8</ele>
        <time>2015-10-05T10:41:15Z</time>
      </trkpt>
      <trkpt lat="44.59987" lon="0.29865">
        <ele>85</ele>
        <time>2015-10-05T10:41:18Z</time>
      </trkpt>
      <trkpt lat="44.59986" lon="0.29858">
        <ele>84.8</ele>
        <time>2015-10-05T10:41:19Z</time>
      </trkpt>
      <trkpt lat="44.59984" lon="0.29851">
        <ele>84.6</ele>
        <time>2015-10-05T10:41:20Z</time>
      </trkpt>
      <trkpt lat="44.59977" lon="0.2981">
        <ele>83.6</ele>
        <time>2015-10-05T10:41:25Z</time>
      </trkpt>
      <trkpt lat="44.59974" lon="0.29792">
        <ele>82.6</ele>
        <time>2015-10-05T10:41:27Z</time>
      </trkpt>
      <trkpt lat="44.59968" lon="0.29752">
        <ele>81.4</ele>
        <time>2015-10-05T10:41:31Z</time>
      </trkpt>
      <trkpt lat="44.5996" lon="0.29702">
        <ele>80.4</ele>
        <time>2015-10-05T10:41:36Z</time>
      </trkpt>
      <trkpt lat="44.59958" lon="0.29692">
        <ele>80.2</ele>
        <time>2015-10-05T10:41:37Z</time>
      </trkpt>
      <trkpt lat="44.59948" lon="0.29627">
        <ele>79.2</ele>
        <time>2015-10-05T10:41:44Z</time>
      </trkpt>
      <trkpt lat="44.59944" lon="0.29608">
        <ele>78.8</ele>
        <time>2015-10-05T10:41:46Z</time>
      </trkpt>
      <trkpt lat="44.59933" lon="0.29552">
        <ele>79.4</ele>
        <time>2015-10-05T10:41:53Z</time>
      </trkpt>
      <trkpt lat="44.5993" lon="0.29545">
        <ele>79.6</ele>
        <time>2015-10-05T10:41:54Z</time>
      </trkpt>
      <trkpt lat="44.59921" lon="0.29521">
        <ele>80.4</ele>
        <time>2015-10-05T10:41:58Z</time>
      </trkpt>
      <trkpt lat="44.59918" lon="0.29515">
        <ele>80.4</ele>
        <time>2015-10-05T10:41:59Z</time>
      </trkpt>
      <trkpt lat="44.59906" lon="0.29496">
        <ele>81.6</ele>
        <time>2015-10-05T10:42:03Z</time>
      </trkpt>
      <trkpt lat="44.59903" lon="0.29492">
        <ele>81.8</ele>
        <time>2015-10-05T10:42:04Z</time>
      </trkpt>
      <trkpt lat="44.59892" lon="0.29474">
        <ele>82.6</ele>
        <time>2015-10-05T10:42:08Z</time>
      </trkpt>
      <trkpt lat="44.59884" lon="0.29462">
        <ele>83.2</ele>
        <time>2015-10-05T10:42:11Z</time>
      </trkpt>
      <trkpt lat="44.59876" lon="0.2945">
        <ele>83.8</ele>
        <time>2015-10-05T10:42:14Z</time>
      </trkpt>
      <trkpt lat="44.59863" lon="0.29427">
        <ele>84.8</ele>
        <time>2015-10-05T10:42:19Z</time>
      </trkpt>
      <trkpt lat="44.59861" lon="0.29422">
        <ele>85</ele>
        <time>2015-10-05T10:42:20Z</time>
      </trkpt>
      <trkpt lat="44.59858" lon="0.29418">
        <ele>85</ele>
        <time>2015-10-05T10:42:21Z</time>
      </trkpt>
      <trkpt lat="44.59848" lon="0.29402">
        <ele>86.2</ele>
        <time>2015-10-05T10:42:26Z</time>
      </trkpt>
      <trkpt lat="44.59846" lon="0.29398">
        <ele>86.2</ele>
        <time>2015-10-05T10:42:27Z</time>
      </trkpt>
      <trkpt lat="44.59828" lon="0.2937">
        <ele>87.2</ele>
        <time>2015-10-05T10:42:34Z</time>
      </trkpt>
      <trkpt lat="44.59809" lon="0.29339">
        <ele>88.2</ele>
        <time>2015-10-05T10:42:42Z</time>
      </trkpt>
      <trkpt lat="44.59806" lon="0.29335">
        <ele>88.4</ele>
        <time>2015-10-05T10:42:43Z</time>
      </trkpt>
      <trkpt lat="44.59792" lon="0.2931">
        <ele>89.8</ele>
        <time>2015-10-05T10:42:49Z</time>
      </trkpt>
      <trkpt lat="44.59787" lon="0.29302">
        <ele>90.2</ele>
        <time>2015-10-05T10:42:51Z</time>
      </trkpt>
      <trkpt lat="44.59783" lon="0.29293">
        <ele>90.8</ele>
        <time>2015-10-05T10:42:53Z</time>
      </trkpt>
      <trkpt lat="44.59773" lon="0.29276">
        <ele>92</ele>
        <time>2015-10-05T10:42:57Z</time>
      </trkpt>
      <trkpt lat="44.59765" lon="0.29263">
        <ele>92.6</ele>
        <time>2015-10-05T10:43:00Z</time>
      </trkpt>
      <trkpt lat="44.59762" lon="0.29259">
        <ele>93.2</ele>
        <time>2015-10-05T10:43:01Z</time>
      </trkpt>
      <trkpt lat="44.59754" lon="0.29246">
        <ele>94.4</ele>
        <time>2015-10-05T10:43:05Z</time>
      </trkpt>
      <trkpt lat="44.59752" lon="0.29243">
        <ele>94.6</ele>
        <time>2015-10-05T10:43:06Z</time>
      </trkpt>
      <trkpt lat="44.59743" lon="0.29228">
        <ele>95.6</ele>
        <time>2015-10-05T10:43:10Z</time>
      </trkpt>
      <trkpt lat="44.59741" lon="0.29225">
        <ele>96.4</ele>
        <time>2015-10-05T10:43:11Z</time>
      </trkpt>
      <trkpt lat="44.59733" lon="0.29214">
        <ele>96.8</ele>
        <time>2015-10-05T10:43:14Z</time>
      </trkpt>
      <trkpt lat="44.59726" lon="0.29202">
        <ele>98</ele>
        <time>2015-10-05T10:43:17Z</time>
      </trkpt>
      <trkpt lat="44.59718" lon="0.29191">
        <ele>99</ele>
        <time>2015-10-05T10:43:21Z</time>
      </trkpt>
      <trkpt lat="44.59715" lon="0.29185">
        <ele>99.6</ele>
        <time>2015-10-05T10:43:23Z</time>
      </trkpt>
      <trkpt lat="44.59706" lon="0.29172">
        <ele>100.2</ele>
        <time>2015-10-05T10:43:28Z</time>
      </trkpt>
      <trkpt lat="44.59698" lon="0.29161">
        <ele>101</ele>
        <time>2015-10-05T10:43:32Z</time>
      </trkpt>
      <trkpt lat="44.59696" lon="0.29159">
        <ele>101.4</ele>
        <time>2015-10-05T10:43:33Z</time>
      </trkpt>
      <trkpt lat="44.59687" lon="0.29149">
        <ele>102.4</ele>
        <time>2015-10-05T10:43:38Z</time>
      </trkpt>
      <trkpt lat="44.59685" lon="0.29147">
        <ele>102.6</ele>
        <time>2015-10-05T10:43:39Z</time>
      </trkpt>
      <trkpt lat="44.59676" lon="0.29136">
        <ele>103.4</ele>
        <time>2015-10-05T10:43:44Z</time>
      </trkpt>
      <trkpt lat="44.59675" lon="0.29135">
        <ele>103.6</ele>
        <time>2015-10-05T10:43:45Z</time>
      </trkpt>
      <trkpt lat="44.59665" lon="0.29125">
        <ele>104</ele>
        <time>2015-10-05T10:43:51Z</time>
      </trkpt>
      <trkpt lat="44.59664" lon="0.29124">
        <ele>104</ele>
        <time>2015-10-05T10:43:52Z</time>
      </trkpt>
      <trkpt lat="44.5966" lon="0.29119">
        <ele>104.2</ele>
        <time>2015-10-05T10:43:57Z</time>
      </trkpt>
      <trkpt lat="44.59653" lon="0.29113">
        <ele>105.4</ele>
        <time>2015-10-05T10:46:00Z</time>
      </trkpt>
      <trkpt lat="44.59636" lon="0.29095">
        <ele>105.8</ele>
        <time>2015-10-05T10:46:08Z</time>
      </trkpt>
      <trkpt lat="44.59627" lon="0.29086">
        <ele>106.6</ele>
        <time>2015-10-05T10:46:12Z</time>
      </trkpt>
      <trkpt lat="44.59619" lon="0.29078">
        <ele>106.6</ele>
        <time>2015-10-05T10:46:15Z</time>
      </trkpt>
      <trkpt lat="44.59602" lon="0.2906">
        <ele>107.6</ele>
        <time>2015-10-05T10:46:22Z</time>
      </trkpt>
      <trkpt lat="44.59598" lon="0.29055">
        <ele>107.6</ele>
        <time>2015-10-05T10:46:24Z</time>
      </trkpt>
      <trkpt lat="44.59584" lon="0.29034">
        <ele>108.6</ele>
        <time>2015-10-05T10:46:31Z</time>
      </trkpt>
      <trkpt lat="44.59583" lon="0.29031">
        <ele>108.6</ele>
        <time>2015-10-05T10:46:32Z</time>
      </trkpt>
      <trkpt lat="44.59571" lon="0.29012">
        <ele>109.8</ele>
        <time>2015-10-05T10:46:38Z</time>
      </trkpt>
      <trkpt lat="44.59569" lon="0.29009">
        <ele>109.8</ele>
        <time>2015-10-05T10:46:39Z</time>
      </trkpt>
      <trkpt lat="44.59559" lon="0.2899">
        <ele>110.8</ele>
        <time>2015-10-05T10:46:45Z</time>
      </trkpt>
      <trkpt lat="44.59557" lon="0.28987">
        <ele>111.2</ele>
        <time>2015-10-05T10:46:46Z</time>
      </trkpt>
      <trkpt lat="44.59544" lon="0.28966">
        <ele>112</ele>
        <time>2015-10-05T10:46:53Z</time>
      </trkpt>
      <trkpt lat="44.59541" lon="0.2896">
        <ele>112.2</ele>
        <time>2015-10-05T10:46:55Z</time>
      </trkpt>
      <trkpt lat="44.59532" lon="0.28945">
        <ele>113</ele>
        <time>2015-10-05T10:47:00Z</time>
      </trkpt>
      <trkpt lat="44.59526" lon="0.28937">
        <ele>113.4</ele>
        <time>2015-10-05T10:47:03Z</time>
      </trkpt>
      <trkpt lat="44.59516" lon="0.2892">
        <ele>114</ele>
        <time>2015-10-05T10:47:09Z</time>
      </trkpt>
      <trkpt lat="44.59511" lon="0.28915">
        <ele>114.4</ele>
        <time>2015-10-05T10:47:11Z</time>
      </trkpt>
      <trkpt lat="44.59499" lon="0.28901">
        <ele>114.8</ele>
        <time>2015-10-05T10:47:17Z</time>
      </trkpt>
      <trkpt lat="44.5949" lon="0.28891">
        <ele>115.2</ele>
        <time>2015-10-05T10:47:21Z</time>
      </trkpt>
      <trkpt lat="44.59481" lon="0.28881">
        <ele>115.4</ele>
        <time>2015-10-05T10:47:25Z</time>
      </trkpt>
      <trkpt lat="44.59469" lon="0.28866">
        <ele>115</ele>
        <time>2015-10-05T10:47:32Z</time>
      </trkpt>
      <trkpt lat="44.59457" lon="0.28851">
        <ele>115.4</ele>
        <time>2015-10-05T10:47:38Z</time>
      </trkpt>
      <trkpt lat="44.59449" lon="0.28842">
        <ele>115.2</ele>
        <time>2015-10-05T10:47:43Z</time>
      </trkpt>
      <trkpt lat="44.59431" lon="0.28835">
        <ele>115</ele>
        <time>2015-10-05T10:47:49Z</time>
      </trkpt>
      <trkpt lat="44.59408" lon="0.28821">
        <ele>115.4</ele>
        <time>2015-10-05T10:47:56Z</time>
      </trkpt>
      <trkpt lat="44.59391" lon="0.28807">
        <ele>116.2</ele>
        <time>2015-10-05T10:48:02Z</time>
      </trkpt>
      <trkpt lat="44.59386" lon="0.28803">
        <ele>116.2</ele>
        <time>2015-10-05T10:48:04Z</time>
      </trkpt>
      <trkpt lat="44.59372" lon="0.28791">
        <ele>117.2</ele>
        <time>2015-10-05T10:48:10Z</time>
      </trkpt>
      <trkpt lat="44.59364" lon="0.28785">
        <ele>118</ele>
        <time>2015-10-05T10:48:13Z</time>
      </trkpt>
      <trkpt lat="44.5936" lon="0.2878">
        <ele>118.4</ele>
        <time>2015-10-05T10:48:15Z</time>
      </trkpt>
      <trkpt lat="44.59347" lon="0.28765">
        <ele>119.4</ele>
        <time>2015-10-05T10:48:21Z</time>
      </trkpt>
      <trkpt lat="44.59345" lon="0.28762">
        <ele>119.4</ele>
        <time>2015-10-05T10:48:22Z</time>
      </trkpt>
      <trkpt lat="44.59335" lon="0.28746">
        <ele>120.4</ele>
        <time>2015-10-05T10:48:28Z</time>
      </trkpt>
      <trkpt lat="44.59329" lon="0.28736">
        <ele>121.2</ele>
        <time>2015-10-05T10:48:33Z</time>
      </trkpt>
      <trkpt lat="44.59321" lon="0.2873">
        <ele>121.4</ele>
        <time>2015-10-05T10:49:47Z</time>
      </trkpt>
      <trkpt lat="44.59319" lon="0.28724">
        <ele>121.4</ele>
        <time>2015-10-05T10:49:49Z</time>
      </trkpt>
      <trkpt lat="44.59311" lon="0.28707">
        <ele>122.2</ele>
        <time>2015-10-05T10:49:54Z</time>
      </trkpt>
      <trkpt lat="44.59306" lon="0.28697">
        <ele>122.6</ele>
        <time>2015-10-05T10:49:57Z</time>
      </trkpt>
      <trkpt lat="44.59302" lon="0.2869">
        <ele>123</ele>
        <time>2015-10-05T10:49:59Z</time>
      </trkpt>
      <trkpt lat="44.59296" lon="0.28677">
        <ele>123.6</ele>
        <time>2015-10-05T10:50:03Z</time>
      </trkpt>
      <trkpt lat="44.5929" lon="0.28662">
        <ele>124.4</ele>
        <time>2015-10-05T10:50:07Z</time>
      </trkpt>
      <trkpt lat="44.59285" lon="0.28647">
        <ele>125</ele>
        <time>2015-10-05T10:50:11Z</time>
      </trkpt>
      <trkpt lat="44.59279" lon="0.28631">
        <ele>125.2</ele>
        <time>2015-10-05T10:50:15Z</time>
      </trkpt>
      <trkpt lat="44.59273" lon="0.28612">
        <ele>126</ele>
        <time>2015-10-05T10:50:20Z</time>
      </trkpt>
      <trkpt lat="44.59271" lon="0.28605">
        <ele>126</ele>
        <time>2015-10-05T10:50:22Z</time>
      </trkpt>
      <trkpt lat="44.59264" lon="0.2858">
        <ele>126.6</ele>
        <time>2015-10-05T10:50:29Z</time>
      </trkpt>
      <trkpt lat="44.5926" lon="0.28563">
        <ele>127.2</ele>
        <time>2015-10-05T10:50:34Z</time>
      </trkpt>
      <trkpt lat="44.59259" lon="0.28552">
        <ele>127.2</ele>
        <time>2015-10-05T10:50:37Z</time>
      </trkpt>
      <trkpt lat="44.59254" lon="0.28521">
        <ele>127.4</ele>
        <time>2015-10-05T10:50:46Z</time>
      </trkpt>
      <trkpt lat="44.59248" lon="0.28485">
        <ele>127.8</ele>
        <time>2015-10-05T10:50:55Z</time>
      </trkpt>
      <trkpt lat="44.59243" lon="0.28454">
        <ele>127.8</ele>
        <time>2015-10-05T10:51:02Z</time>
      </trkpt>
      <trkpt lat="44.59236" lon="0.28414">
        <ele>127.8</ele>
        <time>2015-10-05T10:51:10Z</time>
      </trkpt>
      <trkpt lat="44.59228" lon="0.28371">
        <ele>127.2</ele>
        <time>2015-10-05T10:51:19Z</time>
      </trkpt>
      <trkpt lat="44.59216" lon="0.28332">
        <ele>126.8</ele>
        <time>2015-10-05T10:51:28Z</time>
      </trkpt>
      <trkpt lat="44.59208" lon="0.28307">
        <ele>126.6</ele>
        <time>2015-10-05T10:51:35Z</time>
      </trkpt>
      <trkpt lat="44.59199" lon="0.28281">
        <ele>125.8</ele>
        <time>2015-10-05T10:51:42Z</time>
      </trkpt>
      <trkpt lat="44.59196" lon="0.28272">
        <ele>126</ele>
        <time>2015-10-05T10:51:44Z</time>
      </trkpt>
      <trkpt lat="44.59181" lon="0.28227">
        <ele>125.2</ele>
        <time>2015-10-05T10:51:54Z</time>
      </trkpt>
      <trkpt lat="44.59174" lon="0.28209">
        <ele>124.8</ele>
        <time>2015-10-05T10:51:58Z</time>
      </trkpt>
      <trkpt lat="44.59167" lon="0.28184">
        <ele>124.8</ele>
        <time>2015-10-05T10:52:03Z</time>
      </trkpt>
      <trkpt lat="44.59152" lon="0.2814">
        <ele>124.4</ele>
        <time>2015-10-05T10:52:11Z</time>
      </trkpt>
      <trkpt lat="44.59132" lon="0.2808">
        <ele>124</ele>
        <time>2015-10-05T10:52:21Z</time>
      </trkpt>
      <trkpt lat="44.59126" lon="0.28062">
        <ele>123.8</ele>
        <time>2015-10-05T10:52:24Z</time>
      </trkpt>
      <trkpt lat="44.59114" lon="0.28026">
        <ele>123.6</ele>
        <time>2015-10-05T10:52:30Z</time>
      </trkpt>
      <trkpt lat="44.59096" lon="0.27971">
        <ele>123.4</ele>
        <time>2015-10-05T10:52:39Z</time>
      </trkpt>
      <trkpt lat="44.59086" lon="0.27942">
        <ele>122.8</ele>
        <time>2015-10-05T10:52:44Z</time>
      </trkpt>
      <trkpt lat="44.5908" lon="0.27924">
        <ele>123.4</ele>
        <time>2015-10-05T10:52:47Z</time>
      </trkpt>
      <trkpt lat="44.59063" lon="0.27871">
        <ele>122.6</ele>
        <time>2015-10-05T10:52:56Z</time>
      </trkpt>
      <trkpt lat="44.59044" lon="0.27814">
        <ele>122.8</ele>
        <time>2015-10-05T10:53:06Z</time>
      </trkpt>
      <trkpt lat="44.59024" lon="0.27751">
        <ele>123</ele>
        <time>2015-10-05T10:53:18Z</time>
      </trkpt>
      <trkpt lat="44.59006" lon="0.27699">
        <ele>123</ele>
        <time>2015-10-05T10:53:28Z</time>
      </trkpt>
      <trkpt lat="44.58986" lon="0.27657">
        <ele>122.6</ele>
        <time>2015-10-05T10:53:36Z</time>
      </trkpt>
      <trkpt lat="44.58973" lon="0.27636">
        <ele>122.6</ele>
        <time>2015-10-05T10:53:41Z</time>
      </trkpt>
      <trkpt lat="44.58971" lon="0.27631">
        <ele>122.6</ele>
        <time>2015-10-05T10:53:42Z</time>
      </trkpt>
      <trkpt lat="44.58953" lon="0.276">
        <ele>122.6</ele>
        <time>2015-10-05T10:53:49Z</time>
      </trkpt>
      <trkpt lat="44.58926" lon="0.27566">
        <ele>122.2</ele>
        <time>2015-10-05T10:53:58Z</time>
      </trkpt>
      <trkpt lat="44.58903" lon="0.2754">
        <ele>122</ele>
        <time>2015-10-05T10:54:05Z</time>
      </trkpt>
      <trkpt lat="44.58873" lon="0.27514">
        <ele>122.8</ele>
        <time>2015-10-05T10:54:14Z</time>
      </trkpt>
      <trkpt lat="44.58839" lon="0.275">
        <ele>123.2</ele>
        <time>2015-10-05T10:54:23Z</time>
      </trkpt>
      <trkpt lat="44.58818" lon="0.27496">
        <ele>123.8</ele>
        <time>2015-10-05T10:54:28Z</time>
      </trkpt>
      <trkpt lat="44.58814" lon="0.27496">
        <ele>124</ele>
        <time>2015-10-05T10:54:29Z</time>
      </trkpt>
      <trkpt lat="44.58803" lon="0.27497">
        <ele>124.4</ele>
        <time>2015-10-05T10:54:32Z</time>
      </trkpt>
      <trkpt lat="44.58795" lon="0.27499">
        <ele>125</ele>
        <time>2015-10-05T10:54:34Z</time>
      </trkpt>
      <trkpt lat="44.58773" lon="0.27508">
        <ele>125.4</ele>
        <time>2015-10-05T10:54:40Z</time>
      </trkpt>
      <trkpt lat="44.58747" lon="0.27524">
        <ele>126.2</ele>
        <time>2015-10-05T10:54:47Z</time>
      </trkpt>
      <trkpt lat="44.5874" lon="0.27529">
        <ele>126.2</ele>
        <time>2015-10-05T10:54:49Z</time>
      </trkpt>
      <trkpt lat="44.58718" lon="0.27549">
        <ele>127.2</ele>
        <time>2015-10-05T10:54:56Z</time>
      </trkpt>
      <trkpt lat="44.58715" lon="0.27551">
        <ele>127.2</ele>
        <time>2015-10-05T10:54:57Z</time>
      </trkpt>
      <trkpt lat="44.58694" lon="0.27568">
        <ele>128.2</ele>
        <time>2015-10-05T10:55:04Z</time>
      </trkpt>
      <trkpt lat="44.58685" lon="0.27575">
        <ele>128.4</ele>
        <time>2015-10-05T10:55:07Z</time>
      </trkpt>
      <trkpt lat="44.58663" lon="0.27593">
        <ele>129.4</ele>
        <time>2015-10-05T10:55:15Z</time>
      </trkpt>
      <trkpt lat="44.5866" lon="0.27593">
        <ele>129.6</ele>
        <time>2015-10-05T10:55:16Z</time>
      </trkpt>
      <trkpt lat="44.58658" lon="0.27593">
        <ele>129.8</ele>
        <time>2015-10-05T10:55:17Z</time>
      </trkpt>
      <trkpt lat="44.58654" lon="0.27591">
        <ele>130.2</ele>
        <time>2015-10-05T10:55:20Z</time>
      </trkpt>
      <trkpt lat="44.58653" lon="0.2759">
        <ele>130.2</ele>
        <time>2015-10-05T10:55:21Z</time>
      </trkpt>
      <trkpt lat="44.5865" lon="0.2759">
        <ele>130.2</ele>
        <time>2015-10-05T10:55:23Z</time>
      </trkpt>
      <trkpt lat="44.58648" lon="0.2759">
        <ele>130.4</ele>
        <time>2015-10-05T10:55:24Z</time>
      </trkpt>
      <trkpt lat="44.58647" lon="0.27591">
        <ele>130.6</ele>
        <time>2015-10-05T10:55:25Z</time>
      </trkpt>
      <trkpt lat="44.58647" lon="0.27591">
        <ele>128.6</ele>
        <time>2015-10-05T10:55:28Z</time>
      </trkpt>
      <trkpt lat="44.58647" lon="0.27592">
        <ele>130</ele>
        <time>2015-10-05T10:55:29Z</time>
      </trkpt>
      <trkpt lat="44.5864" lon="0.27589">
        <ele>130.4</ele>
        <time>2015-10-05T10:57:09Z</time>
      </trkpt>
      <trkpt lat="44.58638" lon="0.2759">
        <ele>130.2</ele>
        <time>2015-10-05T10:57:10Z</time>
      </trkpt>
      <trkpt lat="44.58636" lon="0.27591">
        <ele>129.8</ele>
        <time>2015-10-05T10:57:11Z</time>
      </trkpt>
      <trkpt lat="44.5863" lon="0.27596">
        <ele>129</ele>
        <time>2015-10-05T10:57:15Z</time>
      </trkpt>
      <trkpt lat="44.58626" lon="0.276">
        <ele>128.8</ele>
        <time>2015-10-05T10:57:17Z</time>
      </trkpt>
      <trkpt lat="44.58614" lon="0.27606">
        <ele>128.8</ele>
        <time>2015-10-05T10:57:22Z</time>
      </trkpt>
      <trkpt lat="44.58594" lon="0.27609">
        <ele>128.8</ele>
        <time>2015-10-05T10:57:28Z</time>
      </trkpt>
      <trkpt lat="44.58569" lon="0.27598">
        <ele>128.4</ele>
        <time>2015-10-05T10:57:34Z</time>
      </trkpt>
      <trkpt lat="44.58561" lon="0.27593">
        <ele>128</ele>
        <time>2015-10-05T10:57:36Z</time>
      </trkpt>
      <trkpt lat="44.58533" lon="0.27572">
        <ele>127.2</ele>
        <time>2015-10-05T10:57:42Z</time>
      </trkpt>
      <trkpt lat="44.58522" lon="0.27564">
        <ele>126.8</ele>
        <time>2015-10-05T10:57:44Z</time>
      </trkpt>
      <trkpt lat="44.58499" lon="0.27548">
        <ele>125.4</ele>
        <time>2015-10-05T10:57:48Z</time>
      </trkpt>
      <trkpt lat="44.58493" lon="0.27544">
        <ele>125.2</ele>
        <time>2015-10-05T10:57:49Z</time>
      </trkpt>
      <trkpt lat="44.58445" lon="0.2751">
        <ele>124.8</ele>
        <time>2015-10-05T10:57:58Z</time>
      </trkpt>
      <trkpt lat="44.58435" lon="0.27503">
        <ele>124.4</ele>
        <time>2015-10-05T10:58:00Z</time>
      </trkpt>
      <trkpt lat="44.58415" lon="0.27489">
        <ele>123.2</ele>
        <time>2015-10-05T10:58:04Z</time>
      </trkpt>
      <trkpt lat="44.58399" lon="0.27478">
        <ele>122.4</ele>
        <time>2015-10-05T10:58:07Z</time>
      </trkpt>
      <trkpt lat="44.58393" lon="0.27473">
        <ele>122.2</ele>
        <time>2015-10-05T10:58:08Z</time>
      </trkpt>
      <trkpt lat="44.58351" lon="0.27445">
        <ele>121.6</ele>
        <time>2015-10-05T10:58:15Z</time>
      </trkpt>
      <trkpt lat="44.58315" lon="0.27435">
        <ele>121.6</ele>
        <time>2015-10-05T10:58:21Z</time>
      </trkpt>
      <trkpt lat="44.58304" lon="0.27434">
        <ele>122</ele>
        <time>2015-10-05T10:58:23Z</time>
      </trkpt>
      <trkpt lat="44.58285" lon="0.27435">
        <ele>122.8</ele>
        <time>2015-10-05T10:58:27Z</time>
      </trkpt>
      <trkpt lat="44.58255" lon="0.2744">
        <ele>122.6</ele>
        <time>2015-10-05T10:58:34Z</time>
      </trkpt>
      <trkpt lat="44.58215" lon="0.27445">
        <ele>122.2</ele>
        <time>2015-10-05T10:58:45Z</time>
      </trkpt>
      <trkpt lat="44.5819" lon="0.27449">
        <ele>121.8</ele>
        <time>2015-10-05T10:58:52Z</time>
      </trkpt>
      <trkpt lat="44.58167" lon="0.27451">
        <ele>121.8</ele>
        <time>2015-10-05T10:58:58Z</time>
      </trkpt>
      <trkpt lat="44.5815" lon="0.27453">
        <ele>122.2</ele>
        <time>2015-10-05T10:59:04Z</time>
      </trkpt>
      <trkpt lat="44.58131" lon="0.27456">
        <ele>123</ele>
        <time>2015-10-05T10:59:11Z</time>
      </trkpt>
      <trkpt lat="44.58108" lon="0.27459">
        <ele>123.2</ele>
        <time>2015-10-05T10:59:20Z</time>
      </trkpt>
      <trkpt lat="44.58089" lon="0.27462">
        <ele>124</ele>
        <time>2015-10-05T10:59:27Z</time>
      </trkpt>
      <trkpt lat="44.58081" lon="0.27463">
        <ele>124.2</ele>
        <time>2015-10-05T10:59:30Z</time>
      </trkpt>
      <trkpt lat="44.58069" lon="0.27465">
        <ele>124.8</ele>
        <time>2015-10-05T10:59:35Z</time>
      </trkpt>
      <trkpt lat="44.58056" lon="0.27466">
        <ele>125.2</ele>
        <time>2015-10-05T10:59:40Z</time>
      </trkpt>
      <trkpt lat="44.58046" lon="0.27468">
        <ele>125.6</ele>
        <time>2015-10-05T10:59:44Z</time>
      </trkpt>
      <trkpt lat="44.58037" lon="0.27469">
        <ele>126.4</ele>
        <time>2015-10-05T10:59:48Z</time>
      </trkpt>
      <trkpt lat="44.58024" lon="0.27471">
        <ele>126.8</ele>
        <time>2015-10-05T10:59:53Z</time>
      </trkpt>
      <trkpt lat="44.58013" lon="0.27472">
        <ele>127.6</ele>
        <time>2015-10-05T10:59:58Z</time>
      </trkpt>
      <trkpt lat="44.58009" lon="0.27473">
        <ele>127.4</ele>
        <time>2015-10-05T11:00:00Z</time>
      </trkpt>
      <trkpt lat="44.57992" lon="0.27475">
        <ele>128.8</ele>
        <time>2015-10-05T11:00:08Z</time>
      </trkpt>
      <trkpt lat="44.5799" lon="0.27475">
        <ele>129</ele>
        <time>2015-10-05T11:00:09Z</time>
      </trkpt>
      <trkpt lat="44.57971" lon="0.27478">
        <ele>129.4</ele>
        <time>2015-10-05T11:00:18Z</time>
      </trkpt>
      <trkpt lat="44.57962" lon="0.27478">
        <ele>129.8</ele>
        <time>2015-10-05T11:00:22Z</time>
      </trkpt>
      <trkpt lat="44.57954" lon="0.27479">
        <ele>129.8</ele>
        <time>2015-10-05T11:00:25Z</time>
      </trkpt>
      <trkpt lat="44.57929" lon="0.27482">
        <ele>130.4</ele>
        <time>2015-10-05T11:00:34Z</time>
      </trkpt>
      <trkpt lat="44.57918" lon="0.27483">
        <ele>130.8</ele>
        <time>2015-10-05T11:00:38Z</time>
      </trkpt>
      <trkpt lat="44.57909" lon="0.27485">
        <ele>131</ele>
        <time>2015-10-05T11:00:41Z</time>
      </trkpt>
      <trkpt lat="44.57879" lon="0.27488">
        <ele>131.6</ele>
        <time>2015-10-05T11:00:51Z</time>
      </trkpt>
      <trkpt lat="44.57848" lon="0.27492">
        <ele>131.6</ele>
        <time>2015-10-05T11:01:01Z</time>
      </trkpt>
      <trkpt lat="44.57835" lon="0.27494">
        <ele>131.8</ele>
        <time>2015-10-05T11:01:05Z</time>
      </trkpt>
      <trkpt lat="44.57826" lon="0.27495">
        <ele>132</ele>
        <time>2015-10-05T11:01:08Z</time>
      </trkpt>
      <trkpt lat="44.578" lon="0.27499">
        <ele>132.8</ele>
        <time>2015-10-05T11:01:17Z</time>
      </trkpt>
      <trkpt lat="44.57798" lon="0.27499">
        <ele>132.8</ele>
        <time>2015-10-05T11:01:18Z</time>
      </trkpt>
      <trkpt lat="44.57785" lon="0.27502">
        <ele>132.8</ele>
        <time>2015-10-05T11:01:24Z</time>
      </trkpt>
      <trkpt lat="44.57775" lon="0.27506">
        <ele>132.8</ele>
        <time>2015-10-05T11:01:29Z</time>
      </trkpt>
      <trkpt lat="44.57773" lon="0.27506">
        <ele>132.8</ele>
        <time>2015-10-05T11:01:30Z</time>
      </trkpt>
      <trkpt lat="44.57764" lon="0.2751">
        <ele>132.6</ele>
        <time>2015-10-05T11:01:36Z</time>
      </trkpt>
      <trkpt lat="44.57758" lon="0.27514">
        <ele>132.4</ele>
        <time>2015-10-05T11:01:42Z</time>
      </trkpt>
      <trkpt lat="44.57755" lon="0.27525">
        <ele>132.2</ele>
        <time>2015-10-05T11:02:26Z</time>
      </trkpt>
      <trkpt lat="44.57752" lon="0.27534">
        <ele>131.8</ele>
        <time>2015-10-05T11:02:28Z</time>
      </trkpt>
      <trkpt lat="44.57747" lon="0.27551">
        <ele>131.6</ele>
        <time>2015-10-05T11:02:31Z</time>
      </trkpt>
      <trkpt lat="44.57732" lon="0.27591">
        <ele>131.2</ele>
        <time>2015-10-05T11:02:38Z</time>
      </trkpt>
      <trkpt lat="44.57717" lon="0.27637">
        <ele>131.8</ele>
        <time>2015-10-05T11:02:46Z</time>
      </trkpt>
      <trkpt lat="44.57698" lon="0.27688">
        <ele>132.6</ele>
        <time>2015-10-05T11:02:56Z</time>
      </trkpt>
      <trkpt lat="44.57695" lon="0.27698">
        <ele>132.8</ele>
        <time>2015-10-05T11:02:58Z</time>
      </trkpt>
      <trkpt lat="44.5768" lon="0.27741">
        <ele>133.4</ele>
        <time>2015-10-05T11:03:06Z</time>
      </trkpt>
      <trkpt lat="44.57674" lon="0.27757">
        <ele>133.8</ele>
        <time>2015-10-05T11:03:09Z</time>
      </trkpt>
      <trkpt lat="44.57661" lon="0.27786">
        <ele>134</ele>
        <time>2015-10-05T11:03:15Z</time>
      </trkpt>
      <trkpt lat="44.5764" lon="0.27825">
        <ele>134.8</ele>
        <time>2015-10-05T11:03:24Z</time>
      </trkpt>
      <trkpt lat="44.57633" lon="0.27838">
        <ele>135</ele>
        <time>2015-10-05T11:03:27Z</time>
      </trkpt>
      <trkpt lat="44.57617" lon="0.27863">
        <ele>134.4</ele>
        <time>2015-10-05T11:03:32Z</time>
      </trkpt>
      <trkpt lat="44.57586" lon="0.27913">
        <ele>134</ele>
        <time>2015-10-05T11:03:41Z</time>
      </trkpt>
      <trkpt lat="44.57563" lon="0.27949">
        <ele>134</ele>
        <time>2015-10-05T11:03:48Z</time>
      </trkpt>
      <trkpt lat="44.57536" lon="0.27993">
        <ele>134.4</ele>
        <time>2015-10-05T11:03:57Z</time>
      </trkpt>
      <trkpt lat="44.57518" lon="0.28021">
        <ele>133.8</ele>
        <time>2015-10-05T11:04:02Z</time>
      </trkpt>
      <trkpt lat="44.5751" lon="0.28033">
        <ele>133.8</ele>
        <time>2015-10-05T11:04:04Z</time>
      </trkpt>
      <trkpt lat="44.57477" lon="0.28071">
        <ele>133.6</ele>
        <time>2015-10-05T11:04:11Z</time>
      </trkpt>
      <trkpt lat="44.57442" lon="0.28096">
        <ele>133.8</ele>
        <time>2015-10-05T11:04:18Z</time>
      </trkpt>
      <trkpt lat="44.5741" lon="0.28111">
        <ele>133.4</ele>
        <time>2015-10-05T11:04:25Z</time>
      </trkpt>
      <trkpt lat="44.57388" lon="0.28121">
        <ele>133.2</ele>
        <time>2015-10-05T11:04:30Z</time>
      </trkpt>
      <trkpt lat="44.57379" lon="0.28125">
        <ele>133</ele>
        <time>2015-10-05T11:04:32Z</time>
      </trkpt>
      <trkpt lat="44.5735" lon="0.28138">
        <ele>132.8</ele>
        <time>2015-10-05T11:04:38Z</time>
      </trkpt>
      <trkpt lat="44.5734" lon="0.28142">
        <ele>132.8</ele>
        <time>2015-10-05T11:04:40Z</time>
      </trkpt>
      <trkpt lat="44.57287" lon="0.28166">
        <ele>132.2</ele>
        <time>2015-10-05T11:04:51Z</time>
      </trkpt>
      <trkpt lat="44.57282" lon="0.28168">
        <ele>132</ele>
        <time>2015-10-05T11:04:52Z</time>
      </trkpt>
      <trkpt lat="44.57272" lon="0.28172">
        <ele>131.6</ele>
        <time>2015-10-05T11:04:54Z</time>
      </trkpt>
      <trkpt lat="44.57245" lon="0.28181">
        <ele>131</ele>
        <time>2015-10-05T11:04:59Z</time>
      </trkpt>
      <trkpt lat="44.57226" lon="0.28185">
        <ele>130.6</ele>
        <time>2015-10-05T11:05:02Z</time>
      </trkpt>
      <trkpt lat="44.572" lon="0.28189">
        <ele>129.8</ele>
        <time>2015-10-05T11:05:06Z</time>
      </trkpt>
      <trkpt lat="44.57194" lon="0.2819">
        <ele>129.6</ele>
        <time>2015-10-05T11:05:07Z</time>
      </trkpt>
      <trkpt lat="44.5716" lon="0.28195">
        <ele>130</ele>
        <time>2015-10-05T11:05:13Z</time>
      </trkpt>
      <trkpt lat="44.57126" lon="0.28204">
        <ele>129.8</ele>
        <time>2015-10-05T11:05:20Z</time>
      </trkpt>
      <trkpt lat="44.57093" lon="0.28215">
        <ele>130</ele>
        <time>2015-10-05T11:05:27Z</time>
      </trkpt>
      <trkpt lat="44.57069" lon="0.28226">
        <ele>130.6</ele>
        <time>2015-10-05T11:05:33Z</time>
      </trkpt>
      <trkpt lat="44.57065" lon="0.28228">
        <ele>130.6</ele>
        <time>2015-10-05T11:05:34Z</time>
      </trkpt>
      <trkpt lat="44.5706" lon="0.2823">
        <ele>130.6</ele>
        <time>2015-10-05T11:05:35Z</time>
      </trkpt>
      <trkpt lat="44.57039" lon="0.28239">
        <ele>131.2</ele>
        <time>2015-10-05T11:05:40Z</time>
      </trkpt>
      <trkpt lat="44.57034" lon="0.28241">
        <ele>131.2</ele>
        <time>2015-10-05T11:05:41Z</time>
      </trkpt>
      <trkpt lat="44.57022" lon="0.28249">
        <ele>131.6</ele>
        <time>2015-10-05T11:05:44Z</time>
      </trkpt>
      <trkpt lat="44.57019" lon="0.28252">
        <ele>131.8</ele>
        <time>2015-10-05T11:05:45Z</time>
      </trkpt>
      <trkpt lat="44.57009" lon="0.28262">
        <ele>132.4</ele>
        <time>2015-10-05T11:05:48Z</time>
      </trkpt>
      <trkpt lat="44.57" lon="0.28271">
        <ele>132.8</ele>
        <time>2015-10-05T11:05:51Z</time>
      </trkpt>
      <trkpt lat="44.56986" lon="0.28286">
        <ele>133.4</ele>
        <time>2015-10-05T11:05:56Z</time>
      </trkpt>
      <trkpt lat="44.56965" lon="0.28311">
        <ele>133.8</ele>
        <time>2015-10-05T11:06:03Z</time>
      </trkpt>
      <trkpt lat="44.56936" lon="0.28348">
        <ele>134</ele>
        <time>2015-10-05T11:06:12Z</time>
      </trkpt>
      <trkpt lat="44.56905" lon="0.28392">
        <ele>134.4</ele>
        <time>2015-10-05T11:06:22Z</time>
      </trkpt>
      <trkpt lat="44.56883" lon="0.28424">
        <ele>134.8</ele>
        <time>2015-10-05T11:06:30Z</time>
      </trkpt>
      <trkpt lat="44.56867" lon="0.28448">
        <ele>134.8</ele>
        <time>2015-10-05T11:06:38Z</time>
      </trkpt>
      <trkpt lat="44.5685" lon="0.28474">
        <ele>134.4</ele>
        <time>2015-10-05T11:06:47Z</time>
      </trkpt>
      <trkpt lat="44.56841" lon="0.28482">
        <ele>133.8</ele>
        <time>2015-10-05T11:06:52Z</time>
      </trkpt>
      <trkpt lat="44.5684" lon="0.28482">
        <ele>133.8</ele>
        <time>2015-10-05T11:06:53Z</time>
      </trkpt>
      <trkpt lat="44.56838" lon="0.28481">
        <ele>133.4</ele>
        <time>2015-10-05T11:06:54Z</time>
      </trkpt>
      <trkpt lat="44.56838" lon="0.28471">
        <ele>132.8</ele>
        <time>2015-10-05T11:06:57Z</time>
      </trkpt>
      <trkpt lat="44.56838" lon="0.28467">
        <ele>132.6</ele>
        <time>2015-10-05T11:06:58Z</time>
      </trkpt>
      <trkpt lat="44.56843" lon="0.28451">
        <ele>132.4</ele>
        <time>2015-10-05T11:07:02Z</time>
      </trkpt>
      <trkpt lat="44.56844" lon="0.28447">
        <ele>132.4</ele>
        <time>2015-10-05T11:07:03Z</time>
      </trkpt>
      <trkpt lat="44.56852" lon="0.2841">
        <ele>131.8</ele>
        <time>2015-10-05T11:07:11Z</time>
      </trkpt>
      <trkpt lat="44.56854" lon="0.28398">
        <ele>131.2</ele>
        <time>2015-10-05T11:07:13Z</time>
      </trkpt>
      <trkpt lat="44.5686" lon="0.2837">
        <ele>130.8</ele>
        <time>2015-10-05T11:07:17Z</time>
      </trkpt>
      <trkpt lat="44.56861" lon="0.28363">
        <ele>130</ele>
        <time>2015-10-05T11:07:18Z</time>
      </trkpt>
      <trkpt lat="44.56866" lon="0.28337">
        <ele>129</ele>
        <time>2015-10-05T11:07:21Z</time>
      </trkpt>
      <trkpt lat="44.5687" lon="0.28319">
        <ele>128.2</ele>
        <time>2015-10-05T11:07:23Z</time>
      </trkpt>
      <trkpt lat="44.56871" lon="0.28309">
        <ele>127.4</ele>
        <time>2015-10-05T11:07:24Z</time>
      </trkpt>
      <trkpt lat="44.56875" lon="0.28279">
        <ele>125.8</ele>
        <time>2015-10-05T11:07:27Z</time>
      </trkpt>
      <trkpt lat="44.56878" lon="0.28247">
        <ele>124.4</ele>
        <time>2015-10-05T11:07:30Z</time>
      </trkpt>
      <trkpt lat="44.5688" lon="0.28204">
        <ele>123.2</ele>
        <time>2015-10-05T11:07:34Z</time>
      </trkpt>
      <trkpt lat="44.5688" lon="0.28174">
        <ele>123.2</ele>
        <time>2015-10-05T11:07:37Z</time>
      </trkpt>
      <trkpt lat="44.56878" lon="0.28114">
        <ele>122.6</ele>
        <time>2015-10-05T11:07:44Z</time>
      </trkpt>
      <trkpt lat="44.56872" lon="0.28055">
        <ele>122.2</ele>
        <time>2015-10-05T11:07:52Z</time>
      </trkpt>
      <trkpt lat="44.56871" lon="0.28048">
        <ele>122.2</ele>
        <time>2015-10-05T11:07:53Z</time>
      </trkpt>
      <trkpt lat="44.56863" lon="0.27998">
        <ele>121</ele>
        <time>2015-10-05T11:07:59Z</time>
      </trkpt>
      <trkpt lat="44.5685" lon="0.27945">
        <ele>120.2</ele>
        <time>2015-10-05T11:08:05Z</time>
      </trkpt>
      <trkpt lat="44.56848" lon="0.27936">
        <ele>119.6</ele>
        <time>2015-10-05T11:08:06Z</time>
      </trkpt>
      <trkpt lat="44.56836" lon="0.27891">
        <ele>118.4</ele>
        <time>2015-10-05T11:08:11Z</time>
      </trkpt>
      <trkpt lat="44.56831" lon="0.27872">
        <ele>117.8</ele>
        <time>2015-10-05T11:08:13Z</time>
      </trkpt>
      <trkpt lat="44.56826" lon="0.27854">
        <ele>117.2</ele>
        <time>2015-10-05T11:08:15Z</time>
      </trkpt>
      <trkpt lat="44.56807" lon="0.27787">
        <ele>117</ele>
        <time>2015-10-05T11:08:23Z</time>
      </trkpt>
      <trkpt lat="44.56788" lon="0.27736">
        <ele>116.4</ele>
        <time>2015-10-05T11:08:30Z</time>
      </trkpt>
      <trkpt lat="44.56782" lon="0.27722">
        <ele>116.2</ele>
        <time>2015-10-05T11:08:32Z</time>
      </trkpt>
      <trkpt lat="44.56756" lon="0.27673">
        <ele>116</ele>
        <time>2015-10-05T11:08:40Z</time>
      </trkpt>
      <trkpt lat="44.56725" lon="0.27622">
        <ele>116</ele>
        <time>2015-10-05T11:08:49Z</time>
      </trkpt>
      <trkpt lat="44.56693" lon="0.2757">
        <ele>116</ele>
        <time>2015-10-05T11:08:59Z</time>
      </trkpt>
      <trkpt lat="44.56679" lon="0.27548">
        <ele>116</ele>
        <time>2015-10-05T11:09:04Z</time>
      </trkpt>
      <trkpt lat="44.56674" lon="0.27539">
        <ele>116.2</ele>
        <time>2015-10-05T11:09:06Z</time>
      </trkpt>
      <trkpt lat="44.5665" lon="0.275">
        <ele>116.2</ele>
        <time>2015-10-05T11:09:14Z</time>
      </trkpt>
      <trkpt lat="44.56624" lon="0.27458">
        <ele>116.6</ele>
        <time>2015-10-05T11:09:23Z</time>
      </trkpt>
      <trkpt lat="44.56597" lon="0.27415">
        <ele>116.8</ele>
        <time>2015-10-05T11:09:32Z</time>
      </trkpt>
      <trkpt lat="44.56583" lon="0.27392">
        <ele>117.2</ele>
        <time>2015-10-05T11:09:37Z</time>
      </trkpt>
      <trkpt lat="44.56572" lon="0.27375">
        <ele>117.2</ele>
        <time>2015-10-05T11:09:41Z</time>
      </trkpt>
      <trkpt lat="44.56559" lon="0.27352">
        <ele>118.4</ele>
        <time>2015-10-05T11:09:47Z</time>
      </trkpt>
      <trkpt lat="44.56552" lon="0.27341">
        <ele>118.6</ele>
        <time>2015-10-05T11:09:50Z</time>
      </trkpt>
      <trkpt lat="44.56541" lon="0.27323">
        <ele>119.6</ele>
        <time>2015-10-05T11:09:55Z</time>
      </trkpt>
      <trkpt lat="44.56534" lon="0.27312">
        <ele>119.8</ele>
        <time>2015-10-05T11:09:58Z</time>
      </trkpt>
      <trkpt lat="44.56522" lon="0.27294">
        <ele>120.6</ele>
        <time>2015-10-05T11:10:03Z</time>
      </trkpt>
      <trkpt lat="44.56514" lon="0.2728">
        <ele>120.8</ele>
        <time>2015-10-05T11:10:07Z</time>
      </trkpt>
      <trkpt lat="44.56495" lon="0.27251">
        <ele>120.8</ele>
        <time>2015-10-05T11:10:15Z</time>
      </trkpt>
      <trkpt lat="44.56471" lon="0.27211">
        <ele>120.6</ele>
        <time>2015-10-05T11:10:23Z</time>
      </trkpt>
      <trkpt lat="44.56447" lon="0.27172">
        <ele>119.4</ele>
        <time>2015-10-05T11:10:30Z</time>
      </trkpt>
      <trkpt lat="44.56444" lon="0.27166">
        <ele>119.2</ele>
        <time>2015-10-05T11:10:31Z</time>
      </trkpt>
      <trkpt lat="44.56417" lon="0.27123">
        <ele>118.4</ele>
        <time>2015-10-05T11:10:38Z</time>
      </trkpt>
      <trkpt lat="44.56409" lon="0.27111">
        <ele>118.2</ele>
        <time>2015-10-05T11:10:40Z</time>
      </trkpt>
      <trkpt lat="44.56378" lon="0.27061">
        <ele>118</ele>
        <time>2015-10-05T11:10:49Z</time>
      </trkpt>
      <trkpt lat="44.5635" lon="0.27019">
        <ele>118.4</ele>
        <time>2015-10-05T11:10:58Z</time>
      </trkpt>
      <trkpt lat="44.56328" lon="0.26986">
        <ele>119.4</ele>
        <time>2015-10-05T11:11:07Z</time>
      </trkpt>
      <trkpt lat="44.56324" lon="0.26978">
        <ele>119.6</ele>
        <time>2015-10-05T11:11:09Z</time>
      </trkpt>
      <trkpt lat="44.56308" lon="0.26951">
        <ele>119.8</ele>
        <time>2015-10-05T11:11:16Z</time>
      </trkpt>
      <trkpt lat="44.56285" lon="0.26915">
        <ele>119.6</ele>
        <time>2015-10-05T11:11:25Z</time>
      </trkpt>
      <trkpt lat="44.56265" lon="0.26881">
        <ele>118.8</ele>
        <time>2015-10-05T11:11:32Z</time>
      </trkpt>
      <trkpt lat="44.56261" lon="0.26876">
        <ele>118.4</ele>
        <time>2015-10-05T11:11:33Z</time>
      </trkpt>
      <trkpt lat="44.56243" lon="0.26846">
        <ele>117.4</ele>
        <time>2015-10-05T11:11:38Z</time>
      </trkpt>
      <trkpt lat="44.56236" lon="0.26834">
        <ele>117.2</ele>
        <time>2015-10-05T11:11:40Z</time>
      </trkpt>
      <trkpt lat="44.56216" lon="0.26801">
        <ele>116</ele>
        <time>2015-10-05T11:11:45Z</time>
      </trkpt>
      <trkpt lat="44.56208" lon="0.26787">
        <ele>115.6</ele>
        <time>2015-10-05T11:11:47Z</time>
      </trkpt>
      <trkpt lat="44.5618" lon="0.26743">
        <ele>115</ele>
        <time>2015-10-05T11:11:54Z</time>
      </trkpt>
      <trkpt lat="44.56172" lon="0.26731">
        <ele>115</ele>
        <time>2015-10-05T11:11:56Z</time>
      </trkpt>
      <trkpt lat="44.5615" lon="0.26695">
        <ele>115.8</ele>
        <time>2015-10-05T11:12:03Z</time>
      </trkpt>
      <trkpt lat="44.56142" lon="0.26684">
        <ele>116.4</ele>
        <time>2015-10-05T11:12:06Z</time>
      </trkpt>
      <trkpt lat="44.56129" lon="0.26665">
        <ele>117.4</ele>
        <time>2015-10-05T11:12:11Z</time>
      </trkpt>
      <trkpt lat="44.5612" lon="0.26654">
        <ele>118.4</ele>
        <time>2015-10-05T11:12:14Z</time>
      </trkpt>
      <trkpt lat="44.56105" lon="0.26634">
        <ele>119.2</ele>
        <time>2015-10-05T11:12:19Z</time>
      </trkpt>
      <trkpt lat="44.56101" lon="0.26631">
        <ele>119.6</ele>
        <time>2015-10-05T11:12:20Z</time>
      </trkpt>
      <trkpt lat="44.5609" lon="0.26618">
        <ele>120.6</ele>
        <time>2015-10-05T11:12:24Z</time>
      </trkpt>
      <trkpt lat="44.56081" lon="0.26609">
        <ele>120.8</ele>
        <time>2015-10-05T11:12:27Z</time>
      </trkpt>
      <trkpt lat="44.56072" lon="0.26599">
        <ele>122</ele>
        <time>2015-10-05T11:12:30Z</time>
      </trkpt>
      <trkpt lat="44.5606" lon="0.26588">
        <ele>123.2</ele>
        <time>2015-10-05T11:12:34Z</time>
      </trkpt>
      <trkpt lat="44.56056" lon="0.26583">
        <ele>123.6</ele>
        <time>2015-10-05T11:12:36Z</time>
      </trkpt>
      <trkpt lat="44.5604" lon="0.26568">
        <ele>124.4</ele>
        <time>2015-10-05T11:12:43Z</time>
      </trkpt>
      <trkpt lat="44.56038" lon="0.26565">
        <ele>124.6</ele>
        <time>2015-10-05T11:12:44Z</time>
      </trkpt>
      <trkpt lat="44.56026" lon="0.26553">
        <ele>125.6</ele>
        <time>2015-10-05T11:12:50Z</time>
      </trkpt>
      <trkpt lat="44.56022" lon="0.2655">
        <ele>125.4</ele>
        <time>2015-10-05T11:12:52Z</time>
      </trkpt>
      <trkpt lat="44.56013" lon="0.2654">
        <ele>125.8</ele>
        <time>2015-10-05T11:12:59Z</time>
      </trkpt>
      <trkpt lat="44.56009" lon="0.26536">
        <ele>125.8</ele>
        <time>2015-10-05T11:14:54Z</time>
      </trkpt>
      <trkpt lat="44.55994" lon="0.2652">
        <ele>125.6</ele>
        <time>2015-10-05T11:15:01Z</time>
      </trkpt>
      <trkpt lat="44.55971" lon="0.26498">
        <ele>125</ele>
        <time>2015-10-05T11:15:08Z</time>
      </trkpt>
      <trkpt lat="44.55948" lon="0.26475">
        <ele>124.4</ele>
        <time>2015-10-05T11:15:14Z</time>
      </trkpt>
      <trkpt lat="44.5594" lon="0.26466">
        <ele>124.2</ele>
        <time>2015-10-05T11:15:16Z</time>
      </trkpt>
      <trkpt lat="44.55916" lon="0.26441">
        <ele>124</ele>
        <time>2015-10-05T11:15:22Z</time>
      </trkpt>
      <trkpt lat="44.55887" lon="0.26404">
        <ele>124</ele>
        <time>2015-10-05T11:15:30Z</time>
      </trkpt>
      <trkpt lat="44.55873" lon="0.26383">
        <ele>124.2</ele>
        <time>2015-10-05T11:15:34Z</time>
      </trkpt>
      <trkpt lat="44.55864" lon="0.26366">
        <ele>124.2</ele>
        <time>2015-10-05T11:15:37Z</time>
      </trkpt>
      <trkpt lat="44.55858" lon="0.26353">
        <ele>123.4</ele>
        <time>2015-10-05T11:15:39Z</time>
      </trkpt>
      <trkpt lat="44.55855" lon="0.26346">
        <ele>123.4</ele>
        <time>2015-10-05T11:15:40Z</time>
      </trkpt>
      <trkpt lat="44.5585" lon="0.26332">
        <ele>123.2</ele>
        <time>2015-10-05T11:15:42Z</time>
      </trkpt>
      <trkpt lat="44.55847" lon="0.26324">
        <ele>122.8</ele>
        <time>2015-10-05T11:15:43Z</time>
      </trkpt>
      <trkpt lat="44.55843" lon="0.26308">
        <ele>122.8</ele>
        <time>2015-10-05T11:15:45Z</time>
      </trkpt>
      <trkpt lat="44.55837" lon="0.26283">
        <ele>122.6</ele>
        <time>2015-10-05T11:15:48Z</time>
      </trkpt>
      <trkpt lat="44.55822" lon="0.26245">
        <ele>122.4</ele>
        <time>2015-10-05T11:15:53Z</time>
      </trkpt>
      <trkpt lat="44.55818" lon="0.26239">
        <ele>122.2</ele>
        <time>2015-10-05T11:15:54Z</time>
      </trkpt>
      <trkpt lat="44.55804" lon="0.26222">
        <ele>122</ele>
        <time>2015-10-05T11:15:57Z</time>
      </trkpt>
      <trkpt lat="44.55793" lon="0.26213">
        <ele>121.8</ele>
        <time>2015-10-05T11:15:59Z</time>
      </trkpt>
      <trkpt lat="44.55783" lon="0.26206">
        <ele>121.8</ele>
        <time>2015-10-05T11:16:01Z</time>
      </trkpt>
      <trkpt lat="44.55767" lon="0.26199">
        <ele>122</ele>
        <time>2015-10-05T11:16:04Z</time>
      </trkpt>
      <trkpt lat="44.55762" lon="0.26198">
        <ele>122.4</ele>
        <time>2015-10-05T11:16:05Z</time>
      </trkpt>
      <trkpt lat="44.55713" lon="0.26187">
        <ele>123.6</ele>
        <time>2015-10-05T11:16:15Z</time>
      </trkpt>
      <trkpt lat="44.55687" lon="0.26181">
        <ele>123.8</ele>
        <time>2015-10-05T11:16:21Z</time>
      </trkpt>
      <trkpt lat="44.55656" lon="0.26175">
        <ele>124</ele>
        <time>2015-10-05T11:16:29Z</time>
      </trkpt>
      <trkpt lat="44.55629" lon="0.26169">
        <ele>124.2</ele>
        <time>2015-10-05T11:16:36Z</time>
      </trkpt>
      <trkpt lat="44.55604" lon="0.26162">
        <ele>124.4</ele>
        <time>2015-10-05T11:16:43Z</time>
      </trkpt>
      <trkpt lat="44.55567" lon="0.26147">
        <ele>123</ele>
        <time>2015-10-05T11:16:51Z</time>
      </trkpt>
      <trkpt lat="44.55548" lon="0.26139">
        <ele>122.4</ele>
        <time>2015-10-05T11:16:55Z</time>
      </trkpt>
      <trkpt lat="44.55539" lon="0.26135">
        <ele>122.2</ele>
        <time>2015-10-05T11:16:57Z</time>
      </trkpt>
      <trkpt lat="44.55529" lon="0.2613">
        <ele>121.8</ele>
        <time>2015-10-05T11:16:59Z</time>
      </trkpt>
      <trkpt lat="44.55515" lon="0.26123">
        <ele>121.4</ele>
        <time>2015-10-05T11:17:02Z</time>
      </trkpt>
      <trkpt lat="44.55496" lon="0.26111">
        <ele>121.2</ele>
        <time>2015-10-05T11:17:06Z</time>
      </trkpt>
      <trkpt lat="44.55459" lon="0.26088">
        <ele>120.4</ele>
        <time>2015-10-05T11:17:13Z</time>
      </trkpt>
      <trkpt lat="44.55454" lon="0.26085">
        <ele>120.2</ele>
        <time>2015-10-05T11:17:14Z</time>
      </trkpt>
      <trkpt lat="44.55411" lon="0.26057">
        <ele>119.4</ele>
        <time>2015-10-05T11:17:22Z</time>
      </trkpt>
      <trkpt lat="44.55406" lon="0.26054">
        <ele>119.2</ele>
        <time>2015-10-05T11:17:23Z</time>
      </trkpt>
      <trkpt lat="44.55381" lon="0.26034">
        <ele>118.8</ele>
        <time>2015-10-05T11:17:28Z</time>
      </trkpt>
      <trkpt lat="44.55334" lon="0.25992">
        <ele>118.8</ele>
        <time>2015-10-05T11:17:38Z</time>
      </trkpt>
      <trkpt lat="44.55305" lon="0.25963">
        <ele>119.4</ele>
        <time>2015-10-05T11:17:45Z</time>
      </trkpt>
      <trkpt lat="44.55289" lon="0.25946">
        <ele>119.8</ele>
        <time>2015-10-05T11:17:51Z</time>
      </trkpt>
      <trkpt lat="44.55282" lon="0.25937">
        <ele>120.4</ele>
        <time>2015-10-05T11:17:54Z</time>
      </trkpt>
      <trkpt lat="44.55273" lon="0.25925">
        <ele>120.6</ele>
        <time>2015-10-05T11:17:58Z</time>
      </trkpt>
      <trkpt lat="44.55253" lon="0.25902">
        <ele>121</ele>
        <time>2015-10-05T11:18:06Z</time>
      </trkpt>
      <trkpt lat="44.55247" lon="0.25893">
        <ele>121.4</ele>
        <time>2015-10-05T11:18:09Z</time>
      </trkpt>
      <trkpt lat="44.55238" lon="0.25882">
        <ele>121.6</ele>
        <time>2015-10-05T11:18:13Z</time>
      </trkpt>
      <trkpt lat="44.55225" lon="0.25863">
        <ele>122.6</ele>
        <time>2015-10-05T11:18:19Z</time>
      </trkpt>
      <trkpt lat="44.55223" lon="0.2586">
        <ele>122.6</ele>
        <time>2015-10-05T11:18:20Z</time>
      </trkpt>
      <trkpt lat="44.55208" lon="0.25838">
        <ele>123.6</ele>
        <time>2015-10-05T11:18:27Z</time>
      </trkpt>
      <trkpt lat="44.552" lon="0.25825">
        <ele>124.2</ele>
        <time>2015-10-05T11:18:31Z</time>
      </trkpt>
      <trkpt lat="44.5519" lon="0.25809">
        <ele>124.8</ele>
        <time>2015-10-05T11:18:36Z</time>
      </trkpt>
      <trkpt lat="44.55184" lon="0.258">
        <ele>124.8</ele>
        <time>2015-10-05T11:18:39Z</time>
      </trkpt>
      <trkpt lat="44.55173" lon="0.25784">
        <ele>125.8</ele>
        <time>2015-10-05T11:18:45Z</time>
      </trkpt>
      <trkpt lat="44.5517" lon="0.25779">
        <ele>126</ele>
        <time>2015-10-05T11:18:47Z</time>
      </trkpt>
      <trkpt lat="44.55157" lon="0.25758">
        <ele>126.8</ele>
        <time>2015-10-05T11:18:54Z</time>
      </trkpt>
      <trkpt lat="44.55152" lon="0.25749">
        <ele>126.8</ele>
        <time>2015-10-05T11:18:57Z</time>
      </trkpt>
      <trkpt lat="44.55142" lon="0.25733">
        <ele>127.6</ele>
        <time>2015-10-05T11:19:03Z</time>
      </trkpt>
      <trkpt lat="44.55137" lon="0.25725">
        <ele>128</ele>
        <time>2015-10-05T11:19:06Z</time>
      </trkpt>
      <trkpt lat="44.55128" lon="0.25711">
        <ele>128.2</ele>
        <time>2015-10-05T11:19:11Z</time>
      </trkpt>
      <trkpt lat="44.55118" lon="0.25693">
        <ele>127.6</ele>
        <time>2015-10-05T11:19:16Z</time>
      </trkpt>
      <trkpt lat="44.55106" lon="0.25672">
        <ele>126.8</ele>
        <time>2015-10-05T11:19:20Z</time>
      </trkpt>
      <trkpt lat="44.551" lon="0.2566">
        <ele>126.4</ele>
        <time>2015-10-05T11:19:22Z</time>
      </trkpt>
      <trkpt lat="44.55089" lon="0.2564">
        <ele>125.8</ele>
        <time>2015-10-05T11:19:25Z</time>
      </trkpt>
      <trkpt lat="44.55074" lon="0.25612">
        <ele>125</ele>
        <time>2015-10-05T11:19:29Z</time>
      </trkpt>
      <trkpt lat="44.55064" lon="0.25591">
        <ele>124.8</ele>
        <time>2015-10-05T11:19:32Z</time>
      </trkpt>
      <trkpt lat="44.55048" lon="0.25559">
        <ele>123.6</ele>
        <time>2015-10-05T11:19:37Z</time>
      </trkpt>
      <trkpt lat="44.55045" lon="0.25553">
        <ele>123.6</ele>
        <time>2015-10-05T11:19:38Z</time>
      </trkpt>
      <trkpt lat="44.55015" lon="0.25497">
        <ele>123</ele>
        <time>2015-10-05T11:19:48Z</time>
      </trkpt>
      <trkpt lat="44.55003" lon="0.25475">
        <ele>122.6</ele>
        <time>2015-10-05T11:19:52Z</time>
      </trkpt>
      <trkpt lat="44.54988" lon="0.25446">
        <ele>121.6</ele>
        <time>2015-10-05T11:19:57Z</time>
      </trkpt>
      <trkpt lat="44.54961" lon="0.25397">
        <ele>121.6</ele>
        <time>2015-10-05T11:20:05Z</time>
      </trkpt>
      <trkpt lat="44.54936" lon="0.25348">
        <ele>121.6</ele>
        <time>2015-10-05T11:20:13Z</time>
      </trkpt>
      <trkpt lat="44.5493" lon="0.25337">
        <ele>121.4</ele>
        <time>2015-10-05T11:20:15Z</time>
      </trkpt>
      <trkpt lat="44.5491" lon="0.25299">
        <ele>122</ele>
        <time>2015-10-05T11:20:22Z</time>
      </trkpt>
      <trkpt lat="44.54889" lon="0.25262">
        <ele>122.6</ele>
        <time>2015-10-05T11:20:29Z</time>
      </trkpt>
      <trkpt lat="44.54877" lon="0.2524">
        <ele>123.6</ele>
        <time>2015-10-05T11:20:33Z</time>
      </trkpt>
      <trkpt lat="44.54862" lon="0.25213">
        <ele>124.8</ele>
        <time>2015-10-05T11:20:38Z</time>
      </trkpt>
      <trkpt lat="44.5485" lon="0.25195">
        <ele>126.2</ele>
        <time>2015-10-05T11:20:42Z</time>
      </trkpt>
      <trkpt lat="44.54837" lon="0.25178">
        <ele>127.2</ele>
        <time>2015-10-05T11:20:46Z</time>
      </trkpt>
      <trkpt lat="44.54834" lon="0.25174">
        <ele>127.6</ele>
        <time>2015-10-05T11:20:47Z</time>
      </trkpt>
      <trkpt lat="44.54824" lon="0.25162">
        <ele>128.4</ele>
        <time>2015-10-05T11:20:50Z</time>
      </trkpt>
      <trkpt lat="44.54815" lon="0.25152">
        <ele>129.4</ele>
        <time>2015-10-05T11:20:53Z</time>
      </trkpt>
      <trkpt lat="44.54812" lon="0.25149">
        <ele>129.8</ele>
        <time>2015-10-05T11:20:54Z</time>
      </trkpt>
      <trkpt lat="44.54798" lon="0.25134">
        <ele>130.8</ele>
        <time>2015-10-05T11:20:59Z</time>
      </trkpt>
      <trkpt lat="44.54795" lon="0.2513">
        <ele>131</ele>
        <time>2015-10-05T11:21:00Z</time>
      </trkpt>
      <trkpt lat="44.54784" lon="0.25115">
        <ele>132</ele>
        <time>2015-10-05T11:21:04Z</time>
      </trkpt>
      <trkpt lat="44.54776" lon="0.25102">
        <ele>132.8</ele>
        <time>2015-10-05T11:21:07Z</time>
      </trkpt>
      <trkpt lat="44.54773" lon="0.25098">
        <ele>133</ele>
        <time>2015-10-05T11:21:08Z</time>
      </trkpt>
      <trkpt lat="44.54765" lon="0.25079">
        <ele>134.6</ele>
        <time>2015-10-05T11:21:12Z</time>
      </trkpt>
      <trkpt lat="44.54763" lon="0.25075">
        <ele>134.8</ele>
        <time>2015-10-05T11:21:13Z</time>
      </trkpt>
      <trkpt lat="44.5476" lon="0.25061">
        <ele>135.8</ele>
        <time>2015-10-05T11:21:16Z</time>
      </trkpt>
      <trkpt lat="44.54758" lon="0.25051">
        <ele>136.4</ele>
        <time>2015-10-05T11:21:18Z</time>
      </trkpt>
      <trkpt lat="44.54757" lon="0.25042">
        <ele>137</ele>
        <time>2015-10-05T11:21:20Z</time>
      </trkpt>
      <trkpt lat="44.54755" lon="0.25021">
        <ele>138.2</ele>
        <time>2015-10-05T11:21:24Z</time>
      </trkpt>
      <trkpt lat="44.54754" lon="0.25001">
        <ele>139.6</ele>
        <time>2015-10-05T11:21:28Z</time>
      </trkpt>
      <trkpt lat="44.54752" lon="0.24985">
        <ele>140.8</ele>
        <time>2015-10-05T11:21:32Z</time>
      </trkpt>
      <trkpt lat="44.54751" lon="0.24977">
        <ele>141.6</ele>
        <time>2015-10-05T11:21:34Z</time>
      </trkpt>
      <trkpt lat="44.5475" lon="0.24973">
        <ele>141.8</ele>
        <time>2015-10-05T11:21:35Z</time>
      </trkpt>
      <trkpt lat="44.54746" lon="0.24956">
        <ele>143</ele>
        <time>2015-10-05T11:21:40Z</time>
      </trkpt>
      <trkpt lat="44.54745" lon="0.24953">
        <ele>143</ele>
        <time>2015-10-05T11:21:41Z</time>
      </trkpt>
      <trkpt lat="44.54738" lon="0.2494">
        <ele>143.4</ele>
        <time>2015-10-05T11:21:47Z</time>
      </trkpt>
      <trkpt lat="44.54738" lon="0.24938">
        <ele>143.2</ele>
        <time>2015-10-05T11:21:48Z</time>
      </trkpt>
      <trkpt lat="44.54738" lon="0.24936">
        <ele>143.2</ele>
        <time>2015-10-05T11:21:52Z</time>
      </trkpt>
      <trkpt lat="44.54734" lon="0.24932">
        <ele>143.2</ele>
        <time>2015-10-05T11:26:38Z</time>
      </trkpt>
      <trkpt lat="44.54726" lon="0.24927">
        <ele>143</ele>
        <time>2015-10-05T11:26:42Z</time>
      </trkpt>
      <trkpt lat="44.54712" lon="0.24908">
        <ele>142.4</ele>
        <time>2015-10-05T11:26:48Z</time>
      </trkpt>
      <trkpt lat="44.547" lon="0.24893">
        <ele>142</ele>
        <time>2015-10-05T11:26:52Z</time>
      </trkpt>
      <trkpt lat="44.54693" lon="0.24884">
        <ele>141.6</ele>
        <time>2015-10-05T11:26:54Z</time>
      </trkpt>
      <trkpt lat="44.54679" lon="0.24866">
        <ele>140.8</ele>
        <time>2015-10-05T11:26:58Z</time>
      </trkpt>
      <trkpt lat="44.54664" lon="0.24847">
        <ele>140.2</ele>
        <time>2015-10-05T11:27:02Z</time>
      </trkpt>
      <trkpt lat="44.54652" lon="0.24833">
        <ele>139.8</ele>
        <time>2015-10-05T11:27:05Z</time>
      </trkpt>
      <trkpt lat="44.54628" lon="0.24803">
        <ele>138.8</ele>
        <time>2015-10-05T11:27:11Z</time>
      </trkpt>
      <trkpt lat="44.54623" lon="0.24798">
        <ele>138.6</ele>
        <time>2015-10-05T11:27:12Z</time>
      </trkpt>
      <trkpt lat="44.54593" lon="0.24761">
        <ele>137.4</ele>
        <time>2015-10-05T11:27:19Z</time>
      </trkpt>
      <trkpt lat="44.54588" lon="0.24755">
        <ele>137.2</ele>
        <time>2015-10-05T11:27:20Z</time>
      </trkpt>
      <trkpt lat="44.54566" lon="0.24734">
        <ele>136.4</ele>
        <time>2015-10-05T11:27:24Z</time>
      </trkpt>
      <trkpt lat="44.54553" lon="0.24724">
        <ele>135.2</ele>
        <time>2015-10-05T11:27:26Z</time>
      </trkpt>
      <trkpt lat="44.54531" lon="0.24709">
        <ele>133.8</ele>
        <time>2015-10-05T11:27:29Z</time>
      </trkpt>
      <trkpt lat="44.54507" lon="0.24694">
        <ele>132.4</ele>
        <time>2015-10-05T11:27:32Z</time>
      </trkpt>
      <trkpt lat="44.5449" lon="0.24683">
        <ele>131.2</ele>
        <time>2015-10-05T11:27:34Z</time>
      </trkpt>
      <trkpt lat="44.54463" lon="0.2467">
        <ele>130</ele>
        <time>2015-10-05T11:27:37Z</time>
      </trkpt>
      <trkpt lat="44.54446" lon="0.24661">
        <ele>129.4</ele>
        <time>2015-10-05T11:27:39Z</time>
      </trkpt>
      <trkpt lat="44.5442" lon="0.24651">
        <ele>129</ele>
        <time>2015-10-05T11:27:42Z</time>
      </trkpt>
      <trkpt lat="44.54395" lon="0.24643">
        <ele>129</ele>
        <time>2015-10-05T11:27:45Z</time>
      </trkpt>
      <trkpt lat="44.54343" lon="0.24629">
        <ele>129.4</ele>
        <time>2015-10-05T11:27:52Z</time>
      </trkpt>
      <trkpt lat="44.54287" lon="0.24618">
        <ele>129.6</ele>
        <time>2015-10-05T11:28:00Z</time>
      </trkpt>
      <trkpt lat="44.54281" lon="0.24617">
        <ele>129.8</ele>
        <time>2015-10-05T11:28:01Z</time>
      </trkpt>
      <trkpt lat="44.5423" lon="0.24607">
        <ele>128.2</ele>
        <time>2015-10-05T11:28:09Z</time>
      </trkpt>
      <trkpt lat="44.54217" lon="0.24605">
        <ele>127.8</ele>
        <time>2015-10-05T11:28:11Z</time>
      </trkpt>
      <trkpt lat="44.5416" lon="0.24597">
        <ele>127.4</ele>
        <time>2015-10-05T11:28:20Z</time>
      </trkpt>
      <trkpt lat="44.54115" lon="0.24593">
        <ele>127.8</ele>
        <time>2015-10-05T11:28:28Z</time>
      </trkpt>
      <trkpt lat="44.54063" lon="0.24589">
        <ele>128.4</ele>
        <time>2015-10-05T11:28:38Z</time>
      </trkpt>
      <trkpt lat="44.54025" lon="0.24586">
        <ele>128.8</ele>
        <time>2015-10-05T11:28:46Z</time>
      </trkpt>
      <trkpt lat="44.54015" lon="0.24586">
        <ele>128.6</ele>
        <time>2015-10-05T11:28:48Z</time>
      </trkpt>
      <trkpt lat="44.53979" lon="0.24583">
        <ele>127.8</ele>
        <time>2015-10-05T11:28:55Z</time>
      </trkpt>
      <trkpt lat="44.53949" lon="0.24581">
        <ele>126.8</ele>
        <time>2015-10-05T11:29:00Z</time>
      </trkpt>
      <trkpt lat="44.53929" lon="0.2458">
        <ele>126</ele>
        <time>2015-10-05T11:29:03Z</time>
      </trkpt>
      <trkpt lat="44.53915" lon="0.24579">
        <ele>125.6</ele>
        <time>2015-10-05T11:29:05Z</time>
      </trkpt>
      <trkpt lat="44.53873" lon="0.24576">
        <ele>124.8</ele>
        <time>2015-10-05T11:29:11Z</time>
      </trkpt>
      <trkpt lat="44.53852" lon="0.24574">
        <ele>124.2</ele>
        <time>2015-10-05T11:29:14Z</time>
      </trkpt>
      <trkpt lat="44.53805" lon="0.24571">
        <ele>123.4</ele>
        <time>2015-10-05T11:29:21Z</time>
      </trkpt>
      <trkpt lat="44.53785" lon="0.2457">
        <ele>123.2</ele>
        <time>2015-10-05T11:29:24Z</time>
      </trkpt>
      <trkpt lat="44.53753" lon="0.24567">
        <ele>122.4</ele>
        <time>2015-10-05T11:29:29Z</time>
      </trkpt>
      <trkpt lat="44.5374" lon="0.24567">
        <ele>122.2</ele>
        <time>2015-10-05T11:29:31Z</time>
      </trkpt>
      <trkpt lat="44.5369" lon="0.24563">
        <ele>121.8</ele>
        <time>2015-10-05T11:29:39Z</time>
      </trkpt>
      <trkpt lat="44.53646" lon="0.24561">
        <ele>122</ele>
        <time>2015-10-05T11:29:47Z</time>
      </trkpt>
      <trkpt lat="44.53607" lon="0.24557">
        <ele>121.4</ele>
        <time>2015-10-05T11:29:55Z</time>
      </trkpt>
      <trkpt lat="44.53577" lon="0.24548">
        <ele>122.2</ele>
        <time>2015-10-05T11:30:01Z</time>
      </trkpt>
      <trkpt lat="44.53572" lon="0.24546">
        <ele>122.2</ele>
        <time>2015-10-05T11:30:02Z</time>
      </trkpt>
      <trkpt lat="44.53559" lon="0.24538">
        <ele>122.2</ele>
        <time>2015-10-05T11:30:05Z</time>
      </trkpt>
      <trkpt lat="44.53542" lon="0.24526">
        <ele>122.8</ele>
        <time>2015-10-05T11:30:09Z</time>
      </trkpt>
      <trkpt lat="44.53538" lon="0.24523">
        <ele>123.2</ele>
        <time>2015-10-05T11:30:10Z</time>
      </trkpt>
      <trkpt lat="44.53524" lon="0.24508">
        <ele>124.2</ele>
        <time>2015-10-05T11:30:14Z</time>
      </trkpt>
      <trkpt lat="44.53519" lon="0.24501">
        <ele>124.6</ele>
        <time>2015-10-05T11:30:16Z</time>
      </trkpt>
      <trkpt lat="44.53508" lon="0.24485">
        <ele>125.2</ele>
        <time>2015-10-05T11:30:20Z</time>
      </trkpt>
      <trkpt lat="44.53498" lon="0.24467">
        <ele>126</ele>
        <time>2015-10-05T11:30:24Z</time>
      </trkpt>
      <trkpt lat="44.53496" lon="0.24462">
        <ele>126.2</ele>
        <time>2015-10-05T11:30:25Z</time>
      </trkpt>
      <trkpt lat="44.53495" lon="0.24457">
        <ele>126.4</ele>
        <time>2015-10-05T11:30:26Z</time>
      </trkpt>
      <trkpt lat="44.53484" lon="0.24434">
        <ele>127.6</ele>
        <time>2015-10-05T11:30:31Z</time>
      </trkpt>
      <trkpt lat="44.53475" lon="0.2441">
        <ele>128.6</ele>
        <time>2015-10-05T11:30:36Z</time>
      </trkpt>
      <trkpt lat="44.53472" lon="0.244">
        <ele>129</ele>
        <time>2015-10-05T11:30:38Z</time>
      </trkpt>
      <trkpt lat="44.53465" lon="0.24375">
        <ele>129.6</ele>
        <time>2015-10-05T11:30:44Z</time>
      </trkpt>
      <trkpt lat="44.53464" lon="0.24371">
        <ele>129.6</ele>
        <time>2015-10-05T11:30:45Z</time>
      </trkpt>
      <trkpt lat="44.53458" lon="0.24345">
        <ele>130</ele>
        <time>2015-10-05T11:30:53Z</time>
      </trkpt>
      <trkpt lat="44.53458" lon="0.24341">
        <ele>130.2</ele>
        <time>2015-10-05T11:30:55Z</time>
      </trkpt>
      <trkpt lat="44.53458" lon="0.24342">
        <ele>130</ele>
        <time>2015-10-05T11:30:57Z</time>
      </trkpt>
      <trkpt lat="44.53456" lon="0.24339">
        <ele>130.8</ele>
        <time>2015-10-05T11:32:28Z</time>
      </trkpt>
      <trkpt lat="44.53453" lon="0.24333">
        <ele>131</ele>
        <time>2015-10-05T11:32:30Z</time>
      </trkpt>
      <trkpt lat="44.53448" lon="0.24309">
        <ele>131</ele>
        <time>2015-10-05T11:32:36Z</time>
      </trkpt>
      <trkpt lat="44.53442" lon="0.24287">
        <ele>131</ele>
        <time>2015-10-05T11:32:41Z</time>
      </trkpt>
      <trkpt lat="44.53433" lon="0.24252">
        <ele>130.4</ele>
        <time>2015-10-05T11:32:48Z</time>
      </trkpt>
      <trkpt lat="44.53425" lon="0.24221">
        <ele>129.8</ele>
        <time>2015-10-05T11:32:53Z</time>
      </trkpt>
      <trkpt lat="44.5342" lon="0.242">
        <ele>129.2</ele>
        <time>2015-10-05T11:32:56Z</time>
      </trkpt>
      <trkpt lat="44.53416" lon="0.24186">
        <ele>128.6</ele>
        <time>2015-10-05T11:32:58Z</time>
      </trkpt>
      <trkpt lat="44.53403" lon="0.24137">
        <ele>128</ele>
        <time>2015-10-05T11:33:05Z</time>
      </trkpt>
      <trkpt lat="44.53399" lon="0.24124">
        <ele>127.6</ele>
        <time>2015-10-05T11:33:07Z</time>
      </trkpt>
      <trkpt lat="44.53389" lon="0.24084">
        <ele>126.8</ele>
        <time>2015-10-05T11:33:13Z</time>
      </trkpt>
      <trkpt lat="44.53384" lon="0.24063">
        <ele>126.6</ele>
        <time>2015-10-05T11:33:16Z</time>
      </trkpt>
      <trkpt lat="44.53372" lon="0.2402">
        <ele>125.6</ele>
        <time>2015-10-05T11:33:22Z</time>
      </trkpt>
      <trkpt lat="44.53367" lon="0.23999">
        <ele>125.6</ele>
        <time>2015-10-05T11:33:25Z</time>
      </trkpt>
      <trkpt lat="44.53358" lon="0.23966">
        <ele>125.2</ele>
        <time>2015-10-05T11:33:30Z</time>
      </trkpt>
      <trkpt lat="44.5335" lon="0.23927">
        <ele>125.6</ele>
        <time>2015-10-05T11:33:36Z</time>
      </trkpt>
      <trkpt lat="44.53349" lon="0.23921">
        <ele>125.6</ele>
        <time>2015-10-05T11:33:37Z</time>
      </trkpt>
      <trkpt lat="44.53345" lon="0.23888">
        <ele>126</ele>
        <time>2015-10-05T11:33:43Z</time>
      </trkpt>
      <trkpt lat="44.5334" lon="0.23845">
        <ele>124.6</ele>
        <time>2015-10-05T11:33:50Z</time>
      </trkpt>
      <trkpt lat="44.53339" lon="0.23831">
        <ele>124.4</ele>
        <time>2015-10-05T11:33:52Z</time>
      </trkpt>
      <trkpt lat="44.53335" lon="0.23791">
        <ele>123.4</ele>
        <time>2015-10-05T11:33:57Z</time>
      </trkpt>
      <trkpt lat="44.53334" lon="0.23783">
        <ele>123.2</ele>
        <time>2015-10-05T11:33:58Z</time>
      </trkpt>
      <trkpt lat="44.5333" lon="0.2375">
        <ele>122.2</ele>
        <time>2015-10-05T11:34:02Z</time>
      </trkpt>
      <trkpt lat="44.53327" lon="0.23725">
        <ele>122</ele>
        <time>2015-10-05T11:34:05Z</time>
      </trkpt>
      <trkpt lat="44.5332" lon="0.23688">
        <ele>122</ele>
        <time>2015-10-05T11:34:10Z</time>
      </trkpt>
      <trkpt lat="44.53313" lon="0.23663">
        <ele>122.2</ele>
        <time>2015-10-05T11:34:14Z</time>
      </trkpt>
      <trkpt lat="44.53307" lon="0.23646">
        <ele>122.8</ele>
        <time>2015-10-05T11:34:17Z</time>
      </trkpt>
      <trkpt lat="44.53298" lon="0.23626">
        <ele>123</ele>
        <time>2015-10-05T11:34:21Z</time>
      </trkpt>
      <trkpt lat="44.53296" lon="0.23622">
        <ele>123.4</ele>
        <time>2015-10-05T11:34:22Z</time>
      </trkpt>
      <trkpt lat="44.53294" lon="0.23618">
        <ele>123.8</ele>
        <time>2015-10-05T11:34:23Z</time>
      </trkpt>
      <trkpt lat="44.53275" lon="0.23591">
        <ele>124.4</ele>
        <time>2015-10-05T11:34:30Z</time>
      </trkpt>
      <trkpt lat="44.53261" lon="0.23574">
        <ele>125.6</ele>
        <time>2015-10-05T11:34:35Z</time>
      </trkpt>
      <trkpt lat="44.53255" lon="0.23567">
        <ele>126</ele>
        <time>2015-10-05T11:34:37Z</time>
      </trkpt>
      <trkpt lat="44.5325" lon="0.23561">
        <ele>126.6</ele>
        <time>2015-10-05T11:34:39Z</time>
      </trkpt>
      <trkpt lat="44.53232" lon="0.23543">
        <ele>127</ele>
        <time>2015-10-05T11:34:45Z</time>
      </trkpt>
      <trkpt lat="44.53225" lon="0.23534">
        <ele>127.6</ele>
        <time>2015-10-05T11:34:48Z</time>
      </trkpt>
      <trkpt lat="44.53215" lon="0.23523">
        <ele>128</ele>
        <time>2015-10-05T11:34:52Z</time>
      </trkpt>
      <trkpt lat="44.53202" lon="0.23509">
        <ele>128.8</ele>
        <time>2015-10-05T11:34:57Z</time>
      </trkpt>
      <trkpt lat="44.53198" lon="0.23504">
        <ele>128.8</ele>
        <time>2015-10-05T11:34:59Z</time>
      </trkpt>
      <trkpt lat="44.53182" lon="0.23483">
        <ele>129.8</ele>
        <time>2015-10-05T11:35:06Z</time>
      </trkpt>
      <trkpt lat="44.53166" lon="0.23457">
        <ele>130.8</ele>
        <time>2015-10-05T11:35:14Z</time>
      </trkpt>
      <trkpt lat="44.53164" lon="0.23454">
        <ele>130.8</ele>
        <time>2015-10-05T11:35:15Z</time>
      </trkpt>
      <trkpt lat="44.5315" lon="0.23428">
        <ele>130.4</ele>
        <time>2015-10-05T11:35:22Z</time>
      </trkpt>
      <trkpt lat="44.5314" lon="0.23408">
        <ele>131</ele>
        <time>2015-10-05T11:35:27Z</time>
      </trkpt>
      <trkpt lat="44.53121" lon="0.23372">
        <ele>130</ele>
        <time>2015-10-05T11:35:34Z</time>
      </trkpt>
      <trkpt lat="44.53118" lon="0.23366">
        <ele>129.8</ele>
        <time>2015-10-05T11:35:35Z</time>
      </trkpt>
      <trkpt lat="44.53115" lon="0.2336">
        <ele>129.2</ele>
        <time>2015-10-05T11:35:36Z</time>
      </trkpt>
      <trkpt lat="44.53108" lon="0.23346">
        <ele>128.6</ele>
        <time>2015-10-05T11:35:38Z</time>
      </trkpt>
      <trkpt lat="44.53098" lon="0.23326">
        <ele>128</ele>
        <time>2015-10-05T11:35:41Z</time>
      </trkpt>
      <trkpt lat="44.5309" lon="0.23312">
        <ele>127.4</ele>
        <time>2015-10-05T11:35:43Z</time>
      </trkpt>
      <trkpt lat="44.53065" lon="0.23264">
        <ele>126.6</ele>
        <time>2015-10-05T11:35:50Z</time>
      </trkpt>
      <trkpt lat="44.53051" lon="0.23236">
        <ele>126.2</ele>
        <time>2015-10-05T11:35:54Z</time>
      </trkpt>
      <trkpt lat="44.53037" lon="0.23209">
        <ele>126</ele>
        <time>2015-10-05T11:35:58Z</time>
      </trkpt>
      <trkpt lat="44.5301" lon="0.23155">
        <ele>125.4</ele>
        <time>2015-10-05T11:36:06Z</time>
      </trkpt>
      <trkpt lat="44.52979" lon="0.23097">
        <ele>125.6</ele>
        <time>2015-10-05T11:36:15Z</time>
      </trkpt>
      <trkpt lat="44.52953" lon="0.23047">
        <ele>125.6</ele>
        <time>2015-10-05T11:36:23Z</time>
      </trkpt>
      <trkpt lat="44.52945" lon="0.23035">
        <ele>125.2</ele>
        <time>2015-10-05T11:36:25Z</time>
      </trkpt>
      <trkpt lat="44.52922" lon="0.23004">
        <ele>124.6</ele>
        <time>2015-10-05T11:36:30Z</time>
      </trkpt>
      <trkpt lat="44.52895" lon="0.22976">
        <ele>124</ele>
        <time>2015-10-05T11:36:35Z</time>
      </trkpt>
      <trkpt lat="44.52883" lon="0.22967">
        <ele>123.6</ele>
        <time>2015-10-05T11:36:37Z</time>
      </trkpt>
      <trkpt lat="44.52865" lon="0.22953">
        <ele>123</ele>
        <time>2015-10-05T11:36:40Z</time>
      </trkpt>
      <trkpt lat="44.52848" lon="0.22942">
        <ele>122.8</ele>
        <time>2015-10-05T11:36:43Z</time>
      </trkpt>
      <trkpt lat="44.52816" lon="0.22927">
        <ele>123.2</ele>
        <time>2015-10-05T11:36:49Z</time>
      </trkpt>
      <trkpt lat="44.5281" lon="0.22925">
        <ele>123.6</ele>
        <time>2015-10-05T11:36:50Z</time>
      </trkpt>
      <trkpt lat="44.528" lon="0.22922">
        <ele>124</ele>
        <time>2015-10-05T11:36:52Z</time>
      </trkpt>
      <trkpt lat="44.52789" lon="0.2292">
        <ele>124.4</ele>
        <time>2015-10-05T11:36:54Z</time>
      </trkpt>
      <trkpt lat="44.52768" lon="0.2292">
        <ele>125.2</ele>
        <time>2015-10-05T11:36:59Z</time>
      </trkpt>
      <trkpt lat="44.52739" lon="0.22923">
        <ele>125.2</ele>
        <time>2015-10-05T11:37:06Z</time>
      </trkpt>
      <trkpt lat="44.527" lon="0.22928">
        <ele>125.2</ele>
        <time>2015-10-05T11:37:15Z</time>
      </trkpt>
      <trkpt lat="44.52668" lon="0.22932">
        <ele>125.4</ele>
        <time>2015-10-05T11:37:22Z</time>
      </trkpt>
      <trkpt lat="44.52664" lon="0.22933">
        <ele>125.4</ele>
        <time>2015-10-05T11:37:23Z</time>
      </trkpt>
      <trkpt lat="44.52637" lon="0.22936">
        <ele>125.4</ele>
        <time>2015-10-05T11:37:29Z</time>
      </trkpt>
      <trkpt lat="44.52593" lon="0.22939">
        <ele>125.6</ele>
        <time>2015-10-05T11:37:39Z</time>
      </trkpt>
      <trkpt lat="44.5258" lon="0.22939">
        <ele>126.2</ele>
        <time>2015-10-05T11:37:42Z</time>
      </trkpt>
      <trkpt lat="44.52566" lon="0.22937">
        <ele>126.8</ele>
        <time>2015-10-05T11:37:46Z</time>
      </trkpt>
      <trkpt lat="44.52547" lon="0.22932">
        <ele>127.4</ele>
        <time>2015-10-05T11:37:51Z</time>
      </trkpt>
      <trkpt lat="44.52539" lon="0.22929">
        <ele>127.6</ele>
        <time>2015-10-05T11:37:53Z</time>
      </trkpt>
      <trkpt lat="44.52514" lon="0.22918">
        <ele>128.6</ele>
        <time>2015-10-05T11:38:00Z</time>
      </trkpt>
      <trkpt lat="44.52494" lon="0.22906">
        <ele>129.8</ele>
        <time>2015-10-05T11:38:06Z</time>
      </trkpt>
      <trkpt lat="44.52487" lon="0.22901">
        <ele>129.8</ele>
        <time>2015-10-05T11:38:08Z</time>
      </trkpt>
      <trkpt lat="44.52469" lon="0.22886">
        <ele>130.8</ele>
        <time>2015-10-05T11:38:14Z</time>
      </trkpt>
      <trkpt lat="44.52466" lon="0.22883">
        <ele>130.6</ele>
        <time>2015-10-05T11:38:15Z</time>
      </trkpt>
      <trkpt lat="44.52449" lon="0.22866">
        <ele>130.6</ele>
        <time>2015-10-05T11:38:21Z</time>
      </trkpt>
      <trkpt lat="44.5242" lon="0.22838">
        <ele>130.6</ele>
        <time>2015-10-05T11:38:30Z</time>
      </trkpt>
      <trkpt lat="44.52395" lon="0.22811">
        <ele>129.8</ele>
        <time>2015-10-05T11:38:37Z</time>
      </trkpt>
      <trkpt lat="44.52391" lon="0.22806">
        <ele>129.8</ele>
        <time>2015-10-05T11:38:38Z</time>
      </trkpt>
      <trkpt lat="44.52377" lon="0.22779">
        <ele>128.6</ele>
        <time>2015-10-05T11:38:42Z</time>
      </trkpt>
      <trkpt lat="44.5237" lon="0.22763">
        <ele>127.4</ele>
        <time>2015-10-05T11:38:44Z</time>
      </trkpt>
      <trkpt lat="44.52357" lon="0.22727">
        <ele>126.4</ele>
        <time>2015-10-05T11:38:48Z</time>
      </trkpt>
      <trkpt lat="44.52354" lon="0.22718">
        <ele>126.2</ele>
        <time>2015-10-05T11:38:49Z</time>
      </trkpt>
      <trkpt lat="44.52343" lon="0.22691">
        <ele>125.4</ele>
        <time>2015-10-05T11:38:52Z</time>
      </trkpt>
      <trkpt lat="44.52332" lon="0.22665">
        <ele>124.4</ele>
        <time>2015-10-05T11:38:55Z</time>
      </trkpt>
      <trkpt lat="44.52327" lon="0.22656">
        <ele>123.6</ele>
        <time>2015-10-05T11:38:56Z</time>
      </trkpt>
      <trkpt lat="44.52317" lon="0.2264">
        <ele>123</ele>
        <time>2015-10-05T11:38:58Z</time>
      </trkpt>
      <trkpt lat="44.52306" lon="0.22624">
        <ele>121.8</ele>
        <time>2015-10-05T11:39:00Z</time>
      </trkpt>
      <trkpt lat="44.52295" lon="0.22609">
        <ele>121.2</ele>
        <time>2015-10-05T11:39:02Z</time>
      </trkpt>
      <trkpt lat="44.52289" lon="0.22601">
        <ele>120.8</ele>
        <time>2015-10-05T11:39:03Z</time>
      </trkpt>
      <trkpt lat="44.52266" lon="0.22571">
        <ele>119.4</ele>
        <time>2015-10-05T11:39:07Z</time>
      </trkpt>
      <trkpt lat="44.52253" lon="0.22559">
        <ele>118.4</ele>
        <time>2015-10-05T11:39:09Z</time>
      </trkpt>
      <trkpt lat="44.52222" lon="0.22541">
        <ele>117</ele>
        <time>2015-10-05T11:39:13Z</time>
      </trkpt>
      <trkpt lat="44.52213" lon="0.22538">
        <ele>116</ele>
        <time>2015-10-05T11:39:14Z</time>
      </trkpt>
      <trkpt lat="44.52195" lon="0.22534">
        <ele>114.8</ele>
        <time>2015-10-05T11:39:16Z</time>
      </trkpt>
      <trkpt lat="44.52185" lon="0.22533">
        <ele>114.6</ele>
        <time>2015-10-05T11:39:17Z</time>
      </trkpt>
      <trkpt lat="44.52166" lon="0.22533">
        <ele>113.6</ele>
        <time>2015-10-05T11:39:19Z</time>
      </trkpt>
      <trkpt lat="44.52137" lon="0.22534">
        <ele>112.2</ele>
        <time>2015-10-05T11:39:22Z</time>
      </trkpt>
      <trkpt lat="44.52127" lon="0.22534">
        <ele>111.6</ele>
        <time>2015-10-05T11:39:23Z</time>
      </trkpt>
      <trkpt lat="44.52108" lon="0.22531">
        <ele>110.8</ele>
        <time>2015-10-05T11:39:25Z</time>
      </trkpt>
      <trkpt lat="44.52089" lon="0.22522">
        <ele>109</ele>
        <time>2015-10-05T11:39:27Z</time>
      </trkpt>
      <trkpt lat="44.52071" lon="0.22508">
        <ele>107.8</ele>
        <time>2015-10-05T11:39:29Z</time>
      </trkpt>
      <trkpt lat="44.52055" lon="0.2249">
        <ele>106</ele>
        <time>2015-10-05T11:39:31Z</time>
      </trkpt>
      <trkpt lat="44.52047" lon="0.2248">
        <ele>105.4</ele>
        <time>2015-10-05T11:39:32Z</time>
      </trkpt>
      <trkpt lat="44.52039" lon="0.2247">
        <ele>105</ele>
        <time>2015-10-05T11:39:33Z</time>
      </trkpt>
      <trkpt lat="44.52025" lon="0.2245">
        <ele>103.4</ele>
        <time>2015-10-05T11:39:35Z</time>
      </trkpt>
      <trkpt lat="44.52017" lon="0.2244">
        <ele>102.2</ele>
        <time>2015-10-05T11:39:36Z</time>
      </trkpt>
      <trkpt lat="44.52009" lon="0.2243">
        <ele>101.8</ele>
        <time>2015-10-05T11:39:37Z</time>
      </trkpt>
      <trkpt lat="44.52001" lon="0.22419">
        <ele>100.8</ele>
        <time>2015-10-05T11:39:38Z</time>
      </trkpt>
      <trkpt lat="44.51985" lon="0.22399">
        <ele>99.6</ele>
        <time>2015-10-05T11:39:40Z</time>
      </trkpt>
      <trkpt lat="44.51971" lon="0.2238">
        <ele>97.8</ele>
        <time>2015-10-05T11:39:42Z</time>
      </trkpt>
      <trkpt lat="44.51964" lon="0.22371">
        <ele>96.6</ele>
        <time>2015-10-05T11:39:43Z</time>
      </trkpt>
      <trkpt lat="44.51957" lon="0.22361">
        <ele>95.6</ele>
        <time>2015-10-05T11:39:44Z</time>
      </trkpt>
      <trkpt lat="44.51944" lon="0.22339">
        <ele>94.2</ele>
        <time>2015-10-05T11:39:46Z</time>
      </trkpt>
      <trkpt lat="44.51933" lon="0.22313">
        <ele>92.6</ele>
        <time>2015-10-05T11:39:48Z</time>
      </trkpt>
      <trkpt lat="44.51924" lon="0.22285">
        <ele>91.2</ele>
        <time>2015-10-05T11:39:50Z</time>
      </trkpt>
      <trkpt lat="44.51921" lon="0.2227">
        <ele>90.2</ele>
        <time>2015-10-05T11:39:51Z</time>
      </trkpt>
      <trkpt lat="44.51918" lon="0.22255">
        <ele>89.6</ele>
        <time>2015-10-05T11:39:52Z</time>
      </trkpt>
      <trkpt lat="44.51913" lon="0.22224">
        <ele>88.2</ele>
        <time>2015-10-05T11:39:54Z</time>
      </trkpt>
      <trkpt lat="44.51908" lon="0.22191">
        <ele>86.2</ele>
        <time>2015-10-05T11:39:56Z</time>
      </trkpt>
      <trkpt lat="44.51904" lon="0.22159">
        <ele>84.2</ele>
        <time>2015-10-05T11:39:58Z</time>
      </trkpt>
      <trkpt lat="44.51901" lon="0.22142">
        <ele>83.2</ele>
        <time>2015-10-05T11:39:59Z</time>
      </trkpt>
      <trkpt lat="44.51896" lon="0.22109">
        <ele>82</ele>
        <time>2015-10-05T11:40:01Z</time>
      </trkpt>
      <trkpt lat="44.51893" lon="0.22092">
        <ele>80.6</ele>
        <time>2015-10-05T11:40:02Z</time>
      </trkpt>
      <trkpt lat="44.51888" lon="0.22058">
        <ele>79.4</ele>
        <time>2015-10-05T11:40:04Z</time>
      </trkpt>
      <trkpt lat="44.51885" lon="0.22041">
        <ele>78.8</ele>
        <time>2015-10-05T11:40:05Z</time>
      </trkpt>
      <trkpt lat="44.51882" lon="0.22025">
        <ele>77.6</ele>
        <time>2015-10-05T11:40:06Z</time>
      </trkpt>
      <trkpt lat="44.51872" lon="0.21975">
        <ele>76.6</ele>
        <time>2015-10-05T11:40:09Z</time>
      </trkpt>
      <trkpt lat="44.51861" lon="0.21927">
        <ele>75.4</ele>
        <time>2015-10-05T11:40:12Z</time>
      </trkpt>
      <trkpt lat="44.51851" lon="0.21898">
        <ele>74.4</ele>
        <time>2015-10-05T11:40:14Z</time>
      </trkpt>
      <trkpt lat="44.51842" lon="0.2187">
        <ele>73.2</ele>
        <time>2015-10-05T11:40:16Z</time>
      </trkpt>
      <trkpt lat="44.51837" lon="0.21856">
        <ele>73</ele>
        <time>2015-10-05T11:40:17Z</time>
      </trkpt>
      <trkpt lat="44.51828" lon="0.2183">
        <ele>72.2</ele>
        <time>2015-10-05T11:40:19Z</time>
      </trkpt>
      <trkpt lat="44.51811" lon="0.21783">
        <ele>72.6</ele>
        <time>2015-10-05T11:40:23Z</time>
      </trkpt>
      <trkpt lat="44.51793" lon="0.21732">
        <ele>71.6</ele>
        <time>2015-10-05T11:40:28Z</time>
      </trkpt>
      <trkpt lat="44.51771" lon="0.21689">
        <ele>71</ele>
        <time>2015-10-05T11:40:33Z</time>
      </trkpt>
      <trkpt lat="44.51761" lon="0.21672">
        <ele>70.2</ele>
        <time>2015-10-05T11:40:35Z</time>
      </trkpt>
      <trkpt lat="44.51751" lon="0.21655">
        <ele>69.6</ele>
        <time>2015-10-05T11:40:37Z</time>
      </trkpt>
      <trkpt lat="44.51731" lon="0.21621">
        <ele>68.6</ele>
        <time>2015-10-05T11:40:41Z</time>
      </trkpt>
      <trkpt lat="44.51716" lon="0.21597">
        <ele>67.8</ele>
        <time>2015-10-05T11:40:44Z</time>
      </trkpt>
      <trkpt lat="44.51711" lon="0.21589">
        <ele>67.2</ele>
        <time>2015-10-05T11:40:45Z</time>
      </trkpt>
      <trkpt lat="44.51678" lon="0.21534">
        <ele>66</ele>
        <time>2015-10-05T11:40:52Z</time>
      </trkpt>
      <trkpt lat="44.51674" lon="0.21526">
        <ele>66.2</ele>
        <time>2015-10-05T11:40:53Z</time>
      </trkpt>
      <trkpt lat="44.51638" lon="0.21468">
        <ele>65.2</ele>
        <time>2015-10-05T11:41:01Z</time>
      </trkpt>
      <trkpt lat="44.51634" lon="0.21461">
        <ele>65</ele>
        <time>2015-10-05T11:41:02Z</time>
      </trkpt>
      <trkpt lat="44.516" lon="0.21403">
        <ele>64</ele>
        <time>2015-10-05T11:41:10Z</time>
      </trkpt>
      <trkpt lat="44.51591" lon="0.21387">
        <ele>63.6</ele>
        <time>2015-10-05T11:41:12Z</time>
      </trkpt>
      <trkpt lat="44.51567" lon="0.21331">
        <ele>63.2</ele>
        <time>2015-10-05T11:41:19Z</time>
      </trkpt>
      <trkpt lat="44.51554" lon="0.21291">
        <ele>63</ele>
        <time>2015-10-05T11:41:24Z</time>
      </trkpt>
      <trkpt lat="44.51547" lon="0.21268">
        <ele>62.8</ele>
        <time>2015-10-05T11:41:27Z</time>
      </trkpt>
      <trkpt lat="44.51524" lon="0.21199">
        <ele>62.6</ele>
        <time>2015-10-05T11:41:36Z</time>
      </trkpt>
      <trkpt lat="44.51519" lon="0.21184">
        <ele>62.6</ele>
        <time>2015-10-05T11:41:38Z</time>
      </trkpt>
      <trkpt lat="44.51497" lon="0.21115">
        <ele>62.4</ele>
        <time>2015-10-05T11:41:47Z</time>
      </trkpt>
      <trkpt lat="44.51492" lon="0.21099">
        <ele>62.2</ele>
        <time>2015-10-05T11:41:49Z</time>
      </trkpt>
      <trkpt lat="44.51477" lon="0.21054">
        <ele>61.8</ele>
        <time>2015-10-05T11:41:55Z</time>
      </trkpt>
      <trkpt lat="44.51467" lon="0.21023">
        <ele>61.2</ele>
        <time>2015-10-05T11:41:59Z</time>
      </trkpt>
      <trkpt lat="44.51454" lon="0.20985">
        <ele>60.6</ele>
        <time>2015-10-05T11:42:04Z</time>
      </trkpt>
      <trkpt lat="44.51442" lon="0.20947">
        <ele>60.2</ele>
        <time>2015-10-05T11:42:09Z</time>
      </trkpt>
      <trkpt lat="44.51419" lon="0.20881">
        <ele>60</ele>
        <time>2015-10-05T11:42:18Z</time>
      </trkpt>
      <trkpt lat="44.5141" lon="0.20851">
        <ele>59.6</ele>
        <time>2015-10-05T11:42:22Z</time>
      </trkpt>
      <trkpt lat="44.51395" lon="0.20806">
        <ele>59.4</ele>
        <time>2015-10-05T11:42:28Z</time>
      </trkpt>
      <trkpt lat="44.51372" lon="0.20738">
        <ele>58.8</ele>
        <time>2015-10-05T11:42:37Z</time>
      </trkpt>
      <trkpt lat="44.51364" lon="0.20715">
        <ele>58.4</ele>
        <time>2015-10-05T11:42:40Z</time>
      </trkpt>
      <trkpt lat="44.51346" lon="0.20658">
        <ele>57.8</ele>
        <time>2015-10-05T11:42:47Z</time>
      </trkpt>
      <trkpt lat="44.51334" lon="0.20625">
        <ele>57.2</ele>
        <time>2015-10-05T11:42:51Z</time>
      </trkpt>
      <trkpt lat="44.51315" lon="0.20566">
        <ele>56.6</ele>
        <time>2015-10-05T11:42:58Z</time>
      </trkpt>
      <trkpt lat="44.51304" lon="0.20534">
        <ele>56.2</ele>
        <time>2015-10-05T11:43:02Z</time>
      </trkpt>
      <trkpt lat="44.51286" lon="0.20478">
        <ele>55.2</ele>
        <time>2015-10-05T11:43:09Z</time>
      </trkpt>
      <trkpt lat="44.51283" lon="0.20469">
        <ele>55.2</ele>
        <time>2015-10-05T11:43:10Z</time>
      </trkpt>
      <trkpt lat="44.51262" lon="0.20407">
        <ele>54.8</ele>
        <time>2015-10-05T11:43:18Z</time>
      </trkpt>
      <trkpt lat="44.5126" lon="0.20399">
        <ele>54.8</ele>
        <time>2015-10-05T11:43:19Z</time>
      </trkpt>
      <trkpt lat="44.51242" lon="0.20346">
        <ele>54</ele>
        <time>2015-10-05T11:43:26Z</time>
      </trkpt>
      <trkpt lat="44.51235" lon="0.20323">
        <ele>54</ele>
        <time>2015-10-05T11:43:29Z</time>
      </trkpt>
      <trkpt lat="44.5121" lon="0.20248">
        <ele>53.8</ele>
        <time>2015-10-05T11:43:39Z</time>
      </trkpt>
      <trkpt lat="44.51205" lon="0.20233">
        <ele>53.2</ele>
        <time>2015-10-05T11:43:41Z</time>
      </trkpt>
      <trkpt lat="44.5118" lon="0.20159">
        <ele>53.4</ele>
        <time>2015-10-05T11:43:51Z</time>
      </trkpt>
      <trkpt lat="44.51161" lon="0.20099">
        <ele>53</ele>
        <time>2015-10-05T11:43:59Z</time>
      </trkpt>
      <trkpt lat="44.51153" lon="0.20077">
        <ele>53.2</ele>
        <time>2015-10-05T11:44:02Z</time>
      </trkpt>
      <trkpt lat="44.51135" lon="0.20019">
        <ele>53</ele>
        <time>2015-10-05T11:44:10Z</time>
      </trkpt>
      <trkpt lat="44.51111" lon="0.19949">
        <ele>53</ele>
        <time>2015-10-05T11:44:20Z</time>
      </trkpt>
      <trkpt lat="44.51106" lon="0.19935">
        <ele>53</ele>
        <time>2015-10-05T11:44:22Z</time>
      </trkpt>
      <trkpt lat="44.51086" lon="0.19873">
        <ele>52.6</ele>
        <time>2015-10-05T11:44:31Z</time>
      </trkpt>
      <trkpt lat="44.51066" lon="0.19811">
        <ele>52.6</ele>
        <time>2015-10-05T11:44:40Z</time>
      </trkpt>
      <trkpt lat="44.51043" lon="0.19743">
        <ele>51.8</ele>
        <time>2015-10-05T11:44:50Z</time>
      </trkpt>
      <trkpt lat="44.51018" lon="0.19669">
        <ele>51.4</ele>
        <time>2015-10-05T11:45:01Z</time>
      </trkpt>
      <trkpt lat="44.51016" lon="0.19662">
        <ele>51.2</ele>
        <time>2015-10-05T11:45:02Z</time>
      </trkpt>
      <trkpt lat="44.50993" lon="0.19592">
        <ele>51</ele>
        <time>2015-10-05T11:45:12Z</time>
      </trkpt>
      <trkpt lat="44.50991" lon="0.19585">
        <ele>51.2</ele>
        <time>2015-10-05T11:45:13Z</time>
      </trkpt>
      <trkpt lat="44.50982" lon="0.19557">
        <ele>50.8</ele>
        <time>2015-10-05T11:45:17Z</time>
      </trkpt>
      <trkpt lat="44.50965" lon="0.19506">
        <ele>50.6</ele>
        <time>2015-10-05T11:45:24Z</time>
      </trkpt>
      <trkpt lat="44.50947" lon="0.19457">
        <ele>50</ele>
        <time>2015-10-05T11:45:31Z</time>
      </trkpt>
      <trkpt lat="44.50944" lon="0.19451">
        <ele>50</ele>
        <time>2015-10-05T11:45:32Z</time>
      </trkpt>
      <trkpt lat="44.5094" lon="0.19446">
        <ele>50.2</ele>
        <time>2015-10-05T11:45:33Z</time>
      </trkpt>
      <trkpt lat="44.50925" lon="0.19431">
        <ele>50.2</ele>
        <time>2015-10-05T11:45:37Z</time>
      </trkpt>
      <trkpt lat="44.50922" lon="0.19429">
        <ele>50.2</ele>
        <time>2015-10-05T11:45:38Z</time>
      </trkpt>
      <trkpt lat="44.50911" lon="0.19416">
        <ele>50.2</ele>
        <time>2015-10-05T11:45:42Z</time>
      </trkpt>
      <trkpt lat="44.509" lon="0.19397">
        <ele>50.4</ele>
        <time>2015-10-05T11:45:46Z</time>
      </trkpt>
      <trkpt lat="44.50883" lon="0.1939">
        <ele>50.4</ele>
        <time>2015-10-05T11:45:50Z</time>
      </trkpt>
      <trkpt lat="44.50865" lon="0.19383">
        <ele>50.2</ele>
        <time>2015-10-05T11:45:54Z</time>
      </trkpt>
      <trkpt lat="44.50853" lon="0.19359">
        <ele>50</ele>
        <time>2015-10-05T11:45:58Z</time>
      </trkpt>
      <trkpt lat="44.50851" lon="0.19353">
        <ele>49.8</ele>
        <time>2015-10-05T11:45:59Z</time>
      </trkpt>
      <trkpt lat="44.50849" lon="0.19346">
        <ele>49.6</ele>
        <time>2015-10-05T11:46:00Z</time>
      </trkpt>
      <trkpt lat="44.50848" lon="0.19332">
        <ele>49.6</ele>
        <time>2015-10-05T11:46:02Z</time>
      </trkpt>
      <trkpt lat="44.50847" lon="0.19325">
        <ele>49.4</ele>
        <time>2015-10-05T11:46:03Z</time>
      </trkpt>
      <trkpt lat="44.50849" lon="0.1927">
        <ele>49</ele>
        <time>2015-10-05T11:46:11Z</time>
      </trkpt>
      <trkpt lat="44.50853" lon="0.19209">
        <ele>48.8</ele>
        <time>2015-10-05T11:46:20Z</time>
      </trkpt>
      <trkpt lat="44.50853" lon="0.19203">
        <ele>48.6</ele>
        <time>2015-10-05T11:46:21Z</time>
      </trkpt>
      <trkpt lat="44.50851" lon="0.19166">
        <ele>48.4</ele>
        <time>2015-10-05T11:46:27Z</time>
      </trkpt>
      <trkpt lat="44.5085" lon="0.1916">
        <ele>48.6</ele>
        <time>2015-10-05T11:46:28Z</time>
      </trkpt>
      <trkpt lat="44.50843" lon="0.1913">
        <ele>48</ele>
        <time>2015-10-05T11:46:33Z</time>
      </trkpt>
      <trkpt lat="44.50837" lon="0.19109">
        <ele>47.8</ele>
        <time>2015-10-05T11:46:37Z</time>
      </trkpt>
      <trkpt lat="44.50835" lon="0.19098">
        <ele>47.6</ele>
        <time>2015-10-05T11:46:39Z</time>
      </trkpt>
      <trkpt lat="44.50834" lon="0.19093">
        <ele>47.4</ele>
        <time>2015-10-05T11:46:40Z</time>
      </trkpt>
      <trkpt lat="44.50832" lon="0.19076">
        <ele>47.4</ele>
        <time>2015-10-05T11:46:44Z</time>
      </trkpt>
      <trkpt lat="44.50825" lon="0.19061">
        <ele>47.6</ele>
        <time>2015-10-05T11:46:48Z</time>
      </trkpt>
      <trkpt lat="44.50819" lon="0.1905">
        <ele>47.2</ele>
        <time>2015-10-05T11:46:51Z</time>
      </trkpt>
      <trkpt lat="44.50812" lon="0.1903">
        <ele>47.2</ele>
        <time>2015-10-05T11:46:56Z</time>
      </trkpt>
      <trkpt lat="44.50805" lon="0.19009">
        <ele>47.2</ele>
        <time>2015-10-05T11:47:01Z</time>
      </trkpt>
      <trkpt lat="44.50794" lon="0.18981">
        <ele>47.2</ele>
        <time>2015-10-05T11:47:07Z</time>
      </trkpt>
      <trkpt lat="44.50781" lon="0.18945">
        <ele>46.8</ele>
        <time>2015-10-05T11:47:13Z</time>
      </trkpt>
      <trkpt lat="44.50762" lon="0.1889">
        <ele>46.4</ele>
        <time>2015-10-05T11:47:22Z</time>
      </trkpt>
      <trkpt lat="44.5076" lon="0.18883">
        <ele>46.6</ele>
        <time>2015-10-05T11:47:23Z</time>
      </trkpt>
      <trkpt lat="44.50741" lon="0.18826">
        <ele>46.4</ele>
        <time>2015-10-05T11:47:32Z</time>
      </trkpt>
      <trkpt lat="44.50721" lon="0.18766">
        <ele>46.8</ele>
        <time>2015-10-05T11:47:41Z</time>
      </trkpt>
      <trkpt lat="44.50699" lon="0.18699">
        <ele>46.4</ele>
        <time>2015-10-05T11:47:51Z</time>
      </trkpt>
      <trkpt lat="44.50675" lon="0.18624">
        <ele>46.2</ele>
        <time>2015-10-05T11:48:02Z</time>
      </trkpt>
      <trkpt lat="44.5067" lon="0.18611">
        <ele>46.2</ele>
        <time>2015-10-05T11:48:04Z</time>
      </trkpt>
      <trkpt lat="44.50649" lon="0.18543">
        <ele>46.6</ele>
        <time>2015-10-05T11:48:15Z</time>
      </trkpt>
      <trkpt lat="44.50644" lon="0.18531">
        <ele>46.4</ele>
        <time>2015-10-05T11:48:17Z</time>
      </trkpt>
      <trkpt lat="44.50641" lon="0.18519">
        <ele>46.2</ele>
        <time>2015-10-05T11:48:19Z</time>
      </trkpt>
      <trkpt lat="44.50637" lon="0.18506">
        <ele>46</ele>
        <time>2015-10-05T11:48:21Z</time>
      </trkpt>
      <trkpt lat="44.50613" lon="0.18436">
        <ele>45.8</ele>
        <time>2015-10-05T11:48:32Z</time>
      </trkpt>
      <trkpt lat="44.50596" lon="0.18386">
        <ele>45.4</ele>
        <time>2015-10-05T11:48:40Z</time>
      </trkpt>
      <trkpt lat="44.5058" lon="0.18339">
        <ele>45.8</ele>
        <time>2015-10-05T11:48:48Z</time>
      </trkpt>
      <trkpt lat="44.5056" lon="0.18276">
        <ele>46</ele>
        <time>2015-10-05T11:48:58Z</time>
      </trkpt>
      <trkpt lat="44.5054" lon="0.18214">
        <ele>46.6</ele>
        <time>2015-10-05T11:49:08Z</time>
      </trkpt>
      <trkpt lat="44.50538" lon="0.18208">
        <ele>45.4</ele>
        <time>2015-10-05T11:49:09Z</time>
      </trkpt>
      <trkpt lat="44.50536" lon="0.18202">
        <ele>46.6</ele>
        <time>2015-10-05T11:49:10Z</time>
      </trkpt>
      <trkpt lat="44.50535" lon="0.18195">
        <ele>45.4</ele>
        <time>2015-10-05T11:49:11Z</time>
      </trkpt>
      <trkpt lat="44.50528" lon="0.18159">
        <ele>45.2</ele>
        <time>2015-10-05T11:49:16Z</time>
      </trkpt>
      <trkpt lat="44.50527" lon="0.18151">
        <ele>45.2</ele>
        <time>2015-10-05T11:49:17Z</time>
      </trkpt>
      <trkpt lat="44.50531" lon="0.1813">
        <ele>45.2</ele>
        <time>2015-10-05T11:49:20Z</time>
      </trkpt>
      <trkpt lat="44.50531" lon="0.18122">
        <ele>45.2</ele>
        <time>2015-10-05T11:49:21Z</time>
      </trkpt>
      <trkpt lat="44.50528" lon="0.18109">
        <ele>45.2</ele>
        <time>2015-10-05T11:49:23Z</time>
      </trkpt>
      <trkpt lat="44.50516" lon="0.18094">
        <ele>44.8</ele>
        <time>2015-10-05T11:49:26Z</time>
      </trkpt>
      <trkpt lat="44.50506" lon="0.18089">
        <ele>45</ele>
        <time>2015-10-05T11:49:28Z</time>
      </trkpt>
      <trkpt lat="44.50502" lon="0.18085">
        <ele>45</ele>
        <time>2015-10-05T11:49:29Z</time>
      </trkpt>
      <trkpt lat="44.50498" lon="0.18079">
        <ele>45</ele>
        <time>2015-10-05T11:49:30Z</time>
      </trkpt>
      <trkpt lat="44.50487" lon="0.18052">
        <ele>44.4</ele>
        <time>2015-10-05T11:49:34Z</time>
      </trkpt>
      <trkpt lat="44.50477" lon="0.18026">
        <ele>43.8</ele>
        <time>2015-10-05T11:49:38Z</time>
      </trkpt>
      <trkpt lat="44.50473" lon="0.18013">
        <ele>44.2</ele>
        <time>2015-10-05T11:49:40Z</time>
      </trkpt>
      <trkpt lat="44.50471" lon="0.18007">
        <ele>44.8</ele>
        <time>2015-10-05T11:49:41Z</time>
      </trkpt>
      <trkpt lat="44.50453" lon="0.17952">
        <ele>44.4</ele>
        <time>2015-10-05T11:49:49Z</time>
      </trkpt>
      <trkpt lat="44.50435" lon="0.17897">
        <ele>44.2</ele>
        <time>2015-10-05T11:49:57Z</time>
      </trkpt>
      <trkpt lat="44.50413" lon="0.1783">
        <ele>44</ele>
        <time>2015-10-05T11:50:07Z</time>
      </trkpt>
      <trkpt lat="44.50402" lon="0.17796">
        <ele>43.8</ele>
        <time>2015-10-05T11:50:12Z</time>
      </trkpt>
      <trkpt lat="44.50389" lon="0.17757">
        <ele>44</ele>
        <time>2015-10-05T11:50:18Z</time>
      </trkpt>
      <trkpt lat="44.50365" lon="0.17687">
        <ele>44</ele>
        <time>2015-10-05T11:50:29Z</time>
      </trkpt>
      <trkpt lat="44.50348" lon="0.17634">
        <ele>43.6</ele>
        <time>2015-10-05T11:50:37Z</time>
      </trkpt>
      <trkpt lat="44.50331" lon="0.17582">
        <ele>43.8</ele>
        <time>2015-10-05T11:50:45Z</time>
      </trkpt>
      <trkpt lat="44.50307" lon="0.17511">
        <ele>43.6</ele>
        <time>2015-10-05T11:50:56Z</time>
      </trkpt>
      <trkpt lat="44.5029" lon="0.17457">
        <ele>43.6</ele>
        <time>2015-10-05T11:51:04Z</time>
      </trkpt>
      <trkpt lat="44.50271" lon="0.174">
        <ele>43.4</ele>
        <time>2015-10-05T11:51:13Z</time>
      </trkpt>
      <trkpt lat="44.50255" lon="0.17347">
        <ele>43.4</ele>
        <time>2015-10-05T11:51:21Z</time>
      </trkpt>
      <trkpt lat="44.50238" lon="0.17294">
        <ele>43.2</ele>
        <time>2015-10-05T11:51:30Z</time>
      </trkpt>
      <trkpt lat="44.50232" lon="0.17278">
        <ele>43</ele>
        <time>2015-10-05T11:51:35Z</time>
      </trkpt>
      <trkpt lat="44.50226" lon="0.17257">
        <ele>43.2</ele>
        <time>2015-10-05T11:51:41Z</time>
      </trkpt>
      <trkpt lat="44.50218" lon="0.17229">
        <ele>43.2</ele>
        <time>2015-10-05T11:51:47Z</time>
      </trkpt>
      <trkpt lat="44.50207" lon="0.17199">
        <ele>43.4</ele>
        <time>2015-10-05T11:51:53Z</time>
      </trkpt>
      <trkpt lat="44.50195" lon="0.17166">
        <ele>44</ele>
        <time>2015-10-05T11:51:59Z</time>
      </trkpt>
      <trkpt lat="44.50179" lon="0.17121">
        <ele>44.2</ele>
        <time>2015-10-05T11:52:08Z</time>
      </trkpt>
      <trkpt lat="44.5017" lon="0.17091">
        <ele>44.4</ele>
        <time>2015-10-05T11:52:15Z</time>
      </trkpt>
      <trkpt lat="44.50166" lon="0.17081">
        <ele>45</ele>
        <time>2015-10-05T11:52:18Z</time>
      </trkpt>
      <trkpt lat="44.50163" lon="0.17074">
        <ele>45</ele>
        <time>2015-10-05T11:52:20Z</time>
      </trkpt>
      <trkpt lat="44.50153" lon="0.17049">
        <ele>44.4</ele>
        <time>2015-10-05T11:52:26Z</time>
      </trkpt>
      <trkpt lat="44.50146" lon="0.17028">
        <ele>43.2</ele>
        <time>2015-10-05T11:52:31Z</time>
      </trkpt>
      <trkpt lat="44.50142" lon="0.17015">
        <ele>44.8</ele>
        <time>2015-10-05T11:52:34Z</time>
      </trkpt>
      <trkpt lat="44.50132" lon="0.16982">
        <ele>44</ele>
        <time>2015-10-05T11:52:41Z</time>
      </trkpt>
      <trkpt lat="44.50124" lon="0.16957">
        <ele>44</ele>
        <time>2015-10-05T11:52:47Z</time>
      </trkpt>
      <trkpt lat="44.50115" lon="0.16925">
        <ele>44</ele>
        <time>2015-10-05T11:52:55Z</time>
      </trkpt>
      <trkpt lat="44.50114" lon="0.16916">
        <ele>44</ele>
        <time>2015-10-05T11:52:58Z</time>
      </trkpt>
      <trkpt lat="44.50116" lon="0.16914">
        <ele>44</ele>
        <time>2015-10-05T11:52:59Z</time>
      </trkpt>
      <trkpt lat="44.50127" lon="0.1691">
        <ele>44</ele>
        <time>2015-10-05T11:53:04Z</time>
      </trkpt>
      <trkpt lat="44.50134" lon="0.16901">
        <ele>44.2</ele>
        <time>2015-10-05T11:53:09Z</time>
      </trkpt>
      <trkpt lat="44.50136" lon="0.169">
        <ele>44.2</ele>
        <time>2015-10-05T11:53:10Z</time>
      </trkpt>
      <trkpt lat="44.50145" lon="0.1689">
        <ele>44.4</ele>
        <time>2015-10-05T11:53:17Z</time>
      </trkpt>
      <trkpt lat="44.50145" lon="0.16889">
        <ele>44.2</ele>
        <time>2015-10-05T11:53:18Z</time>
      </trkpt>
      <trkpt lat="44.50149" lon="0.16887">
        <ele>44.2</ele>
        <time>2015-10-05T11:53:21Z</time>
      </trkpt>
      <trkpt lat="44.50147" lon="0.16895">
        <ele>44.2</ele>
        <time>2015-10-05T11:53:24Z</time>
      </trkpt>
      <trkpt lat="44.50136" lon="0.16897">
        <ele>44.2</ele>
        <time>2015-10-05T11:53:28Z</time>
      </trkpt>
      <trkpt lat="44.50122" lon="0.16908">
        <ele>44</ele>
        <time>2015-10-05T11:53:33Z</time>
      </trkpt>
      <trkpt lat="44.50118" lon="0.16909">
        <ele>44</ele>
        <time>2015-10-05T11:53:34Z</time>
      </trkpt>
      <trkpt lat="44.5011" lon="0.16906">
        <ele>44</ele>
        <time>2015-10-05T11:53:38Z</time>
      </trkpt>
      <trkpt lat="44.50109" lon="0.16906">
        <ele>43.6</ele>
        <time>2015-10-05T11:53:55Z</time>
      </trkpt>
      <trkpt lat="44.50108" lon="0.16903">
        <ele>43.6</ele>
        <time>2015-10-05T11:54:00Z</time>
      </trkpt>
      <trkpt lat="44.50107" lon="0.16901">
        <ele>43.6</ele>
        <time>2015-10-05T11:54:01Z</time>
      </trkpt>
      <trkpt lat="44.50103" lon="0.16889">
        <ele>43.8</ele>
        <time>2015-10-05T11:54:08Z</time>
      </trkpt>
      <trkpt lat="44.50103" lon="0.16888">
        <ele>44</ele>
        <time>2015-10-05T11:54:09Z</time>
      </trkpt>
      <trkpt lat="44.50102" lon="0.16885">
        <ele>43.8</ele>
        <time>2015-10-05T11:54:15Z</time>
      </trkpt>
      <trkpt lat="44.50099" lon="0.16874">
        <ele>44.2</ele>
        <time>2015-10-05T11:54:27Z</time>
      </trkpt>
      <trkpt lat="44.50098" lon="0.16871">
        <ele>44.2</ele>
        <time>2015-10-05T11:54:28Z</time>
      </trkpt>
      <trkpt lat="44.50089" lon="0.16855">
        <ele>44.2</ele>
        <time>2015-10-05T11:54:33Z</time>
      </trkpt>
      <trkpt lat="44.50081" lon="0.16835">
        <ele>44.2</ele>
        <time>2015-10-05T11:54:40Z</time>
      </trkpt>
      <trkpt lat="44.50076" lon="0.16822">
        <ele>44.2</ele>
        <time>2015-10-05T11:54:45Z</time>
      </trkpt>
      <trkpt lat="44.50067" lon="0.16804">
        <ele>44.2</ele>
        <time>2015-10-05T11:54:51Z</time>
      </trkpt>
      <trkpt lat="44.50052" lon="0.16775">
        <ele>43.8</ele>
        <time>2015-10-05T11:54:57Z</time>
      </trkpt>
      <trkpt lat="44.50034" lon="0.16737">
        <ele>44</ele>
        <time>2015-10-05T11:55:05Z</time>
      </trkpt>
      <trkpt lat="44.5002" lon="0.16698">
        <ele>43.8</ele>
        <time>2015-10-05T11:55:13Z</time>
      </trkpt>
      <trkpt lat="44.50008" lon="0.1667">
        <ele>44</ele>
        <time>2015-10-05T11:55:20Z</time>
      </trkpt>
      <trkpt lat="44.49997" lon="0.16642">
        <ele>43.4</ele>
        <time>2015-10-05T11:55:27Z</time>
      </trkpt>
      <trkpt lat="44.49977" lon="0.16612">
        <ele>43</ele>
        <time>2015-10-05T11:55:35Z</time>
      </trkpt>
      <trkpt lat="44.49962" lon="0.16592">
        <ele>42.6</ele>
        <time>2015-10-05T11:55:42Z</time>
      </trkpt>
      <trkpt lat="44.49954" lon="0.1657">
        <ele>42.4</ele>
        <time>2015-10-05T11:55:49Z</time>
      </trkpt>
      <trkpt lat="44.49952" lon="0.16565">
        <ele>42.4</ele>
        <time>2015-10-05T11:55:53Z</time>
      </trkpt>
      <trkpt lat="44.4995" lon="0.16564">
        <ele>42.4</ele>
        <time>2015-10-05T11:56:21Z</time>
      </trkpt>
      <trkpt lat="44.4995" lon="0.1657">
        <ele>42.6</ele>
        <time>2015-10-05T11:56:23Z</time>
      </trkpt>
      <trkpt lat="44.49952" lon="0.16571">
        <ele>42.6</ele>
        <time>2015-10-05T11:56:25Z</time>
      </trkpt>
      <trkpt lat="44.49953" lon="0.16572">
        <ele>42.6</ele>
        <time>2015-10-05T11:56:27Z</time>
      </trkpt>
      <trkpt lat="44.49954" lon="0.16578">
        <ele>42.6</ele>
        <time>2015-10-05T11:56:31Z</time>
      </trkpt>
      <trkpt lat="44.49953" lon="0.1658">
        <ele>42.8</ele>
        <time>2015-10-05T11:56:32Z</time>
      </trkpt>
      <trkpt lat="44.49952" lon="0.16588">
        <ele>42.8</ele>
        <time>2015-10-05T11:56:36Z</time>
      </trkpt>
      <trkpt lat="44.49951" lon="0.16591">
        <ele>43</ele>
        <time>2015-10-05T11:56:38Z</time>
      </trkpt>
      <trkpt lat="44.49952" lon="0.16593">
        <ele>43</ele>
        <time>2015-10-05T11:56:40Z</time>
      </trkpt>
      <trkpt lat="44.49951" lon="0.16595">
        <ele>42.8</ele>
        <time>2015-10-05T11:56:42Z</time>
      </trkpt>
      <trkpt lat="44.49951" lon="0.16595">
        <ele>43</ele>
        <time>2015-10-05T11:56:44Z</time>
      </trkpt>
      <trkpt lat="44.49955" lon="0.16595">
        <ele>42.8</ele>
        <time>2015-10-05T11:57:12Z</time>
      </trkpt>
      <trkpt lat="44.4996" lon="0.16595">
        <ele>42.8</ele>
        <time>2015-10-05T11:57:16Z</time>
      </trkpt>
      <trkpt lat="44.49963" lon="0.1659">
        <ele>42.6</ele>
        <time>2015-10-05T11:57:24Z</time>
      </trkpt>
      <trkpt lat="44.49962" lon="0.16582">
        <ele>42.6</ele>
        <time>2015-10-05T11:57:32Z</time>
      </trkpt>
      <trkpt lat="44.4996" lon="0.16578">
        <ele>42.6</ele>
        <time>2015-10-05T11:57:39Z</time>
      </trkpt>
      <trkpt lat="44.49956" lon="0.16568">
        <ele>43</ele>
        <time>2015-10-05T11:58:35Z</time>
      </trkpt>
      <trkpt lat="44.49955" lon="0.1656">
        <ele>42.4</ele>
        <time>2015-10-05T11:58:37Z</time>
      </trkpt>
      <trkpt lat="44.49949" lon="0.16547">
        <ele>43</ele>
        <time>2015-10-05T11:58:43Z</time>
      </trkpt>
      <trkpt lat="44.49941" lon="0.16527">
        <ele>43.2</ele>
        <time>2015-10-05T11:58:49Z</time>
      </trkpt>
      <trkpt lat="44.49939" lon="0.16514">
        <ele>42.8</ele>
        <time>2015-10-05T11:58:54Z</time>
      </trkpt>
      <trkpt lat="44.4993" lon="0.16493">
        <ele>42.2</ele>
        <time>2015-10-05T11:59:00Z</time>
      </trkpt>
      <trkpt lat="44.49927" lon="0.16482">
        <ele>41.8</ele>
        <time>2015-10-05T11:59:06Z</time>
      </trkpt>
      <trkpt lat="44.49923" lon="0.16468">
        <ele>41.6</ele>
        <time>2015-10-05T11:59:11Z</time>
      </trkpt>
      <trkpt lat="44.4992" lon="0.16461">
        <ele>41.4</ele>
        <time>2015-10-05T11:59:13Z</time>
      </trkpt>
      <trkpt lat="44.49907" lon="0.16439">
        <ele>41.8</ele>
        <time>2015-10-05T11:59:19Z</time>
      </trkpt>
      <trkpt lat="44.49905" lon="0.16434">
        <ele>41.8</ele>
        <time>2015-10-05T11:59:20Z</time>
      </trkpt>
      <trkpt lat="44.499" lon="0.16419">
        <ele>42.2</ele>
        <time>2015-10-05T11:59:24Z</time>
      </trkpt>
      <trkpt lat="44.49894" lon="0.16411">
        <ele>42.6</ele>
        <time>2015-10-05T11:59:27Z</time>
      </trkpt>
      <trkpt lat="44.4989" lon="0.16404">
        <ele>43</ele>
        <time>2015-10-05T11:59:30Z</time>
      </trkpt>
      <trkpt lat="44.4988" lon="0.16395">
        <ele>43.8</ele>
        <time>2015-10-05T11:59:36Z</time>
      </trkpt>
      <trkpt lat="44.49879" lon="0.16393">
        <ele>43.8</ele>
        <time>2015-10-05T11:59:37Z</time>
      </trkpt>
      <trkpt lat="44.49867" lon="0.16366">
        <ele>44.6</ele>
        <time>2015-10-05T11:59:46Z</time>
      </trkpt>
      <trkpt lat="44.49866" lon="0.16364">
        <ele>44.8</ele>
        <time>2015-10-05T11:59:47Z</time>
      </trkpt>
      <trkpt lat="44.49861" lon="0.16356">
        <ele>45</ele>
        <time>2015-10-05T11:59:52Z</time>
      </trkpt>
      <trkpt lat="44.4985" lon="0.16356">
        <ele>45.2</ele>
        <time>2015-10-05T12:00:20Z</time>
      </trkpt>
      <trkpt lat="44.49847" lon="0.16357">
        <ele>45.2</ele>
        <time>2015-10-05T12:00:21Z</time>
      </trkpt>
      <trkpt lat="44.49841" lon="0.16363">
        <ele>45</ele>
        <time>2015-10-05T12:00:24Z</time>
      </trkpt>
      <trkpt lat="44.49833" lon="0.1637">
        <ele>45</ele>
        <time>2015-10-05T12:00:28Z</time>
      </trkpt>
      <trkpt lat="44.49819" lon="0.16386">
        <ele>44.8</ele>
        <time>2015-10-05T12:00:35Z</time>
      </trkpt>
      <trkpt lat="44.49805" lon="0.16408">
        <ele>44.4</ele>
        <time>2015-10-05T12:00:42Z</time>
      </trkpt>
      <trkpt lat="44.49793" lon="0.16428">
        <ele>44</ele>
        <time>2015-10-05T12:00:48Z</time>
      </trkpt>
      <trkpt lat="44.49789" lon="0.16437">
        <ele>43.8</ele>
        <time>2015-10-05T12:00:50Z</time>
      </trkpt>
      <trkpt lat="44.49783" lon="0.16458">
        <ele>43.4</ele>
        <time>2015-10-05T12:00:54Z</time>
      </trkpt>
      <trkpt lat="44.49774" lon="0.16478">
        <ele>43</ele>
        <time>2015-10-05T12:00:59Z</time>
      </trkpt>
      <trkpt lat="44.49771" lon="0.16483">
        <ele>42.8</ele>
        <time>2015-10-05T12:01:01Z</time>
      </trkpt>
      <trkpt lat="44.49764" lon="0.16489">
        <ele>42.8</ele>
        <time>2015-10-05T12:01:04Z</time>
      </trkpt>
      <trkpt lat="44.49762" lon="0.16496">
        <ele>42.6</ele>
        <time>2015-10-05T12:01:06Z</time>
      </trkpt>
      <trkpt lat="44.49759" lon="0.16499">
        <ele>42.6</ele>
        <time>2015-10-05T12:01:08Z</time>
      </trkpt>
      <trkpt lat="44.49757" lon="0.16501">
        <ele>42.8</ele>
        <time>2015-10-05T12:01:10Z</time>
      </trkpt>
      <trkpt lat="44.49758" lon="0.16506">
        <ele>42.8</ele>
        <time>2015-10-05T12:01:13Z</time>
      </trkpt>
      <trkpt lat="44.49758" lon="0.16506">
        <ele>42.8</ele>
        <time>2015-10-05T12:01:14Z</time>
      </trkpt>
      <trkpt lat="44.4976" lon="0.16516">
        <ele>42.8</ele>
        <time>2015-10-05T12:02:20Z</time>
      </trkpt>
      <trkpt lat="44.49758" lon="0.16532">
        <ele>42.8</ele>
        <time>2015-10-05T12:02:26Z</time>
      </trkpt>
      <trkpt lat="44.49757" lon="0.16545">
        <ele>43.2</ele>
        <time>2015-10-05T12:02:30Z</time>
      </trkpt>
      <trkpt lat="44.49753" lon="0.16556">
        <ele>43.2</ele>
        <time>2015-10-05T12:02:35Z</time>
      </trkpt>
      <trkpt lat="44.4975" lon="0.16565">
        <ele>43.6</ele>
        <time>2015-10-05T12:02:41Z</time>
      </trkpt>
      <trkpt lat="44.4975" lon="0.16566">
        <ele>43.6</ele>
        <time>2015-10-05T12:02:45Z</time>
      </trkpt>
      <trkpt lat="44.49753" lon="0.16564">
        <ele>43.6</ele>
        <time>2015-10-05T12:03:17Z</time>
      </trkpt>
      <trkpt lat="44.49755" lon="0.16557">
        <ele>43.6</ele>
        <time>2015-10-05T12:03:20Z</time>
      </trkpt>
      <trkpt lat="44.49756" lon="0.16554">
        <ele>43.6</ele>
        <time>2015-10-05T12:03:21Z</time>
      </trkpt>
      <trkpt lat="44.4976" lon="0.16536">
        <ele>43</ele>
        <time>2015-10-05T12:03:27Z</time>
      </trkpt>
      <trkpt lat="44.49762" lon="0.16535">
        <ele>43.2</ele>
        <time>2015-10-05T12:03:28Z</time>
      </trkpt>
      <trkpt lat="44.49766" lon="0.16532">
        <ele>43</ele>
        <time>2015-10-05T12:03:32Z</time>
      </trkpt>
      <trkpt lat="44.49767" lon="0.1653">
        <ele>43</ele>
        <time>2015-10-05T12:03:33Z</time>
      </trkpt>
      <trkpt lat="44.49767" lon="0.16529">
        <ele>43.2</ele>
        <time>2015-10-05T12:03:34Z</time>
      </trkpt>
      <trkpt lat="44.4977" lon="0.16523">
        <ele>43</ele>
        <time>2015-10-05T12:03:38Z</time>
      </trkpt>
      <trkpt lat="44.49773" lon="0.16514">
        <ele>43.2</ele>
        <time>2015-10-05T12:04:32Z</time>
      </trkpt>
      <trkpt lat="44.49776" lon="0.16499">
        <ele>43</ele>
        <time>2015-10-05T12:04:37Z</time>
      </trkpt>
      <trkpt lat="44.49778" lon="0.16483">
        <ele>43.2</ele>
        <time>2015-10-05T12:04:42Z</time>
      </trkpt>
      <trkpt lat="44.49789" lon="0.16462">
        <ele>43.4</ele>
        <time>2015-10-05T12:04:49Z</time>
      </trkpt>
      <trkpt lat="44.498" lon="0.1644">
        <ele>44.2</ele>
        <time>2015-10-05T12:04:56Z</time>
      </trkpt>
      <trkpt lat="44.49809" lon="0.16419">
        <ele>44.6</ele>
        <time>2015-10-05T12:05:01Z</time>
      </trkpt>
      <trkpt lat="44.49812" lon="0.16412">
        <ele>44.8</ele>
        <time>2015-10-05T12:05:03Z</time>
      </trkpt>
      <trkpt lat="44.49819" lon="0.16395">
        <ele>44.8</ele>
        <time>2015-10-05T12:05:07Z</time>
      </trkpt>
      <trkpt lat="44.49831" lon="0.16375">
        <ele>45.2</ele>
        <time>2015-10-05T12:05:14Z</time>
      </trkpt>
      <trkpt lat="44.49834" lon="0.16373">
        <ele>45.4</ele>
        <time>2015-10-05T12:05:20Z</time>
      </trkpt>
      <trkpt lat="44.49835" lon="0.16373">
        <ele>45.2</ele>
        <time>2015-10-05T12:05:26Z</time>
      </trkpt>
      <trkpt lat="44.49835" lon="0.16373">
        <ele>45.2</ele>
        <time>2015-10-05T12:05:34Z</time>
      </trkpt>
      <trkpt lat="44.49828" lon="0.1638">
        <ele>47</ele>
        <time>2015-10-05T12:46:22Z</time>
      </trkpt>
      <trkpt lat="44.49833" lon="0.16385">
        <ele>47.2</ele>
        <time>2015-10-05T12:47:41Z</time>
      </trkpt>
      <trkpt lat="44.49794" lon="0.16435">
        <ele>46</ele>
        <time>2015-10-05T12:48:06Z</time>
      </trkpt>
      <trkpt lat="44.49793" lon="0.16437">
        <ele>46</ele>
        <time>2015-10-05T12:48:09Z</time>
      </trkpt>
      <trkpt lat="44.49793" lon="0.16437">
        <ele>45.8</ele>
        <time>2015-10-05T12:48:10Z</time>
      </trkpt>
      <trkpt lat="44.49788" lon="0.16443">
        <ele>46</ele>
        <time>2015-10-05T12:48:57Z</time>
      </trkpt>
      <trkpt lat="44.49787" lon="0.16445">
        <ele>45.8</ele>
        <time>2015-10-05T12:48:58Z</time>
      </trkpt>
      <trkpt lat="44.49783" lon="0.16461">
        <ele>45.6</ele>
        <time>2015-10-05T12:49:02Z</time>
      </trkpt>
      <trkpt lat="44.4978" lon="0.1647">
        <ele>45.4</ele>
        <time>2015-10-05T12:49:04Z</time>
      </trkpt>
      <trkpt lat="44.49773" lon="0.1649">
        <ele>45.2</ele>
        <time>2015-10-05T12:49:09Z</time>
      </trkpt>
      <trkpt lat="44.4977" lon="0.16497">
        <ele>44.8</ele>
        <time>2015-10-05T12:49:11Z</time>
      </trkpt>
      <trkpt lat="44.49769" lon="0.16503">
        <ele>44.8</ele>
        <time>2015-10-05T12:49:13Z</time>
      </trkpt>
      <trkpt lat="44.49772" lon="0.16519">
        <ele>45</ele>
        <time>2015-10-05T12:49:20Z</time>
      </trkpt>
      <trkpt lat="44.49774" lon="0.16523">
        <ele>46.4</ele>
        <time>2015-10-05T12:49:25Z</time>
      </trkpt>
      <trkpt lat="44.49775" lon="0.16524">
        <ele>46</ele>
        <time>2015-10-05T12:49:27Z</time>
      </trkpt>
      <trkpt lat="44.49775" lon="0.16525">
        <ele>45</ele>
        <time>2015-10-05T12:49:28Z</time>
      </trkpt>
      <trkpt lat="44.49782" lon="0.16531">
        <ele>45.4</ele>
        <time>2015-10-05T12:49:32Z</time>
      </trkpt>
      <trkpt lat="44.49798" lon="0.16549">
        <ele>45.2</ele>
        <time>2015-10-05T12:49:39Z</time>
      </trkpt>
      <trkpt lat="44.49808" lon="0.16576">
        <ele>45</ele>
        <time>2015-10-05T12:49:45Z</time>
      </trkpt>
      <trkpt lat="44.49821" lon="0.16616">
        <ele>44.6</ele>
        <time>2015-10-05T12:49:54Z</time>
      </trkpt>
      <trkpt lat="44.49828" lon="0.16635">
        <ele>44.4</ele>
        <time>2015-10-05T12:50:00Z</time>
      </trkpt>
      <trkpt lat="44.49838" lon="0.16647">
        <ele>44.6</ele>
        <time>2015-10-05T12:50:05Z</time>
      </trkpt>
      <trkpt lat="44.49852" lon="0.16657">
        <ele>45</ele>
        <time>2015-10-05T12:50:10Z</time>
      </trkpt>
      <trkpt lat="44.49857" lon="0.16654">
        <ele>45</ele>
        <time>2015-10-05T12:50:11Z</time>
      </trkpt>
      <trkpt lat="44.49876" lon="0.16635">
        <ele>45.8</ele>
        <time>2015-10-05T12:50:19Z</time>
      </trkpt>
      <trkpt lat="44.49881" lon="0.16633">
        <ele>45.8</ele>
        <time>2015-10-05T12:50:36Z</time>
      </trkpt>
      <trkpt lat="44.49883" lon="0.16636">
        <ele>45.8</ele>
        <time>2015-10-05T12:50:37Z</time>
      </trkpt>
      <trkpt lat="44.49884" lon="0.16639">
        <ele>46</ele>
        <time>2015-10-05T12:50:38Z</time>
      </trkpt>
      <trkpt lat="44.49893" lon="0.16659">
        <ele>46.4</ele>
        <time>2015-10-05T12:50:45Z</time>
      </trkpt>
      <trkpt lat="44.49899" lon="0.16672">
        <ele>46.6</ele>
        <time>2015-10-05T12:50:51Z</time>
      </trkpt>
      <trkpt lat="44.49909" lon="0.1669">
        <ele>46.4</ele>
        <time>2015-10-05T12:50:57Z</time>
      </trkpt>
      <trkpt lat="44.49923" lon="0.16716">
        <ele>46.2</ele>
        <time>2015-10-05T12:51:05Z</time>
      </trkpt>
      <trkpt lat="44.49928" lon="0.16724">
        <ele>46.2</ele>
        <time>2015-10-05T12:51:10Z</time>
      </trkpt>
      <trkpt lat="44.49941" lon="0.16716">
        <ele>46.4</ele>
        <time>2015-10-05T12:51:16Z</time>
      </trkpt>
      <trkpt lat="44.49951" lon="0.16714">
        <ele>46.6</ele>
        <time>2015-10-05T12:51:21Z</time>
      </trkpt>
      <trkpt lat="44.49951" lon="0.16725">
        <ele>46.8</ele>
        <time>2015-10-05T12:51:25Z</time>
      </trkpt>
      <trkpt lat="44.4995" lon="0.16744">
        <ele>46.8</ele>
        <time>2015-10-05T12:51:28Z</time>
      </trkpt>
      <trkpt lat="44.49951" lon="0.16751">
        <ele>46.8</ele>
        <time>2015-10-05T12:51:29Z</time>
      </trkpt>
      <trkpt lat="44.49951" lon="0.16758">
        <ele>47</ele>
        <time>2015-10-05T12:51:30Z</time>
      </trkpt>
      <trkpt lat="44.49953" lon="0.1677">
        <ele>47.2</ele>
        <time>2015-10-05T12:51:32Z</time>
      </trkpt>
      <trkpt lat="44.49953" lon="0.16803">
        <ele>47.2</ele>
        <time>2015-10-05T12:51:38Z</time>
      </trkpt>
      <trkpt lat="44.49959" lon="0.16834">
        <ele>47.2</ele>
        <time>2015-10-05T12:51:44Z</time>
      </trkpt>
      <trkpt lat="44.49973" lon="0.16863">
        <ele>47.6</ele>
        <time>2015-10-05T12:51:52Z</time>
      </trkpt>
      <trkpt lat="44.49983" lon="0.16865">
        <ele>48</ele>
        <time>2015-10-05T12:51:56Z</time>
      </trkpt>
      <trkpt lat="44.50005" lon="0.1686">
        <ele>48</ele>
        <time>2015-10-05T12:52:03Z</time>
      </trkpt>
      <trkpt lat="44.50008" lon="0.1686">
        <ele>48.2</ele>
        <time>2015-10-05T12:52:04Z</time>
      </trkpt>
      <trkpt lat="44.50026" lon="0.16857">
        <ele>48.4</ele>
        <time>2015-10-05T12:52:10Z</time>
      </trkpt>
      <trkpt lat="44.50041" lon="0.16854">
        <ele>48.4</ele>
        <time>2015-10-05T12:52:15Z</time>
      </trkpt>
      <trkpt lat="44.50057" lon="0.16846">
        <ele>48.8</ele>
        <time>2015-10-05T12:52:21Z</time>
      </trkpt>
      <trkpt lat="44.50072" lon="0.16836">
        <ele>48.8</ele>
        <time>2015-10-05T12:52:29Z</time>
      </trkpt>
      <trkpt lat="44.50075" lon="0.1684">
        <ele>48.8</ele>
        <time>2015-10-05T12:52:34Z</time>
      </trkpt>
      <trkpt lat="44.50081" lon="0.16846">
        <ele>48.8</ele>
        <time>2015-10-05T12:52:41Z</time>
      </trkpt>
      <trkpt lat="44.50084" lon="0.16851">
        <ele>48.6</ele>
        <time>2015-10-05T12:52:47Z</time>
      </trkpt>
      <trkpt lat="44.50085" lon="0.16853">
        <ele>48.6</ele>
        <time>2015-10-05T12:52:51Z</time>
      </trkpt>
      <trkpt lat="44.50091" lon="0.1686">
        <ele>48.6</ele>
        <time>2015-10-05T12:52:54Z</time>
      </trkpt>
      <trkpt lat="44.50098" lon="0.16864">
        <ele>48.6</ele>
        <time>2015-10-05T12:52:57Z</time>
      </trkpt>
      <trkpt lat="44.501" lon="0.16866">
        <ele>48.6</ele>
        <time>2015-10-05T12:52:58Z</time>
      </trkpt>
      <trkpt lat="44.50104" lon="0.1687">
        <ele>48.6</ele>
        <time>2015-10-05T12:53:00Z</time>
      </trkpt>
      <trkpt lat="44.5011" lon="0.1687">
        <ele>48.6</ele>
        <time>2015-10-05T12:53:02Z</time>
      </trkpt>
      <trkpt lat="44.50127" lon="0.16858">
        <ele>48.8</ele>
        <time>2015-10-05T12:53:07Z</time>
      </trkpt>
      <trkpt lat="44.50131" lon="0.16856">
        <ele>48.6</ele>
        <time>2015-10-05T12:53:08Z</time>
      </trkpt>
      <trkpt lat="44.50158" lon="0.16835">
        <ele>48.6</ele>
        <time>2015-10-05T12:53:16Z</time>
      </trkpt>
      <trkpt lat="44.50187" lon="0.16812">
        <ele>48.6</ele>
        <time>2015-10-05T12:53:25Z</time>
      </trkpt>
      <trkpt lat="44.50201" lon="0.168">
        <ele>48.6</ele>
        <time>2015-10-05T12:53:29Z</time>
      </trkpt>
      <trkpt lat="44.50212" lon="0.16792">
        <ele>48.8</ele>
        <time>2015-10-05T12:53:32Z</time>
      </trkpt>
      <trkpt lat="44.50225" lon="0.16786">
        <ele>48.6</ele>
        <time>2015-10-05T12:53:36Z</time>
      </trkpt>
      <trkpt lat="44.50228" lon="0.16788">
        <ele>48.8</ele>
        <time>2015-10-05T12:53:37Z</time>
      </trkpt>
      <trkpt lat="44.50236" lon="0.16795">
        <ele>49</ele>
        <time>2015-10-05T12:53:40Z</time>
      </trkpt>
      <trkpt lat="44.5024" lon="0.16801">
        <ele>49</ele>
        <time>2015-10-05T12:53:42Z</time>
      </trkpt>
      <trkpt lat="44.50248" lon="0.16812">
        <ele>49.2</ele>
        <time>2015-10-05T12:53:46Z</time>
      </trkpt>
      <trkpt lat="44.50254" lon="0.16818">
        <ele>49.2</ele>
        <time>2015-10-05T12:53:49Z</time>
      </trkpt>
      <trkpt lat="44.50262" lon="0.16835">
        <ele>49.6</ele>
        <time>2015-10-05T12:53:55Z</time>
      </trkpt>
      <trkpt lat="44.50266" lon="0.16839">
        <ele>49.8</ele>
        <time>2015-10-05T12:53:57Z</time>
      </trkpt>
      <trkpt lat="44.50271" lon="0.16838">
        <ele>49.8</ele>
        <time>2015-10-05T12:53:59Z</time>
      </trkpt>
      <trkpt lat="44.50279" lon="0.16828">
        <ele>50</ele>
        <time>2015-10-05T12:54:05Z</time>
      </trkpt>
      <trkpt lat="44.5028" lon="0.16828">
        <ele>49.6</ele>
        <time>2015-10-05T12:54:07Z</time>
      </trkpt>
      <trkpt lat="44.50281" lon="0.16829">
        <ele>50.6</ele>
        <time>2015-10-05T12:57:18Z</time>
      </trkpt>
    </trkseg>
  </trk>
</gpx>